<?xml version="1.0" encoding="UTF-8" standalone="no" ?>
<gpx xmlns="http://www.topografix.com/GPX/1/1" xmlns:xsi="http://www.w3.org/2001/XMLSchema-instance" xsi:schemaLocation="http://www.topografix.com/GPX/1/1 http://www.topografix.com/GPX/1/1/gpx.xsd" version="1.1" creator="VisuGPX - https://www.visugpx.com">
  <metadata>
    <name>Vosges-Juin2021</name>
  </metadata>
  <trk>
    <name><![CDATA[2021-06-17_09-10_Thu]]></name>
    <extensions>
      <line xmlns="http://www.topografix.com/GPX/gpx_style/0/2">
        <color>00FF00</color>
        <width>4</width>
      </line>
    </extensions>
    <trkseg>
      <trkpt lat="48.08643" lon="6.92477">
        <ele>774.16</ele>
        <time>2021-06-23T09:52:30Z</time>
      </trkpt>
      <trkpt lat="48.08643" lon="6.92477">
        <ele>774.16</ele>
        <time>2021-06-23T09:52:30Z</time>
      </trkpt>
      <trkpt lat="48.08616" lon="6.92453">
        <ele>766.98</ele>
        <time>2021-06-23T09:52:35Z</time>
      </trkpt>
      <trkpt lat="48.08601" lon="6.92437">
        <ele>765.54</ele>
        <time>2021-06-23T09:52:39Z</time>
      </trkpt>
      <trkpt lat="48.08582" lon="6.9241">
        <ele>767.64</ele>
        <time>2021-06-23T09:52:44Z</time>
      </trkpt>
      <trkpt lat="48.0859" lon="6.9252">
        <ele>747.62</ele>
        <time>2021-06-23T09:52:52Z</time>
      </trkpt>
      <trkpt lat="48.08589" lon="6.92528">
        <ele>747.19</ele>
        <time>2021-06-23T09:52:59Z</time>
      </trkpt>
      <trkpt lat="48.08555" lon="6.92534">
        <ele>743.43</ele>
        <time>2021-06-23T09:53:03Z</time>
      </trkpt>
      <trkpt lat="48.08482" lon="6.92561">
        <ele>739.02</ele>
        <time>2021-06-23T09:53:07Z</time>
      </trkpt>
      <trkpt lat="48.08473" lon="6.92568">
        <ele>738.06</ele>
        <time>2021-06-23T09:53:10Z</time>
      </trkpt>
      <trkpt lat="48.08462" lon="6.92582">
        <ele>736.5</ele>
        <time>2021-06-23T09:53:14Z</time>
      </trkpt>
      <trkpt lat="48.08458" lon="6.9259">
        <ele>735.16</ele>
        <time>2021-06-23T09:53:17Z</time>
      </trkpt>
      <trkpt lat="48.08457" lon="6.92599">
        <ele>733.86</ele>
        <time>2021-06-23T09:53:21Z</time>
      </trkpt>
      <trkpt lat="48.08459" lon="6.9261">
        <ele>732.73</ele>
        <time>2021-06-23T09:53:25Z</time>
      </trkpt>
      <trkpt lat="48.08476" lon="6.9263">
        <ele>732.3</ele>
        <time>2021-06-23T09:53:28Z</time>
      </trkpt>
      <trkpt lat="48.08479" lon="6.92636">
        <ele>731.81</ele>
        <time>2021-06-23T09:53:32Z</time>
      </trkpt>
      <trkpt lat="48.0848" lon="6.92644">
        <ele>731.57</ele>
        <time>2021-06-23T09:53:36Z</time>
      </trkpt>
      <trkpt lat="48.08478" lon="6.92652">
        <ele>731.41</ele>
        <time>2021-06-23T09:53:39Z</time>
      </trkpt>
      <trkpt lat="48.08474" lon="6.92658">
        <ele>731.13</ele>
        <time>2021-06-23T09:53:43Z</time>
      </trkpt>
      <trkpt lat="48.08468" lon="6.92661">
        <ele>730.8</ele>
        <time>2021-06-23T09:53:47Z</time>
      </trkpt>
      <trkpt lat="48.08433" lon="6.92655">
        <ele>728.55</ele>
        <time>2021-06-23T09:53:50Z</time>
      </trkpt>
      <trkpt lat="48.08377" lon="6.92651">
        <ele>721.84</ele>
        <time>2021-06-23T09:53:54Z</time>
      </trkpt>
      <trkpt lat="48.08385" lon="6.92705">
        <ele>723.7</ele>
        <time>2021-06-23T09:54:04Z</time>
      </trkpt>
      <trkpt lat="48.0839" lon="6.92817">
        <ele>723.16</ele>
        <time>2021-06-23T09:54:15Z</time>
      </trkpt>
      <trkpt lat="48.08396" lon="6.9288">
        <ele>724.47</ele>
        <time>2021-06-23T09:54:25Z</time>
      </trkpt>
      <trkpt lat="48.08399" lon="6.92929">
        <ele>725.7</ele>
        <time>2021-06-23T09:54:35Z</time>
      </trkpt>
      <trkpt lat="48.08399" lon="6.92975">
        <ele>726.57</ele>
        <time>2021-06-23T09:54:46Z</time>
      </trkpt>
      <trkpt lat="48.08392" lon="6.93125">
        <ele>730.16</ele>
        <time>2021-06-23T09:54:56Z</time>
      </trkpt>
      <trkpt lat="48.08381" lon="6.93299">
        <ele>726.28</ele>
        <time>2021-06-23T09:55:06Z</time>
      </trkpt>
      <trkpt lat="48.0835" lon="6.9373">
        <ele>733.76</ele>
        <time>2021-06-23T09:55:17Z</time>
      </trkpt>
      <trkpt lat="48.08312" lon="6.94414">
        <ele>747.72</ele>
        <time>2021-06-23T09:55:27Z</time>
      </trkpt>
      <trkpt lat="48.0831" lon="6.94487">
        <ele>748.52</ele>
        <time>2021-06-23T09:55:37Z</time>
      </trkpt>
      <trkpt lat="48.08323" lon="6.94598">
        <ele>746.53</ele>
        <time>2021-06-23T09:55:48Z</time>
      </trkpt>
      <trkpt lat="48.08321" lon="6.94642">
        <ele>746.08</ele>
        <time>2021-06-23T09:55:58Z</time>
      </trkpt>
      <trkpt lat="48.08317" lon="6.94662">
        <ele>745.37</ele>
        <time>2021-06-23T09:56:08Z</time>
      </trkpt>
      <trkpt lat="48.08306" lon="6.94697">
        <ele>745.2</ele>
        <time>2021-06-23T09:56:19Z</time>
      </trkpt>
      <trkpt lat="48.08292" lon="6.94719">
        <ele>745.82</ele>
        <time>2021-06-23T09:56:29Z</time>
      </trkpt>
      <trkpt lat="48.08284" lon="6.94723">
        <ele>745.65</ele>
        <time>2021-06-23T09:56:30Z</time>
      </trkpt>
      <trkpt lat="48.08284" lon="6.94723">
        <ele>745.65</ele>
        <time>2021-06-23T09:56:30Z</time>
      </trkpt>
      <trkpt lat="48.08281" lon="6.94724">
        <ele>745.49</ele>
        <time>2021-06-23T09:56:33Z</time>
      </trkpt>
      <trkpt lat="48.08262" lon="6.94723">
        <ele>745.08</ele>
        <time>2021-06-23T09:56:37Z</time>
      </trkpt>
      <trkpt lat="48.08257" lon="6.94719">
        <ele>744.84</ele>
        <time>2021-06-23T09:56:41Z</time>
      </trkpt>
      <trkpt lat="48.08242" lon="6.94714">
        <ele>744.72</ele>
        <time>2021-06-23T09:56:45Z</time>
      </trkpt>
      <trkpt lat="48.08222" lon="6.94716">
        <ele>744.79</ele>
        <time>2021-06-23T09:56:49Z</time>
      </trkpt>
      <trkpt lat="48.08048" lon="6.94785">
        <ele>749.86</ele>
        <time>2021-06-23T09:56:52Z</time>
      </trkpt>
      <trkpt lat="48.08029" lon="6.94795">
        <ele>749.87</ele>
        <time>2021-06-23T09:56:56Z</time>
      </trkpt>
      <trkpt lat="48.08012" lon="6.9481">
        <ele>750.21</ele>
        <time>2021-06-23T09:57:00Z</time>
      </trkpt>
      <trkpt lat="48.07927" lon="6.94896">
        <ele>752.06</ele>
        <time>2021-06-23T09:57:04Z</time>
      </trkpt>
      <trkpt lat="48.07862" lon="6.94943">
        <ele>750.78</ele>
        <time>2021-06-23T09:57:07Z</time>
      </trkpt>
      <trkpt lat="48.07833" lon="6.9497">
        <ele>753.61</ele>
        <time>2021-06-23T09:57:11Z</time>
      </trkpt>
      <trkpt lat="48.07811" lon="6.94984">
        <ele>754.74</ele>
        <time>2021-06-23T09:57:15Z</time>
      </trkpt>
      <trkpt lat="48.07771" lon="6.95005">
        <ele>757.71</ele>
        <time>2021-06-23T09:57:19Z</time>
      </trkpt>
      <trkpt lat="48.07723" lon="6.95022">
        <ele>756</ele>
        <time>2021-06-23T09:57:22Z</time>
      </trkpt>
      <trkpt lat="48.07678" lon="6.95042">
        <ele>757.22</ele>
        <time>2021-06-23T09:57:26Z</time>
      </trkpt>
      <trkpt lat="48.07635" lon="6.95055">
        <ele>749.78</ele>
        <time>2021-06-23T09:57:30Z</time>
      </trkpt>
      <trkpt lat="48.07587" lon="6.95078">
        <ele>749.13</ele>
        <time>2021-06-23T09:57:34Z</time>
      </trkpt>
      <trkpt lat="48.07554" lon="6.95085">
        <ele>750.75</ele>
        <time>2021-06-23T09:57:38Z</time>
      </trkpt>
      <trkpt lat="48.07514" lon="6.9508">
        <ele>750</ele>
        <time>2021-06-23T09:57:41Z</time>
      </trkpt>
      <trkpt lat="48.07483" lon="6.9509">
        <ele>751.54</ele>
        <time>2021-06-23T09:57:45Z</time>
      </trkpt>
      <trkpt lat="48.0744" lon="6.95124">
        <ele>754.49</ele>
        <time>2021-06-23T09:57:49Z</time>
      </trkpt>
      <trkpt lat="48.07408" lon="6.95138">
        <ele>748.93</ele>
        <time>2021-06-23T09:57:53Z</time>
      </trkpt>
      <trkpt lat="48.07289" lon="6.95217">
        <ele>753.76</ele>
        <time>2021-06-23T09:57:56Z</time>
      </trkpt>
      <trkpt lat="48.07274" lon="6.95228">
        <ele>752.99</ele>
        <time>2021-06-23T09:58:00Z</time>
      </trkpt>
      <trkpt lat="48.07237" lon="6.95275">
        <ele>755.99</ele>
        <time>2021-06-23T09:58:04Z</time>
      </trkpt>
      <trkpt lat="48.0707" lon="6.95435">
        <ele>756.71</ele>
        <time>2021-06-23T09:58:08Z</time>
      </trkpt>
      <trkpt lat="48.06989" lon="6.95537">
        <ele>754.38</ele>
        <time>2021-06-23T09:58:12Z</time>
      </trkpt>
      <trkpt lat="48.06928" lon="6.956">
        <ele>752.45</ele>
        <time>2021-06-23T09:58:15Z</time>
      </trkpt>
      <trkpt lat="48.06876" lon="6.95642">
        <ele>750.86</ele>
        <time>2021-06-23T09:58:19Z</time>
      </trkpt>
      <trkpt lat="48.06858" lon="6.95665">
        <ele>747.5</ele>
        <time>2021-06-23T09:58:23Z</time>
      </trkpt>
      <trkpt lat="48.06839" lon="6.95696">
        <ele>748.33</ele>
        <time>2021-06-23T09:58:27Z</time>
      </trkpt>
      <trkpt lat="48.06786" lon="6.95756">
        <ele>749.17</ele>
        <time>2021-06-23T09:58:30Z</time>
      </trkpt>
      <trkpt lat="48.06743" lon="6.95817">
        <ele>750.13</ele>
        <time>2021-06-23T09:58:34Z</time>
      </trkpt>
      <trkpt lat="48.06668" lon="6.95942">
        <ele>748.97</ele>
        <time>2021-06-23T09:58:38Z</time>
      </trkpt>
      <trkpt lat="48.06656" lon="6.95956">
        <ele>749.92</ele>
        <time>2021-06-23T09:58:42Z</time>
      </trkpt>
      <trkpt lat="48.06602" lon="6.96001">
        <ele>751.13</ele>
        <time>2021-06-23T09:58:46Z</time>
      </trkpt>
      <trkpt lat="48.06577" lon="6.9603">
        <ele>752.65</ele>
        <time>2021-06-23T09:58:49Z</time>
      </trkpt>
      <trkpt lat="48.06551" lon="6.96063">
        <ele>749.28</ele>
        <time>2021-06-23T09:58:53Z</time>
      </trkpt>
      <trkpt lat="48.06526" lon="6.96102">
        <ele>747.38</ele>
        <time>2021-06-23T09:58:57Z</time>
      </trkpt>
      <trkpt lat="48.06461" lon="6.96183">
        <ele>744.48</ele>
        <time>2021-06-23T09:59:01Z</time>
      </trkpt>
      <trkpt lat="48.06419" lon="6.9625">
        <ele>744.85</ele>
        <time>2021-06-23T09:59:04Z</time>
      </trkpt>
      <trkpt lat="48.06419" lon="6.9625">
        <ele>744.85</ele>
        <time>2021-06-23T09:59:04Z</time>
      </trkpt>
      <trkpt lat="48.06367" lon="6.96339">
        <ele>747.04</ele>
        <time>2021-06-23T09:59:07Z</time>
      </trkpt>
      <trkpt lat="48.0634" lon="6.96388">
        <ele>749.63</ele>
        <time>2021-06-23T09:59:09Z</time>
      </trkpt>
      <trkpt lat="48.06317" lon="6.96436">
        <ele>751.03</ele>
        <time>2021-06-23T09:59:11Z</time>
      </trkpt>
      <trkpt lat="48.06299" lon="6.9648">
        <ele>750.35</ele>
        <time>2021-06-23T09:59:14Z</time>
      </trkpt>
      <trkpt lat="48.06291" lon="6.96509">
        <ele>749.26</ele>
        <time>2021-06-23T09:59:16Z</time>
      </trkpt>
      <trkpt lat="48.06289" lon="6.96541">
        <ele>750.17</ele>
        <time>2021-06-23T09:59:18Z</time>
      </trkpt>
      <trkpt lat="48.06289" lon="6.96608">
        <ele>753.43</ele>
        <time>2021-06-23T09:59:21Z</time>
      </trkpt>
      <trkpt lat="48.06295" lon="6.96681">
        <ele>756.09</ele>
        <time>2021-06-23T09:59:23Z</time>
      </trkpt>
      <trkpt lat="48.06295" lon="6.96707">
        <ele>757.6</ele>
        <time>2021-06-23T09:59:25Z</time>
      </trkpt>
      <trkpt lat="48.06284" lon="6.96799">
        <ele>756.12</ele>
        <time>2021-06-23T09:59:28Z</time>
      </trkpt>
      <trkpt lat="48.0628" lon="6.96825">
        <ele>756.78</ele>
        <time>2021-06-23T09:59:30Z</time>
      </trkpt>
      <trkpt lat="48.06272" lon="6.96855">
        <ele>756.97</ele>
        <time>2021-06-23T09:59:32Z</time>
      </trkpt>
      <trkpt lat="48.06243" lon="6.96937">
        <ele>757.12</ele>
        <time>2021-06-23T09:59:35Z</time>
      </trkpt>
      <trkpt lat="48.062" lon="6.97049">
        <ele>762.13</ele>
        <time>2021-06-23T09:59:37Z</time>
      </trkpt>
      <trkpt lat="48.06178" lon="6.97116">
        <ele>763.91</ele>
        <time>2021-06-23T09:59:39Z</time>
      </trkpt>
      <trkpt lat="48.06171" lon="6.97144">
        <ele>764.89</ele>
        <time>2021-06-23T09:59:42Z</time>
      </trkpt>
      <trkpt lat="48.06166" lon="6.97185">
        <ele>764.75</ele>
        <time>2021-06-23T09:59:44Z</time>
      </trkpt>
      <trkpt lat="48.06159" lon="6.97283">
        <ele>768.1</ele>
        <time>2021-06-23T09:59:46Z</time>
      </trkpt>
      <trkpt lat="48.06152" lon="6.97363">
        <ele>775.43</ele>
        <time>2021-06-23T09:59:49Z</time>
      </trkpt>
      <trkpt lat="48.06155" lon="6.97428">
        <ele>774.84</ele>
        <time>2021-06-23T09:59:51Z</time>
      </trkpt>
      <trkpt lat="48.06154" lon="6.97493">
        <ele>775.03</ele>
        <time>2021-06-23T09:59:53Z</time>
      </trkpt>
      <trkpt lat="48.06151" lon="6.97517">
        <ele>773.89</ele>
        <time>2021-06-23T09:59:56Z</time>
      </trkpt>
      <trkpt lat="48.06145" lon="6.9754">
        <ele>772.36</ele>
        <time>2021-06-23T09:59:58Z</time>
      </trkpt>
      <trkpt lat="48.06122" lon="6.97614">
        <ele>772.58</ele>
        <time>2021-06-23T10:00:00Z</time>
      </trkpt>
      <trkpt lat="48.06116" lon="6.97647">
        <ele>772.04</ele>
        <time>2021-06-23T10:00:03Z</time>
      </trkpt>
      <trkpt lat="48.06113" lon="6.97682">
        <ele>770.9</ele>
        <time>2021-06-23T10:00:05Z</time>
      </trkpt>
      <trkpt lat="48.06113" lon="6.97732">
        <ele>768.81</ele>
        <time>2021-06-23T10:00:07Z</time>
      </trkpt>
      <trkpt lat="48.0611" lon="6.97782">
        <ele>769.07</ele>
        <time>2021-06-23T10:00:10Z</time>
      </trkpt>
      <trkpt lat="48.06106" lon="6.97813">
        <ele>770.85</ele>
        <time>2021-06-23T10:00:12Z</time>
      </trkpt>
      <trkpt lat="48.061" lon="6.97844">
        <ele>771.07</ele>
        <time>2021-06-23T10:00:14Z</time>
      </trkpt>
      <trkpt lat="48.06078" lon="6.97913">
        <ele>771.74</ele>
        <time>2021-06-23T10:00:17Z</time>
      </trkpt>
      <trkpt lat="48.0606" lon="6.9801">
        <ele>779.84</ele>
        <time>2021-06-23T10:00:19Z</time>
      </trkpt>
      <trkpt lat="48.06052" lon="6.98045">
        <ele>783.54</ele>
        <time>2021-06-23T10:00:21Z</time>
      </trkpt>
      <trkpt lat="48.06043" lon="6.98061">
        <ele>784.41</ele>
        <time>2021-06-23T10:00:24Z</time>
      </trkpt>
      <trkpt lat="48.06034" lon="6.98073">
        <ele>784.13</ele>
        <time>2021-06-23T10:00:26Z</time>
      </trkpt>
      <trkpt lat="48.05991" lon="6.9811">
        <ele>783.19</ele>
        <time>2021-06-23T10:00:28Z</time>
      </trkpt>
      <trkpt lat="48.0598" lon="6.98132">
        <ele>786.02</ele>
        <time>2021-06-23T10:00:31Z</time>
      </trkpt>
      <trkpt lat="48.05968" lon="6.98161">
        <ele>789.64</ele>
        <time>2021-06-23T10:00:33Z</time>
      </trkpt>
      <trkpt lat="48.05944" lon="6.98202">
        <ele>794.37</ele>
        <time>2021-06-23T10:00:35Z</time>
      </trkpt>
      <trkpt lat="48.05928" lon="6.98219">
        <ele>794.65</ele>
        <time>2021-06-23T10:00:38Z</time>
      </trkpt>
      <trkpt lat="48.05892" lon="6.98242">
        <ele>788.96</ele>
        <time>2021-06-23T10:00:40Z</time>
      </trkpt>
      <trkpt lat="48.05882" lon="6.98255">
        <ele>789.33</ele>
        <time>2021-06-23T10:00:42Z</time>
      </trkpt>
      <trkpt lat="48.05877" lon="6.98272">
        <ele>790.26</ele>
        <time>2021-06-23T10:00:45Z</time>
      </trkpt>
      <trkpt lat="48.05878" lon="6.98282">
        <ele>790.68</ele>
        <time>2021-06-23T10:00:47Z</time>
      </trkpt>
      <trkpt lat="48.0588" lon="6.9829">
        <ele>791</ele>
        <time>2021-06-23T10:00:49Z</time>
      </trkpt>
      <trkpt lat="48.05907" lon="6.98327">
        <ele>793.34</ele>
        <time>2021-06-23T10:00:52Z</time>
      </trkpt>
      <trkpt lat="48.05912" lon="6.9834">
        <ele>793.86</ele>
        <time>2021-06-23T10:00:54Z</time>
      </trkpt>
      <trkpt lat="48.05914" lon="6.98352">
        <ele>793.74</ele>
        <time>2021-06-23T10:00:56Z</time>
      </trkpt>
      <trkpt lat="48.05915" lon="6.98366">
        <ele>793.53</ele>
        <time>2021-06-23T10:00:59Z</time>
      </trkpt>
      <trkpt lat="48.05913" lon="6.9839">
        <ele>793.22</ele>
        <time>2021-06-23T10:01:01Z</time>
      </trkpt>
      <trkpt lat="48.05909" lon="6.98411">
        <ele>794.01</ele>
        <time>2021-06-23T10:01:03Z</time>
      </trkpt>
      <trkpt lat="48.05905" lon="6.98428">
        <ele>794.7</ele>
        <time>2021-06-23T10:01:06Z</time>
      </trkpt>
      <trkpt lat="48.05898" lon="6.98446">
        <ele>795.08</ele>
        <time>2021-06-23T10:01:08Z</time>
      </trkpt>
      <trkpt lat="48.05864" lon="6.98493">
        <ele>789.93</ele>
        <time>2021-06-23T10:01:10Z</time>
      </trkpt>
      <trkpt lat="48.05846" lon="6.98514">
        <ele>787.01</ele>
        <time>2021-06-23T10:01:13Z</time>
      </trkpt>
      <trkpt lat="48.05825" lon="6.98536">
        <ele>786.16</ele>
        <time>2021-06-23T10:01:15Z</time>
      </trkpt>
      <trkpt lat="48.05775" lon="6.9858">
        <ele>782.42</ele>
        <time>2021-06-23T10:01:17Z</time>
      </trkpt>
      <trkpt lat="48.05731" lon="6.98624">
        <ele>783.68</ele>
        <time>2021-06-23T10:01:20Z</time>
      </trkpt>
      <trkpt lat="48.05695" lon="6.98663">
        <ele>784.46</ele>
        <time>2021-06-23T10:01:22Z</time>
      </trkpt>
      <trkpt lat="48.05649" lon="6.98704">
        <ele>791.68</ele>
        <time>2021-06-23T10:01:24Z</time>
      </trkpt>
      <trkpt lat="48.05606" lon="6.98747">
        <ele>797.73</ele>
        <time>2021-06-23T10:01:27Z</time>
      </trkpt>
      <trkpt lat="48.05582" lon="6.98757">
        <ele>797.57</ele>
        <time>2021-06-23T10:01:29Z</time>
      </trkpt>
      <trkpt lat="48.05538" lon="6.98758">
        <ele>795.9</ele>
        <time>2021-06-23T10:01:31Z</time>
      </trkpt>
      <trkpt lat="48.05518" lon="6.98761">
        <ele>795.07</ele>
        <time>2021-06-23T10:01:34Z</time>
      </trkpt>
      <trkpt lat="48.05505" lon="6.98766">
        <ele>794.76</ele>
        <time>2021-06-23T10:01:36Z</time>
      </trkpt>
      <trkpt lat="48.05493" lon="6.98776">
        <ele>795.49</ele>
        <time>2021-06-23T10:01:38Z</time>
      </trkpt>
      <trkpt lat="48.05474" lon="6.98796">
        <ele>800.24</ele>
        <time>2021-06-23T10:01:41Z</time>
      </trkpt>
      <trkpt lat="48.05425" lon="6.98861">
        <ele>810.15</ele>
        <time>2021-06-23T10:01:43Z</time>
      </trkpt>
      <trkpt lat="48.05408" lon="6.98877">
        <ele>810.99</ele>
        <time>2021-06-23T10:01:45Z</time>
      </trkpt>
      <trkpt lat="48.0539" lon="6.98888">
        <ele>812.51</ele>
        <time>2021-06-23T10:01:48Z</time>
      </trkpt>
      <trkpt lat="48.0539" lon="6.98888">
        <ele>812.51</ele>
        <time>2021-06-23T10:01:48Z</time>
      </trkpt>
      <trkpt lat="48.05378" lon="6.98894">
        <ele>813.17</ele>
        <time>2021-06-23T10:01:50Z</time>
      </trkpt>
      <trkpt lat="48.0535" lon="6.98899">
        <ele>815.42</ele>
        <time>2021-06-23T10:01:52Z</time>
      </trkpt>
      <trkpt lat="48.05265" lon="6.98897">
        <ele>821.72</ele>
        <time>2021-06-23T10:01:53Z</time>
      </trkpt>
      <trkpt lat="48.05256" lon="6.98893">
        <ele>821.9</ele>
        <time>2021-06-23T10:01:55Z</time>
      </trkpt>
      <trkpt lat="48.05246" lon="6.98884">
        <ele>822.05</ele>
        <time>2021-06-23T10:01:57Z</time>
      </trkpt>
      <trkpt lat="48.05205" lon="6.98835">
        <ele>824.39</ele>
        <time>2021-06-23T10:01:59Z</time>
      </trkpt>
      <trkpt lat="48.05197" lon="6.98815">
        <ele>826.46</ele>
        <time>2021-06-23T10:02:01Z</time>
      </trkpt>
      <trkpt lat="48.05191" lon="6.98793">
        <ele>828.85</ele>
        <time>2021-06-23T10:02:03Z</time>
      </trkpt>
      <trkpt lat="48.05189" lon="6.98768">
        <ele>830.34</ele>
        <time>2021-06-23T10:02:05Z</time>
      </trkpt>
      <trkpt lat="48.05189" lon="6.98717">
        <ele>830.29</ele>
        <time>2021-06-23T10:02:07Z</time>
      </trkpt>
      <trkpt lat="48.05186" lon="6.98697">
        <ele>831.27</ele>
        <time>2021-06-23T10:02:09Z</time>
      </trkpt>
      <trkpt lat="48.05173" lon="6.98642">
        <ele>837.28</ele>
        <time>2021-06-23T10:02:11Z</time>
      </trkpt>
      <trkpt lat="48.05165" lon="6.98587">
        <ele>839.06</ele>
        <time>2021-06-23T10:02:13Z</time>
      </trkpt>
      <trkpt lat="48.05159" lon="6.98508">
        <ele>850.84</ele>
        <time>2021-06-23T10:02:15Z</time>
      </trkpt>
      <trkpt lat="48.0516" lon="6.98428">
        <ele>851.42</ele>
        <time>2021-06-23T10:02:17Z</time>
      </trkpt>
      <trkpt lat="48.05163" lon="6.9841">
        <ele>851.06</ele>
        <time>2021-06-23T10:02:18Z</time>
      </trkpt>
      <trkpt lat="48.05172" lon="6.9838">
        <ele>850.77</ele>
        <time>2021-06-23T10:02:20Z</time>
      </trkpt>
      <trkpt lat="48.05176" lon="6.98362">
        <ele>850.34</ele>
        <time>2021-06-23T10:02:22Z</time>
      </trkpt>
      <trkpt lat="48.05179" lon="6.98335">
        <ele>852.08</ele>
        <time>2021-06-23T10:02:24Z</time>
      </trkpt>
      <trkpt lat="48.05182" lon="6.98229">
        <ele>853.65</ele>
        <time>2021-06-23T10:02:26Z</time>
      </trkpt>
      <trkpt lat="48.05192" lon="6.98141">
        <ele>855.26</ele>
        <time>2021-06-23T10:02:28Z</time>
      </trkpt>
      <trkpt lat="48.05193" lon="6.98112">
        <ele>855.25</ele>
        <time>2021-06-23T10:02:30Z</time>
      </trkpt>
      <trkpt lat="48.05181" lon="6.98032">
        <ele>855.5</ele>
        <time>2021-06-23T10:02:32Z</time>
      </trkpt>
      <trkpt lat="48.0518" lon="6.98011">
        <ele>857.24</ele>
        <time>2021-06-23T10:02:34Z</time>
      </trkpt>
      <trkpt lat="48.05186" lon="6.97974">
        <ele>860.31</ele>
        <time>2021-06-23T10:02:36Z</time>
      </trkpt>
      <trkpt lat="48.05202" lon="6.97924">
        <ele>863.93</ele>
        <time>2021-06-23T10:02:38Z</time>
      </trkpt>
      <trkpt lat="48.05202" lon="6.97913">
        <ele>866.18</ele>
        <time>2021-06-23T10:02:40Z</time>
      </trkpt>
      <trkpt lat="48.05198" lon="6.97897">
        <ele>870.59</ele>
        <time>2021-06-23T10:02:42Z</time>
      </trkpt>
      <trkpt lat="48.05194" lon="6.97892">
        <ele>872.16</ele>
        <time>2021-06-23T10:02:44Z</time>
      </trkpt>
      <trkpt lat="48.05181" lon="6.97893">
        <ele>873.72</ele>
        <time>2021-06-23T10:02:45Z</time>
      </trkpt>
      <trkpt lat="48.05175" lon="6.97898">
        <ele>872.59</ele>
        <time>2021-06-23T10:02:47Z</time>
      </trkpt>
      <trkpt lat="48.0517" lon="6.97908">
        <ele>869.71</ele>
        <time>2021-06-23T10:02:49Z</time>
      </trkpt>
      <trkpt lat="48.05129" lon="6.98018">
        <ele>874.18</ele>
        <time>2021-06-23T10:02:51Z</time>
      </trkpt>
      <trkpt lat="48.05091" lon="6.98169">
        <ele>890.76</ele>
        <time>2021-06-23T10:02:53Z</time>
      </trkpt>
      <trkpt lat="48.05086" lon="6.9821">
        <ele>891.83</ele>
        <time>2021-06-23T10:02:55Z</time>
      </trkpt>
      <trkpt lat="48.05086" lon="6.98287">
        <ele>888.59</ele>
        <time>2021-06-23T10:02:57Z</time>
      </trkpt>
      <trkpt lat="48.05083" lon="6.98314">
        <ele>888.11</ele>
        <time>2021-06-23T10:02:59Z</time>
      </trkpt>
      <trkpt lat="48.05074" lon="6.98343">
        <ele>893.27</ele>
        <time>2021-06-23T10:03:01Z</time>
      </trkpt>
      <trkpt lat="48.05054" lon="6.98383">
        <ele>905.08</ele>
        <time>2021-06-23T10:03:03Z</time>
      </trkpt>
      <trkpt lat="48.05047" lon="6.98405">
        <ele>910.06</ele>
        <time>2021-06-23T10:03:05Z</time>
      </trkpt>
      <trkpt lat="48.05042" lon="6.98427">
        <ele>912.66</ele>
        <time>2021-06-23T10:03:07Z</time>
      </trkpt>
      <trkpt lat="48.0504" lon="6.98444">
        <ele>913.54</ele>
        <time>2021-06-23T10:03:09Z</time>
      </trkpt>
      <trkpt lat="48.05042" lon="6.98484">
        <ele>906.93</ele>
        <time>2021-06-23T10:03:10Z</time>
      </trkpt>
      <trkpt lat="48.05041" lon="6.98497">
        <ele>905.96</ele>
        <time>2021-06-23T10:03:12Z</time>
      </trkpt>
      <trkpt lat="48.05037" lon="6.98514">
        <ele>906.83</ele>
        <time>2021-06-23T10:03:14Z</time>
      </trkpt>
      <trkpt lat="48.05026" lon="6.9854">
        <ele>911.91</ele>
        <time>2021-06-23T10:03:16Z</time>
      </trkpt>
      <trkpt lat="48.05022" lon="6.98562">
        <ele>914.55</ele>
        <time>2021-06-23T10:03:18Z</time>
      </trkpt>
      <trkpt lat="48.05017" lon="6.98617">
        <ele>917.06</ele>
        <time>2021-06-23T10:03:20Z</time>
      </trkpt>
      <trkpt lat="48.05012" lon="6.98646">
        <ele>918.17</ele>
        <time>2021-06-23T10:03:22Z</time>
      </trkpt>
      <trkpt lat="48.05012" lon="6.98665">
        <ele>916.62</ele>
        <time>2021-06-23T10:03:24Z</time>
      </trkpt>
      <trkpt lat="48.05014" lon="6.98688">
        <ele>913.43</ele>
        <time>2021-06-23T10:03:26Z</time>
      </trkpt>
      <trkpt lat="48.05014" lon="6.98699">
        <ele>912.52</ele>
        <time>2021-06-23T10:03:28Z</time>
      </trkpt>
      <trkpt lat="48.05011" lon="6.9871">
        <ele>912.28</ele>
        <time>2021-06-23T10:03:30Z</time>
      </trkpt>
      <trkpt lat="48.05006" lon="6.98716">
        <ele>912.84</ele>
        <time>2021-06-23T10:03:32Z</time>
      </trkpt>
      <trkpt lat="48.05002" lon="6.98719">
        <ele>913.92</ele>
        <time>2021-06-23T10:03:34Z</time>
      </trkpt>
      <trkpt lat="48.04995" lon="6.98719">
        <ele>917.57</ele>
        <time>2021-06-23T10:03:35Z</time>
      </trkpt>
      <trkpt lat="48.04991" lon="6.98716">
        <ele>921.07</ele>
        <time>2021-06-23T10:03:37Z</time>
      </trkpt>
      <trkpt lat="48.04995" lon="6.98689">
        <ele>923.49</ele>
        <time>2021-06-23T10:03:40Z</time>
      </trkpt>
      <trkpt lat="48.05004" lon="6.98552">
        <ele>929.08</ele>
        <time>2021-06-23T10:03:42Z</time>
      </trkpt>
      <trkpt lat="48.05012" lon="6.98503">
        <ele>925.12</ele>
        <time>2021-06-23T10:03:44Z</time>
      </trkpt>
      <trkpt lat="48.05012" lon="6.98485">
        <ele>926.31</ele>
        <time>2021-06-23T10:03:46Z</time>
      </trkpt>
      <trkpt lat="48.05007" lon="6.98442">
        <ele>937.31</ele>
        <time>2021-06-23T10:03:49Z</time>
      </trkpt>
      <trkpt lat="48.05007" lon="6.9842">
        <ele>940.9</ele>
        <time>2021-06-23T10:03:51Z</time>
      </trkpt>
      <trkpt lat="48.05012" lon="6.98385">
        <ele>937.27</ele>
        <time>2021-06-23T10:03:53Z</time>
      </trkpt>
      <trkpt lat="48.05022" lon="6.98349">
        <ele>929.3</ele>
        <time>2021-06-23T10:03:55Z</time>
      </trkpt>
      <trkpt lat="48.05026" lon="6.98327">
        <ele>926.85</ele>
        <time>2021-06-23T10:03:57Z</time>
      </trkpt>
      <trkpt lat="48.05027" lon="6.98299">
        <ele>925.51</ele>
        <time>2021-06-23T10:04:00Z</time>
      </trkpt>
      <trkpt lat="48.05022" lon="6.98264">
        <ele>928.18</ele>
        <time>2021-06-23T10:04:02Z</time>
      </trkpt>
      <trkpt lat="48.04996" lon="6.98154">
        <ele>942.18</ele>
        <time>2021-06-23T10:04:04Z</time>
      </trkpt>
      <trkpt lat="48.04992" lon="6.98107">
        <ele>941.76</ele>
        <time>2021-06-23T10:04:06Z</time>
      </trkpt>
      <trkpt lat="48.04989" lon="6.98085">
        <ele>941.12</ele>
        <time>2021-06-23T10:04:09Z</time>
      </trkpt>
      <trkpt lat="48.04983" lon="6.98058">
        <ele>941.65</ele>
        <time>2021-06-23T10:04:11Z</time>
      </trkpt>
      <trkpt lat="48.04946" lon="6.97934">
        <ele>944.42</ele>
        <time>2021-06-23T10:04:13Z</time>
      </trkpt>
      <trkpt lat="48.04926" lon="6.97888">
        <ele>946.71</ele>
        <time>2021-06-23T10:04:15Z</time>
      </trkpt>
      <trkpt lat="48.04874" lon="6.97798">
        <ele>957.53</ele>
        <time>2021-06-23T10:04:17Z</time>
      </trkpt>
      <trkpt lat="48.04851" lon="6.97703">
        <ele>954.43</ele>
        <time>2021-06-23T10:04:20Z</time>
      </trkpt>
      <trkpt lat="48.04838" lon="6.97677">
        <ele>959.04</ele>
        <time>2021-06-23T10:04:22Z</time>
      </trkpt>
      <trkpt lat="48.04813" lon="6.97638">
        <ele>966.35</ele>
        <time>2021-06-23T10:04:24Z</time>
      </trkpt>
      <trkpt lat="48.04786" lon="6.97601">
        <ele>962.11</ele>
        <time>2021-06-23T10:04:26Z</time>
      </trkpt>
      <trkpt lat="48.04777" lon="6.97591">
        <ele>960.11</ele>
        <time>2021-06-23T10:04:28Z</time>
      </trkpt>
      <trkpt lat="48.04761" lon="6.9758">
        <ele>957.5</ele>
        <time>2021-06-23T10:04:31Z</time>
      </trkpt>
      <trkpt lat="48.04736" lon="6.97569">
        <ele>955.87</ele>
        <time>2021-06-23T10:04:33Z</time>
      </trkpt>
      <trkpt lat="48.04711" lon="6.97564">
        <ele>954.52</ele>
        <time>2021-06-23T10:04:35Z</time>
      </trkpt>
      <trkpt lat="48.04698" lon="6.97565">
        <ele>953.96</ele>
        <time>2021-06-23T10:04:37Z</time>
      </trkpt>
      <trkpt lat="48.04633" lon="6.97588">
        <ele>954.76</ele>
        <time>2021-06-23T10:04:40Z</time>
      </trkpt>
      <trkpt lat="48.04531" lon="6.97611">
        <ele>954.23</ele>
        <time>2021-06-23T10:04:42Z</time>
      </trkpt>
      <trkpt lat="48.04446" lon="6.97613">
        <ele>949.05</ele>
        <time>2021-06-23T10:04:44Z</time>
      </trkpt>
      <trkpt lat="48.04334" lon="6.97618">
        <ele>954.65</ele>
        <time>2021-06-23T10:04:46Z</time>
      </trkpt>
      <trkpt lat="48.04311" lon="6.97617">
        <ele>954.7</ele>
        <time>2021-06-23T10:04:48Z</time>
      </trkpt>
      <trkpt lat="48.0429" lon="6.97613">
        <ele>957.93</ele>
        <time>2021-06-23T10:04:51Z</time>
      </trkpt>
      <trkpt lat="48.04229" lon="6.97581">
        <ele>947.41</ele>
        <time>2021-06-23T10:04:53Z</time>
      </trkpt>
      <trkpt lat="48.04146" lon="6.97545">
        <ele>940.42</ele>
        <time>2021-06-23T10:04:55Z</time>
      </trkpt>
      <trkpt lat="48.04111" lon="6.97534">
        <ele>941.42</ele>
        <time>2021-06-23T10:04:57Z</time>
      </trkpt>
      <trkpt lat="48.04075" lon="6.9752">
        <ele>944.36</ele>
        <time>2021-06-23T10:05:00Z</time>
      </trkpt>
      <trkpt lat="48.04051" lon="6.97504">
        <ele>940.78</ele>
        <time>2021-06-23T10:05:02Z</time>
      </trkpt>
      <trkpt lat="48.04024" lon="6.9748">
        <ele>934.62</ele>
        <time>2021-06-23T10:05:04Z</time>
      </trkpt>
      <trkpt lat="48.04004" lon="6.97455">
        <ele>929.21</ele>
        <time>2021-06-23T10:05:06Z</time>
      </trkpt>
      <trkpt lat="48.03987" lon="6.97423">
        <ele>926.79</ele>
        <time>2021-06-23T10:05:08Z</time>
      </trkpt>
      <trkpt lat="48.03979" lon="6.97398">
        <ele>926.43</ele>
        <time>2021-06-23T10:05:11Z</time>
      </trkpt>
      <trkpt lat="48.03975" lon="6.97376">
        <ele>927.67</ele>
        <time>2021-06-23T10:05:13Z</time>
      </trkpt>
      <trkpt lat="48.03976" lon="6.97363">
        <ele>928.3</ele>
        <time>2021-06-23T10:05:14Z</time>
      </trkpt>
      <trkpt lat="48.03975" lon="6.97357">
        <ele>928.59</ele>
        <time>2021-06-23T10:05:16Z</time>
      </trkpt>
      <trkpt lat="48.03962" lon="6.97338">
        <ele>927.61</ele>
        <time>2021-06-23T10:05:17Z</time>
      </trkpt>
      <trkpt lat="48.03953" lon="6.97305">
        <ele>923.25</ele>
        <time>2021-06-23T10:05:19Z</time>
      </trkpt>
      <trkpt lat="48.03949" lon="6.9728">
        <ele>920.67</ele>
        <time>2021-06-23T10:05:20Z</time>
      </trkpt>
      <trkpt lat="48.03942" lon="6.9726">
        <ele>919.62</ele>
        <time>2021-06-23T10:05:22Z</time>
      </trkpt>
      <trkpt lat="48.03933" lon="6.97243">
        <ele>918.97</ele>
        <time>2021-06-23T10:05:23Z</time>
      </trkpt>
      <trkpt lat="48.03913" lon="6.97216">
        <ele>918.53</ele>
        <time>2021-06-23T10:05:25Z</time>
      </trkpt>
      <trkpt lat="48.03835" lon="6.97151">
        <ele>914.24</ele>
        <time>2021-06-23T10:05:26Z</time>
      </trkpt>
      <trkpt lat="48.03814" lon="6.97127">
        <ele>910.59</ele>
        <time>2021-06-23T10:05:28Z</time>
      </trkpt>
      <trkpt lat="48.03782" lon="6.97074">
        <ele>907.28</ele>
        <time>2021-06-23T10:05:29Z</time>
      </trkpt>
      <trkpt lat="48.03758" lon="6.97025">
        <ele>904.19</ele>
        <time>2021-06-23T10:05:31Z</time>
      </trkpt>
      <trkpt lat="48.03724" lon="6.9697">
        <ele>898.65</ele>
        <time>2021-06-23T10:05:32Z</time>
      </trkpt>
      <trkpt lat="48.03677" lon="6.96903">
        <ele>892.55</ele>
        <time>2021-06-23T10:05:34Z</time>
      </trkpt>
      <trkpt lat="48.03676" lon="6.96896">
        <ele>892.28</ele>
        <time>2021-06-23T10:05:37Z</time>
      </trkpt>
      <trkpt lat="48.03672" lon="6.96886">
        <ele>891.63</ele>
        <time>2021-06-23T10:05:40Z</time>
      </trkpt>
      <trkpt lat="48.03662" lon="6.96881">
        <ele>891.59</ele>
        <time>2021-06-23T10:05:43Z</time>
      </trkpt>
      <trkpt lat="48.03653" lon="6.9687">
        <ele>891.82</ele>
        <time>2021-06-23T10:05:46Z</time>
      </trkpt>
      <trkpt lat="48.03627" lon="6.9683">
        <ele>891.25</ele>
        <time>2021-06-23T10:05:49Z</time>
      </trkpt>
      <trkpt lat="48.03612" lon="6.968">
        <ele>890.79</ele>
        <time>2021-06-23T10:05:52Z</time>
      </trkpt>
      <trkpt lat="48.03563" lon="6.9669">
        <ele>889.15</ele>
        <time>2021-06-23T10:05:56Z</time>
      </trkpt>
      <trkpt lat="48.03529" lon="6.96618">
        <ele>890.32</ele>
        <time>2021-06-23T10:05:59Z</time>
      </trkpt>
      <trkpt lat="48.03468" lon="6.96527">
        <ele>886.5</ele>
        <time>2021-06-23T10:06:02Z</time>
      </trkpt>
      <trkpt lat="48.03438" lon="6.96493">
        <ele>887.76</ele>
        <time>2021-06-23T10:06:05Z</time>
      </trkpt>
      <trkpt lat="48.03386" lon="6.96449">
        <ele>883.95</ele>
        <time>2021-06-23T10:06:08Z</time>
      </trkpt>
      <trkpt lat="48.03307" lon="6.96371">
        <ele>888.81</ele>
        <time>2021-06-23T10:06:11Z</time>
      </trkpt>
      <trkpt lat="48.03239" lon="6.96321">
        <ele>888.38</ele>
        <time>2021-06-23T10:06:14Z</time>
      </trkpt>
      <trkpt lat="48.03101" lon="6.96243">
        <ele>888.2</ele>
        <time>2021-06-23T10:06:17Z</time>
      </trkpt>
      <trkpt lat="48.03051" lon="6.96212">
        <ele>883.79</ele>
        <time>2021-06-23T10:06:21Z</time>
      </trkpt>
      <trkpt lat="48.02917" lon="6.96173">
        <ele>873.88</ele>
        <time>2021-06-23T10:06:24Z</time>
      </trkpt>
      <trkpt lat="48.02846" lon="6.96149">
        <ele>870.73</ele>
        <time>2021-06-23T10:06:27Z</time>
      </trkpt>
      <trkpt lat="48.02819" lon="6.96137">
        <ele>870.36</ele>
        <time>2021-06-23T10:06:30Z</time>
      </trkpt>
      <trkpt lat="48.02772" lon="6.96098">
        <ele>862.78</ele>
        <time>2021-06-23T10:06:33Z</time>
      </trkpt>
      <trkpt lat="48.02715" lon="6.96064">
        <ele>859.56</ele>
        <time>2021-06-23T10:06:36Z</time>
      </trkpt>
      <trkpt lat="48.02693" lon="6.96048">
        <ele>855.54</ele>
        <time>2021-06-23T10:06:39Z</time>
      </trkpt>
      <trkpt lat="48.02646" lon="6.96008">
        <ele>849.05</ele>
        <time>2021-06-23T10:06:43Z</time>
      </trkpt>
      <trkpt lat="48.02599" lon="6.95983">
        <ele>848.49</ele>
        <time>2021-06-23T10:06:46Z</time>
      </trkpt>
      <trkpt lat="48.02521" lon="6.95957">
        <ele>841.84</ele>
        <time>2021-06-23T10:06:49Z</time>
      </trkpt>
      <trkpt lat="48.02496" lon="6.95938">
        <ele>839.67</ele>
        <time>2021-06-23T10:06:52Z</time>
      </trkpt>
      <trkpt lat="48.02471" lon="6.95912">
        <ele>838.55</ele>
        <time>2021-06-23T10:06:55Z</time>
      </trkpt>
      <trkpt lat="48.02439" lon="6.95863">
        <ele>831.32</ele>
        <time>2021-06-23T10:06:58Z</time>
      </trkpt>
      <trkpt lat="48.0242" lon="6.95827">
        <ele>831.35</ele>
        <time>2021-06-23T10:07:01Z</time>
      </trkpt>
      <trkpt lat="48.02392" lon="6.95745">
        <ele>831.88</ele>
        <time>2021-06-23T10:07:04Z</time>
      </trkpt>
      <trkpt lat="48.0234" lon="6.95617">
        <ele>822.07</ele>
        <time>2021-06-23T10:07:08Z</time>
      </trkpt>
      <trkpt lat="48.02324" lon="6.95573">
        <ele>819.83</ele>
        <time>2021-06-23T10:07:11Z</time>
      </trkpt>
      <trkpt lat="48.02291" lon="6.95435">
        <ele>814.17</ele>
        <time>2021-06-23T10:07:14Z</time>
      </trkpt>
      <trkpt lat="48.02278" lon="6.95398">
        <ele>813.31</ele>
        <time>2021-06-23T10:07:17Z</time>
      </trkpt>
      <trkpt lat="48.02254" lon="6.95355">
        <ele>808.43</ele>
        <time>2021-06-23T10:07:20Z</time>
      </trkpt>
      <trkpt lat="48.02195" lon="6.95291">
        <ele>798.51</ele>
        <time>2021-06-23T10:07:23Z</time>
      </trkpt>
      <trkpt lat="48.0218" lon="6.9527">
        <ele>797.92</ele>
        <time>2021-06-23T10:07:26Z</time>
      </trkpt>
      <trkpt lat="48.02169" lon="6.95248">
        <ele>798.3</ele>
        <time>2021-06-23T10:07:29Z</time>
      </trkpt>
      <trkpt lat="48.02153" lon="6.95208">
        <ele>800.27</ele>
        <time>2021-06-23T10:07:33Z</time>
      </trkpt>
      <trkpt lat="48.02149" lon="6.9519">
        <ele>800.06</ele>
        <time>2021-06-23T10:07:36Z</time>
      </trkpt>
      <trkpt lat="48.02134" lon="6.95202">
        <ele>800.09</ele>
        <time>2021-06-23T10:07:37Z</time>
      </trkpt>
      <trkpt lat="48.02134" lon="6.95202">
        <ele>800.09</ele>
        <time>2021-06-23T10:07:37Z</time>
      </trkpt>
      <trkpt lat="48.02126" lon="6.95203">
        <ele>800.15</ele>
        <time>2021-06-23T10:07:38Z</time>
      </trkpt>
      <trkpt lat="48.02114" lon="6.95195">
        <ele>800</ele>
        <time>2021-06-23T10:07:41Z</time>
      </trkpt>
      <trkpt lat="48.02094" lon="6.95191">
        <ele>800.34</ele>
        <time>2021-06-23T10:07:44Z</time>
      </trkpt>
      <trkpt lat="48.02034" lon="6.95186">
        <ele>803.66</ele>
        <time>2021-06-23T10:07:46Z</time>
      </trkpt>
      <trkpt lat="48.02021" lon="6.95179">
        <ele>805.15</ele>
        <time>2021-06-23T10:07:49Z</time>
      </trkpt>
      <trkpt lat="48.02012" lon="6.95172">
        <ele>806.32</ele>
        <time>2021-06-23T10:07:51Z</time>
      </trkpt>
      <trkpt lat="48.01969" lon="6.95111">
        <ele>807.04</ele>
        <time>2021-06-23T10:07:54Z</time>
      </trkpt>
      <trkpt lat="48.01936" lon="6.95087">
        <ele>806.07</ele>
        <time>2021-06-23T10:07:57Z</time>
      </trkpt>
      <trkpt lat="48.01921" lon="6.9507">
        <ele>803.67</ele>
        <time>2021-06-23T10:07:59Z</time>
      </trkpt>
      <trkpt lat="48.01892" lon="6.95029">
        <ele>801.69</ele>
        <time>2021-06-23T10:08:02Z</time>
      </trkpt>
      <trkpt lat="48.01875" lon="6.95014">
        <ele>804.11</ele>
        <time>2021-06-23T10:08:05Z</time>
      </trkpt>
      <trkpt lat="48.01818" lon="6.94987">
        <ele>811.16</ele>
        <time>2021-06-23T10:08:07Z</time>
      </trkpt>
      <trkpt lat="48.01678" lon="6.94895">
        <ele>819.35</ele>
        <time>2021-06-23T10:08:10Z</time>
      </trkpt>
      <trkpt lat="48.01594" lon="6.94847">
        <ele>820.91</ele>
        <time>2021-06-23T10:08:12Z</time>
      </trkpt>
      <trkpt lat="48.01516" lon="6.94813">
        <ele>823.14</ele>
        <time>2021-06-23T10:08:15Z</time>
      </trkpt>
      <trkpt lat="48.01498" lon="6.94808">
        <ele>823.62</ele>
        <time>2021-06-23T10:08:18Z</time>
      </trkpt>
      <trkpt lat="48.0148" lon="6.94806">
        <ele>823.21</ele>
        <time>2021-06-23T10:08:20Z</time>
      </trkpt>
      <trkpt lat="48.01455" lon="6.94813">
        <ele>824.82</ele>
        <time>2021-06-23T10:08:23Z</time>
      </trkpt>
      <trkpt lat="48.01423" lon="6.94829">
        <ele>825.55</ele>
        <time>2021-06-23T10:08:26Z</time>
      </trkpt>
      <trkpt lat="48.01385" lon="6.94855">
        <ele>828.27</ele>
        <time>2021-06-23T10:08:28Z</time>
      </trkpt>
      <trkpt lat="48.01341" lon="6.94904">
        <ele>839.49</ele>
        <time>2021-06-23T10:08:31Z</time>
      </trkpt>
      <trkpt lat="48.01332" lon="6.94909">
        <ele>840.51</ele>
        <time>2021-06-23T10:08:33Z</time>
      </trkpt>
      <trkpt lat="48.01323" lon="6.94907">
        <ele>841.09</ele>
        <time>2021-06-23T10:08:36Z</time>
      </trkpt>
      <trkpt lat="48.01317" lon="6.94902">
        <ele>841.48</ele>
        <time>2021-06-23T10:08:39Z</time>
      </trkpt>
      <trkpt lat="48.01313" lon="6.94896">
        <ele>841.83</ele>
        <time>2021-06-23T10:08:41Z</time>
      </trkpt>
      <trkpt lat="48.01311" lon="6.94889">
        <ele>842.22</ele>
        <time>2021-06-23T10:08:44Z</time>
      </trkpt>
      <trkpt lat="48.01311" lon="6.94881">
        <ele>842.59</ele>
        <time>2021-06-23T10:08:47Z</time>
      </trkpt>
      <trkpt lat="48.01325" lon="6.9482">
        <ele>837.59</ele>
        <time>2021-06-23T10:08:49Z</time>
      </trkpt>
      <trkpt lat="48.01327" lon="6.94802">
        <ele>836.79</ele>
        <time>2021-06-23T10:08:52Z</time>
      </trkpt>
      <trkpt lat="48.01325" lon="6.94787">
        <ele>837.68</ele>
        <time>2021-06-23T10:08:55Z</time>
      </trkpt>
      <trkpt lat="48.01321" lon="6.94769">
        <ele>838.87</ele>
        <time>2021-06-23T10:08:57Z</time>
      </trkpt>
      <trkpt lat="48.01312" lon="6.94756">
        <ele>840.2</ele>
        <time>2021-06-23T10:09:00Z</time>
      </trkpt>
      <trkpt lat="48.01308" lon="6.94758">
        <ele>841.56</ele>
        <time>2021-06-23T10:09:02Z</time>
      </trkpt>
      <trkpt lat="48.01302" lon="6.94756">
        <ele>842.99</ele>
        <time>2021-06-23T10:09:04Z</time>
      </trkpt>
      <trkpt lat="48.01222" lon="6.94691">
        <ele>850.01</ele>
        <time>2021-06-23T10:09:07Z</time>
      </trkpt>
      <trkpt lat="48.01196" lon="6.94673">
        <ele>851.02</ele>
        <time>2021-06-23T10:09:09Z</time>
      </trkpt>
      <trkpt lat="48.01178" lon="6.94665">
        <ele>852.64</ele>
        <time>2021-06-23T10:09:12Z</time>
      </trkpt>
      <trkpt lat="48.01094" lon="6.9465">
        <ele>863.13</ele>
        <time>2021-06-23T10:09:14Z</time>
      </trkpt>
      <trkpt lat="48.0099" lon="6.94609">
        <ele>871.79</ele>
        <time>2021-06-23T10:09:16Z</time>
      </trkpt>
      <trkpt lat="48.00939" lon="6.94593">
        <ele>877.56</ele>
        <time>2021-06-23T10:09:19Z</time>
      </trkpt>
      <trkpt lat="48.00835" lon="6.94569">
        <ele>891.24</ele>
        <time>2021-06-23T10:09:21Z</time>
      </trkpt>
      <trkpt lat="48.00776" lon="6.94552">
        <ele>893.91</ele>
        <time>2021-06-23T10:09:23Z</time>
      </trkpt>
      <trkpt lat="48.00746" lon="6.94547">
        <ele>896.06</ele>
        <time>2021-06-23T10:09:26Z</time>
      </trkpt>
      <trkpt lat="48.00729" lon="6.94549">
        <ele>898.74</ele>
        <time>2021-06-23T10:09:28Z</time>
      </trkpt>
      <trkpt lat="48.00599" lon="6.94548">
        <ele>924</ele>
        <time>2021-06-23T10:09:30Z</time>
      </trkpt>
      <trkpt lat="48.00577" lon="6.94541">
        <ele>925.04</ele>
        <time>2021-06-23T10:09:33Z</time>
      </trkpt>
      <trkpt lat="48.00564" lon="6.94527">
        <ele>919.19</ele>
        <time>2021-06-23T10:09:35Z</time>
      </trkpt>
      <trkpt lat="48.00549" lon="6.9452">
        <ele>918.41</ele>
        <time>2021-06-23T10:09:37Z</time>
      </trkpt>
      <trkpt lat="48.00444" lon="6.94521">
        <ele>925.41</ele>
        <time>2021-06-23T10:09:40Z</time>
      </trkpt>
      <trkpt lat="48.00415" lon="6.94525">
        <ele>935.01</ele>
        <time>2021-06-23T10:09:42Z</time>
      </trkpt>
      <trkpt lat="48.00386" lon="6.94522">
        <ele>936.03</ele>
        <time>2021-06-23T10:09:44Z</time>
      </trkpt>
      <trkpt lat="48.00327" lon="6.94501">
        <ele>938.86</ele>
        <time>2021-06-23T10:09:47Z</time>
      </trkpt>
      <trkpt lat="48.00327" lon="6.94501">
        <ele>938.86</ele>
        <time>2021-06-23T10:09:47Z</time>
      </trkpt>
      <trkpt lat="48.00306" lon="6.94502">
        <ele>943.52</ele>
        <time>2021-06-23T10:09:48Z</time>
      </trkpt>
      <trkpt lat="48.0029" lon="6.94507">
        <ele>946.48</ele>
        <time>2021-06-23T10:09:49Z</time>
      </trkpt>
      <trkpt lat="48.0026" lon="6.94522">
        <ele>952.66</ele>
        <time>2021-06-23T10:09:50Z</time>
      </trkpt>
      <trkpt lat="48.0024" lon="6.94535">
        <ele>955.87</ele>
        <time>2021-06-23T10:09:51Z</time>
      </trkpt>
      <trkpt lat="48.00224" lon="6.9454">
        <ele>955.24</ele>
        <time>2021-06-23T10:09:52Z</time>
      </trkpt>
      <trkpt lat="48.00137" lon="6.9454">
        <ele>959.5</ele>
        <time>2021-06-23T10:09:53Z</time>
      </trkpt>
      <trkpt lat="48.0008" lon="6.94534">
        <ele>963.77</ele>
        <time>2021-06-23T10:09:55Z</time>
      </trkpt>
      <trkpt lat="48.0005" lon="6.9454">
        <ele>967.93</ele>
        <time>2021-06-23T10:09:56Z</time>
      </trkpt>
      <trkpt lat="48.00031" lon="6.94552">
        <ele>969.93</ele>
        <time>2021-06-23T10:09:57Z</time>
      </trkpt>
      <trkpt lat="47.99974" lon="6.946">
        <ele>965.47</ele>
        <time>2021-06-23T10:09:58Z</time>
      </trkpt>
      <trkpt lat="47.99961" lon="6.94622">
        <ele>961.67</ele>
        <time>2021-06-23T10:09:59Z</time>
      </trkpt>
      <trkpt lat="47.99947" lon="6.94714">
        <ele>962.88</ele>
        <time>2021-06-23T10:10:00Z</time>
      </trkpt>
      <trkpt lat="47.99938" lon="6.94759">
        <ele>956.14</ele>
        <time>2021-06-23T10:10:01Z</time>
      </trkpt>
      <trkpt lat="47.99923" lon="6.94812">
        <ele>951.56</ele>
        <time>2021-06-23T10:10:02Z</time>
      </trkpt>
      <trkpt lat="47.99913" lon="6.94837">
        <ele>950.15</ele>
        <time>2021-06-23T10:10:03Z</time>
      </trkpt>
      <trkpt lat="47.99869" lon="6.94915">
        <ele>946.02</ele>
        <time>2021-06-23T10:10:04Z</time>
      </trkpt>
      <trkpt lat="47.99839" lon="6.94952">
        <ele>940.27</ele>
        <time>2021-06-23T10:10:06Z</time>
      </trkpt>
      <trkpt lat="47.99829" lon="6.94974">
        <ele>940.07</ele>
        <time>2021-06-23T10:10:07Z</time>
      </trkpt>
      <trkpt lat="47.99819" lon="6.95014">
        <ele>936.76</ele>
        <time>2021-06-23T10:10:08Z</time>
      </trkpt>
      <trkpt lat="47.99818" lon="6.95046">
        <ele>935.92</ele>
        <time>2021-06-23T10:10:09Z</time>
      </trkpt>
      <trkpt lat="47.9982" lon="6.9516">
        <ele>929.6</ele>
        <time>2021-06-23T10:10:10Z</time>
      </trkpt>
      <trkpt lat="47.99811" lon="6.95254">
        <ele>925.63</ele>
        <time>2021-06-23T10:10:11Z</time>
      </trkpt>
      <trkpt lat="47.9981" lon="6.95283">
        <ele>923.74</ele>
        <time>2021-06-23T10:10:12Z</time>
      </trkpt>
      <trkpt lat="47.99814" lon="6.95347">
        <ele>924.99</ele>
        <time>2021-06-23T10:10:13Z</time>
      </trkpt>
      <trkpt lat="47.9981" lon="6.95403">
        <ele>922.8</ele>
        <time>2021-06-23T10:10:14Z</time>
      </trkpt>
      <trkpt lat="47.9981" lon="6.95429">
        <ele>926.93</ele>
        <time>2021-06-23T10:10:15Z</time>
      </trkpt>
      <trkpt lat="47.99806" lon="6.95444">
        <ele>927.16</ele>
        <time>2021-06-23T10:10:17Z</time>
      </trkpt>
      <trkpt lat="47.998" lon="6.95446">
        <ele>921.97</ele>
        <time>2021-06-23T10:10:18Z</time>
      </trkpt>
      <trkpt lat="47.99795" lon="6.9544">
        <ele>916.56</ele>
        <time>2021-06-23T10:10:19Z</time>
      </trkpt>
      <trkpt lat="47.99793" lon="6.95424">
        <ele>912.88</ele>
        <time>2021-06-23T10:10:20Z</time>
      </trkpt>
      <trkpt lat="47.998" lon="6.95354">
        <ele>915.83</ele>
        <time>2021-06-23T10:10:21Z</time>
      </trkpt>
      <trkpt lat="47.9979" lon="6.95272">
        <ele>906.41</ele>
        <time>2021-06-23T10:10:22Z</time>
      </trkpt>
      <trkpt lat="47.99784" lon="6.95214">
        <ele>904.03</ele>
        <time>2021-06-23T10:10:23Z</time>
      </trkpt>
      <trkpt lat="47.99784" lon="6.9517">
        <ele>906.47</ele>
        <time>2021-06-23T10:10:24Z</time>
      </trkpt>
      <trkpt lat="47.9978" lon="6.95147">
        <ele>906.52</ele>
        <time>2021-06-23T10:10:25Z</time>
      </trkpt>
      <trkpt lat="47.99765" lon="6.95108">
        <ele>902.43</ele>
        <time>2021-06-23T10:10:27Z</time>
      </trkpt>
      <trkpt lat="47.99763" lon="6.95092">
        <ele>902.28</ele>
        <time>2021-06-23T10:10:28Z</time>
      </trkpt>
      <trkpt lat="47.99763" lon="6.95061">
        <ele>904.19</ele>
        <time>2021-06-23T10:10:29Z</time>
      </trkpt>
      <trkpt lat="47.9977" lon="6.94985">
        <ele>902.59</ele>
        <time>2021-06-23T10:10:30Z</time>
      </trkpt>
      <trkpt lat="47.99788" lon="6.94911">
        <ele>902.89</ele>
        <time>2021-06-23T10:10:31Z</time>
      </trkpt>
      <trkpt lat="47.99795" lon="6.94851">
        <ele>906.1</ele>
        <time>2021-06-23T10:10:32Z</time>
      </trkpt>
      <trkpt lat="47.99802" lon="6.94811">
        <ele>909.5</ele>
        <time>2021-06-23T10:10:33Z</time>
      </trkpt>
      <trkpt lat="47.99802" lon="6.94802">
        <ele>910.2</ele>
        <time>2021-06-23T10:10:34Z</time>
      </trkpt>
      <trkpt lat="47.99799" lon="6.94795">
        <ele>910.98</ele>
        <time>2021-06-23T10:10:35Z</time>
      </trkpt>
      <trkpt lat="47.99795" lon="6.94792">
        <ele>911.13</ele>
        <time>2021-06-23T10:10:36Z</time>
      </trkpt>
      <trkpt lat="47.99789" lon="6.94793">
        <ele>910.65</ele>
        <time>2021-06-23T10:10:38Z</time>
      </trkpt>
      <trkpt lat="47.99784" lon="6.94798">
        <ele>909.48</ele>
        <time>2021-06-23T10:10:39Z</time>
      </trkpt>
      <trkpt lat="47.99781" lon="6.9481">
        <ele>907.61</ele>
        <time>2021-06-23T10:10:40Z</time>
      </trkpt>
      <trkpt lat="47.99776" lon="6.94865">
        <ele>900.53</ele>
        <time>2021-06-23T10:10:41Z</time>
      </trkpt>
      <trkpt lat="47.99767" lon="6.94901">
        <ele>896.85</ele>
        <time>2021-06-23T10:10:42Z</time>
      </trkpt>
      <trkpt lat="47.99759" lon="6.94925">
        <ele>893.12</ele>
        <time>2021-06-23T10:10:43Z</time>
      </trkpt>
      <trkpt lat="47.99733" lon="6.9498">
        <ele>882.53</ele>
        <time>2021-06-23T10:10:44Z</time>
      </trkpt>
      <trkpt lat="47.99723" lon="6.95012">
        <ele>879.07</ele>
        <time>2021-06-23T10:10:45Z</time>
      </trkpt>
      <trkpt lat="47.99717" lon="6.95057">
        <ele>878.59</ele>
        <time>2021-06-23T10:10:46Z</time>
      </trkpt>
      <trkpt lat="47.99715" lon="6.95086">
        <ele>876.76</ele>
        <time>2021-06-23T10:10:47Z</time>
      </trkpt>
      <trkpt lat="47.99718" lon="6.95103">
        <ele>876.68</ele>
        <time>2021-06-23T10:10:49Z</time>
      </trkpt>
      <trkpt lat="47.99731" lon="6.95144">
        <ele>879.43</ele>
        <time>2021-06-23T10:10:50Z</time>
      </trkpt>
      <trkpt lat="47.99736" lon="6.95173">
        <ele>878.82</ele>
        <time>2021-06-23T10:10:51Z</time>
      </trkpt>
      <trkpt lat="47.99737" lon="6.95204">
        <ele>877.3</ele>
        <time>2021-06-23T10:10:52Z</time>
      </trkpt>
      <trkpt lat="47.99731" lon="6.95275">
        <ele>869.45</ele>
        <time>2021-06-23T10:10:53Z</time>
      </trkpt>
      <trkpt lat="47.99732" lon="6.95318">
        <ele>868.13</ele>
        <time>2021-06-23T10:10:54Z</time>
      </trkpt>
      <trkpt lat="47.99731" lon="6.95337">
        <ele>867.41</ele>
        <time>2021-06-23T10:10:55Z</time>
      </trkpt>
      <trkpt lat="47.99725" lon="6.95377">
        <ele>865.48</ele>
        <time>2021-06-23T10:10:56Z</time>
      </trkpt>
      <trkpt lat="47.99724" lon="6.95414">
        <ele>867.6</ele>
        <time>2021-06-23T10:10:57Z</time>
      </trkpt>
      <trkpt lat="47.99722" lon="6.95423">
        <ele>866.73</ele>
        <time>2021-06-23T10:10:58Z</time>
      </trkpt>
      <trkpt lat="47.99718" lon="6.95428">
        <ele>864.65</ele>
        <time>2021-06-23T10:11:00Z</time>
      </trkpt>
      <trkpt lat="47.99714" lon="6.95428">
        <ele>862.33</ele>
        <time>2021-06-23T10:11:01Z</time>
      </trkpt>
      <trkpt lat="47.9971" lon="6.95425">
        <ele>860.6</ele>
        <time>2021-06-23T10:11:02Z</time>
      </trkpt>
      <trkpt lat="47.99708" lon="6.9542">
        <ele>859.4</ele>
        <time>2021-06-23T10:11:03Z</time>
      </trkpt>
      <trkpt lat="47.99707" lon="6.95413">
        <ele>858.9</ele>
        <time>2021-06-23T10:11:04Z</time>
      </trkpt>
      <trkpt lat="47.99718" lon="6.95331">
        <ele>859.6</ele>
        <time>2021-06-23T10:11:05Z</time>
      </trkpt>
      <trkpt lat="47.99714" lon="6.95278">
        <ele>860.69</ele>
        <time>2021-06-23T10:11:06Z</time>
      </trkpt>
      <trkpt lat="47.99706" lon="6.95227">
        <ele>863.13</ele>
        <time>2021-06-23T10:11:07Z</time>
      </trkpt>
      <trkpt lat="47.99697" lon="6.95188">
        <ele>863.54</ele>
        <time>2021-06-23T10:11:08Z</time>
      </trkpt>
      <trkpt lat="47.99692" lon="6.95174">
        <ele>863.71</ele>
        <time>2021-06-23T10:11:10Z</time>
      </trkpt>
      <trkpt lat="47.99689" lon="6.95169">
        <ele>863.64</ele>
        <time>2021-06-23T10:11:11Z</time>
      </trkpt>
      <trkpt lat="47.9968" lon="6.95168">
        <ele>862.11</ele>
        <time>2021-06-23T10:11:12Z</time>
      </trkpt>
      <trkpt lat="47.99673" lon="6.95178">
        <ele>859.34</ele>
        <time>2021-06-23T10:11:13Z</time>
      </trkpt>
      <trkpt lat="47.99673" lon="6.95184">
        <ele>858.38</ele>
        <time>2021-06-23T10:11:14Z</time>
      </trkpt>
      <trkpt lat="47.99674" lon="6.95191">
        <ele>857.44</ele>
        <time>2021-06-23T10:11:15Z</time>
      </trkpt>
      <trkpt lat="47.9969" lon="6.95233">
        <ele>855.96</ele>
        <time>2021-06-23T10:11:16Z</time>
      </trkpt>
      <trkpt lat="47.99693" lon="6.95248">
        <ele>855.41</ele>
        <time>2021-06-23T10:11:17Z</time>
      </trkpt>
      <trkpt lat="47.99695" lon="6.95279">
        <ele>850.79</ele>
        <time>2021-06-23T10:11:18Z</time>
      </trkpt>
      <trkpt lat="47.99693" lon="6.95311">
        <ele>846.7</ele>
        <time>2021-06-23T10:11:19Z</time>
      </trkpt>
      <trkpt lat="47.99688" lon="6.95351">
        <ele>847.16</ele>
        <time>2021-06-23T10:11:21Z</time>
      </trkpt>
      <trkpt lat="47.99678" lon="6.95392">
        <ele>846.54</ele>
        <time>2021-06-23T10:11:22Z</time>
      </trkpt>
      <trkpt lat="47.99634" lon="6.95539">
        <ele>836.99</ele>
        <time>2021-06-23T10:11:23Z</time>
      </trkpt>
      <trkpt lat="47.99622" lon="6.95563">
        <ele>835.66</ele>
        <time>2021-06-23T10:11:24Z</time>
      </trkpt>
      <trkpt lat="47.99584" lon="6.9562">
        <ele>834.95</ele>
        <time>2021-06-23T10:11:25Z</time>
      </trkpt>
      <trkpt lat="47.99579" lon="6.95627">
        <ele>834.51</ele>
        <time>2021-06-23T10:11:26Z</time>
      </trkpt>
      <trkpt lat="47.99572" lon="6.95627">
        <ele>831.84</ele>
        <time>2021-06-23T10:11:27Z</time>
      </trkpt>
      <trkpt lat="47.99568" lon="6.95622">
        <ele>829.58</ele>
        <time>2021-06-23T10:11:28Z</time>
      </trkpt>
      <trkpt lat="47.9957" lon="6.95604">
        <ele>826.84</ele>
        <time>2021-06-23T10:11:29Z</time>
      </trkpt>
      <trkpt lat="47.99575" lon="6.95593">
        <ele>826.15</ele>
        <time>2021-06-23T10:11:30Z</time>
      </trkpt>
      <trkpt lat="47.99605" lon="6.95549">
        <ele>826.68</ele>
        <time>2021-06-23T10:11:32Z</time>
      </trkpt>
      <trkpt lat="47.99613" lon="6.9553">
        <ele>827.64</ele>
        <time>2021-06-23T10:11:33Z</time>
      </trkpt>
      <trkpt lat="47.99616" lon="6.95507">
        <ele>829</ele>
        <time>2021-06-23T10:11:34Z</time>
      </trkpt>
      <trkpt lat="47.99616" lon="6.95438">
        <ele>827.61</ele>
        <time>2021-06-23T10:11:35Z</time>
      </trkpt>
      <trkpt lat="47.99614" lon="6.95389">
        <ele>823.1</ele>
        <time>2021-06-23T10:11:36Z</time>
      </trkpt>
      <trkpt lat="47.99611" lon="6.95367">
        <ele>822.76</ele>
        <time>2021-06-23T10:11:37Z</time>
      </trkpt>
      <trkpt lat="47.99605" lon="6.95355">
        <ele>823.17</ele>
        <time>2021-06-23T10:11:38Z</time>
      </trkpt>
      <trkpt lat="47.996" lon="6.95352">
        <ele>823.47</ele>
        <time>2021-06-23T10:11:39Z</time>
      </trkpt>
      <trkpt lat="47.99588" lon="6.95356">
        <ele>823.03</ele>
        <time>2021-06-23T10:11:40Z</time>
      </trkpt>
      <trkpt lat="47.99564" lon="6.95376">
        <ele>821.18</ele>
        <time>2021-06-23T10:11:42Z</time>
      </trkpt>
      <trkpt lat="47.9952" lon="6.95422">
        <ele>819.61</ele>
        <time>2021-06-23T10:11:43Z</time>
      </trkpt>
      <trkpt lat="47.99485" lon="6.95453">
        <ele>817.7</ele>
        <time>2021-06-23T10:11:44Z</time>
      </trkpt>
      <trkpt lat="47.99479" lon="6.95462">
        <ele>816.23</ele>
        <time>2021-06-23T10:11:45Z</time>
      </trkpt>
      <trkpt lat="47.99477" lon="6.95474">
        <ele>813.59</ele>
        <time>2021-06-23T10:11:46Z</time>
      </trkpt>
      <trkpt lat="47.99482" lon="6.95483">
        <ele>811.8</ele>
        <time>2021-06-23T10:11:47Z</time>
      </trkpt>
      <trkpt lat="47.99486" lon="6.95483">
        <ele>811.54</ele>
        <time>2021-06-23T10:11:48Z</time>
      </trkpt>
      <trkpt lat="47.99497" lon="6.95477">
        <ele>812.01</ele>
        <time>2021-06-23T10:11:49Z</time>
      </trkpt>
      <trkpt lat="47.99519" lon="6.95456">
        <ele>814.45</ele>
        <time>2021-06-23T10:11:50Z</time>
      </trkpt>
      <trkpt lat="47.99531" lon="6.95455">
        <ele>814</ele>
        <time>2021-06-23T10:11:51Z</time>
      </trkpt>
      <trkpt lat="47.99539" lon="6.9546">
        <ele>814.02</ele>
        <time>2021-06-23T10:11:53Z</time>
      </trkpt>
      <trkpt lat="47.99542" lon="6.95465">
        <ele>813.71</ele>
        <time>2021-06-23T10:11:54Z</time>
      </trkpt>
      <trkpt lat="47.99543" lon="6.95469">
        <ele>813.43</ele>
        <time>2021-06-23T10:11:55Z</time>
      </trkpt>
      <trkpt lat="47.99543" lon="6.95481">
        <ele>812.83</ele>
        <time>2021-06-23T10:11:56Z</time>
      </trkpt>
      <trkpt lat="47.9948" lon="6.95628">
        <ele>803.21</ele>
        <time>2021-06-23T10:11:57Z</time>
      </trkpt>
      <trkpt lat="47.99474" lon="6.95645">
        <ele>803.52</ele>
        <time>2021-06-23T10:11:58Z</time>
      </trkpt>
      <trkpt lat="47.99465" lon="6.95694">
        <ele>805.69</ele>
        <time>2021-06-23T10:11:59Z</time>
      </trkpt>
      <trkpt lat="47.99461" lon="6.95709">
        <ele>803.88</ele>
        <time>2021-06-23T10:12:00Z</time>
      </trkpt>
      <trkpt lat="47.99438" lon="6.95763">
        <ele>794.29</ele>
        <time>2021-06-23T10:12:01Z</time>
      </trkpt>
      <trkpt lat="47.99421" lon="6.9583">
        <ele>790.71</ele>
        <time>2021-06-23T10:12:02Z</time>
      </trkpt>
      <trkpt lat="47.99396" lon="6.95892">
        <ele>792.23</ele>
        <time>2021-06-23T10:12:04Z</time>
      </trkpt>
      <trkpt lat="47.99389" lon="6.95918">
        <ele>792.72</ele>
        <time>2021-06-23T10:12:05Z</time>
      </trkpt>
      <trkpt lat="47.99384" lon="6.95924">
        <ele>791.02</ele>
        <time>2021-06-23T10:12:06Z</time>
      </trkpt>
      <trkpt lat="47.99378" lon="6.95922">
        <ele>787.88</ele>
        <time>2021-06-23T10:12:07Z</time>
      </trkpt>
      <trkpt lat="47.99374" lon="6.95917">
        <ele>785.26</ele>
        <time>2021-06-23T10:12:08Z</time>
      </trkpt>
      <trkpt lat="47.99374" lon="6.95911">
        <ele>784.07</ele>
        <time>2021-06-23T10:12:09Z</time>
      </trkpt>
      <trkpt lat="47.99375" lon="6.95902">
        <ele>783.37</ele>
        <time>2021-06-23T10:12:10Z</time>
      </trkpt>
      <trkpt lat="47.99392" lon="6.95855">
        <ele>783.49</ele>
        <time>2021-06-23T10:12:11Z</time>
      </trkpt>
      <trkpt lat="47.994" lon="6.95813">
        <ele>781.56</ele>
        <time>2021-06-23T10:12:12Z</time>
      </trkpt>
      <trkpt lat="47.99405" lon="6.95756">
        <ele>780.97</ele>
        <time>2021-06-23T10:12:14Z</time>
      </trkpt>
      <trkpt lat="47.99405" lon="6.9575">
        <ele>781</ele>
        <time>2021-06-23T10:12:15Z</time>
      </trkpt>
      <trkpt lat="47.99402" lon="6.95746">
        <ele>780.81</ele>
        <time>2021-06-23T10:12:16Z</time>
      </trkpt>
      <trkpt lat="47.99398" lon="6.95743">
        <ele>780.24</ele>
        <time>2021-06-23T10:12:17Z</time>
      </trkpt>
      <trkpt lat="47.99393" lon="6.95743">
        <ele>778.98</ele>
        <time>2021-06-23T10:12:18Z</time>
      </trkpt>
      <trkpt lat="47.9939" lon="6.95748">
        <ele>777.54</ele>
        <time>2021-06-23T10:12:19Z</time>
      </trkpt>
      <trkpt lat="47.99386" lon="6.95784">
        <ele>775.8</ele>
        <time>2021-06-23T10:12:20Z</time>
      </trkpt>
      <trkpt lat="47.9938" lon="6.95813">
        <ele>776.12</ele>
        <time>2021-06-23T10:12:21Z</time>
      </trkpt>
      <trkpt lat="47.99347" lon="6.95897">
        <ele>771.57</ele>
        <time>2021-06-23T10:12:22Z</time>
      </trkpt>
      <trkpt lat="47.99339" lon="6.95911">
        <ele>769.44</ele>
        <time>2021-06-23T10:12:23Z</time>
      </trkpt>
      <trkpt lat="47.99305" lon="6.95945">
        <ele>761.9</ele>
        <time>2021-06-23T10:12:25Z</time>
      </trkpt>
      <trkpt lat="47.99296" lon="6.95959">
        <ele>760.13</ele>
        <time>2021-06-23T10:12:26Z</time>
      </trkpt>
      <trkpt lat="47.99293" lon="6.95969">
        <ele>759.69</ele>
        <time>2021-06-23T10:12:27Z</time>
      </trkpt>
      <trkpt lat="47.99291" lon="6.95988">
        <ele>759.33</ele>
        <time>2021-06-23T10:12:28Z</time>
      </trkpt>
      <trkpt lat="47.99302" lon="6.96068">
        <ele>757.41</ele>
        <time>2021-06-23T10:12:29Z</time>
      </trkpt>
      <trkpt lat="47.99303" lon="6.96094">
        <ele>755.18</ele>
        <time>2021-06-23T10:12:30Z</time>
      </trkpt>
      <trkpt lat="47.99299" lon="6.96155">
        <ele>756.11</ele>
        <time>2021-06-23T10:12:31Z</time>
      </trkpt>
      <trkpt lat="47.99293" lon="6.96179">
        <ele>756.97</ele>
        <time>2021-06-23T10:12:32Z</time>
      </trkpt>
      <trkpt lat="47.99274" lon="6.96223">
        <ele>758.09</ele>
        <time>2021-06-23T10:12:33Z</time>
      </trkpt>
      <trkpt lat="47.9927" lon="6.96229">
        <ele>758.71</ele>
        <time>2021-06-23T10:12:34Z</time>
      </trkpt>
      <trkpt lat="47.99266" lon="6.96231">
        <ele>757.74</ele>
        <time>2021-06-23T10:12:36Z</time>
      </trkpt>
      <trkpt lat="47.99258" lon="6.96227">
        <ele>753.45</ele>
        <time>2021-06-23T10:12:37Z</time>
      </trkpt>
      <trkpt lat="47.99254" lon="6.96223">
        <ele>750.93</ele>
        <time>2021-06-23T10:12:38Z</time>
      </trkpt>
      <trkpt lat="47.99254" lon="6.96217">
        <ele>749.01</ele>
        <time>2021-06-23T10:12:39Z</time>
      </trkpt>
      <trkpt lat="47.99256" lon="6.96207">
        <ele>746.91</ele>
        <time>2021-06-23T10:12:40Z</time>
      </trkpt>
      <trkpt lat="47.99275" lon="6.96169">
        <ele>745.71</ele>
        <time>2021-06-23T10:12:41Z</time>
      </trkpt>
      <trkpt lat="47.9928" lon="6.96145">
        <ele>744.76</ele>
        <time>2021-06-23T10:12:42Z</time>
      </trkpt>
      <trkpt lat="47.9928" lon="6.96132">
        <ele>743.28</ele>
        <time>2021-06-23T10:12:43Z</time>
      </trkpt>
      <trkpt lat="47.99274" lon="6.96094">
        <ele>740.31</ele>
        <time>2021-06-23T10:12:44Z</time>
      </trkpt>
      <trkpt lat="47.99257" lon="6.96034">
        <ele>745.92</ele>
        <time>2021-06-23T10:12:45Z</time>
      </trkpt>
      <trkpt lat="47.99253" lon="6.96023">
        <ele>747.05</ele>
        <time>2021-06-23T10:12:47Z</time>
      </trkpt>
      <trkpt lat="47.99249" lon="6.96018">
        <ele>746.92</ele>
        <time>2021-06-23T10:12:48Z</time>
      </trkpt>
      <trkpt lat="47.99246" lon="6.96016">
        <ele>746.63</ele>
        <time>2021-06-23T10:12:49Z</time>
      </trkpt>
      <trkpt lat="47.99242" lon="6.96016">
        <ele>746.01</ele>
        <time>2021-06-23T10:12:50Z</time>
      </trkpt>
      <trkpt lat="47.99238" lon="6.9602">
        <ele>744.83</ele>
        <time>2021-06-23T10:12:51Z</time>
      </trkpt>
      <trkpt lat="47.99235" lon="6.96024">
        <ele>743.82</ele>
        <time>2021-06-23T10:12:52Z</time>
      </trkpt>
      <trkpt lat="47.99234" lon="6.96036">
        <ele>741.47</ele>
        <time>2021-06-23T10:12:53Z</time>
      </trkpt>
      <trkpt lat="47.99249" lon="6.96086">
        <ele>734.79</ele>
        <time>2021-06-23T10:12:54Z</time>
      </trkpt>
      <trkpt lat="47.99252" lon="6.96107">
        <ele>734.49</ele>
        <time>2021-06-23T10:12:55Z</time>
      </trkpt>
      <trkpt lat="47.9925" lon="6.96131">
        <ele>734.67</ele>
        <time>2021-06-23T10:12:57Z</time>
      </trkpt>
      <trkpt lat="47.99241" lon="6.96153">
        <ele>734.84</ele>
        <time>2021-06-23T10:12:58Z</time>
      </trkpt>
      <trkpt lat="47.99182" lon="6.96234">
        <ele>733.13</ele>
        <time>2021-06-23T10:12:59Z</time>
      </trkpt>
      <trkpt lat="47.99157" lon="6.96275">
        <ele>729.68</ele>
        <time>2021-06-23T10:13:00Z</time>
      </trkpt>
      <trkpt lat="47.99129" lon="6.96341">
        <ele>723.8</ele>
        <time>2021-06-23T10:13:01Z</time>
      </trkpt>
      <trkpt lat="47.99124" lon="6.96355">
        <ele>721.82</ele>
        <time>2021-06-23T10:13:02Z</time>
      </trkpt>
      <trkpt lat="47.99123" lon="6.96371">
        <ele>720.29</ele>
        <time>2021-06-23T10:13:03Z</time>
      </trkpt>
      <trkpt lat="47.99124" lon="6.96384">
        <ele>719.75</ele>
        <time>2021-06-23T10:13:04Z</time>
      </trkpt>
      <trkpt lat="47.99136" lon="6.96445">
        <ele>714.42</ele>
        <time>2021-06-23T10:13:05Z</time>
      </trkpt>
      <trkpt lat="47.9915" lon="6.96494">
        <ele>712.66</ele>
        <time>2021-06-23T10:13:06Z</time>
      </trkpt>
      <trkpt lat="47.99182" lon="6.96566">
        <ele>717.46</ele>
        <time>2021-06-23T10:13:08Z</time>
      </trkpt>
      <trkpt lat="47.99184" lon="6.96583">
        <ele>718.36</ele>
        <time>2021-06-23T10:13:09Z</time>
      </trkpt>
      <trkpt lat="47.99183" lon="6.96592">
        <ele>719.29</ele>
        <time>2021-06-23T10:13:10Z</time>
      </trkpt>
      <trkpt lat="47.99179" lon="6.96604">
        <ele>719.5</ele>
        <time>2021-06-23T10:13:11Z</time>
      </trkpt>
      <trkpt lat="47.99167" lon="6.9663">
        <ele>718.43</ele>
        <time>2021-06-23T10:13:12Z</time>
      </trkpt>
      <trkpt lat="47.99151" lon="6.96645">
        <ele>717.29</ele>
        <time>2021-06-23T10:13:13Z</time>
      </trkpt>
      <trkpt lat="47.99107" lon="6.96657">
        <ele>711.39</ele>
        <time>2021-06-23T10:13:14Z</time>
      </trkpt>
      <trkpt lat="47.99107" lon="6.96657">
        <ele>711.39</ele>
        <time>2021-06-23T10:13:14Z</time>
      </trkpt>
      <trkpt lat="47.99042" lon="6.96674">
        <ele>706.78</ele>
        <time>2021-06-23T10:13:18Z</time>
      </trkpt>
      <trkpt lat="47.98879" lon="6.96684">
        <ele>694.97</ele>
        <time>2021-06-23T10:13:21Z</time>
      </trkpt>
      <trkpt lat="47.98833" lon="6.96689">
        <ele>696.01</ele>
        <time>2021-06-23T10:13:24Z</time>
      </trkpt>
      <trkpt lat="47.98779" lon="6.96692">
        <ele>688.79</ele>
        <time>2021-06-23T10:13:27Z</time>
      </trkpt>
      <trkpt lat="47.98717" lon="6.96693">
        <ele>681.13</ele>
        <time>2021-06-23T10:13:31Z</time>
      </trkpt>
      <trkpt lat="47.98574" lon="6.96666">
        <ele>681.01</ele>
        <time>2021-06-23T10:13:34Z</time>
      </trkpt>
      <trkpt lat="47.98531" lon="6.96664">
        <ele>677.45</ele>
        <time>2021-06-23T10:13:37Z</time>
      </trkpt>
      <trkpt lat="47.98486" lon="6.96657">
        <ele>667.8</ele>
        <time>2021-06-23T10:13:41Z</time>
      </trkpt>
      <trkpt lat="47.9832" lon="6.966">
        <ele>664.02</ele>
        <time>2021-06-23T10:13:44Z</time>
      </trkpt>
      <trkpt lat="47.98284" lon="6.96591">
        <ele>667.17</ele>
        <time>2021-06-23T10:13:47Z</time>
      </trkpt>
      <trkpt lat="47.98279" lon="6.96584">
        <ele>665.24</ele>
        <time>2021-06-23T10:13:50Z</time>
      </trkpt>
      <trkpt lat="47.98278" lon="6.96579">
        <ele>663.36</ele>
        <time>2021-06-23T10:13:54Z</time>
      </trkpt>
      <trkpt lat="47.9828" lon="6.96571">
        <ele>660.21</ele>
        <time>2021-06-23T10:13:57Z</time>
      </trkpt>
      <trkpt lat="47.98293" lon="6.96569">
        <ele>657.87</ele>
        <time>2021-06-23T10:14:00Z</time>
      </trkpt>
      <trkpt lat="47.9834" lon="6.96587">
        <ele>657.38</ele>
        <time>2021-06-23T10:14:04Z</time>
      </trkpt>
      <trkpt lat="47.98387" lon="6.96597">
        <ele>656.09</ele>
        <time>2021-06-23T10:14:07Z</time>
      </trkpt>
      <trkpt lat="47.9847" lon="6.9661">
        <ele>647.87</ele>
        <time>2021-06-23T10:14:10Z</time>
      </trkpt>
      <trkpt lat="47.98514" lon="6.96604">
        <ele>647.62</ele>
        <time>2021-06-23T10:14:13Z</time>
      </trkpt>
      <trkpt lat="47.98563" lon="6.96594">
        <ele>648.22</ele>
        <time>2021-06-23T10:14:17Z</time>
      </trkpt>
      <trkpt lat="47.98695" lon="6.96606">
        <ele>657.05</ele>
        <time>2021-06-23T10:14:20Z</time>
      </trkpt>
      <trkpt lat="47.98707" lon="6.96605">
        <ele>657.72</ele>
        <time>2021-06-23T10:14:23Z</time>
      </trkpt>
      <trkpt lat="47.98714" lon="6.96599">
        <ele>656.89</ele>
        <time>2021-06-23T10:14:26Z</time>
      </trkpt>
      <trkpt lat="47.98717" lon="6.96594">
        <ele>655.76</ele>
        <time>2021-06-23T10:14:30Z</time>
      </trkpt>
      <trkpt lat="47.98718" lon="6.96587">
        <ele>653.94</ele>
        <time>2021-06-23T10:14:33Z</time>
      </trkpt>
      <trkpt lat="47.98717" lon="6.9658">
        <ele>651.87</ele>
        <time>2021-06-23T10:14:36Z</time>
      </trkpt>
      <trkpt lat="47.98709" lon="6.96572">
        <ele>648.47</ele>
        <time>2021-06-23T10:14:40Z</time>
      </trkpt>
      <trkpt lat="47.98697" lon="6.96566">
        <ele>644.74</ele>
        <time>2021-06-23T10:14:43Z</time>
      </trkpt>
      <trkpt lat="47.98564" lon="6.96543">
        <ele>633.34</ele>
        <time>2021-06-23T10:14:46Z</time>
      </trkpt>
      <trkpt lat="47.98446" lon="6.96511">
        <ele>623.64</ele>
        <time>2021-06-23T10:14:49Z</time>
      </trkpt>
      <trkpt lat="47.98368" lon="6.9648">
        <ele>625.62</ele>
        <time>2021-06-23T10:14:53Z</time>
      </trkpt>
      <trkpt lat="47.98323" lon="6.9645">
        <ele>622.23</ele>
        <time>2021-06-23T10:14:56Z</time>
      </trkpt>
      <trkpt lat="47.9829" lon="6.96417">
        <ele>612</ele>
        <time>2021-06-23T10:14:59Z</time>
      </trkpt>
      <trkpt lat="47.98273" lon="6.96391">
        <ele>613.1</ele>
        <time>2021-06-23T10:15:03Z</time>
      </trkpt>
      <trkpt lat="47.98256" lon="6.96369">
        <ele>612.68</ele>
        <time>2021-06-23T10:15:06Z</time>
      </trkpt>
      <trkpt lat="47.98235" lon="6.9635">
        <ele>610.59</ele>
        <time>2021-06-23T10:15:09Z</time>
      </trkpt>
      <trkpt lat="47.981" lon="6.96286">
        <ele>594.25</ele>
        <time>2021-06-23T10:15:12Z</time>
      </trkpt>
      <trkpt lat="47.98008" lon="6.96247">
        <ele>599.07</ele>
        <time>2021-06-23T10:15:16Z</time>
      </trkpt>
      <trkpt lat="47.97994" lon="6.96237">
        <ele>598.08</ele>
        <time>2021-06-23T10:15:19Z</time>
      </trkpt>
      <trkpt lat="47.97982" lon="6.96224">
        <ele>594.34</ele>
        <time>2021-06-23T10:15:22Z</time>
      </trkpt>
      <trkpt lat="47.97943" lon="6.96173">
        <ele>583.18</ele>
        <time>2021-06-23T10:15:26Z</time>
      </trkpt>
      <trkpt lat="47.97912" lon="6.9614">
        <ele>577.39</ele>
        <time>2021-06-23T10:15:29Z</time>
      </trkpt>
      <trkpt lat="47.97893" lon="6.96133">
        <ele>578.56</ele>
        <time>2021-06-23T10:15:32Z</time>
      </trkpt>
      <trkpt lat="47.97829" lon="6.96119">
        <ele>574.3</ele>
        <time>2021-06-23T10:15:35Z</time>
      </trkpt>
      <trkpt lat="47.9779" lon="6.96136">
        <ele>570.81</ele>
        <time>2021-06-23T10:15:39Z</time>
      </trkpt>
      <trkpt lat="47.97779" lon="6.96138">
        <ele>570.05</ele>
        <time>2021-06-23T10:15:42Z</time>
      </trkpt>
      <trkpt lat="47.97675" lon="6.96106">
        <ele>569.15</ele>
        <time>2021-06-23T10:15:45Z</time>
      </trkpt>
      <trkpt lat="47.97597" lon="6.96089">
        <ele>570.49</ele>
        <time>2021-06-23T10:15:49Z</time>
      </trkpt>
      <trkpt lat="47.97545" lon="6.96075">
        <ele>565.18</ele>
        <time>2021-06-23T10:15:52Z</time>
      </trkpt>
      <trkpt lat="47.97531" lon="6.96074">
        <ele>564.18</ele>
        <time>2021-06-23T10:15:55Z</time>
      </trkpt>
      <trkpt lat="47.97502" lon="6.96078">
        <ele>565.51</ele>
        <time>2021-06-23T10:15:58Z</time>
      </trkpt>
      <trkpt lat="47.97463" lon="6.9608">
        <ele>571.94</ele>
        <time>2021-06-23T10:16:02Z</time>
      </trkpt>
      <trkpt lat="47.97446" lon="6.96076">
        <ele>574.1</ele>
        <time>2021-06-23T10:16:05Z</time>
      </trkpt>
      <trkpt lat="47.97321" lon="6.96018">
        <ele>567.35</ele>
        <time>2021-06-23T10:16:08Z</time>
      </trkpt>
      <trkpt lat="47.97236" lon="6.96001">
        <ele>562.04</ele>
        <time>2021-06-23T10:16:12Z</time>
      </trkpt>
      <trkpt lat="47.97191" lon="6.9597">
        <ele>559.87</ele>
        <time>2021-06-23T10:16:15Z</time>
      </trkpt>
      <trkpt lat="47.97179" lon="6.95965">
        <ele>559.46</ele>
        <time>2021-06-23T10:16:18Z</time>
      </trkpt>
      <trkpt lat="47.97093" lon="6.95952">
        <ele>561.65</ele>
        <time>2021-06-23T10:16:21Z</time>
      </trkpt>
      <trkpt lat="47.97021" lon="6.95959">
        <ele>561.04</ele>
        <time>2021-06-23T10:16:25Z</time>
      </trkpt>
      <trkpt lat="47.97003" lon="6.95955">
        <ele>561.76</ele>
        <time>2021-06-23T10:16:28Z</time>
      </trkpt>
      <trkpt lat="47.96833" lon="6.95898">
        <ele>570.47</ele>
        <time>2021-06-23T10:16:31Z</time>
      </trkpt>
      <trkpt lat="47.96778" lon="6.95883">
        <ele>563.96</ele>
        <time>2021-06-23T10:16:35Z</time>
      </trkpt>
      <trkpt lat="47.96684" lon="6.95878">
        <ele>564.32</ele>
        <time>2021-06-23T10:16:38Z</time>
      </trkpt>
      <trkpt lat="47.96573" lon="6.95894">
        <ele>563.17</ele>
        <time>2021-06-23T10:16:41Z</time>
      </trkpt>
      <trkpt lat="47.96502" lon="6.95918">
        <ele>552.87</ele>
        <time>2021-06-23T10:16:44Z</time>
      </trkpt>
      <trkpt lat="47.96434" lon="6.95948">
        <ele>552.96</ele>
        <time>2021-06-23T10:16:48Z</time>
      </trkpt>
      <trkpt lat="47.96409" lon="6.95966">
        <ele>555.38</ele>
        <time>2021-06-23T10:16:51Z</time>
      </trkpt>
      <trkpt lat="47.96389" lon="6.95983">
        <ele>556.24</ele>
        <time>2021-06-23T10:16:54Z</time>
      </trkpt>
      <trkpt lat="47.96339" lon="6.9604">
        <ele>562.71</ele>
        <time>2021-06-23T10:16:58Z</time>
      </trkpt>
      <trkpt lat="47.96309" lon="6.96082">
        <ele>562.91</ele>
        <time>2021-06-23T10:17:01Z</time>
      </trkpt>
      <trkpt lat="47.96285" lon="6.96108">
        <ele>560.8</ele>
        <time>2021-06-23T10:17:04Z</time>
      </trkpt>
      <trkpt lat="47.96266" lon="6.96122">
        <ele>558.99</ele>
        <time>2021-06-23T10:17:07Z</time>
      </trkpt>
      <trkpt lat="47.96247" lon="6.96132">
        <ele>556.32</ele>
        <time>2021-06-23T10:17:11Z</time>
      </trkpt>
      <trkpt lat="47.96226" lon="6.96138">
        <ele>556.13</ele>
        <time>2021-06-23T10:17:14Z</time>
      </trkpt>
      <trkpt lat="47.96112" lon="6.96145">
        <ele>555.91</ele>
        <time>2021-06-23T10:17:17Z</time>
      </trkpt>
      <trkpt lat="47.96064" lon="6.96151">
        <ele>556.59</ele>
        <time>2021-06-23T10:17:21Z</time>
      </trkpt>
      <trkpt lat="47.95976" lon="6.96167">
        <ele>558.99</ele>
        <time>2021-06-23T10:17:24Z</time>
      </trkpt>
      <trkpt lat="47.95851" lon="6.9617">
        <ele>554.96</ele>
        <time>2021-06-23T10:17:27Z</time>
      </trkpt>
      <trkpt lat="47.95711" lon="6.96186">
        <ele>561.44</ele>
        <time>2021-06-23T10:17:30Z</time>
      </trkpt>
      <trkpt lat="47.95596" lon="6.96185">
        <ele>558.18</ele>
        <time>2021-06-23T10:17:34Z</time>
      </trkpt>
      <trkpt lat="47.9555" lon="6.96177">
        <ele>553.9</ele>
        <time>2021-06-23T10:17:37Z</time>
      </trkpt>
      <trkpt lat="47.95512" lon="6.96161">
        <ele>552.63</ele>
        <time>2021-06-23T10:17:40Z</time>
      </trkpt>
      <trkpt lat="47.95464" lon="6.96134">
        <ele>552.9</ele>
        <time>2021-06-23T10:17:44Z</time>
      </trkpt>
      <trkpt lat="47.95413" lon="6.96115">
        <ele>554.29</ele>
        <time>2021-06-23T10:17:47Z</time>
      </trkpt>
      <trkpt lat="47.95388" lon="6.9611">
        <ele>555.77</ele>
        <time>2021-06-23T10:17:50Z</time>
      </trkpt>
      <trkpt lat="47.95346" lon="6.96106">
        <ele>561.32</ele>
        <time>2021-06-23T10:17:53Z</time>
      </trkpt>
      <trkpt lat="47.95159" lon="6.96104">
        <ele>544.17</ele>
        <time>2021-06-23T10:17:57Z</time>
      </trkpt>
      <trkpt lat="47.95047" lon="6.96099">
        <ele>543.99</ele>
        <time>2021-06-23T10:18:00Z</time>
      </trkpt>
      <trkpt lat="47.95008" lon="6.96106">
        <ele>540.38</ele>
        <time>2021-06-23T10:18:03Z</time>
      </trkpt>
      <trkpt lat="47.94923" lon="6.96139">
        <ele>551.35</ele>
        <time>2021-06-23T10:18:07Z</time>
      </trkpt>
      <trkpt lat="47.94886" lon="6.96147">
        <ele>556.75</ele>
        <time>2021-06-23T10:18:10Z</time>
      </trkpt>
      <trkpt lat="47.94829" lon="6.96148">
        <ele>547.97</ele>
        <time>2021-06-23T10:18:13Z</time>
      </trkpt>
      <trkpt lat="47.94701" lon="6.96122">
        <ele>538.77</ele>
        <time>2021-06-23T10:18:16Z</time>
      </trkpt>
      <trkpt lat="47.94644" lon="6.96113">
        <ele>534.78</ele>
        <time>2021-06-23T10:18:20Z</time>
      </trkpt>
      <trkpt lat="47.94469" lon="6.96121">
        <ele>527.33</ele>
        <time>2021-06-23T10:18:23Z</time>
      </trkpt>
      <trkpt lat="47.94443" lon="6.96128">
        <ele>525.67</ele>
        <time>2021-06-23T10:18:26Z</time>
      </trkpt>
      <trkpt lat="47.94306" lon="6.96181">
        <ele>508.99</ele>
        <time>2021-06-23T10:18:30Z</time>
      </trkpt>
      <trkpt lat="47.94272" lon="6.9619">
        <ele>506.26</ele>
        <time>2021-06-23T10:18:33Z</time>
      </trkpt>
      <trkpt lat="47.94239" lon="6.96194">
        <ele>504.61</ele>
        <time>2021-06-23T10:18:36Z</time>
      </trkpt>
      <trkpt lat="47.942" lon="6.96192">
        <ele>503.03</ele>
        <time>2021-06-23T10:18:39Z</time>
      </trkpt>
      <trkpt lat="47.941" lon="6.96158">
        <ele>502.97</ele>
        <time>2021-06-23T10:18:43Z</time>
      </trkpt>
      <trkpt lat="47.94052" lon="6.9615">
        <ele>501.31</ele>
        <time>2021-06-23T10:18:46Z</time>
      </trkpt>
      <trkpt lat="47.94011" lon="6.96153">
        <ele>498.22</ele>
        <time>2021-06-23T10:18:49Z</time>
      </trkpt>
      <trkpt lat="47.94011" lon="6.96153">
        <ele>498.22</ele>
        <time>2021-06-23T10:18:49Z</time>
      </trkpt>
      <trkpt lat="47.93958" lon="6.96164">
        <ele>496.11</ele>
        <time>2021-06-23T10:18:54Z</time>
      </trkpt>
      <trkpt lat="47.93874" lon="6.96198">
        <ele>497</ele>
        <time>2021-06-23T10:19:00Z</time>
      </trkpt>
      <trkpt lat="47.93845" lon="6.96208">
        <ele>497.58</ele>
        <time>2021-06-23T10:19:05Z</time>
      </trkpt>
      <trkpt lat="47.93774" lon="6.96211">
        <ele>499.35</ele>
        <time>2021-06-23T10:19:10Z</time>
      </trkpt>
      <trkpt lat="47.93573" lon="6.96275">
        <ele>496.96</ele>
        <time>2021-06-23T10:19:15Z</time>
      </trkpt>
      <trkpt lat="47.93506" lon="6.96293">
        <ele>498.53</ele>
        <time>2021-06-23T10:19:20Z</time>
      </trkpt>
      <trkpt lat="47.93444" lon="6.96357">
        <ele>498.98</ele>
        <time>2021-06-23T10:19:26Z</time>
      </trkpt>
      <trkpt lat="47.9339" lon="6.96403">
        <ele>498.51</ele>
        <time>2021-06-23T10:19:31Z</time>
      </trkpt>
      <trkpt lat="47.93376" lon="6.96417">
        <ele>498.54</ele>
        <time>2021-06-23T10:19:36Z</time>
      </trkpt>
      <trkpt lat="47.9336" lon="6.96439">
        <ele>498</ele>
        <time>2021-06-23T10:19:41Z</time>
      </trkpt>
      <trkpt lat="47.93309" lon="6.96533">
        <ele>498.9</ele>
        <time>2021-06-23T10:19:46Z</time>
      </trkpt>
      <trkpt lat="47.93298" lon="6.96544">
        <ele>499</ele>
        <time>2021-06-23T10:19:51Z</time>
      </trkpt>
      <trkpt lat="47.93263" lon="6.96569">
        <ele>498.48</ele>
        <time>2021-06-23T10:19:57Z</time>
      </trkpt>
      <trkpt lat="47.93243" lon="6.96581">
        <ele>497.49</ele>
        <time>2021-06-23T10:20:02Z</time>
      </trkpt>
      <trkpt lat="47.9323" lon="6.96583">
        <ele>496.57</ele>
        <time>2021-06-23T10:20:07Z</time>
      </trkpt>
      <trkpt lat="47.93224" lon="6.96581">
        <ele>496.14</ele>
        <time>2021-06-23T10:20:12Z</time>
      </trkpt>
      <trkpt lat="47.93208" lon="6.96568">
        <ele>495.77</ele>
        <time>2021-06-23T10:20:17Z</time>
      </trkpt>
      <trkpt lat="47.93161" lon="6.96522">
        <ele>496</ele>
        <time>2021-06-23T10:20:22Z</time>
      </trkpt>
      <trkpt lat="47.93143" lon="6.96514">
        <ele>496</ele>
        <time>2021-06-23T10:20:28Z</time>
      </trkpt>
      <trkpt lat="47.93082" lon="6.965">
        <ele>493.93</ele>
        <time>2021-06-23T10:20:33Z</time>
      </trkpt>
      <trkpt lat="47.93022" lon="6.965">
        <ele>490.79</ele>
        <time>2021-06-23T10:20:38Z</time>
      </trkpt>
      <trkpt lat="47.92966" lon="6.96503">
        <ele>488.92</ele>
        <time>2021-06-23T10:20:43Z</time>
      </trkpt>
      <trkpt lat="47.92949" lon="6.9651">
        <ele>488.85</ele>
        <time>2021-06-23T10:20:48Z</time>
      </trkpt>
      <trkpt lat="47.92933" lon="6.9653">
        <ele>489.19</ele>
        <time>2021-06-23T10:20:53Z</time>
      </trkpt>
      <trkpt lat="47.92925" lon="6.96547">
        <ele>488.59</ele>
        <time>2021-06-23T10:20:59Z</time>
      </trkpt>
      <trkpt lat="47.92921" lon="6.96559">
        <ele>488.21</ele>
        <time>2021-06-23T10:21:04Z</time>
      </trkpt>
      <trkpt lat="47.92916" lon="6.96596">
        <ele>486.49</ele>
        <time>2021-06-23T10:21:09Z</time>
      </trkpt>
      <trkpt lat="47.92907" lon="6.96672">
        <ele>486.94</ele>
        <time>2021-06-23T10:21:14Z</time>
      </trkpt>
      <trkpt lat="47.92901" lon="6.96696">
        <ele>487.96</ele>
        <time>2021-06-23T10:21:19Z</time>
      </trkpt>
      <trkpt lat="47.9289" lon="6.96712">
        <ele>488.89</ele>
        <time>2021-06-23T10:21:24Z</time>
      </trkpt>
      <trkpt lat="47.92835" lon="6.96778">
        <ele>493.17</ele>
        <time>2021-06-23T10:21:30Z</time>
      </trkpt>
      <trkpt lat="47.92814" lon="6.96798">
        <ele>493.15</ele>
        <time>2021-06-23T10:21:35Z</time>
      </trkpt>
      <trkpt lat="47.92771" lon="6.96816">
        <ele>487.45</ele>
        <time>2021-06-23T10:21:40Z</time>
      </trkpt>
      <trkpt lat="47.92742" lon="6.9682">
        <ele>484.06</ele>
        <time>2021-06-23T10:21:45Z</time>
      </trkpt>
      <trkpt lat="47.9264" lon="6.96811">
        <ele>485.56</ele>
        <time>2021-06-23T10:21:50Z</time>
      </trkpt>
      <trkpt lat="47.92567" lon="6.96833">
        <ele>482.8</ele>
        <time>2021-06-23T10:21:55Z</time>
      </trkpt>
      <trkpt lat="47.92506" lon="6.96843">
        <ele>481.36</ele>
        <time>2021-06-23T10:22:01Z</time>
      </trkpt>
      <trkpt lat="47.92497" lon="6.96848">
        <ele>481.49</ele>
        <time>2021-06-23T10:22:06Z</time>
      </trkpt>
      <trkpt lat="47.92489" lon="6.96858">
        <ele>481.82</ele>
        <time>2021-06-23T10:22:11Z</time>
      </trkpt>
      <trkpt lat="47.92459" lon="6.96904">
        <ele>482.58</ele>
        <time>2021-06-23T10:22:16Z</time>
      </trkpt>
      <trkpt lat="47.92449" lon="6.96916">
        <ele>480.91</ele>
        <time>2021-06-23T10:22:21Z</time>
      </trkpt>
      <trkpt lat="47.92429" lon="6.96935">
        <ele>481.04</ele>
        <time>2021-06-23T10:22:26Z</time>
      </trkpt>
      <trkpt lat="47.92413" lon="6.96944">
        <ele>480.83</ele>
        <time>2021-06-23T10:22:32Z</time>
      </trkpt>
      <trkpt lat="47.92209" lon="6.9701">
        <ele>477.21</ele>
        <time>2021-06-23T10:22:37Z</time>
      </trkpt>
      <trkpt lat="47.91995" lon="6.97071">
        <ele>471.67</ele>
        <time>2021-06-23T10:22:42Z</time>
      </trkpt>
      <trkpt lat="47.91957" lon="6.97085">
        <ele>471.95</ele>
        <time>2021-06-23T10:22:47Z</time>
      </trkpt>
      <trkpt lat="47.91942" lon="6.97092">
        <ele>471.06</ele>
        <time>2021-06-23T10:22:52Z</time>
      </trkpt>
      <trkpt lat="47.91911" lon="6.9711">
        <ele>468.99</ele>
        <time>2021-06-23T10:22:57Z</time>
      </trkpt>
      <trkpt lat="47.91789" lon="6.97209">
        <ele>469.27</ele>
        <time>2021-06-23T10:23:03Z</time>
      </trkpt>
      <trkpt lat="47.91743" lon="6.97255">
        <ele>466.44</ele>
        <time>2021-06-23T10:23:08Z</time>
      </trkpt>
      <trkpt lat="47.9171" lon="6.97294">
        <ele>468.33</ele>
        <time>2021-06-23T10:23:13Z</time>
      </trkpt>
      <trkpt lat="47.91684" lon="6.97318">
        <ele>468.27</ele>
        <time>2021-06-23T10:23:18Z</time>
      </trkpt>
      <trkpt lat="47.91674" lon="6.97326">
        <ele>468.18</ele>
        <time>2021-06-23T10:23:23Z</time>
      </trkpt>
      <trkpt lat="47.91655" lon="6.97337">
        <ele>467.56</ele>
        <time>2021-06-23T10:23:28Z</time>
      </trkpt>
      <trkpt lat="47.91614" lon="6.97355">
        <ele>465.92</ele>
        <time>2021-06-23T10:23:34Z</time>
      </trkpt>
      <trkpt lat="47.91582" lon="6.97374">
        <ele>467.89</ele>
        <time>2021-06-23T10:23:39Z</time>
      </trkpt>
      <trkpt lat="47.91551" lon="6.97393">
        <ele>468.71</ele>
        <time>2021-06-23T10:23:44Z</time>
      </trkpt>
      <trkpt lat="47.91524" lon="6.97405">
        <ele>466.07</ele>
        <time>2021-06-23T10:23:49Z</time>
      </trkpt>
      <trkpt lat="47.91402" lon="6.97421">
        <ele>465.14</ele>
        <time>2021-06-23T10:23:54Z</time>
      </trkpt>
      <trkpt lat="47.91317" lon="6.97436">
        <ele>466.42</ele>
        <time>2021-06-23T10:23:59Z</time>
      </trkpt>
      <trkpt lat="47.91263" lon="6.97451">
        <ele>466.23</ele>
        <time>2021-06-23T10:24:05Z</time>
      </trkpt>
      <trkpt lat="47.91139" lon="6.97493">
        <ele>467.73</ele>
        <time>2021-06-23T10:24:10Z</time>
      </trkpt>
      <trkpt lat="47.91079" lon="6.975">
        <ele>466.85</ele>
        <time>2021-06-23T10:24:15Z</time>
      </trkpt>
      <trkpt lat="47.91053" lon="6.97506">
        <ele>465.62</ele>
        <time>2021-06-23T10:24:20Z</time>
      </trkpt>
      <trkpt lat="47.9096" lon="6.97544">
        <ele>461.57</ele>
        <time>2021-06-23T10:24:25Z</time>
      </trkpt>
      <trkpt lat="47.90949" lon="6.97551">
        <ele>461.17</ele>
        <time>2021-06-23T10:24:30Z</time>
      </trkpt>
      <trkpt lat="47.90911" lon="6.97588">
        <ele>461.2</ele>
        <time>2021-06-23T10:24:36Z</time>
      </trkpt>
      <trkpt lat="47.90879" lon="6.97602">
        <ele>462.57</ele>
        <time>2021-06-23T10:24:41Z</time>
      </trkpt>
      <trkpt lat="47.90869" lon="6.97604">
        <ele>463.02</ele>
        <time>2021-06-23T10:24:46Z</time>
      </trkpt>
      <trkpt lat="47.90837" lon="6.97608">
        <ele>465.2</ele>
        <time>2021-06-23T10:24:51Z</time>
      </trkpt>
      <trkpt lat="47.90817" lon="6.97602">
        <ele>464.83</ele>
        <time>2021-06-23T10:24:56Z</time>
      </trkpt>
      <trkpt lat="47.90785" lon="6.97589">
        <ele>463.36</ele>
        <time>2021-06-23T10:25:01Z</time>
      </trkpt>
      <trkpt lat="47.90717" lon="6.97552">
        <ele>459.05</ele>
        <time>2021-06-23T10:25:07Z</time>
      </trkpt>
      <trkpt lat="47.90602" lon="6.97466">
        <ele>453.18</ele>
        <time>2021-06-23T10:25:12Z</time>
      </trkpt>
      <trkpt lat="47.90591" lon="6.97461">
        <ele>453.62</ele>
        <time>2021-06-23T10:25:17Z</time>
      </trkpt>
      <trkpt lat="47.90501" lon="6.97473">
        <ele>453.26</ele>
        <time>2021-06-23T10:25:22Z</time>
      </trkpt>
      <trkpt lat="47.90469" lon="6.97484">
        <ele>451.49</ele>
        <time>2021-06-23T10:25:27Z</time>
      </trkpt>
      <trkpt lat="47.90446" lon="6.97499">
        <ele>451.03</ele>
        <time>2021-06-23T10:25:33Z</time>
      </trkpt>
      <trkpt lat="47.90417" lon="6.97522">
        <ele>450.8</ele>
        <time>2021-06-23T10:25:38Z</time>
      </trkpt>
      <trkpt lat="47.90392" lon="6.97546">
        <ele>450.81</ele>
        <time>2021-06-23T10:25:43Z</time>
      </trkpt>
      <trkpt lat="47.90351" lon="6.97592">
        <ele>452.16</ele>
        <time>2021-06-23T10:25:48Z</time>
      </trkpt>
      <trkpt lat="47.90241" lon="6.97691">
        <ele>447.72</ele>
        <time>2021-06-23T10:25:53Z</time>
      </trkpt>
      <trkpt lat="47.90224" lon="6.97701">
        <ele>447.13</ele>
        <time>2021-06-23T10:25:58Z</time>
      </trkpt>
      <trkpt lat="47.90185" lon="6.97714">
        <ele>445.96</ele>
        <time>2021-06-23T10:26:04Z</time>
      </trkpt>
      <trkpt lat="47.90158" lon="6.97727">
        <ele>444.88</ele>
        <time>2021-06-23T10:26:09Z</time>
      </trkpt>
      <trkpt lat="47.90138" lon="6.97739">
        <ele>443.75</ele>
        <time>2021-06-23T10:26:14Z</time>
      </trkpt>
      <trkpt lat="47.90112" lon="6.97762">
        <ele>442.46</ele>
        <time>2021-06-23T10:26:19Z</time>
      </trkpt>
      <trkpt lat="47.90098" lon="6.97779">
        <ele>443.04</ele>
        <time>2021-06-23T10:26:24Z</time>
      </trkpt>
      <trkpt lat="47.90023" lon="6.9789">
        <ele>446.02</ele>
        <time>2021-06-23T10:26:29Z</time>
      </trkpt>
      <trkpt lat="47.89949" lon="6.97986">
        <ele>443.17</ele>
        <time>2021-06-23T10:26:35Z</time>
      </trkpt>
      <trkpt lat="47.8993" lon="6.98011">
        <ele>443</ele>
        <time>2021-06-23T10:26:40Z</time>
      </trkpt>
      <trkpt lat="47.8989" lon="6.98074">
        <ele>442.98</ele>
        <time>2021-06-23T10:26:45Z</time>
      </trkpt>
      <trkpt lat="47.89879" lon="6.98087">
        <ele>442.56</ele>
        <time>2021-06-23T10:26:50Z</time>
      </trkpt>
      <trkpt lat="47.89777" lon="6.98244">
        <ele>441.05</ele>
        <time>2021-06-23T10:26:55Z</time>
      </trkpt>
      <trkpt lat="47.89769" lon="6.98261">
        <ele>441.89</ele>
        <time>2021-06-23T10:27:00Z</time>
      </trkpt>
      <trkpt lat="47.89735" lon="6.98406">
        <ele>442.47</ele>
        <time>2021-06-23T10:27:06Z</time>
      </trkpt>
      <trkpt lat="47.89707" lon="6.98473">
        <ele>440.45</ele>
        <time>2021-06-23T10:27:11Z</time>
      </trkpt>
      <trkpt lat="47.89689" lon="6.9845">
        <ele>440</ele>
        <time>2021-06-23T10:27:16Z</time>
      </trkpt>
      <trkpt lat="47.89667" lon="6.98414">
        <ele>440</ele>
        <time>2021-06-23T10:27:22Z</time>
      </trkpt>
      <trkpt lat="47.8965" lon="6.98382">
        <ele>440</ele>
        <time>2021-06-23T10:27:27Z</time>
      </trkpt>
      <trkpt lat="47.8963" lon="6.98337">
        <ele>439.96</ele>
        <time>2021-06-23T10:27:32Z</time>
      </trkpt>
      <trkpt lat="47.89616" lon="6.98287">
        <ele>440.17</ele>
        <time>2021-06-23T10:27:38Z</time>
      </trkpt>
      <trkpt lat="47.8961" lon="6.98274">
        <ele>439.78</ele>
        <time>2021-06-23T10:27:43Z</time>
      </trkpt>
      <trkpt lat="47.89566" lon="6.98248">
        <ele>435.76</ele>
        <time>2021-06-23T10:27:49Z</time>
      </trkpt>
      <trkpt lat="47.89535" lon="6.98219">
        <ele>434.48</ele>
        <time>2021-06-23T10:27:54Z</time>
      </trkpt>
      <trkpt lat="47.89523" lon="6.98212">
        <ele>434.87</ele>
        <time>2021-06-23T10:28:00Z</time>
      </trkpt>
      <trkpt lat="47.89517" lon="6.98211">
        <ele>435.06</ele>
        <time>2021-06-23T10:28:05Z</time>
      </trkpt>
      <trkpt lat="47.89331" lon="6.98245">
        <ele>436.84</ele>
        <time>2021-06-23T10:28:10Z</time>
      </trkpt>
      <trkpt lat="47.89308" lon="6.98247">
        <ele>435.27</ele>
        <time>2021-06-23T10:28:16Z</time>
      </trkpt>
      <trkpt lat="47.89296" lon="6.98243">
        <ele>435.87</ele>
        <time>2021-06-23T10:28:21Z</time>
      </trkpt>
      <trkpt lat="47.8929" lon="6.98239">
        <ele>436.32</ele>
        <time>2021-06-23T10:28:27Z</time>
      </trkpt>
      <trkpt lat="47.89225" lon="6.98173">
        <ele>439.7</ele>
        <time>2021-06-23T10:28:32Z</time>
      </trkpt>
      <trkpt lat="47.89211" lon="6.98169">
        <ele>439.91</ele>
        <time>2021-06-23T10:28:37Z</time>
      </trkpt>
      <trkpt lat="47.89192" lon="6.98169">
        <ele>439.83</ele>
        <time>2021-06-23T10:28:43Z</time>
      </trkpt>
      <trkpt lat="47.89171" lon="6.9817">
        <ele>439.01</ele>
        <time>2021-06-23T10:28:48Z</time>
      </trkpt>
      <trkpt lat="47.89169" lon="6.98152">
        <ele>441.01</ele>
        <time>2021-06-23T10:28:50Z</time>
      </trkpt>
      <trkpt lat="47.89169" lon="6.98152">
        <ele>441.01</ele>
        <time>2021-06-23T10:28:50Z</time>
      </trkpt>
      <trkpt lat="47.89166" lon="6.98108">
        <ele>443.01</ele>
        <time>2021-06-23T10:28:54Z</time>
      </trkpt>
      <trkpt lat="47.89158" lon="6.98057">
        <ele>444.26</ele>
        <time>2021-06-23T10:28:59Z</time>
      </trkpt>
      <trkpt lat="47.89136" lon="6.97921">
        <ele>447.34</ele>
        <time>2021-06-23T10:29:04Z</time>
      </trkpt>
      <trkpt lat="47.89123" lon="6.97822">
        <ele>450.95</ele>
        <time>2021-06-23T10:29:09Z</time>
      </trkpt>
      <trkpt lat="47.89108" lon="6.9773">
        <ele>450.05</ele>
        <time>2021-06-23T10:29:14Z</time>
      </trkpt>
      <trkpt lat="47.8909" lon="6.97672">
        <ele>450.98</ele>
        <time>2021-06-23T10:29:19Z</time>
      </trkpt>
      <trkpt lat="47.89068" lon="6.97619">
        <ele>459.88</ele>
        <time>2021-06-23T10:29:24Z</time>
      </trkpt>
      <trkpt lat="47.89034" lon="6.97557">
        <ele>462.74</ele>
        <time>2021-06-23T10:29:28Z</time>
      </trkpt>
      <trkpt lat="47.88954" lon="6.97402">
        <ele>458.57</ele>
        <time>2021-06-23T10:29:33Z</time>
      </trkpt>
      <trkpt lat="47.88918" lon="6.97325">
        <ele>456.33</ele>
        <time>2021-06-23T10:29:38Z</time>
      </trkpt>
      <trkpt lat="47.88893" lon="6.9728">
        <ele>456.09</ele>
        <time>2021-06-23T10:29:43Z</time>
      </trkpt>
      <trkpt lat="47.88874" lon="6.97251">
        <ele>458.23</ele>
        <time>2021-06-23T10:29:48Z</time>
      </trkpt>
      <trkpt lat="47.88859" lon="6.97225">
        <ele>457.57</ele>
        <time>2021-06-23T10:29:53Z</time>
      </trkpt>
      <trkpt lat="47.88847" lon="6.97198">
        <ele>457.46</ele>
        <time>2021-06-23T10:29:57Z</time>
      </trkpt>
      <trkpt lat="47.888" lon="6.97081">
        <ele>448.24</ele>
        <time>2021-06-23T10:30:02Z</time>
      </trkpt>
      <trkpt lat="47.88777" lon="6.97011">
        <ele>455.5</ele>
        <time>2021-06-23T10:30:07Z</time>
      </trkpt>
      <trkpt lat="47.88751" lon="6.96914">
        <ele>451.49</ele>
        <time>2021-06-23T10:30:12Z</time>
      </trkpt>
      <trkpt lat="47.88742" lon="6.96891">
        <ele>454.01</ele>
        <time>2021-06-23T10:30:17Z</time>
      </trkpt>
      <trkpt lat="47.88693" lon="6.96803">
        <ele>454.32</ele>
        <time>2021-06-23T10:30:22Z</time>
      </trkpt>
      <trkpt lat="47.88682" lon="6.96782">
        <ele>457.2</ele>
        <time>2021-06-23T10:30:27Z</time>
      </trkpt>
      <trkpt lat="47.88674" lon="6.96762">
        <ele>457.49</ele>
        <time>2021-06-23T10:30:31Z</time>
      </trkpt>
      <trkpt lat="47.88659" lon="6.96717">
        <ele>458.76</ele>
        <time>2021-06-23T10:30:36Z</time>
      </trkpt>
      <trkpt lat="47.8864" lon="6.96637">
        <ele>452.57</ele>
        <time>2021-06-23T10:30:41Z</time>
      </trkpt>
      <trkpt lat="47.88624" lon="6.96589">
        <ele>458</ele>
        <time>2021-06-23T10:30:46Z</time>
      </trkpt>
      <trkpt lat="47.88598" lon="6.96528">
        <ele>452.78</ele>
        <time>2021-06-23T10:30:51Z</time>
      </trkpt>
      <trkpt lat="47.88497" lon="6.9631">
        <ele>453.09</ele>
        <time>2021-06-23T10:30:56Z</time>
      </trkpt>
      <trkpt lat="47.88473" lon="6.96245">
        <ele>449.45</ele>
        <time>2021-06-23T10:31:01Z</time>
      </trkpt>
      <trkpt lat="47.88446" lon="6.96157">
        <ele>447.55</ele>
        <time>2021-06-23T10:31:05Z</time>
      </trkpt>
      <trkpt lat="47.88404" lon="6.96017">
        <ele>448.18</ele>
        <time>2021-06-23T10:31:10Z</time>
      </trkpt>
      <trkpt lat="47.88286" lon="6.95612">
        <ele>453.73</ele>
        <time>2021-06-23T10:31:15Z</time>
      </trkpt>
      <trkpt lat="47.88251" lon="6.95511">
        <ele>455.93</ele>
        <time>2021-06-23T10:31:20Z</time>
      </trkpt>
      <trkpt lat="47.88246" lon="6.95482">
        <ele>455.94</ele>
        <time>2021-06-23T10:31:25Z</time>
      </trkpt>
      <trkpt lat="47.88244" lon="6.95459">
        <ele>456</ele>
        <time>2021-06-23T10:31:30Z</time>
      </trkpt>
      <trkpt lat="47.88246" lon="6.95408">
        <ele>456.14</ele>
        <time>2021-06-23T10:31:34Z</time>
      </trkpt>
      <trkpt lat="47.88246" lon="6.95347">
        <ele>453.84</ele>
        <time>2021-06-23T10:31:39Z</time>
      </trkpt>
      <trkpt lat="47.88243" lon="6.95303">
        <ele>451.75</ele>
        <time>2021-06-23T10:31:44Z</time>
      </trkpt>
      <trkpt lat="47.88233" lon="6.95235">
        <ele>452.6</ele>
        <time>2021-06-23T10:31:49Z</time>
      </trkpt>
      <trkpt lat="47.88222" lon="6.95169">
        <ele>453.19</ele>
        <time>2021-06-23T10:31:54Z</time>
      </trkpt>
      <trkpt lat="47.88157" lon="6.94946">
        <ele>462.31</ele>
        <time>2021-06-23T10:31:59Z</time>
      </trkpt>
      <trkpt lat="47.88149" lon="6.94916">
        <ele>465.76</ele>
        <time>2021-06-23T10:32:04Z</time>
      </trkpt>
      <trkpt lat="47.88142" lon="6.94898">
        <ele>467.01</ele>
        <time>2021-06-23T10:32:08Z</time>
      </trkpt>
      <trkpt lat="47.88104" lon="6.94816">
        <ele>475.66</ele>
        <time>2021-06-23T10:32:13Z</time>
      </trkpt>
      <trkpt lat="47.88065" lon="6.94665">
        <ele>478.13</ele>
        <time>2021-06-23T10:32:18Z</time>
      </trkpt>
      <trkpt lat="47.88021" lon="6.9452">
        <ele>490.01</ele>
        <time>2021-06-23T10:32:23Z</time>
      </trkpt>
      <trkpt lat="47.88002" lon="6.94473">
        <ele>491.32</ele>
        <time>2021-06-23T10:32:28Z</time>
      </trkpt>
      <trkpt lat="47.87993" lon="6.94441">
        <ele>493.02</ele>
        <time>2021-06-23T10:32:33Z</time>
      </trkpt>
      <trkpt lat="47.87882" lon="6.93921">
        <ele>512.78</ele>
        <time>2021-06-23T10:32:38Z</time>
      </trkpt>
      <trkpt lat="47.87877" lon="6.9388">
        <ele>513.6</ele>
        <time>2021-06-23T10:32:42Z</time>
      </trkpt>
      <trkpt lat="47.87872" lon="6.93812">
        <ele>512.78</ele>
        <time>2021-06-23T10:32:47Z</time>
      </trkpt>
      <trkpt lat="47.87868" lon="6.93785">
        <ele>513.62</ele>
        <time>2021-06-23T10:32:52Z</time>
      </trkpt>
      <trkpt lat="47.87859" lon="6.93756">
        <ele>515.97</ele>
        <time>2021-06-23T10:32:57Z</time>
      </trkpt>
      <trkpt lat="47.87843" lon="6.93724">
        <ele>520.81</ele>
        <time>2021-06-23T10:33:02Z</time>
      </trkpt>
      <trkpt lat="47.87811" lon="6.93663">
        <ele>526.59</ele>
        <time>2021-06-23T10:33:07Z</time>
      </trkpt>
      <trkpt lat="47.87792" lon="6.93616">
        <ele>531.74</ele>
        <time>2021-06-23T10:33:11Z</time>
      </trkpt>
      <trkpt lat="47.87785" lon="6.93592">
        <ele>532.8</ele>
        <time>2021-06-23T10:33:16Z</time>
      </trkpt>
      <trkpt lat="47.87772" lon="6.93517">
        <ele>534.53</ele>
        <time>2021-06-23T10:33:21Z</time>
      </trkpt>
      <trkpt lat="47.87755" lon="6.93447">
        <ele>537.62</ele>
        <time>2021-06-23T10:33:26Z</time>
      </trkpt>
      <trkpt lat="47.87753" lon="6.93417">
        <ele>536.37</ele>
        <time>2021-06-23T10:33:31Z</time>
      </trkpt>
      <trkpt lat="47.87757" lon="6.93385">
        <ele>542.15</ele>
        <time>2021-06-23T10:33:36Z</time>
      </trkpt>
      <trkpt lat="47.87757" lon="6.93385">
        <ele>542.15</ele>
        <time>2021-06-23T10:33:36Z</time>
      </trkpt>
      <trkpt lat="47.87763" lon="6.93365">
        <ele>544.69</ele>
        <time>2021-06-23T10:33:38Z</time>
      </trkpt>
      <trkpt lat="47.8777" lon="6.9335">
        <ele>547.69</ele>
        <time>2021-06-23T10:33:40Z</time>
      </trkpt>
      <trkpt lat="47.87858" lon="6.93207">
        <ele>561.66</ele>
        <time>2021-06-23T10:33:43Z</time>
      </trkpt>
      <trkpt lat="47.87934" lon="6.93076">
        <ele>563.25</ele>
        <time>2021-06-23T10:33:45Z</time>
      </trkpt>
      <trkpt lat="47.87981" lon="6.93014">
        <ele>566.95</ele>
        <time>2021-06-23T10:33:47Z</time>
      </trkpt>
      <trkpt lat="47.87987" lon="6.93002">
        <ele>569.06</ele>
        <time>2021-06-23T10:33:50Z</time>
      </trkpt>
      <trkpt lat="47.87999" lon="6.92977">
        <ele>571.52</ele>
        <time>2021-06-23T10:33:52Z</time>
      </trkpt>
      <trkpt lat="47.88026" lon="6.92889">
        <ele>578.71</ele>
        <time>2021-06-23T10:33:54Z</time>
      </trkpt>
      <trkpt lat="47.88064" lon="6.92816">
        <ele>583.94</ele>
        <time>2021-06-23T10:33:57Z</time>
      </trkpt>
      <trkpt lat="47.88101" lon="6.92714">
        <ele>583.18</ele>
        <time>2021-06-23T10:33:59Z</time>
      </trkpt>
      <trkpt lat="47.88146" lon="6.92618">
        <ele>585.38</ele>
        <time>2021-06-23T10:34:01Z</time>
      </trkpt>
      <trkpt lat="47.88158" lon="6.92574">
        <ele>588.44</ele>
        <time>2021-06-23T10:34:03Z</time>
      </trkpt>
      <trkpt lat="47.88172" lon="6.92501">
        <ele>592.98</ele>
        <time>2021-06-23T10:34:06Z</time>
      </trkpt>
      <trkpt lat="47.88174" lon="6.92455">
        <ele>598.68</ele>
        <time>2021-06-23T10:34:08Z</time>
      </trkpt>
      <trkpt lat="47.88172" lon="6.92423">
        <ele>602.72</ele>
        <time>2021-06-23T10:34:10Z</time>
      </trkpt>
      <trkpt lat="47.88168" lon="6.9241">
        <ele>605.07</ele>
        <time>2021-06-23T10:34:13Z</time>
      </trkpt>
      <trkpt lat="47.88162" lon="6.92401">
        <ele>607.73</ele>
        <time>2021-06-23T10:34:15Z</time>
      </trkpt>
      <trkpt lat="47.88153" lon="6.92397">
        <ele>609.95</ele>
        <time>2021-06-23T10:34:17Z</time>
      </trkpt>
      <trkpt lat="47.88145" lon="6.92398">
        <ele>611.34</ele>
        <time>2021-06-23T10:34:20Z</time>
      </trkpt>
      <trkpt lat="47.88137" lon="6.92405">
        <ele>611.84</ele>
        <time>2021-06-23T10:34:22Z</time>
      </trkpt>
      <trkpt lat="47.8813" lon="6.92423">
        <ele>612.24</ele>
        <time>2021-06-23T10:34:24Z</time>
      </trkpt>
      <trkpt lat="47.88129" lon="6.92436">
        <ele>612</ele>
        <time>2021-06-23T10:34:27Z</time>
      </trkpt>
      <trkpt lat="47.8814" lon="6.92551">
        <ele>593.57</ele>
        <time>2021-06-23T10:34:29Z</time>
      </trkpt>
      <trkpt lat="47.8814" lon="6.92567">
        <ele>592.03</ele>
        <time>2021-06-23T10:34:31Z</time>
      </trkpt>
      <trkpt lat="47.88138" lon="6.92577">
        <ele>591.99</ele>
        <time>2021-06-23T10:34:34Z</time>
      </trkpt>
      <trkpt lat="47.88134" lon="6.92583">
        <ele>593.12</ele>
        <time>2021-06-23T10:34:36Z</time>
      </trkpt>
      <trkpt lat="47.88127" lon="6.92589">
        <ele>595.84</ele>
        <time>2021-06-23T10:34:38Z</time>
      </trkpt>
      <trkpt lat="47.88118" lon="6.92588">
        <ele>599.99</ele>
        <time>2021-06-23T10:34:41Z</time>
      </trkpt>
      <trkpt lat="47.88111" lon="6.92581">
        <ele>604.78</ele>
        <time>2021-06-23T10:34:43Z</time>
      </trkpt>
      <trkpt lat="47.88108" lon="6.92575">
        <ele>607.17</ele>
        <time>2021-06-23T10:34:45Z</time>
      </trkpt>
      <trkpt lat="47.88106" lon="6.92562">
        <ele>610.18</ele>
        <time>2021-06-23T10:34:47Z</time>
      </trkpt>
      <trkpt lat="47.88113" lon="6.92509">
        <ele>614.65</ele>
        <time>2021-06-23T10:34:50Z</time>
      </trkpt>
      <trkpt lat="47.88112" lon="6.92472">
        <ele>618.47</ele>
        <time>2021-06-23T10:34:52Z</time>
      </trkpt>
      <trkpt lat="47.88106" lon="6.92423">
        <ele>623.16</ele>
        <time>2021-06-23T10:34:54Z</time>
      </trkpt>
      <trkpt lat="47.8809" lon="6.92342">
        <ele>633.93</ele>
        <time>2021-06-23T10:34:57Z</time>
      </trkpt>
      <trkpt lat="47.8809" lon="6.92322">
        <ele>635.7</ele>
        <time>2021-06-23T10:34:59Z</time>
      </trkpt>
      <trkpt lat="47.88093" lon="6.9231">
        <ele>635.3</ele>
        <time>2021-06-23T10:35:01Z</time>
      </trkpt>
      <trkpt lat="47.88096" lon="6.92303">
        <ele>634.14</ele>
        <time>2021-06-23T10:35:04Z</time>
      </trkpt>
      <trkpt lat="47.88106" lon="6.92292">
        <ele>630.53</ele>
        <time>2021-06-23T10:35:06Z</time>
      </trkpt>
      <trkpt lat="47.88147" lon="6.92276">
        <ele>626.81</ele>
        <time>2021-06-23T10:35:08Z</time>
      </trkpt>
      <trkpt lat="47.88179" lon="6.92246">
        <ele>628.72</ele>
        <time>2021-06-23T10:35:11Z</time>
      </trkpt>
      <trkpt lat="47.88189" lon="6.92239">
        <ele>629.65</ele>
        <time>2021-06-23T10:35:13Z</time>
      </trkpt>
      <trkpt lat="47.88199" lon="6.92237">
        <ele>629.93</ele>
        <time>2021-06-23T10:35:15Z</time>
      </trkpt>
      <trkpt lat="47.88212" lon="6.92238">
        <ele>629.73</ele>
        <time>2021-06-23T10:35:18Z</time>
      </trkpt>
      <trkpt lat="47.88219" lon="6.9224">
        <ele>629.15</ele>
        <time>2021-06-23T10:35:20Z</time>
      </trkpt>
      <trkpt lat="47.88247" lon="6.92258">
        <ele>624.04</ele>
        <time>2021-06-23T10:35:22Z</time>
      </trkpt>
      <trkpt lat="47.88257" lon="6.9226">
        <ele>623.82</ele>
        <time>2021-06-23T10:35:24Z</time>
      </trkpt>
      <trkpt lat="47.88268" lon="6.92256">
        <ele>624.28</ele>
        <time>2021-06-23T10:35:27Z</time>
      </trkpt>
      <trkpt lat="47.88274" lon="6.92249">
        <ele>625.06</ele>
        <time>2021-06-23T10:35:29Z</time>
      </trkpt>
      <trkpt lat="47.88278" lon="6.92238">
        <ele>626.71</ele>
        <time>2021-06-23T10:35:31Z</time>
      </trkpt>
      <trkpt lat="47.88279" lon="6.92226">
        <ele>628.48</ele>
        <time>2021-06-23T10:35:34Z</time>
      </trkpt>
      <trkpt lat="47.88275" lon="6.92214">
        <ele>631.29</ele>
        <time>2021-06-23T10:35:36Z</time>
      </trkpt>
      <trkpt lat="47.88265" lon="6.92203">
        <ele>634.55</ele>
        <time>2021-06-23T10:35:38Z</time>
      </trkpt>
      <trkpt lat="47.88256" lon="6.92199">
        <ele>635.68</ele>
        <time>2021-06-23T10:35:41Z</time>
      </trkpt>
      <trkpt lat="47.8822" lon="6.922">
        <ele>636.16</ele>
        <time>2021-06-23T10:35:43Z</time>
      </trkpt>
      <trkpt lat="47.8821" lon="6.92197">
        <ele>636.66</ele>
        <time>2021-06-23T10:35:45Z</time>
      </trkpt>
      <trkpt lat="47.88201" lon="6.9219">
        <ele>637.35</ele>
        <time>2021-06-23T10:35:48Z</time>
      </trkpt>
      <trkpt lat="47.88196" lon="6.9218">
        <ele>638.06</ele>
        <time>2021-06-23T10:35:50Z</time>
      </trkpt>
      <trkpt lat="47.88195" lon="6.92165">
        <ele>639.19</ele>
        <time>2021-06-23T10:35:52Z</time>
      </trkpt>
      <trkpt lat="47.88195" lon="6.92158">
        <ele>640.29</ele>
        <time>2021-06-23T10:35:55Z</time>
      </trkpt>
      <trkpt lat="47.88197" lon="6.92148">
        <ele>641.48</ele>
        <time>2021-06-23T10:35:57Z</time>
      </trkpt>
      <trkpt lat="47.88206" lon="6.92131">
        <ele>642.78</ele>
        <time>2021-06-23T10:35:59Z</time>
      </trkpt>
      <trkpt lat="47.88219" lon="6.92121">
        <ele>642.38</ele>
        <time>2021-06-23T10:36:01Z</time>
      </trkpt>
      <trkpt lat="47.88309" lon="6.92079">
        <ele>647.23</ele>
        <time>2021-06-23T10:36:04Z</time>
      </trkpt>
      <trkpt lat="47.88335" lon="6.92056">
        <ele>646.67</ele>
        <time>2021-06-23T10:36:06Z</time>
      </trkpt>
      <trkpt lat="47.88352" lon="6.92047">
        <ele>645.52</ele>
        <time>2021-06-23T10:36:08Z</time>
      </trkpt>
      <trkpt lat="47.88372" lon="6.92045">
        <ele>644.93</ele>
        <time>2021-06-23T10:36:11Z</time>
      </trkpt>
      <trkpt lat="47.88416" lon="6.92054">
        <ele>646.14</ele>
        <time>2021-06-23T10:36:13Z</time>
      </trkpt>
      <trkpt lat="47.88428" lon="6.92052">
        <ele>646.23</ele>
        <time>2021-06-23T10:36:15Z</time>
      </trkpt>
      <trkpt lat="47.88439" lon="6.92041">
        <ele>647.68</ele>
        <time>2021-06-23T10:36:18Z</time>
      </trkpt>
      <trkpt lat="47.88444" lon="6.92029">
        <ele>649.74</ele>
        <time>2021-06-23T10:36:20Z</time>
      </trkpt>
      <trkpt lat="47.88446" lon="6.92022">
        <ele>650.63</ele>
        <time>2021-06-23T10:36:22Z</time>
      </trkpt>
      <trkpt lat="47.88445" lon="6.92005">
        <ele>652.47</ele>
        <time>2021-06-23T10:36:25Z</time>
      </trkpt>
      <trkpt lat="47.88442" lon="6.91995">
        <ele>653.47</ele>
        <time>2021-06-23T10:36:27Z</time>
      </trkpt>
      <trkpt lat="47.88435" lon="6.91984">
        <ele>655.45</ele>
        <time>2021-06-23T10:36:29Z</time>
      </trkpt>
      <trkpt lat="47.88427" lon="6.91979">
        <ele>657.64</ele>
        <time>2021-06-23T10:36:32Z</time>
      </trkpt>
      <trkpt lat="47.88418" lon="6.91977">
        <ele>659.51</ele>
        <time>2021-06-23T10:36:34Z</time>
      </trkpt>
      <trkpt lat="47.88406" lon="6.91983">
        <ele>658.9</ele>
        <time>2021-06-23T10:36:36Z</time>
      </trkpt>
      <trkpt lat="47.88384" lon="6.92001">
        <ele>655.13</ele>
        <time>2021-06-23T10:36:39Z</time>
      </trkpt>
      <trkpt lat="47.88373" lon="6.92004">
        <ele>655.01</ele>
        <time>2021-06-23T10:36:41Z</time>
      </trkpt>
      <trkpt lat="47.88339" lon="6.92007">
        <ele>656.92</ele>
        <time>2021-06-23T10:36:43Z</time>
      </trkpt>
      <trkpt lat="47.88325" lon="6.92012">
        <ele>656</ele>
        <time>2021-06-23T10:36:45Z</time>
      </trkpt>
      <trkpt lat="47.88297" lon="6.92028">
        <ele>653.7</ele>
        <time>2021-06-23T10:36:48Z</time>
      </trkpt>
      <trkpt lat="47.88282" lon="6.92032">
        <ele>654.05</ele>
        <time>2021-06-23T10:36:50Z</time>
      </trkpt>
      <trkpt lat="47.88157" lon="6.92025">
        <ele>660.34</ele>
        <time>2021-06-23T10:36:52Z</time>
      </trkpt>
      <trkpt lat="47.88136" lon="6.92032">
        <ele>659.84</ele>
        <time>2021-06-23T10:36:55Z</time>
      </trkpt>
      <trkpt lat="47.88099" lon="6.92056">
        <ele>657.42</ele>
        <time>2021-06-23T10:36:57Z</time>
      </trkpt>
      <trkpt lat="47.88088" lon="6.92058">
        <ele>657.84</ele>
        <time>2021-06-23T10:36:59Z</time>
      </trkpt>
      <trkpt lat="47.88076" lon="6.92055">
        <ele>659.22</ele>
        <time>2021-06-23T10:37:02Z</time>
      </trkpt>
      <trkpt lat="47.88065" lon="6.92042">
        <ele>662.82</ele>
        <time>2021-06-23T10:37:04Z</time>
      </trkpt>
      <trkpt lat="47.88063" lon="6.92032">
        <ele>664.54</ele>
        <time>2021-06-23T10:37:06Z</time>
      </trkpt>
      <trkpt lat="47.88062" lon="6.92012">
        <ele>672.76</ele>
        <time>2021-06-23T10:37:09Z</time>
      </trkpt>
      <trkpt lat="47.88068" lon="6.91994">
        <ele>681.77</ele>
        <time>2021-06-23T10:37:11Z</time>
      </trkpt>
      <trkpt lat="47.88071" lon="6.91989">
        <ele>684.28</ele>
        <time>2021-06-23T10:37:13Z</time>
      </trkpt>
      <trkpt lat="47.88078" lon="6.91984">
        <ele>686.83</ele>
        <time>2021-06-23T10:37:16Z</time>
      </trkpt>
      <trkpt lat="47.88088" lon="6.91981">
        <ele>687.99</ele>
        <time>2021-06-23T10:37:18Z</time>
      </trkpt>
      <trkpt lat="47.88108" lon="6.91982">
        <ele>686.21</ele>
        <time>2021-06-23T10:37:20Z</time>
      </trkpt>
      <trkpt lat="47.88181" lon="6.91992">
        <ele>671.64</ele>
        <time>2021-06-23T10:37:22Z</time>
      </trkpt>
      <trkpt lat="47.88216" lon="6.92003">
        <ele>664.36</ele>
        <time>2021-06-23T10:37:25Z</time>
      </trkpt>
      <trkpt lat="47.88229" lon="6.92004">
        <ele>664</ele>
        <time>2021-06-23T10:37:27Z</time>
      </trkpt>
      <trkpt lat="47.88262" lon="6.91989">
        <ele>672.54</ele>
        <time>2021-06-23T10:37:29Z</time>
      </trkpt>
      <trkpt lat="47.88297" lon="6.91965">
        <ele>681.1</ele>
        <time>2021-06-23T10:37:32Z</time>
      </trkpt>
      <trkpt lat="47.8833" lon="6.9194">
        <ele>685.37</ele>
        <time>2021-06-23T10:37:34Z</time>
      </trkpt>
      <trkpt lat="47.88364" lon="6.91904">
        <ele>683.97</ele>
        <time>2021-06-23T10:37:36Z</time>
      </trkpt>
      <trkpt lat="47.88381" lon="6.91882">
        <ele>685.25</ele>
        <time>2021-06-23T10:37:39Z</time>
      </trkpt>
      <trkpt lat="47.8841" lon="6.91835">
        <ele>686.12</ele>
        <time>2021-06-23T10:37:41Z</time>
      </trkpt>
      <trkpt lat="47.88434" lon="6.91804">
        <ele>689.55</ele>
        <time>2021-06-23T10:37:43Z</time>
      </trkpt>
      <trkpt lat="47.88462" lon="6.91776">
        <ele>691.54</ele>
        <time>2021-06-23T10:37:46Z</time>
      </trkpt>
      <trkpt lat="47.88569" lon="6.91687">
        <ele>684.96</ele>
        <time>2021-06-23T10:37:48Z</time>
      </trkpt>
      <trkpt lat="47.88596" lon="6.91655">
        <ele>687.33</ele>
        <time>2021-06-23T10:37:50Z</time>
      </trkpt>
      <trkpt lat="47.88611" lon="6.91631">
        <ele>687.14</ele>
        <time>2021-06-23T10:37:53Z</time>
      </trkpt>
      <trkpt lat="47.88625" lon="6.91602">
        <ele>688.55</ele>
        <time>2021-06-23T10:37:55Z</time>
      </trkpt>
      <trkpt lat="47.88637" lon="6.91566">
        <ele>688.06</ele>
        <time>2021-06-23T10:37:57Z</time>
      </trkpt>
      <trkpt lat="47.88647" lon="6.91524">
        <ele>688.7</ele>
        <time>2021-06-23T10:38:00Z</time>
      </trkpt>
      <trkpt lat="47.8866" lon="6.91443">
        <ele>693.97</ele>
        <time>2021-06-23T10:38:02Z</time>
      </trkpt>
      <trkpt lat="47.88673" lon="6.91384">
        <ele>698.15</ele>
        <time>2021-06-23T10:38:04Z</time>
      </trkpt>
      <trkpt lat="47.8871" lon="6.91265">
        <ele>699.19</ele>
        <time>2021-06-23T10:38:06Z</time>
      </trkpt>
      <trkpt lat="47.88718" lon="6.91221">
        <ele>698.41</ele>
        <time>2021-06-23T10:38:09Z</time>
      </trkpt>
      <trkpt lat="47.88724" lon="6.9118">
        <ele>701.31</ele>
        <time>2021-06-23T10:38:11Z</time>
      </trkpt>
      <trkpt lat="47.88734" lon="6.9104">
        <ele>710.09</ele>
        <time>2021-06-23T10:38:13Z</time>
      </trkpt>
      <trkpt lat="47.88739" lon="6.90994">
        <ele>708.7</ele>
        <time>2021-06-23T10:38:16Z</time>
      </trkpt>
      <trkpt lat="47.88746" lon="6.90948">
        <ele>709.51</ele>
        <time>2021-06-23T10:38:18Z</time>
      </trkpt>
      <trkpt lat="47.8876" lon="6.90902">
        <ele>708.83</ele>
        <time>2021-06-23T10:38:20Z</time>
      </trkpt>
      <trkpt lat="47.88793" lon="6.90803">
        <ele>710.3</ele>
        <time>2021-06-23T10:38:23Z</time>
      </trkpt>
      <trkpt lat="47.88802" lon="6.90771">
        <ele>708.13</ele>
        <time>2021-06-23T10:38:25Z</time>
      </trkpt>
      <trkpt lat="47.88811" lon="6.90716">
        <ele>711.54</ele>
        <time>2021-06-23T10:38:27Z</time>
      </trkpt>
      <trkpt lat="47.88812" lon="6.90684">
        <ele>714.4</ele>
        <time>2021-06-23T10:38:30Z</time>
      </trkpt>
      <trkpt lat="47.88812" lon="6.90636">
        <ele>715.66</ele>
        <time>2021-06-23T10:38:32Z</time>
      </trkpt>
      <trkpt lat="47.88804" lon="6.90518">
        <ele>718.13</ele>
        <time>2021-06-23T10:38:34Z</time>
      </trkpt>
      <trkpt lat="47.88803" lon="6.90477">
        <ele>720.12</ele>
        <time>2021-06-23T10:38:37Z</time>
      </trkpt>
      <trkpt lat="47.88806" lon="6.90439">
        <ele>718.96</ele>
        <time>2021-06-23T10:38:39Z</time>
      </trkpt>
      <trkpt lat="47.88814" lon="6.90376">
        <ele>716.86</ele>
        <time>2021-06-23T10:38:41Z</time>
      </trkpt>
      <trkpt lat="47.88827" lon="6.90311">
        <ele>716.71</ele>
        <time>2021-06-23T10:38:43Z</time>
      </trkpt>
      <trkpt lat="47.8889" lon="6.90093">
        <ele>723.1</ele>
        <time>2021-06-23T10:38:46Z</time>
      </trkpt>
      <trkpt lat="47.88916" lon="6.89996">
        <ele>716.9</ele>
        <time>2021-06-23T10:38:48Z</time>
      </trkpt>
      <trkpt lat="47.88932" lon="6.89925">
        <ele>731.13</ele>
        <time>2021-06-23T10:38:50Z</time>
      </trkpt>
      <trkpt lat="47.88948" lon="6.89812">
        <ele>743.8</ele>
        <time>2021-06-23T10:38:53Z</time>
      </trkpt>
      <trkpt lat="47.88952" lon="6.89772">
        <ele>752.55</ele>
        <time>2021-06-23T10:38:55Z</time>
      </trkpt>
      <trkpt lat="47.88951" lon="6.89714">
        <ele>753.2</ele>
        <time>2021-06-23T10:38:57Z</time>
      </trkpt>
      <trkpt lat="47.88945" lon="6.8952">
        <ele>742.56</ele>
        <time>2021-06-23T10:39:00Z</time>
      </trkpt>
      <trkpt lat="47.88941" lon="6.89473">
        <ele>739.91</ele>
        <time>2021-06-23T10:39:02Z</time>
      </trkpt>
      <trkpt lat="47.88926" lon="6.89366">
        <ele>717.92</ele>
        <time>2021-06-23T10:39:04Z</time>
      </trkpt>
      <trkpt lat="47.88913" lon="6.89238">
        <ele>715.12</ele>
        <time>2021-06-23T10:39:07Z</time>
      </trkpt>
      <trkpt lat="47.88913" lon="6.89164">
        <ele>712.74</ele>
        <time>2021-06-23T10:39:09Z</time>
      </trkpt>
      <trkpt lat="47.88924" lon="6.89016">
        <ele>709.32</ele>
        <time>2021-06-23T10:39:11Z</time>
      </trkpt>
      <trkpt lat="47.88924" lon="6.88966">
        <ele>708.85</ele>
        <time>2021-06-23T10:39:14Z</time>
      </trkpt>
      <trkpt lat="47.88918" lon="6.88913">
        <ele>705.57</ele>
        <time>2021-06-23T10:39:16Z</time>
      </trkpt>
      <trkpt lat="47.88911" lon="6.88876">
        <ele>710.82</ele>
        <time>2021-06-23T10:39:18Z</time>
      </trkpt>
      <trkpt lat="47.88903" lon="6.88845">
        <ele>711.96</ele>
        <time>2021-06-23T10:39:20Z</time>
      </trkpt>
      <trkpt lat="47.88813" lon="6.88565">
        <ele>694.98</ele>
        <time>2021-06-23T10:39:23Z</time>
      </trkpt>
      <trkpt lat="47.88788" lon="6.88483">
        <ele>694.46</ele>
        <time>2021-06-23T10:39:25Z</time>
      </trkpt>
      <trkpt lat="47.88776" lon="6.88426">
        <ele>692.12</ele>
        <time>2021-06-23T10:39:27Z</time>
      </trkpt>
      <trkpt lat="47.88768" lon="6.88366">
        <ele>686.98</ele>
        <time>2021-06-23T10:39:30Z</time>
      </trkpt>
      <trkpt lat="47.88764" lon="6.88318">
        <ele>681.41</ele>
        <time>2021-06-23T10:39:32Z</time>
      </trkpt>
      <trkpt lat="47.88764" lon="6.88284">
        <ele>678.69</ele>
        <time>2021-06-23T10:39:34Z</time>
      </trkpt>
      <trkpt lat="47.88771" lon="6.88183">
        <ele>672.73</ele>
        <time>2021-06-23T10:39:37Z</time>
      </trkpt>
      <trkpt lat="47.88775" lon="6.88136">
        <ele>665.4</ele>
        <time>2021-06-23T10:39:39Z</time>
      </trkpt>
      <trkpt lat="47.88803" lon="6.87872">
        <ele>660.27</ele>
        <time>2021-06-23T10:39:41Z</time>
      </trkpt>
      <trkpt lat="47.88817" lon="6.87773">
        <ele>661.76</ele>
        <time>2021-06-23T10:39:44Z</time>
      </trkpt>
      <trkpt lat="47.88833" lon="6.87716">
        <ele>664.49</ele>
        <time>2021-06-23T10:39:46Z</time>
      </trkpt>
      <trkpt lat="47.88853" lon="6.87661">
        <ele>664.97</ele>
        <time>2021-06-23T10:39:48Z</time>
      </trkpt>
      <trkpt lat="47.88945" lon="6.87491">
        <ele>654.77</ele>
        <time>2021-06-23T10:39:51Z</time>
      </trkpt>
      <trkpt lat="47.88976" lon="6.8741">
        <ele>653.18</ele>
        <time>2021-06-23T10:39:53Z</time>
      </trkpt>
      <trkpt lat="47.88992" lon="6.87355">
        <ele>650.48</ele>
        <time>2021-06-23T10:39:55Z</time>
      </trkpt>
      <trkpt lat="47.89007" lon="6.8728">
        <ele>646.87</ele>
        <time>2021-06-23T10:39:58Z</time>
      </trkpt>
      <trkpt lat="47.89017" lon="6.87205">
        <ele>644.51</ele>
        <time>2021-06-23T10:40:00Z</time>
      </trkpt>
      <trkpt lat="47.89021" lon="6.87137">
        <ele>640.58</ele>
        <time>2021-06-23T10:40:02Z</time>
      </trkpt>
      <trkpt lat="47.89021" lon="6.87067">
        <ele>634.16</ele>
        <time>2021-06-23T10:40:04Z</time>
      </trkpt>
      <trkpt lat="47.89016" lon="6.87013">
        <ele>632.55</ele>
        <time>2021-06-23T10:40:07Z</time>
      </trkpt>
      <trkpt lat="47.89007" lon="6.86955">
        <ele>630.43</ele>
        <time>2021-06-23T10:40:09Z</time>
      </trkpt>
      <trkpt lat="47.89007" lon="6.86955">
        <ele>630.43</ele>
        <time>2021-06-23T10:40:09Z</time>
      </trkpt>
      <trkpt lat="47.88985" lon="6.86814">
        <ele>628.31</ele>
        <time>2021-06-23T10:40:17Z</time>
      </trkpt>
      <trkpt lat="47.88972" lon="6.86745">
        <ele>625.85</ele>
        <time>2021-06-23T10:40:24Z</time>
      </trkpt>
      <trkpt lat="47.88958" lon="6.86682">
        <ele>626.07</ele>
        <time>2021-06-23T10:40:31Z</time>
      </trkpt>
      <trkpt lat="47.88889" lon="6.86447">
        <ele>623.08</ele>
        <time>2021-06-23T10:40:38Z</time>
      </trkpt>
      <trkpt lat="47.88844" lon="6.86246">
        <ele>614.6</ele>
        <time>2021-06-23T10:40:46Z</time>
      </trkpt>
      <trkpt lat="47.88833" lon="6.86204">
        <ele>613.73</ele>
        <time>2021-06-23T10:40:53Z</time>
      </trkpt>
      <trkpt lat="47.88819" lon="6.86161">
        <ele>614.28</ele>
        <time>2021-06-23T10:41:00Z</time>
      </trkpt>
      <trkpt lat="47.88803" lon="6.86121">
        <ele>614.08</ele>
        <time>2021-06-23T10:41:07Z</time>
      </trkpt>
      <trkpt lat="47.8876" lon="6.86024">
        <ele>607.11</ele>
        <time>2021-06-23T10:41:15Z</time>
      </trkpt>
      <trkpt lat="47.88688" lon="6.85853">
        <ele>597.93</ele>
        <time>2021-06-23T10:41:22Z</time>
      </trkpt>
      <trkpt lat="47.88664" lon="6.85778">
        <ele>599.1</ele>
        <time>2021-06-23T10:41:29Z</time>
      </trkpt>
      <trkpt lat="47.88655" lon="6.85735">
        <ele>600</ele>
        <time>2021-06-23T10:41:37Z</time>
      </trkpt>
      <trkpt lat="47.88648" lon="6.85698">
        <ele>599.13</ele>
        <time>2021-06-23T10:41:44Z</time>
      </trkpt>
      <trkpt lat="47.88634" lon="6.85641">
        <ele>597.83</ele>
        <time>2021-06-23T10:41:51Z</time>
      </trkpt>
      <trkpt lat="47.88609" lon="6.85547">
        <ele>597.62</ele>
        <time>2021-06-23T10:41:58Z</time>
      </trkpt>
      <trkpt lat="47.88588" lon="6.85492">
        <ele>595.29</ele>
        <time>2021-06-23T10:42:06Z</time>
      </trkpt>
      <trkpt lat="47.88562" lon="6.8543">
        <ele>595</ele>
        <time>2021-06-23T10:42:13Z</time>
      </trkpt>
      <trkpt lat="47.88542" lon="6.85388">
        <ele>595.48</ele>
        <time>2021-06-23T10:42:20Z</time>
      </trkpt>
      <trkpt lat="47.88526" lon="6.85359">
        <ele>596.15</ele>
        <time>2021-06-23T10:42:27Z</time>
      </trkpt>
      <trkpt lat="47.88519" lon="6.8535">
        <ele>596.59</ele>
        <time>2021-06-23T10:42:35Z</time>
      </trkpt>
      <trkpt lat="47.885" lon="6.85337">
        <ele>597</ele>
        <time>2021-06-23T10:42:42Z</time>
      </trkpt>
      <trkpt lat="47.88328" lon="6.85274">
        <ele>597.03</ele>
        <time>2021-06-23T10:42:49Z</time>
      </trkpt>
      <trkpt lat="47.88298" lon="6.85271">
        <ele>595.96</ele>
        <time>2021-06-23T10:42:57Z</time>
      </trkpt>
      <trkpt lat="47.8819" lon="6.85267">
        <ele>595.17</ele>
        <time>2021-06-23T10:43:04Z</time>
      </trkpt>
      <trkpt lat="47.88159" lon="6.85262">
        <ele>593.47</ele>
        <time>2021-06-23T10:43:11Z</time>
      </trkpt>
      <trkpt lat="47.88138" lon="6.8525">
        <ele>591.97</ele>
        <time>2021-06-23T10:43:18Z</time>
      </trkpt>
      <trkpt lat="47.87935" lon="6.84996">
        <ele>587.49</ele>
        <time>2021-06-23T10:43:26Z</time>
      </trkpt>
      <trkpt lat="47.87845" lon="6.84887">
        <ele>588.52</ele>
        <time>2021-06-23T10:43:33Z</time>
      </trkpt>
      <trkpt lat="47.87691" lon="6.84693">
        <ele>584.93</ele>
        <time>2021-06-23T10:43:40Z</time>
      </trkpt>
      <trkpt lat="47.87666" lon="6.84651">
        <ele>584.56</ele>
        <time>2021-06-23T10:43:48Z</time>
      </trkpt>
      <trkpt lat="47.87658" lon="6.8463">
        <ele>585.04</ele>
        <time>2021-06-23T10:43:55Z</time>
      </trkpt>
      <trkpt lat="47.87583" lon="6.84345">
        <ele>579.4</ele>
        <time>2021-06-23T10:44:02Z</time>
      </trkpt>
      <trkpt lat="47.87549" lon="6.84231">
        <ele>579.52</ele>
        <time>2021-06-23T10:44:09Z</time>
      </trkpt>
      <trkpt lat="47.87392" lon="6.83731">
        <ele>580.1</ele>
        <time>2021-06-23T10:44:17Z</time>
      </trkpt>
      <trkpt lat="47.87364" lon="6.83648">
        <ele>578.34</ele>
        <time>2021-06-23T10:44:24Z</time>
      </trkpt>
      <trkpt lat="47.87353" lon="6.83625">
        <ele>578.76</ele>
        <time>2021-06-23T10:44:31Z</time>
      </trkpt>
      <trkpt lat="47.87338" lon="6.836">
        <ele>579.79</ele>
        <time>2021-06-23T10:44:38Z</time>
      </trkpt>
      <trkpt lat="47.87121" lon="6.83367">
        <ele>569.44</ele>
        <time>2021-06-23T10:44:46Z</time>
      </trkpt>
      <trkpt lat="47.86996" lon="6.83219">
        <ele>568.36</ele>
        <time>2021-06-23T10:44:53Z</time>
      </trkpt>
      <trkpt lat="47.86996" lon="6.83219">
        <ele>568.36</ele>
        <time>2021-06-23T10:44:53Z</time>
      </trkpt>
      <trkpt lat="47.86949" lon="6.83163">
        <ele>567.28</ele>
        <time>2021-06-23T10:44:58Z</time>
      </trkpt>
      <trkpt lat="47.86922" lon="6.83135">
        <ele>568.13</ele>
        <time>2021-06-23T10:45:03Z</time>
      </trkpt>
      <trkpt lat="47.86885" lon="6.83108">
        <ele>570.22</ele>
        <time>2021-06-23T10:45:08Z</time>
      </trkpt>
      <trkpt lat="47.86817" lon="6.83048">
        <ele>571.55</ele>
        <time>2021-06-23T10:45:13Z</time>
      </trkpt>
      <trkpt lat="47.8669" lon="6.82897">
        <ele>567.39</ele>
        <time>2021-06-23T10:45:18Z</time>
      </trkpt>
      <trkpt lat="47.86664" lon="6.82873">
        <ele>566.23</ele>
        <time>2021-06-23T10:45:23Z</time>
      </trkpt>
      <trkpt lat="47.86643" lon="6.82862">
        <ele>562.93</ele>
        <time>2021-06-23T10:45:28Z</time>
      </trkpt>
      <trkpt lat="47.86565" lon="6.82831">
        <ele>563.8</ele>
        <time>2021-06-23T10:45:33Z</time>
      </trkpt>
      <trkpt lat="47.86545" lon="6.82814">
        <ele>562.25</ele>
        <time>2021-06-23T10:45:38Z</time>
      </trkpt>
      <trkpt lat="47.86525" lon="6.82795">
        <ele>561</ele>
        <time>2021-06-23T10:45:43Z</time>
      </trkpt>
      <trkpt lat="47.86499" lon="6.82761">
        <ele>561.61</ele>
        <time>2021-06-23T10:45:48Z</time>
      </trkpt>
      <trkpt lat="47.86461" lon="6.82706">
        <ele>561.7</ele>
        <time>2021-06-23T10:45:53Z</time>
      </trkpt>
      <trkpt lat="47.86442" lon="6.82686">
        <ele>561.42</ele>
        <time>2021-06-23T10:45:58Z</time>
      </trkpt>
      <trkpt lat="47.86428" lon="6.82676">
        <ele>560.98</ele>
        <time>2021-06-23T10:46:03Z</time>
      </trkpt>
      <trkpt lat="47.86378" lon="6.82654">
        <ele>557.8</ele>
        <time>2021-06-23T10:46:08Z</time>
      </trkpt>
      <trkpt lat="47.86228" lon="6.82614">
        <ele>559.19</ele>
        <time>2021-06-23T10:46:13Z</time>
      </trkpt>
      <trkpt lat="47.86188" lon="6.82601">
        <ele>559.76</ele>
        <time>2021-06-23T10:46:18Z</time>
      </trkpt>
      <trkpt lat="47.8609" lon="6.82558">
        <ele>558.63</ele>
        <time>2021-06-23T10:46:23Z</time>
      </trkpt>
      <trkpt lat="47.86008" lon="6.82517">
        <ele>553.97</ele>
        <time>2021-06-23T10:46:28Z</time>
      </trkpt>
      <trkpt lat="47.85837" lon="6.82338">
        <ele>550.88</ele>
        <time>2021-06-23T10:46:33Z</time>
      </trkpt>
      <trkpt lat="47.85825" lon="6.82321">
        <ele>552.21</ele>
        <time>2021-06-23T10:46:38Z</time>
      </trkpt>
      <trkpt lat="47.85767" lon="6.82201">
        <ele>552.33</ele>
        <time>2021-06-23T10:46:43Z</time>
      </trkpt>
      <trkpt lat="47.85732" lon="6.82158">
        <ele>552.51</ele>
        <time>2021-06-23T10:46:48Z</time>
      </trkpt>
      <trkpt lat="47.857" lon="6.82126">
        <ele>554.02</ele>
        <time>2021-06-23T10:46:53Z</time>
      </trkpt>
      <trkpt lat="47.85643" lon="6.82084">
        <ele>554.32</ele>
        <time>2021-06-23T10:46:58Z</time>
      </trkpt>
      <trkpt lat="47.8562" lon="6.82061">
        <ele>551.82</ele>
        <time>2021-06-23T10:47:03Z</time>
      </trkpt>
      <trkpt lat="47.85538" lon="6.8196">
        <ele>548</ele>
        <time>2021-06-23T10:47:08Z</time>
      </trkpt>
      <trkpt lat="47.85538" lon="6.8196">
        <ele>548</ele>
        <time>2021-06-23T10:47:08Z</time>
      </trkpt>
      <trkpt lat="47.85539" lon="6.81962">
        <ele>549.76</ele>
        <time>2021-06-23T10:47:08Z</time>
      </trkpt>
      <trkpt lat="47.85532" lon="6.81975">
        <ele>550.73</ele>
        <time>2021-06-23T10:47:10Z</time>
      </trkpt>
      <trkpt lat="47.85526" lon="6.81994">
        <ele>551.02</ele>
        <time>2021-06-23T10:47:12Z</time>
      </trkpt>
      <trkpt lat="47.85525" lon="6.82092">
        <ele>554.15</ele>
        <time>2021-06-23T10:47:15Z</time>
      </trkpt>
      <trkpt lat="47.85526" lon="6.82117">
        <ele>554.53</ele>
        <time>2021-06-23T10:47:17Z</time>
      </trkpt>
      <trkpt lat="47.85538" lon="6.82182">
        <ele>557.37</ele>
        <time>2021-06-23T10:47:19Z</time>
      </trkpt>
      <trkpt lat="47.85538" lon="6.8219">
        <ele>557.98</ele>
        <time>2021-06-23T10:47:21Z</time>
      </trkpt>
      <trkpt lat="47.85531" lon="6.82239">
        <ele>564.69</ele>
        <time>2021-06-23T10:47:23Z</time>
      </trkpt>
      <trkpt lat="47.85532" lon="6.82248">
        <ele>566.13</ele>
        <time>2021-06-23T10:47:26Z</time>
      </trkpt>
      <trkpt lat="47.8554" lon="6.82267">
        <ele>568.45</ele>
        <time>2021-06-23T10:47:28Z</time>
      </trkpt>
      <trkpt lat="47.8555" lon="6.82279">
        <ele>568.92</ele>
        <time>2021-06-23T10:47:30Z</time>
      </trkpt>
      <trkpt lat="47.85656" lon="6.82383">
        <ele>571.98</ele>
        <time>2021-06-23T10:47:32Z</time>
      </trkpt>
      <trkpt lat="47.85665" lon="6.82395">
        <ele>572.23</ele>
        <time>2021-06-23T10:47:34Z</time>
      </trkpt>
      <trkpt lat="47.85671" lon="6.82408">
        <ele>572.4</ele>
        <time>2021-06-23T10:47:37Z</time>
      </trkpt>
      <trkpt lat="47.85676" lon="6.82424">
        <ele>573.22</ele>
        <time>2021-06-23T10:47:39Z</time>
      </trkpt>
      <trkpt lat="47.85688" lon="6.82492">
        <ele>578.85</ele>
        <time>2021-06-23T10:47:41Z</time>
      </trkpt>
      <trkpt lat="47.85686" lon="6.82513">
        <ele>580.68</ele>
        <time>2021-06-23T10:47:43Z</time>
      </trkpt>
      <trkpt lat="47.85683" lon="6.82519">
        <ele>581.43</ele>
        <time>2021-06-23T10:47:45Z</time>
      </trkpt>
      <trkpt lat="47.85678" lon="6.82524">
        <ele>582.28</ele>
        <time>2021-06-23T10:47:48Z</time>
      </trkpt>
      <trkpt lat="47.85673" lon="6.82525">
        <ele>583.18</ele>
        <time>2021-06-23T10:47:50Z</time>
      </trkpt>
      <trkpt lat="47.85668" lon="6.82524">
        <ele>583.9</ele>
        <time>2021-06-23T10:47:52Z</time>
      </trkpt>
      <trkpt lat="47.85665" lon="6.8252">
        <ele>584.48</ele>
        <time>2021-06-23T10:47:54Z</time>
      </trkpt>
      <trkpt lat="47.85653" lon="6.82493">
        <ele>585.35</ele>
        <time>2021-06-23T10:47:56Z</time>
      </trkpt>
      <trkpt lat="47.8564" lon="6.82471">
        <ele>584.74</ele>
        <time>2021-06-23T10:47:59Z</time>
      </trkpt>
      <trkpt lat="47.85628" lon="6.82457">
        <ele>584.63</ele>
        <time>2021-06-23T10:48:01Z</time>
      </trkpt>
      <trkpt lat="47.85574" lon="6.82424">
        <ele>585.72</ele>
        <time>2021-06-23T10:48:03Z</time>
      </trkpt>
      <trkpt lat="47.85551" lon="6.82413">
        <ele>588.1</ele>
        <time>2021-06-23T10:48:05Z</time>
      </trkpt>
      <trkpt lat="47.85537" lon="6.8241">
        <ele>590.36</ele>
        <time>2021-06-23T10:48:07Z</time>
      </trkpt>
      <trkpt lat="47.85528" lon="6.82411">
        <ele>592.17</ele>
        <time>2021-06-23T10:48:10Z</time>
      </trkpt>
      <trkpt lat="47.85522" lon="6.82414">
        <ele>593.71</ele>
        <time>2021-06-23T10:48:12Z</time>
      </trkpt>
      <trkpt lat="47.85519" lon="6.82422">
        <ele>595.18</ele>
        <time>2021-06-23T10:48:14Z</time>
      </trkpt>
      <trkpt lat="47.85519" lon="6.8243">
        <ele>596.06</ele>
        <time>2021-06-23T10:48:16Z</time>
      </trkpt>
      <trkpt lat="47.85523" lon="6.82438">
        <ele>596.34</ele>
        <time>2021-06-23T10:48:18Z</time>
      </trkpt>
      <trkpt lat="47.85537" lon="6.82455">
        <ele>596.4</ele>
        <time>2021-06-23T10:48:20Z</time>
      </trkpt>
      <trkpt lat="47.85549" lon="6.82474">
        <ele>597.28</ele>
        <time>2021-06-23T10:48:23Z</time>
      </trkpt>
      <trkpt lat="47.85562" lon="6.82505">
        <ele>598.82</ele>
        <time>2021-06-23T10:48:25Z</time>
      </trkpt>
      <trkpt lat="47.85574" lon="6.82549">
        <ele>600.34</ele>
        <time>2021-06-23T10:48:27Z</time>
      </trkpt>
      <trkpt lat="47.85576" lon="6.82565">
        <ele>601.13</ele>
        <time>2021-06-23T10:48:29Z</time>
      </trkpt>
      <trkpt lat="47.85575" lon="6.82574">
        <ele>602.34</ele>
        <time>2021-06-23T10:48:31Z</time>
      </trkpt>
      <trkpt lat="47.85572" lon="6.82581">
        <ele>604</ele>
        <time>2021-06-23T10:48:34Z</time>
      </trkpt>
      <trkpt lat="47.8557" lon="6.82583">
        <ele>604.95</ele>
        <time>2021-06-23T10:48:36Z</time>
      </trkpt>
      <trkpt lat="47.85562" lon="6.82581">
        <ele>606.97</ele>
        <time>2021-06-23T10:48:38Z</time>
      </trkpt>
      <trkpt lat="47.85556" lon="6.82573">
        <ele>607.59</ele>
        <time>2021-06-23T10:48:40Z</time>
      </trkpt>
      <trkpt lat="47.85521" lon="6.82497">
        <ele>606.58</ele>
        <time>2021-06-23T10:48:42Z</time>
      </trkpt>
      <trkpt lat="47.85515" lon="6.8249">
        <ele>606.76</ele>
        <time>2021-06-23T10:48:45Z</time>
      </trkpt>
      <trkpt lat="47.8551" lon="6.82486">
        <ele>607.25</ele>
        <time>2021-06-23T10:48:47Z</time>
      </trkpt>
      <trkpt lat="47.855" lon="6.82487">
        <ele>610.07</ele>
        <time>2021-06-23T10:48:49Z</time>
      </trkpt>
      <trkpt lat="47.85497" lon="6.8249">
        <ele>611.79</ele>
        <time>2021-06-23T10:48:51Z</time>
      </trkpt>
      <trkpt lat="47.85493" lon="6.82503">
        <ele>615.69</ele>
        <time>2021-06-23T10:48:53Z</time>
      </trkpt>
      <trkpt lat="47.85502" lon="6.82543">
        <ele>618.63</ele>
        <time>2021-06-23T10:48:56Z</time>
      </trkpt>
      <trkpt lat="47.85508" lon="6.82592">
        <ele>619.12</ele>
        <time>2021-06-23T10:48:58Z</time>
      </trkpt>
      <trkpt lat="47.85507" lon="6.82646">
        <ele>621.08</ele>
        <time>2021-06-23T10:49:00Z</time>
      </trkpt>
      <trkpt lat="47.85506" lon="6.82661">
        <ele>621.51</ele>
        <time>2021-06-23T10:49:02Z</time>
      </trkpt>
      <trkpt lat="47.85501" lon="6.82682">
        <ele>621.91</ele>
        <time>2021-06-23T10:49:04Z</time>
      </trkpt>
      <trkpt lat="47.8547" lon="6.8276">
        <ele>625.38</ele>
        <time>2021-06-23T10:49:07Z</time>
      </trkpt>
      <trkpt lat="47.8546" lon="6.82782">
        <ele>627.04</ele>
        <time>2021-06-23T10:49:09Z</time>
      </trkpt>
      <trkpt lat="47.85444" lon="6.82805">
        <ele>629.14</ele>
        <time>2021-06-23T10:49:11Z</time>
      </trkpt>
      <trkpt lat="47.8536" lon="6.82914">
        <ele>636.41</ele>
        <time>2021-06-23T10:49:13Z</time>
      </trkpt>
      <trkpt lat="47.8534" lon="6.82944">
        <ele>641.14</ele>
        <time>2021-06-23T10:49:15Z</time>
      </trkpt>
      <trkpt lat="47.85304" lon="6.83006">
        <ele>644.05</ele>
        <time>2021-06-23T10:49:17Z</time>
      </trkpt>
      <trkpt lat="47.85304" lon="6.83006">
        <ele>644.05</ele>
        <time>2021-06-23T10:49:17Z</time>
      </trkpt>
      <trkpt lat="47.85293" lon="6.83021">
        <ele>647.78</ele>
        <time>2021-06-23T10:49:20Z</time>
      </trkpt>
      <trkpt lat="47.85284" lon="6.8302">
        <ele>649.34</ele>
        <time>2021-06-23T10:49:22Z</time>
      </trkpt>
      <trkpt lat="47.8528" lon="6.83011">
        <ele>650.9</ele>
        <time>2021-06-23T10:49:24Z</time>
      </trkpt>
      <trkpt lat="47.85279" lon="6.83003">
        <ele>651.62</ele>
        <time>2021-06-23T10:49:27Z</time>
      </trkpt>
      <trkpt lat="47.8528" lon="6.82957">
        <ele>651.7</ele>
        <time>2021-06-23T10:49:29Z</time>
      </trkpt>
      <trkpt lat="47.85278" lon="6.82926">
        <ele>651.34</ele>
        <time>2021-06-23T10:49:31Z</time>
      </trkpt>
      <trkpt lat="47.85272" lon="6.82901">
        <ele>651.99</ele>
        <time>2021-06-23T10:49:33Z</time>
      </trkpt>
      <trkpt lat="47.8525" lon="6.82837">
        <ele>654.78</ele>
        <time>2021-06-23T10:49:36Z</time>
      </trkpt>
      <trkpt lat="47.8524" lon="6.82794">
        <ele>657.3</ele>
        <time>2021-06-23T10:49:38Z</time>
      </trkpt>
      <trkpt lat="47.85233" lon="6.82781">
        <ele>657.9</ele>
        <time>2021-06-23T10:49:40Z</time>
      </trkpt>
      <trkpt lat="47.8522" lon="6.82773">
        <ele>659.06</ele>
        <time>2021-06-23T10:49:42Z</time>
      </trkpt>
      <trkpt lat="47.85206" lon="6.82774">
        <ele>659.51</ele>
        <time>2021-06-23T10:49:45Z</time>
      </trkpt>
      <trkpt lat="47.85144" lon="6.82794">
        <ele>663.47</ele>
        <time>2021-06-23T10:49:47Z</time>
      </trkpt>
      <trkpt lat="47.85106" lon="6.8281">
        <ele>667.41</ele>
        <time>2021-06-23T10:49:49Z</time>
      </trkpt>
      <trkpt lat="47.85064" lon="6.82844">
        <ele>671.96</ele>
        <time>2021-06-23T10:49:51Z</time>
      </trkpt>
      <trkpt lat="47.85054" lon="6.82849">
        <ele>672.4</ele>
        <time>2021-06-23T10:49:54Z</time>
      </trkpt>
      <trkpt lat="47.85022" lon="6.82856">
        <ele>671.36</ele>
        <time>2021-06-23T10:49:56Z</time>
      </trkpt>
      <trkpt lat="47.85015" lon="6.82859">
        <ele>671.78</ele>
        <time>2021-06-23T10:49:58Z</time>
      </trkpt>
      <trkpt lat="47.85009" lon="6.82866">
        <ele>672.68</ele>
        <time>2021-06-23T10:50:01Z</time>
      </trkpt>
      <trkpt lat="47.85003" lon="6.82876">
        <ele>674.04</ele>
        <time>2021-06-23T10:50:03Z</time>
      </trkpt>
      <trkpt lat="47.84976" lon="6.82952">
        <ele>681.11</ele>
        <time>2021-06-23T10:50:05Z</time>
      </trkpt>
      <trkpt lat="47.84939" lon="6.83043">
        <ele>687.29</ele>
        <time>2021-06-23T10:50:07Z</time>
      </trkpt>
      <trkpt lat="47.84927" lon="6.83067">
        <ele>689.42</ele>
        <time>2021-06-23T10:50:10Z</time>
      </trkpt>
      <trkpt lat="47.84897" lon="6.83116">
        <ele>693.74</ele>
        <time>2021-06-23T10:50:12Z</time>
      </trkpt>
      <trkpt lat="47.8487" lon="6.83164">
        <ele>698.4</ele>
        <time>2021-06-23T10:50:14Z</time>
      </trkpt>
      <trkpt lat="47.84855" lon="6.83179">
        <ele>699.86</ele>
        <time>2021-06-23T10:50:16Z</time>
      </trkpt>
      <trkpt lat="47.84808" lon="6.83209">
        <ele>704.39</ele>
        <time>2021-06-23T10:50:19Z</time>
      </trkpt>
      <trkpt lat="47.84751" lon="6.83232">
        <ele>711.67</ele>
        <time>2021-06-23T10:50:21Z</time>
      </trkpt>
      <trkpt lat="47.84732" lon="6.83236">
        <ele>712.74</ele>
        <time>2021-06-23T10:50:23Z</time>
      </trkpt>
      <trkpt lat="47.84691" lon="6.83238">
        <ele>714.51</ele>
        <time>2021-06-23T10:50:25Z</time>
      </trkpt>
      <trkpt lat="47.84648" lon="6.8325">
        <ele>721.89</ele>
        <time>2021-06-23T10:50:28Z</time>
      </trkpt>
      <trkpt lat="47.84617" lon="6.83253">
        <ele>725.57</ele>
        <time>2021-06-23T10:50:30Z</time>
      </trkpt>
      <trkpt lat="47.84593" lon="6.8326">
        <ele>727.37</ele>
        <time>2021-06-23T10:50:32Z</time>
      </trkpt>
      <trkpt lat="47.84541" lon="6.83295">
        <ele>734.27</ele>
        <time>2021-06-23T10:50:34Z</time>
      </trkpt>
      <trkpt lat="47.84493" lon="6.83321">
        <ele>741.12</ele>
        <time>2021-06-23T10:50:37Z</time>
      </trkpt>
      <trkpt lat="47.84434" lon="6.83383">
        <ele>754.1</ele>
        <time>2021-06-23T10:50:39Z</time>
      </trkpt>
      <trkpt lat="47.84407" lon="6.83405">
        <ele>755.86</ele>
        <time>2021-06-23T10:50:41Z</time>
      </trkpt>
      <trkpt lat="47.84328" lon="6.83437">
        <ele>757.47</ele>
        <time>2021-06-23T10:50:44Z</time>
      </trkpt>
      <trkpt lat="47.84304" lon="6.8346">
        <ele>759.98</ele>
        <time>2021-06-23T10:50:46Z</time>
      </trkpt>
      <trkpt lat="47.84287" lon="6.83479">
        <ele>761.87</ele>
        <time>2021-06-23T10:50:48Z</time>
      </trkpt>
      <trkpt lat="47.84263" lon="6.83509">
        <ele>764.68</ele>
        <time>2021-06-23T10:50:50Z</time>
      </trkpt>
      <trkpt lat="47.84236" lon="6.8355">
        <ele>767.19</ele>
        <time>2021-06-23T10:50:53Z</time>
      </trkpt>
      <trkpt lat="47.84227" lon="6.8356">
        <ele>767.93</ele>
        <time>2021-06-23T10:50:55Z</time>
      </trkpt>
      <trkpt lat="47.84187" lon="6.83603">
        <ele>774.74</ele>
        <time>2021-06-23T10:50:57Z</time>
      </trkpt>
      <trkpt lat="47.8417" lon="6.83615">
        <ele>776.8</ele>
        <time>2021-06-23T10:50:59Z</time>
      </trkpt>
      <trkpt lat="47.84163" lon="6.83614">
        <ele>777.19</ele>
        <time>2021-06-23T10:51:02Z</time>
      </trkpt>
      <trkpt lat="47.84163" lon="6.83614">
        <ele>777.19</ele>
        <time>2021-06-23T10:51:02Z</time>
      </trkpt>
      <trkpt lat="47.84158" lon="6.83609">
        <ele>778.03</ele>
        <time>2021-06-23T10:51:04Z</time>
      </trkpt>
      <trkpt lat="47.84153" lon="6.83599">
        <ele>778.67</ele>
        <time>2021-06-23T10:51:07Z</time>
      </trkpt>
      <trkpt lat="47.84152" lon="6.8359">
        <ele>778.77</ele>
        <time>2021-06-23T10:51:09Z</time>
      </trkpt>
      <trkpt lat="47.84152" lon="6.83572">
        <ele>779.03</ele>
        <time>2021-06-23T10:51:11Z</time>
      </trkpt>
      <trkpt lat="47.84157" lon="6.83531">
        <ele>778.84</ele>
        <time>2021-06-23T10:51:14Z</time>
      </trkpt>
      <trkpt lat="47.8418" lon="6.83387">
        <ele>787.81</ele>
        <time>2021-06-23T10:51:16Z</time>
      </trkpt>
      <trkpt lat="47.84184" lon="6.83358">
        <ele>789.23</ele>
        <time>2021-06-23T10:51:19Z</time>
      </trkpt>
      <trkpt lat="47.84184" lon="6.83326">
        <ele>787.74</ele>
        <time>2021-06-23T10:51:21Z</time>
      </trkpt>
      <trkpt lat="47.84181" lon="6.83311">
        <ele>787.3</ele>
        <time>2021-06-23T10:51:23Z</time>
      </trkpt>
      <trkpt lat="47.84174" lon="6.83294">
        <ele>787.47</ele>
        <time>2021-06-23T10:51:26Z</time>
      </trkpt>
      <trkpt lat="47.84165" lon="6.83285">
        <ele>788.22</ele>
        <time>2021-06-23T10:51:28Z</time>
      </trkpt>
      <trkpt lat="47.84128" lon="6.83266">
        <ele>787.6</ele>
        <time>2021-06-23T10:51:31Z</time>
      </trkpt>
      <trkpt lat="47.84108" lon="6.83249">
        <ele>787.68</ele>
        <time>2021-06-23T10:51:33Z</time>
      </trkpt>
      <trkpt lat="47.84077" lon="6.83215">
        <ele>789.51</ele>
        <time>2021-06-23T10:51:35Z</time>
      </trkpt>
      <trkpt lat="47.84053" lon="6.83194">
        <ele>789.66</ele>
        <time>2021-06-23T10:51:38Z</time>
      </trkpt>
      <trkpt lat="47.84041" lon="6.83179">
        <ele>790.52</ele>
        <time>2021-06-23T10:51:40Z</time>
      </trkpt>
      <trkpt lat="47.84006" lon="6.83122">
        <ele>794.56</ele>
        <time>2021-06-23T10:51:43Z</time>
      </trkpt>
      <trkpt lat="47.83975" lon="6.83066">
        <ele>799.76</ele>
        <time>2021-06-23T10:51:45Z</time>
      </trkpt>
      <trkpt lat="47.83914" lon="6.8292">
        <ele>811.75</ele>
        <time>2021-06-23T10:51:48Z</time>
      </trkpt>
      <trkpt lat="47.839" lon="6.82895">
        <ele>814.05</ele>
        <time>2021-06-23T10:51:50Z</time>
      </trkpt>
      <trkpt lat="47.83796" lon="6.82733">
        <ele>828.51</ele>
        <time>2021-06-23T10:51:52Z</time>
      </trkpt>
      <trkpt lat="47.83747" lon="6.82667">
        <ele>833.75</ele>
        <time>2021-06-23T10:51:55Z</time>
      </trkpt>
      <trkpt lat="47.83728" lon="6.82651">
        <ele>836.97</ele>
        <time>2021-06-23T10:51:57Z</time>
      </trkpt>
      <trkpt lat="47.83712" lon="6.82642">
        <ele>839.59</ele>
        <time>2021-06-23T10:52:00Z</time>
      </trkpt>
      <trkpt lat="47.83695" lon="6.82633">
        <ele>841.24</ele>
        <time>2021-06-23T10:52:02Z</time>
      </trkpt>
      <trkpt lat="47.83684" lon="6.8263">
        <ele>841.64</ele>
        <time>2021-06-23T10:52:04Z</time>
      </trkpt>
      <trkpt lat="47.83666" lon="6.82629">
        <ele>842.58</ele>
        <time>2021-06-23T10:52:07Z</time>
      </trkpt>
      <trkpt lat="47.83653" lon="6.82633">
        <ele>842.62</ele>
        <time>2021-06-23T10:52:09Z</time>
      </trkpt>
      <trkpt lat="47.83604" lon="6.82654">
        <ele>844.43</ele>
        <time>2021-06-23T10:52:12Z</time>
      </trkpt>
      <trkpt lat="47.83604" lon="6.82654">
        <ele>844.43</ele>
        <time>2021-06-23T10:52:12Z</time>
      </trkpt>
      <trkpt lat="47.836" lon="6.82657">
        <ele>844.49</ele>
        <time>2021-06-23T10:52:14Z</time>
      </trkpt>
      <trkpt lat="47.83594" lon="6.82668">
        <ele>845.6</ele>
        <time>2021-06-23T10:52:16Z</time>
      </trkpt>
      <trkpt lat="47.83593" lon="6.82676">
        <ele>846.34</ele>
        <time>2021-06-23T10:52:17Z</time>
      </trkpt>
      <trkpt lat="47.83596" lon="6.82682">
        <ele>847.42</ele>
        <time>2021-06-23T10:52:19Z</time>
      </trkpt>
      <trkpt lat="47.836" lon="6.82687">
        <ele>848.68</ele>
        <time>2021-06-23T10:52:21Z</time>
      </trkpt>
      <trkpt lat="47.83607" lon="6.82687">
        <ele>850.03</ele>
        <time>2021-06-23T10:52:23Z</time>
      </trkpt>
      <trkpt lat="47.83632" lon="6.82666">
        <ele>847.05</ele>
        <time>2021-06-23T10:52:25Z</time>
      </trkpt>
      <trkpt lat="47.83645" lon="6.82663">
        <ele>846.45</ele>
        <time>2021-06-23T10:52:27Z</time>
      </trkpt>
      <trkpt lat="47.83656" lon="6.82666">
        <ele>846.95</ele>
        <time>2021-06-23T10:52:29Z</time>
      </trkpt>
      <trkpt lat="47.83666" lon="6.82674">
        <ele>848.06</ele>
        <time>2021-06-23T10:52:31Z</time>
      </trkpt>
      <trkpt lat="47.83698" lon="6.82726">
        <ele>850.57</ele>
        <time>2021-06-23T10:52:33Z</time>
      </trkpt>
      <trkpt lat="47.83726" lon="6.8279">
        <ele>855.99</ele>
        <time>2021-06-23T10:52:35Z</time>
      </trkpt>
      <trkpt lat="47.83774" lon="6.82937">
        <ele>862.99</ele>
        <time>2021-06-23T10:52:37Z</time>
      </trkpt>
      <trkpt lat="47.83791" lon="6.83002">
        <ele>867.97</ele>
        <time>2021-06-23T10:52:39Z</time>
      </trkpt>
      <trkpt lat="47.83814" lon="6.83145">
        <ele>876.21</ele>
        <time>2021-06-23T10:52:41Z</time>
      </trkpt>
      <trkpt lat="47.83824" lon="6.83202">
        <ele>878.53</ele>
        <time>2021-06-23T10:52:43Z</time>
      </trkpt>
      <trkpt lat="47.83833" lon="6.8327">
        <ele>879.1</ele>
        <time>2021-06-23T10:52:45Z</time>
      </trkpt>
      <trkpt lat="47.83844" lon="6.83346">
        <ele>879.85</ele>
        <time>2021-06-23T10:52:46Z</time>
      </trkpt>
      <trkpt lat="47.83843" lon="6.83411">
        <ele>884.63</ele>
        <time>2021-06-23T10:52:48Z</time>
      </trkpt>
      <trkpt lat="47.83846" lon="6.83442">
        <ele>884.45</ele>
        <time>2021-06-23T10:52:50Z</time>
      </trkpt>
      <trkpt lat="47.83854" lon="6.83484">
        <ele>882.26</ele>
        <time>2021-06-23T10:52:52Z</time>
      </trkpt>
      <trkpt lat="47.83852" lon="6.835">
        <ele>882.03</ele>
        <time>2021-06-23T10:52:54Z</time>
      </trkpt>
      <trkpt lat="47.83848" lon="6.83505">
        <ele>882.47</ele>
        <time>2021-06-23T10:52:56Z</time>
      </trkpt>
      <trkpt lat="47.83838" lon="6.83504">
        <ele>884.7</ele>
        <time>2021-06-23T10:52:58Z</time>
      </trkpt>
      <trkpt lat="47.83833" lon="6.83499">
        <ele>886.09</ele>
        <time>2021-06-23T10:53:00Z</time>
      </trkpt>
      <trkpt lat="47.83806" lon="6.83408">
        <ele>896.7</ele>
        <time>2021-06-23T10:53:02Z</time>
      </trkpt>
      <trkpt lat="47.83792" lon="6.83374">
        <ele>899.37</ele>
        <time>2021-06-23T10:53:04Z</time>
      </trkpt>
      <trkpt lat="47.83747" lon="6.83309">
        <ele>907.6</ele>
        <time>2021-06-23T10:53:06Z</time>
      </trkpt>
      <trkpt lat="47.83739" lon="6.83288">
        <ele>908.41</ele>
        <time>2021-06-23T10:53:08Z</time>
      </trkpt>
      <trkpt lat="47.83734" lon="6.83267">
        <ele>909.67</ele>
        <time>2021-06-23T10:53:10Z</time>
      </trkpt>
      <trkpt lat="47.83726" lon="6.83221">
        <ele>911.68</ele>
        <time>2021-06-23T10:53:12Z</time>
      </trkpt>
      <trkpt lat="47.83716" lon="6.8318">
        <ele>912.68</ele>
        <time>2021-06-23T10:53:13Z</time>
      </trkpt>
      <trkpt lat="47.83706" lon="6.8316">
        <ele>913.67</ele>
        <time>2021-06-23T10:53:15Z</time>
      </trkpt>
      <trkpt lat="47.83697" lon="6.83145">
        <ele>914.85</ele>
        <time>2021-06-23T10:53:17Z</time>
      </trkpt>
      <trkpt lat="47.83677" lon="6.83127">
        <ele>916.84</ele>
        <time>2021-06-23T10:53:19Z</time>
      </trkpt>
      <trkpt lat="47.83654" lon="6.83122">
        <ele>919.24</ele>
        <time>2021-06-23T10:53:21Z</time>
      </trkpt>
      <trkpt lat="47.83644" lon="6.83124">
        <ele>921.15</ele>
        <time>2021-06-23T10:53:23Z</time>
      </trkpt>
      <trkpt lat="47.83625" lon="6.83133">
        <ele>923.38</ele>
        <time>2021-06-23T10:53:25Z</time>
      </trkpt>
      <trkpt lat="47.836" lon="6.83151">
        <ele>924.8</ele>
        <time>2021-06-23T10:53:27Z</time>
      </trkpt>
      <trkpt lat="47.83594" lon="6.83158">
        <ele>925.93</ele>
        <time>2021-06-23T10:53:29Z</time>
      </trkpt>
      <trkpt lat="47.83589" lon="6.83167">
        <ele>928.08</ele>
        <time>2021-06-23T10:53:31Z</time>
      </trkpt>
      <trkpt lat="47.83588" lon="6.83173">
        <ele>929.33</ele>
        <time>2021-06-23T10:53:33Z</time>
      </trkpt>
      <trkpt lat="47.83588" lon="6.8318">
        <ele>930.87</ele>
        <time>2021-06-23T10:53:35Z</time>
      </trkpt>
      <trkpt lat="47.83595" lon="6.83188">
        <ele>932.37</ele>
        <time>2021-06-23T10:53:37Z</time>
      </trkpt>
      <trkpt lat="47.83615" lon="6.83185">
        <ele>931.1</ele>
        <time>2021-06-23T10:53:39Z</time>
      </trkpt>
      <trkpt lat="47.83632" lon="6.83189">
        <ele>930.91</ele>
        <time>2021-06-23T10:53:40Z</time>
      </trkpt>
      <trkpt lat="47.83639" lon="6.83194">
        <ele>931.02</ele>
        <time>2021-06-23T10:53:42Z</time>
      </trkpt>
      <trkpt lat="47.83645" lon="6.83205">
        <ele>930.04</ele>
        <time>2021-06-23T10:53:44Z</time>
      </trkpt>
      <trkpt lat="47.8365" lon="6.83219">
        <ele>929.24</ele>
        <time>2021-06-23T10:53:46Z</time>
      </trkpt>
      <trkpt lat="47.83653" lon="6.83237">
        <ele>929.98</ele>
        <time>2021-06-23T10:53:48Z</time>
      </trkpt>
      <trkpt lat="47.83654" lon="6.83315">
        <ele>935.29</ele>
        <time>2021-06-23T10:53:50Z</time>
      </trkpt>
      <trkpt lat="47.83664" lon="6.83435">
        <ele>933.22</ele>
        <time>2021-06-23T10:53:52Z</time>
      </trkpt>
      <trkpt lat="47.83663" lon="6.83447">
        <ele>934.02</ele>
        <time>2021-06-23T10:53:54Z</time>
      </trkpt>
      <trkpt lat="47.83658" lon="6.83461">
        <ele>938.19</ele>
        <time>2021-06-23T10:53:56Z</time>
      </trkpt>
      <trkpt lat="47.83649" lon="6.8346">
        <ele>942.47</ele>
        <time>2021-06-23T10:53:58Z</time>
      </trkpt>
      <trkpt lat="47.83646" lon="6.83455">
        <ele>943.77</ele>
        <time>2021-06-23T10:54:00Z</time>
      </trkpt>
      <trkpt lat="47.83643" lon="6.83447">
        <ele>944.82</ele>
        <time>2021-06-23T10:54:02Z</time>
      </trkpt>
      <trkpt lat="47.83634" lon="6.83401">
        <ele>945.54</ele>
        <time>2021-06-23T10:54:04Z</time>
      </trkpt>
      <trkpt lat="47.83629" lon="6.83384">
        <ele>946.26</ele>
        <time>2021-06-23T10:54:06Z</time>
      </trkpt>
      <trkpt lat="47.83617" lon="6.83355">
        <ele>948.68</ele>
        <time>2021-06-23T10:54:07Z</time>
      </trkpt>
      <trkpt lat="47.836" lon="6.83329">
        <ele>951.43</ele>
        <time>2021-06-23T10:54:09Z</time>
      </trkpt>
      <trkpt lat="47.8359" lon="6.83322">
        <ele>952.94</ele>
        <time>2021-06-23T10:54:11Z</time>
      </trkpt>
      <trkpt lat="47.83494" lon="6.83286">
        <ele>963.53</ele>
        <time>2021-06-23T10:54:13Z</time>
      </trkpt>
      <trkpt lat="47.83455" lon="6.83278">
        <ele>964.58</ele>
        <time>2021-06-23T10:54:15Z</time>
      </trkpt>
      <trkpt lat="47.83409" lon="6.83272">
        <ele>966.89</ele>
        <time>2021-06-23T10:54:17Z</time>
      </trkpt>
      <trkpt lat="47.83388" lon="6.83263">
        <ele>966.87</ele>
        <time>2021-06-23T10:54:19Z</time>
      </trkpt>
      <trkpt lat="47.83339" lon="6.83227">
        <ele>971.56</ele>
        <time>2021-06-23T10:54:21Z</time>
      </trkpt>
      <trkpt lat="47.83295" lon="6.83212">
        <ele>974.82</ele>
        <time>2021-06-23T10:54:23Z</time>
      </trkpt>
      <trkpt lat="47.83281" lon="6.83212">
        <ele>975.91</ele>
        <time>2021-06-23T10:54:25Z</time>
      </trkpt>
      <trkpt lat="47.83267" lon="6.83216">
        <ele>977.31</ele>
        <time>2021-06-23T10:54:27Z</time>
      </trkpt>
      <trkpt lat="47.83233" lon="6.83237">
        <ele>980.69</ele>
        <time>2021-06-23T10:54:29Z</time>
      </trkpt>
      <trkpt lat="47.83214" lon="6.83245">
        <ele>981.84</ele>
        <time>2021-06-23T10:54:31Z</time>
      </trkpt>
      <trkpt lat="47.83177" lon="6.83259">
        <ele>987.33</ele>
        <time>2021-06-23T10:54:33Z</time>
      </trkpt>
      <trkpt lat="47.83165" lon="6.8326">
        <ele>988.32</ele>
        <time>2021-06-23T10:54:35Z</time>
      </trkpt>
      <trkpt lat="47.83152" lon="6.83267">
        <ele>987.63</ele>
        <time>2021-06-23T10:54:36Z</time>
      </trkpt>
      <trkpt lat="47.83147" lon="6.83273">
        <ele>987.24</ele>
        <time>2021-06-23T10:54:38Z</time>
      </trkpt>
      <trkpt lat="47.83144" lon="6.83283">
        <ele>986.87</ele>
        <time>2021-06-23T10:54:40Z</time>
      </trkpt>
      <trkpt lat="47.83146" lon="6.83293">
        <ele>987.18</ele>
        <time>2021-06-23T10:54:42Z</time>
      </trkpt>
      <trkpt lat="47.83152" lon="6.83299">
        <ele>988.8</ele>
        <time>2021-06-23T10:54:44Z</time>
      </trkpt>
      <trkpt lat="47.83206" lon="6.83303">
        <ele>996.68</ele>
        <time>2021-06-23T10:54:46Z</time>
      </trkpt>
      <trkpt lat="47.83232" lon="6.83311">
        <ele>1000.14</ele>
        <time>2021-06-23T10:54:48Z</time>
      </trkpt>
      <trkpt lat="47.83259" lon="6.83324">
        <ele>1004.49</ele>
        <time>2021-06-23T10:54:50Z</time>
      </trkpt>
      <trkpt lat="47.83318" lon="6.83356">
        <ele>1009.23</ele>
        <time>2021-06-23T10:54:52Z</time>
      </trkpt>
      <trkpt lat="47.83379" lon="6.83408">
        <ele>1007.94</ele>
        <time>2021-06-23T10:54:54Z</time>
      </trkpt>
      <trkpt lat="47.83395" lon="6.83426">
        <ele>1008.55</ele>
        <time>2021-06-23T10:54:56Z</time>
      </trkpt>
      <trkpt lat="47.83417" lon="6.83459">
        <ele>1012.13</ele>
        <time>2021-06-23T10:54:58Z</time>
      </trkpt>
      <trkpt lat="47.83422" lon="6.83472">
        <ele>1012.95</ele>
        <time>2021-06-23T10:55:00Z</time>
      </trkpt>
      <trkpt lat="47.8343" lon="6.83498">
        <ele>1014.41</ele>
        <time>2021-06-23T10:55:02Z</time>
      </trkpt>
      <trkpt lat="47.83445" lon="6.83595">
        <ele>1025.57</ele>
        <time>2021-06-23T10:55:03Z</time>
      </trkpt>
      <trkpt lat="47.83448" lon="6.83656">
        <ele>1032.72</ele>
        <time>2021-06-23T10:55:05Z</time>
      </trkpt>
      <trkpt lat="47.83454" lon="6.83716">
        <ele>1035.64</ele>
        <time>2021-06-23T10:55:07Z</time>
      </trkpt>
      <trkpt lat="47.83456" lon="6.83778">
        <ele>1039.19</ele>
        <time>2021-06-23T10:55:09Z</time>
      </trkpt>
      <trkpt lat="47.83455" lon="6.83839">
        <ele>1043.61</ele>
        <time>2021-06-23T10:55:11Z</time>
      </trkpt>
      <trkpt lat="47.83463" lon="6.83926">
        <ele>1045.39</ele>
        <time>2021-06-23T10:55:13Z</time>
      </trkpt>
      <trkpt lat="47.83467" lon="6.84008">
        <ele>1045.04</ele>
        <time>2021-06-23T10:55:15Z</time>
      </trkpt>
      <trkpt lat="47.83472" lon="6.84044">
        <ele>1042.82</ele>
        <time>2021-06-23T10:55:17Z</time>
      </trkpt>
      <trkpt lat="47.83471" lon="6.84061">
        <ele>1041.63</ele>
        <time>2021-06-23T10:55:19Z</time>
      </trkpt>
      <trkpt lat="47.83468" lon="6.84068">
        <ele>1041.34</ele>
        <time>2021-06-23T10:55:21Z</time>
      </trkpt>
      <trkpt lat="47.83465" lon="6.84071">
        <ele>1041.35</ele>
        <time>2021-06-23T10:55:23Z</time>
      </trkpt>
      <trkpt lat="47.83465" lon="6.84071">
        <ele>1041.35</ele>
        <time>2021-06-23T10:55:23Z</time>
      </trkpt>
      <trkpt lat="47.83459" lon="6.84072">
        <ele>1041.57</ele>
        <time>2021-06-23T10:55:25Z</time>
      </trkpt>
      <trkpt lat="47.83452" lon="6.84068">
        <ele>1042.13</ele>
        <time>2021-06-23T10:55:27Z</time>
      </trkpt>
      <trkpt lat="47.83447" lon="6.84052">
        <ele>1043.18</ele>
        <time>2021-06-23T10:55:30Z</time>
      </trkpt>
      <trkpt lat="47.83443" lon="6.84023">
        <ele>1045.69</ele>
        <time>2021-06-23T10:55:32Z</time>
      </trkpt>
      <trkpt lat="47.83438" lon="6.84005">
        <ele>1047.76</ele>
        <time>2021-06-23T10:55:34Z</time>
      </trkpt>
      <trkpt lat="47.83423" lon="6.83957">
        <ele>1051.22</ele>
        <time>2021-06-23T10:55:37Z</time>
      </trkpt>
      <trkpt lat="47.83412" lon="6.8393">
        <ele>1052.96</ele>
        <time>2021-06-23T10:55:39Z</time>
      </trkpt>
      <trkpt lat="47.83395" lon="6.83894">
        <ele>1056.89</ele>
        <time>2021-06-23T10:55:41Z</time>
      </trkpt>
      <trkpt lat="47.83385" lon="6.83876">
        <ele>1057.5</ele>
        <time>2021-06-23T10:55:44Z</time>
      </trkpt>
      <trkpt lat="47.83371" lon="6.83861">
        <ele>1057.92</ele>
        <time>2021-06-23T10:55:46Z</time>
      </trkpt>
      <trkpt lat="47.83358" lon="6.83859">
        <ele>1058.93</ele>
        <time>2021-06-23T10:55:48Z</time>
      </trkpt>
      <trkpt lat="47.83353" lon="6.83862">
        <ele>1059.68</ele>
        <time>2021-06-23T10:55:51Z</time>
      </trkpt>
      <trkpt lat="47.83348" lon="6.83869">
        <ele>1060.24</ele>
        <time>2021-06-23T10:55:53Z</time>
      </trkpt>
      <trkpt lat="47.83345" lon="6.83881">
        <ele>1060.77</ele>
        <time>2021-06-23T10:55:55Z</time>
      </trkpt>
      <trkpt lat="47.83342" lon="6.83899">
        <ele>1061.25</ele>
        <time>2021-06-23T10:55:58Z</time>
      </trkpt>
      <trkpt lat="47.83338" lon="6.83967">
        <ele>1063.23</ele>
        <time>2021-06-23T10:56:00Z</time>
      </trkpt>
      <trkpt lat="47.83334" lon="6.83983">
        <ele>1064.24</ele>
        <time>2021-06-23T10:56:02Z</time>
      </trkpt>
      <trkpt lat="47.83324" lon="6.84004">
        <ele>1065.6</ele>
        <time>2021-06-23T10:56:05Z</time>
      </trkpt>
      <trkpt lat="47.83316" lon="6.84014">
        <ele>1065.97</ele>
        <time>2021-06-23T10:56:07Z</time>
      </trkpt>
      <trkpt lat="47.83307" lon="6.8402">
        <ele>1067.08</ele>
        <time>2021-06-23T10:56:09Z</time>
      </trkpt>
      <trkpt lat="47.83294" lon="6.84025">
        <ele>1068.31</ele>
        <time>2021-06-23T10:56:12Z</time>
      </trkpt>
      <trkpt lat="47.83277" lon="6.84025">
        <ele>1069.96</ele>
        <time>2021-06-23T10:56:14Z</time>
      </trkpt>
      <trkpt lat="47.83253" lon="6.84021">
        <ele>1071.34</ele>
        <time>2021-06-23T10:56:16Z</time>
      </trkpt>
      <trkpt lat="47.83237" lon="6.84014">
        <ele>1071.21</ele>
        <time>2021-06-23T10:56:19Z</time>
      </trkpt>
      <trkpt lat="47.83178" lon="6.83977">
        <ele>1075.52</ele>
        <time>2021-06-23T10:56:21Z</time>
      </trkpt>
      <trkpt lat="47.83153" lon="6.83964">
        <ele>1077.97</ele>
        <time>2021-06-23T10:56:23Z</time>
      </trkpt>
      <trkpt lat="47.83077" lon="6.83937">
        <ele>1083.65</ele>
        <time>2021-06-23T10:56:26Z</time>
      </trkpt>
      <trkpt lat="47.83044" lon="6.83915">
        <ele>1089.41</ele>
        <time>2021-06-23T10:56:28Z</time>
      </trkpt>
      <trkpt lat="47.83013" lon="6.83886">
        <ele>1091.9</ele>
        <time>2021-06-23T10:56:30Z</time>
      </trkpt>
      <trkpt lat="47.82923" lon="6.83791">
        <ele>1107.87</ele>
        <time>2021-06-23T10:56:33Z</time>
      </trkpt>
      <trkpt lat="47.82902" lon="6.83774">
        <ele>1110.08</ele>
        <time>2021-06-23T10:56:35Z</time>
      </trkpt>
      <trkpt lat="47.82829" lon="6.83728">
        <ele>1117.33</ele>
        <time>2021-06-23T10:56:37Z</time>
      </trkpt>
      <trkpt lat="47.82802" lon="6.83713">
        <ele>1119.82</ele>
        <time>2021-06-23T10:56:40Z</time>
      </trkpt>
      <trkpt lat="47.82783" lon="6.83699">
        <ele>1120.1</ele>
        <time>2021-06-23T10:56:42Z</time>
      </trkpt>
      <trkpt lat="47.82761" lon="6.8368">
        <ele>1122.43</ele>
        <time>2021-06-23T10:56:44Z</time>
      </trkpt>
      <trkpt lat="47.82667" lon="6.83587">
        <ele>1131.25</ele>
        <time>2021-06-23T10:56:47Z</time>
      </trkpt>
      <trkpt lat="47.82586" lon="6.83522">
        <ele>1137.66</ele>
        <time>2021-06-23T10:56:49Z</time>
      </trkpt>
      <trkpt lat="47.82566" lon="6.83509">
        <ele>1138.28</ele>
        <time>2021-06-23T10:56:51Z</time>
      </trkpt>
      <trkpt lat="47.8255" lon="6.83501">
        <ele>1139.24</ele>
        <time>2021-06-23T10:56:54Z</time>
      </trkpt>
      <trkpt lat="47.82498" lon="6.83485">
        <ele>1143.91</ele>
        <time>2021-06-23T10:56:56Z</time>
      </trkpt>
      <trkpt lat="47.82436" lon="6.83487">
        <ele>1148.19</ele>
        <time>2021-06-23T10:56:58Z</time>
      </trkpt>
      <trkpt lat="47.82383" lon="6.83481">
        <ele>1151.51</ele>
        <time>2021-06-23T10:57:01Z</time>
      </trkpt>
      <trkpt lat="47.82319" lon="6.83468">
        <ele>1155.83</ele>
        <time>2021-06-23T10:57:03Z</time>
      </trkpt>
      <trkpt lat="47.82255" lon="6.83452">
        <ele>1162.71</ele>
        <time>2021-06-23T10:57:05Z</time>
      </trkpt>
      <trkpt lat="47.82187" lon="6.83443">
        <ele>1166.61</ele>
        <time>2021-06-23T10:57:08Z</time>
      </trkpt>
      <trkpt lat="47.82156" lon="6.83429">
        <ele>1168.33</ele>
        <time>2021-06-23T10:57:10Z</time>
      </trkpt>
      <trkpt lat="47.82143" lon="6.83425">
        <ele>1169.93</ele>
        <time>2021-06-23T10:57:12Z</time>
      </trkpt>
      <trkpt lat="47.82127" lon="6.83427">
        <ele>1170.98</ele>
        <time>2021-06-23T10:57:15Z</time>
      </trkpt>
      <trkpt lat="47.82118" lon="6.83431">
        <ele>1171.38</ele>
        <time>2021-06-23T10:57:17Z</time>
      </trkpt>
      <trkpt lat="47.82092" lon="6.83446">
        <ele>1171.34</ele>
        <time>2021-06-23T10:57:19Z</time>
      </trkpt>
      <trkpt lat="47.82092" lon="6.83446">
        <ele>1171.34</ele>
        <time>2021-06-23T10:57:19Z</time>
      </trkpt>
      <trkpt lat="47.82054" lon="6.83469">
        <ele>1170.87</ele>
        <time>2021-06-23T10:57:22Z</time>
      </trkpt>
      <trkpt lat="47.82038" lon="6.83486">
        <ele>1171.18</ele>
        <time>2021-06-23T10:57:25Z</time>
      </trkpt>
      <trkpt lat="47.82036" lon="6.83495">
        <ele>1171.24</ele>
        <time>2021-06-23T10:57:28Z</time>
      </trkpt>
      <trkpt lat="47.82037" lon="6.83506">
        <ele>1171.1</ele>
        <time>2021-06-23T10:57:31Z</time>
      </trkpt>
      <trkpt lat="47.82067" lon="6.83599">
        <ele>1168.84</ele>
        <time>2021-06-23T10:57:34Z</time>
      </trkpt>
      <trkpt lat="47.82083" lon="6.83666">
        <ele>1171.92</ele>
        <time>2021-06-23T10:57:37Z</time>
      </trkpt>
      <trkpt lat="47.82086" lon="6.83692">
        <ele>1171.44</ele>
        <time>2021-06-23T10:57:40Z</time>
      </trkpt>
      <trkpt lat="47.82087" lon="6.83717">
        <ele>1170.7</ele>
        <time>2021-06-23T10:57:43Z</time>
      </trkpt>
      <trkpt lat="47.8208" lon="6.83817">
        <ele>1169.84</ele>
        <time>2021-06-23T10:57:46Z</time>
      </trkpt>
      <trkpt lat="47.82071" lon="6.8387">
        <ele>1169.08</ele>
        <time>2021-06-23T10:57:49Z</time>
      </trkpt>
      <trkpt lat="47.82059" lon="6.83914">
        <ele>1167.42</ele>
        <time>2021-06-23T10:57:52Z</time>
      </trkpt>
      <trkpt lat="47.82031" lon="6.83978">
        <ele>1166.43</ele>
        <time>2021-06-23T10:57:55Z</time>
      </trkpt>
      <trkpt lat="47.82005" lon="6.84012">
        <ele>1167.12</ele>
        <time>2021-06-23T10:57:58Z</time>
      </trkpt>
      <trkpt lat="47.81985" lon="6.84031">
        <ele>1166.68</ele>
        <time>2021-06-23T10:58:01Z</time>
      </trkpt>
      <trkpt lat="47.81909" lon="6.84094">
        <ele>1163.78</ele>
        <time>2021-06-23T10:58:04Z</time>
      </trkpt>
      <trkpt lat="47.81865" lon="6.84129">
        <ele>1158.2</ele>
        <time>2021-06-23T10:58:07Z</time>
      </trkpt>
      <trkpt lat="47.81818" lon="6.8416">
        <ele>1154.75</ele>
        <time>2021-06-23T10:58:10Z</time>
      </trkpt>
      <trkpt lat="47.81736" lon="6.84202">
        <ele>1147.87</ele>
        <time>2021-06-23T10:58:13Z</time>
      </trkpt>
      <trkpt lat="47.81689" lon="6.84219">
        <ele>1145.43</ele>
        <time>2021-06-23T10:58:16Z</time>
      </trkpt>
      <trkpt lat="47.81627" lon="6.84228">
        <ele>1140.04</ele>
        <time>2021-06-23T10:58:19Z</time>
      </trkpt>
      <trkpt lat="47.81491" lon="6.84238">
        <ele>1131.13</ele>
        <time>2021-06-23T10:58:22Z</time>
      </trkpt>
      <trkpt lat="47.81467" lon="6.84235">
        <ele>1131.88</ele>
        <time>2021-06-23T10:58:25Z</time>
      </trkpt>
      <trkpt lat="47.81456" lon="6.84231">
        <ele>1132.63</ele>
        <time>2021-06-23T10:58:28Z</time>
      </trkpt>
      <trkpt lat="47.8144" lon="6.84221">
        <ele>1133</ele>
        <time>2021-06-23T10:58:31Z</time>
      </trkpt>
      <trkpt lat="47.81426" lon="6.84209">
        <ele>1133</ele>
        <time>2021-06-23T10:58:34Z</time>
      </trkpt>
      <trkpt lat="47.81365" lon="6.84144">
        <ele>1136.01</ele>
        <time>2021-06-23T10:58:37Z</time>
      </trkpt>
      <trkpt lat="47.81252" lon="6.84036">
        <ele>1134.8</ele>
        <time>2021-06-23T10:58:40Z</time>
      </trkpt>
      <trkpt lat="47.81221" lon="6.84004">
        <ele>1133.49</ele>
        <time>2021-06-23T10:58:43Z</time>
      </trkpt>
      <trkpt lat="47.81199" lon="6.83984">
        <ele>1132.09</ele>
        <time>2021-06-23T10:58:46Z</time>
      </trkpt>
      <trkpt lat="47.81145" lon="6.83949">
        <ele>1126.06</ele>
        <time>2021-06-23T10:58:49Z</time>
      </trkpt>
      <trkpt lat="47.81121" lon="6.83938">
        <ele>1124.44</ele>
        <time>2021-06-23T10:58:52Z</time>
      </trkpt>
      <trkpt lat="47.81095" lon="6.83933">
        <ele>1123.32</ele>
        <time>2021-06-23T10:58:55Z</time>
      </trkpt>
      <trkpt lat="47.81069" lon="6.8393">
        <ele>1121.95</ele>
        <time>2021-06-23T10:58:58Z</time>
      </trkpt>
      <trkpt lat="47.81049" lon="6.83932">
        <ele>1121.36</ele>
        <time>2021-06-23T10:59:01Z</time>
      </trkpt>
      <trkpt lat="47.81032" lon="6.83939">
        <ele>1121.52</ele>
        <time>2021-06-23T10:59:04Z</time>
      </trkpt>
      <trkpt lat="47.80971" lon="6.83974">
        <ele>1112.93</ele>
        <time>2021-06-23T10:59:07Z</time>
      </trkpt>
      <trkpt lat="47.8096" lon="6.8399">
        <ele>1111.82</ele>
        <time>2021-06-23T10:59:10Z</time>
      </trkpt>
      <trkpt lat="47.80951" lon="6.84016">
        <ele>1111.68</ele>
        <time>2021-06-23T10:59:13Z</time>
      </trkpt>
      <trkpt lat="47.80947" lon="6.84045">
        <ele>1113.2</ele>
        <time>2021-06-23T10:59:16Z</time>
      </trkpt>
      <trkpt lat="47.80946" lon="6.84062">
        <ele>1114.03</ele>
        <time>2021-06-23T10:59:19Z</time>
      </trkpt>
      <trkpt lat="47.80953" lon="6.84114">
        <ele>1111.43</ele>
        <time>2021-06-23T10:59:22Z</time>
      </trkpt>
      <trkpt lat="47.80962" lon="6.84147">
        <ele>1109.96</ele>
        <time>2021-06-23T10:59:25Z</time>
      </trkpt>
      <trkpt lat="47.80974" lon="6.8417">
        <ele>1108.69</ele>
        <time>2021-06-23T10:59:28Z</time>
      </trkpt>
      <trkpt lat="47.80981" lon="6.84177">
        <ele>1108.72</ele>
        <time>2021-06-23T10:59:31Z</time>
      </trkpt>
      <trkpt lat="47.81019" lon="6.84201">
        <ele>1110.88</ele>
        <time>2021-06-23T10:59:34Z</time>
      </trkpt>
      <trkpt lat="47.81024" lon="6.84213">
        <ele>1110.9</ele>
        <time>2021-06-23T10:59:37Z</time>
      </trkpt>
      <trkpt lat="47.81025" lon="6.84235">
        <ele>1110.72</ele>
        <time>2021-06-23T10:59:40Z</time>
      </trkpt>
      <trkpt lat="47.81023" lon="6.84285">
        <ele>1109.08</ele>
        <time>2021-06-23T10:59:43Z</time>
      </trkpt>
      <trkpt lat="47.81032" lon="6.844">
        <ele>1104.3</ele>
        <time>2021-06-23T10:59:46Z</time>
      </trkpt>
      <trkpt lat="47.81033" lon="6.84433">
        <ele>1103.88</ele>
        <time>2021-06-23T10:59:49Z</time>
      </trkpt>
      <trkpt lat="47.8103" lon="6.84499">
        <ele>1100.77</ele>
        <time>2021-06-23T10:59:52Z</time>
      </trkpt>
      <trkpt lat="47.81019" lon="6.84605">
        <ele>1086.06</ele>
        <time>2021-06-23T10:59:55Z</time>
      </trkpt>
      <trkpt lat="47.81017" lon="6.84617">
        <ele>1085.7</ele>
        <time>2021-06-23T10:59:58Z</time>
      </trkpt>
      <trkpt lat="47.81003" lon="6.84649">
        <ele>1084.27</ele>
        <time>2021-06-23T11:00:01Z</time>
      </trkpt>
      <trkpt lat="47.80985" lon="6.84674">
        <ele>1084.54</ele>
        <time>2021-06-23T11:00:04Z</time>
      </trkpt>
      <trkpt lat="47.80975" lon="6.84683">
        <ele>1084.71</ele>
        <time>2021-06-23T11:00:07Z</time>
      </trkpt>
      <trkpt lat="47.80964" lon="6.84689">
        <ele>1084.82</ele>
        <time>2021-06-23T11:00:10Z</time>
      </trkpt>
      <trkpt lat="47.80896" lon="6.84706">
        <ele>1082.75</ele>
        <time>2021-06-23T11:00:13Z</time>
      </trkpt>
      <trkpt lat="47.80822" lon="6.84747">
        <ele>1076.92</ele>
        <time>2021-06-23T11:00:16Z</time>
      </trkpt>
      <trkpt lat="47.80787" lon="6.84754">
        <ele>1075.79</ele>
        <time>2021-06-23T11:00:19Z</time>
      </trkpt>
      <trkpt lat="47.80765" lon="6.84753">
        <ele>1074.81</ele>
        <time>2021-06-23T11:00:22Z</time>
      </trkpt>
      <trkpt lat="47.80765" lon="6.84753">
        <ele>1074.81</ele>
        <time>2021-06-23T11:00:22Z</time>
      </trkpt>
      <trkpt lat="47.80743" lon="6.84752">
        <ele>1073.84</ele>
        <time>2021-06-23T11:00:24Z</time>
      </trkpt>
      <trkpt lat="47.80718" lon="6.84747">
        <ele>1074.36</ele>
        <time>2021-06-23T11:00:26Z</time>
      </trkpt>
      <trkpt lat="47.80685" lon="6.84737">
        <ele>1073.45</ele>
        <time>2021-06-23T11:00:28Z</time>
      </trkpt>
      <trkpt lat="47.80642" lon="6.84711">
        <ele>1068.63</ele>
        <time>2021-06-23T11:00:30Z</time>
      </trkpt>
      <trkpt lat="47.80604" lon="6.84691">
        <ele>1062.92</ele>
        <time>2021-06-23T11:00:32Z</time>
      </trkpt>
      <trkpt lat="47.80584" lon="6.84683">
        <ele>1062.61</ele>
        <time>2021-06-23T11:00:34Z</time>
      </trkpt>
      <trkpt lat="47.80529" lon="6.84666">
        <ele>1062.84</ele>
        <time>2021-06-23T11:00:37Z</time>
      </trkpt>
      <trkpt lat="47.80524" lon="6.84662">
        <ele>1062.67</ele>
        <time>2021-06-23T11:00:39Z</time>
      </trkpt>
      <trkpt lat="47.80522" lon="6.84657">
        <ele>1061.69</ele>
        <time>2021-06-23T11:00:41Z</time>
      </trkpt>
      <trkpt lat="47.80524" lon="6.84645">
        <ele>1058.44</ele>
        <time>2021-06-23T11:00:43Z</time>
      </trkpt>
      <trkpt lat="47.80528" lon="6.84641">
        <ele>1056.47</ele>
        <time>2021-06-23T11:00:45Z</time>
      </trkpt>
      <trkpt lat="47.80532" lon="6.84639">
        <ele>1055.47</ele>
        <time>2021-06-23T11:00:47Z</time>
      </trkpt>
      <trkpt lat="47.80572" lon="6.84656">
        <ele>1055.93</ele>
        <time>2021-06-23T11:00:49Z</time>
      </trkpt>
      <trkpt lat="47.80592" lon="6.84662">
        <ele>1056.31</ele>
        <time>2021-06-23T11:00:51Z</time>
      </trkpt>
      <trkpt lat="47.80634" lon="6.84669">
        <ele>1056.59</ele>
        <time>2021-06-23T11:00:53Z</time>
      </trkpt>
      <trkpt lat="47.80671" lon="6.8467">
        <ele>1057.72</ele>
        <time>2021-06-23T11:00:55Z</time>
      </trkpt>
      <trkpt lat="47.80724" lon="6.84666">
        <ele>1053.64</ele>
        <time>2021-06-23T11:00:57Z</time>
      </trkpt>
      <trkpt lat="47.80755" lon="6.84659">
        <ele>1050.4</ele>
        <time>2021-06-23T11:00:59Z</time>
      </trkpt>
      <trkpt lat="47.80777" lon="6.84648">
        <ele>1048.78</ele>
        <time>2021-06-23T11:01:02Z</time>
      </trkpt>
      <trkpt lat="47.8079" lon="6.84635">
        <ele>1048.42</ele>
        <time>2021-06-23T11:01:04Z</time>
      </trkpt>
      <trkpt lat="47.80818" lon="6.84595">
        <ele>1043.67</ele>
        <time>2021-06-23T11:01:06Z</time>
      </trkpt>
      <trkpt lat="47.80859" lon="6.84548">
        <ele>1042.39</ele>
        <time>2021-06-23T11:01:08Z</time>
      </trkpt>
      <trkpt lat="47.809" lon="6.8449">
        <ele>1046.11</ele>
        <time>2021-06-23T11:01:10Z</time>
      </trkpt>
      <trkpt lat="47.80903" lon="6.84482">
        <ele>1047.26</ele>
        <time>2021-06-23T11:01:12Z</time>
      </trkpt>
      <trkpt lat="47.80903" lon="6.84473">
        <ele>1047.03</ele>
        <time>2021-06-23T11:01:14Z</time>
      </trkpt>
      <trkpt lat="47.80898" lon="6.84462">
        <ele>1044.1</ele>
        <time>2021-06-23T11:01:16Z</time>
      </trkpt>
      <trkpt lat="47.80893" lon="6.8446">
        <ele>1042.2</ele>
        <time>2021-06-23T11:01:18Z</time>
      </trkpt>
      <trkpt lat="47.80885" lon="6.84463">
        <ele>1039.14</ele>
        <time>2021-06-23T11:01:20Z</time>
      </trkpt>
      <trkpt lat="47.8087" lon="6.84498">
        <ele>1036.91</ele>
        <time>2021-06-23T11:01:22Z</time>
      </trkpt>
      <trkpt lat="47.80862" lon="6.84511">
        <ele>1036.88</ele>
        <time>2021-06-23T11:01:25Z</time>
      </trkpt>
      <trkpt lat="47.80853" lon="6.84523">
        <ele>1036.98</ele>
        <time>2021-06-23T11:01:27Z</time>
      </trkpt>
      <trkpt lat="47.80801" lon="6.84561">
        <ele>1030.14</ele>
        <time>2021-06-23T11:01:29Z</time>
      </trkpt>
      <trkpt lat="47.80771" lon="6.84592">
        <ele>1032.29</ele>
        <time>2021-06-23T11:01:31Z</time>
      </trkpt>
      <trkpt lat="47.80756" lon="6.84599">
        <ele>1034.07</ele>
        <time>2021-06-23T11:01:33Z</time>
      </trkpt>
      <trkpt lat="47.80739" lon="6.84599">
        <ele>1033.82</ele>
        <time>2021-06-23T11:01:35Z</time>
      </trkpt>
      <trkpt lat="47.80651" lon="6.84574">
        <ele>1022.49</ele>
        <time>2021-06-23T11:01:37Z</time>
      </trkpt>
      <trkpt lat="47.80631" lon="6.84565">
        <ele>1022.23</ele>
        <time>2021-06-23T11:01:39Z</time>
      </trkpt>
      <trkpt lat="47.80582" lon="6.84535">
        <ele>1020.4</ele>
        <time>2021-06-23T11:01:41Z</time>
      </trkpt>
      <trkpt lat="47.80481" lon="6.84452">
        <ele>1014.32</ele>
        <time>2021-06-23T11:01:43Z</time>
      </trkpt>
      <trkpt lat="47.80444" lon="6.8443">
        <ele>1011.82</ele>
        <time>2021-06-23T11:01:45Z</time>
      </trkpt>
      <trkpt lat="47.80387" lon="6.84409">
        <ele>1007.06</ele>
        <time>2021-06-23T11:01:47Z</time>
      </trkpt>
      <trkpt lat="47.80366" lon="6.84405">
        <ele>1004.79</ele>
        <time>2021-06-23T11:01:50Z</time>
      </trkpt>
      <trkpt lat="47.80308" lon="6.844">
        <ele>1004.76</ele>
        <time>2021-06-23T11:01:52Z</time>
      </trkpt>
      <trkpt lat="47.8028" lon="6.84395">
        <ele>1006.01</ele>
        <time>2021-06-23T11:01:54Z</time>
      </trkpt>
      <trkpt lat="47.80248" lon="6.8438">
        <ele>1003.98</ele>
        <time>2021-06-23T11:01:56Z</time>
      </trkpt>
      <trkpt lat="47.80201" lon="6.84353">
        <ele>996.65</ele>
        <time>2021-06-23T11:01:58Z</time>
      </trkpt>
      <trkpt lat="47.80188" lon="6.84351">
        <ele>993.8</ele>
        <time>2021-06-23T11:02:00Z</time>
      </trkpt>
      <trkpt lat="47.80177" lon="6.84353">
        <ele>991.29</ele>
        <time>2021-06-23T11:02:02Z</time>
      </trkpt>
      <trkpt lat="47.80167" lon="6.84359">
        <ele>989.61</ele>
        <time>2021-06-23T11:02:04Z</time>
      </trkpt>
      <trkpt lat="47.8016" lon="6.84365">
        <ele>988.37</ele>
        <time>2021-06-23T11:02:06Z</time>
      </trkpt>
      <trkpt lat="47.80146" lon="6.84387">
        <ele>987.48</ele>
        <time>2021-06-23T11:02:08Z</time>
      </trkpt>
      <trkpt lat="47.80125" lon="6.8444">
        <ele>988.66</ele>
        <time>2021-06-23T11:02:10Z</time>
      </trkpt>
      <trkpt lat="47.80102" lon="6.84502">
        <ele>987.9</ele>
        <time>2021-06-23T11:02:13Z</time>
      </trkpt>
      <trkpt lat="47.80096" lon="6.84515">
        <ele>988.58</ele>
        <time>2021-06-23T11:02:15Z</time>
      </trkpt>
      <trkpt lat="47.80084" lon="6.84532">
        <ele>988.98</ele>
        <time>2021-06-23T11:02:17Z</time>
      </trkpt>
      <trkpt lat="47.80065" lon="6.84546">
        <ele>987.34</ele>
        <time>2021-06-23T11:02:19Z</time>
      </trkpt>
      <trkpt lat="47.80033" lon="6.84556">
        <ele>981.57</ele>
        <time>2021-06-23T11:02:21Z</time>
      </trkpt>
      <trkpt lat="47.80004" lon="6.84563">
        <ele>983.23</ele>
        <time>2021-06-23T11:02:23Z</time>
      </trkpt>
      <trkpt lat="47.79976" lon="6.84565">
        <ele>984.53</ele>
        <time>2021-06-23T11:02:25Z</time>
      </trkpt>
      <trkpt lat="47.79954" lon="6.8456">
        <ele>985.01</ele>
        <time>2021-06-23T11:02:27Z</time>
      </trkpt>
      <trkpt lat="47.79936" lon="6.84549">
        <ele>985.51</ele>
        <time>2021-06-23T11:02:29Z</time>
      </trkpt>
      <trkpt lat="47.79812" lon="6.84389">
        <ele>974</ele>
        <time>2021-06-23T11:02:31Z</time>
      </trkpt>
      <trkpt lat="47.79798" lon="6.84377">
        <ele>973.01</ele>
        <time>2021-06-23T11:02:33Z</time>
      </trkpt>
      <trkpt lat="47.79766" lon="6.8436">
        <ele>971.94</ele>
        <time>2021-06-23T11:02:35Z</time>
      </trkpt>
      <trkpt lat="47.79714" lon="6.84319">
        <ele>966.72</ele>
        <time>2021-06-23T11:02:38Z</time>
      </trkpt>
      <trkpt lat="47.79684" lon="6.843">
        <ele>967.22</ele>
        <time>2021-06-23T11:02:40Z</time>
      </trkpt>
      <trkpt lat="47.79667" lon="6.84286">
        <ele>966.35</ele>
        <time>2021-06-23T11:02:42Z</time>
      </trkpt>
      <trkpt lat="47.79646" lon="6.8426">
        <ele>968.59</ele>
        <time>2021-06-23T11:02:44Z</time>
      </trkpt>
      <trkpt lat="47.79646" lon="6.8426">
        <ele>968.59</ele>
        <time>2021-06-23T11:02:44Z</time>
      </trkpt>
      <trkpt lat="47.79644" lon="6.84255">
        <ele>968.8</ele>
        <time>2021-06-23T11:02:46Z</time>
      </trkpt>
      <trkpt lat="47.79642" lon="6.84244">
        <ele>967.08</ele>
        <time>2021-06-23T11:02:48Z</time>
      </trkpt>
      <trkpt lat="47.79644" lon="6.84235">
        <ele>964.42</ele>
        <time>2021-06-23T11:02:50Z</time>
      </trkpt>
      <trkpt lat="47.79649" lon="6.84229">
        <ele>960.26</ele>
        <time>2021-06-23T11:02:52Z</time>
      </trkpt>
      <trkpt lat="47.79655" lon="6.84228">
        <ele>957.13</ele>
        <time>2021-06-23T11:02:54Z</time>
      </trkpt>
      <trkpt lat="47.7966" lon="6.84231">
        <ele>955.03</ele>
        <time>2021-06-23T11:02:56Z</time>
      </trkpt>
      <trkpt lat="47.79674" lon="6.84254">
        <ele>955.94</ele>
        <time>2021-06-23T11:02:58Z</time>
      </trkpt>
      <trkpt lat="47.79684" lon="6.84268">
        <ele>958.09</ele>
        <time>2021-06-23T11:03:00Z</time>
      </trkpt>
      <trkpt lat="47.79696" lon="6.84278">
        <ele>958.96</ele>
        <time>2021-06-23T11:03:02Z</time>
      </trkpt>
      <trkpt lat="47.79778" lon="6.84314">
        <ele>960.02</ele>
        <time>2021-06-23T11:03:04Z</time>
      </trkpt>
      <trkpt lat="47.79811" lon="6.84319">
        <ele>953.38</ele>
        <time>2021-06-23T11:03:06Z</time>
      </trkpt>
      <trkpt lat="47.79838" lon="6.84329">
        <ele>949.63</ele>
        <time>2021-06-23T11:03:08Z</time>
      </trkpt>
      <trkpt lat="47.79867" lon="6.84347">
        <ele>947.33</ele>
        <time>2021-06-23T11:03:10Z</time>
      </trkpt>
      <trkpt lat="47.79955" lon="6.84425">
        <ele>944.71</ele>
        <time>2021-06-23T11:03:12Z</time>
      </trkpt>
      <trkpt lat="47.79967" lon="6.8443">
        <ele>944.63</ele>
        <time>2021-06-23T11:03:14Z</time>
      </trkpt>
      <trkpt lat="47.79994" lon="6.84433">
        <ele>945.39</ele>
        <time>2021-06-23T11:03:16Z</time>
      </trkpt>
      <trkpt lat="47.80019" lon="6.8443">
        <ele>949.54</ele>
        <time>2021-06-23T11:03:18Z</time>
      </trkpt>
      <trkpt lat="47.80028" lon="6.84425">
        <ele>950.76</ele>
        <time>2021-06-23T11:03:20Z</time>
      </trkpt>
      <trkpt lat="47.80032" lon="6.84421">
        <ele>951.53</ele>
        <time>2021-06-23T11:03:22Z</time>
      </trkpt>
      <trkpt lat="47.80036" lon="6.84405">
        <ele>950.04</ele>
        <time>2021-06-23T11:03:24Z</time>
      </trkpt>
      <trkpt lat="47.80054" lon="6.84292">
        <ele>931.63</ele>
        <time>2021-06-23T11:03:26Z</time>
      </trkpt>
      <trkpt lat="47.80061" lon="6.84262">
        <ele>926.61</ele>
        <time>2021-06-23T11:03:28Z</time>
      </trkpt>
      <trkpt lat="47.80072" lon="6.84229">
        <ele>924.58</ele>
        <time>2021-06-23T11:03:30Z</time>
      </trkpt>
      <trkpt lat="47.8008" lon="6.84213">
        <ele>925.07</ele>
        <time>2021-06-23T11:03:32Z</time>
      </trkpt>
      <trkpt lat="47.80087" lon="6.84202">
        <ele>925.96</ele>
        <time>2021-06-23T11:03:34Z</time>
      </trkpt>
      <trkpt lat="47.80145" lon="6.8414">
        <ele>923.17</ele>
        <time>2021-06-23T11:03:36Z</time>
      </trkpt>
      <trkpt lat="47.80158" lon="6.84131">
        <ele>922.23</ele>
        <time>2021-06-23T11:03:38Z</time>
      </trkpt>
      <trkpt lat="47.8018" lon="6.84125">
        <ele>920.19</ele>
        <time>2021-06-23T11:03:40Z</time>
      </trkpt>
      <trkpt lat="47.80195" lon="6.84123">
        <ele>918.97</ele>
        <time>2021-06-23T11:03:42Z</time>
      </trkpt>
      <trkpt lat="47.8021" lon="6.84125">
        <ele>919.05</ele>
        <time>2021-06-23T11:03:44Z</time>
      </trkpt>
      <trkpt lat="47.8029" lon="6.84157">
        <ele>921.79</ele>
        <time>2021-06-23T11:03:46Z</time>
      </trkpt>
      <trkpt lat="47.80403" lon="6.8416">
        <ele>902.52</ele>
        <time>2021-06-23T11:03:48Z</time>
      </trkpt>
      <trkpt lat="47.80493" lon="6.84179">
        <ele>903.08</ele>
        <time>2021-06-23T11:03:50Z</time>
      </trkpt>
      <trkpt lat="47.8053" lon="6.84197">
        <ele>918.05</ele>
        <time>2021-06-23T11:03:52Z</time>
      </trkpt>
      <trkpt lat="47.80537" lon="6.84196">
        <ele>916.88</ele>
        <time>2021-06-23T11:03:54Z</time>
      </trkpt>
      <trkpt lat="47.80541" lon="6.8419">
        <ele>914.31</ele>
        <time>2021-06-23T11:03:56Z</time>
      </trkpt>
      <trkpt lat="47.80541" lon="6.8419">
        <ele>914.31</ele>
        <time>2021-06-23T11:03:56Z</time>
      </trkpt>
      <trkpt lat="47.80543" lon="6.84187">
        <ele>913.45</ele>
        <time>2021-06-23T11:03:57Z</time>
      </trkpt>
      <trkpt lat="47.80544" lon="6.84175">
        <ele>909.38</ele>
        <time>2021-06-23T11:03:59Z</time>
      </trkpt>
      <trkpt lat="47.80537" lon="6.84164">
        <ele>904.68</ele>
        <time>2021-06-23T11:04:00Z</time>
      </trkpt>
      <trkpt lat="47.80407" lon="6.84123">
        <ele>885.72</ele>
        <time>2021-06-23T11:04:02Z</time>
      </trkpt>
      <trkpt lat="47.80374" lon="6.84107">
        <ele>889.61</ele>
        <time>2021-06-23T11:04:03Z</time>
      </trkpt>
      <trkpt lat="47.80337" lon="6.84085">
        <ele>888.17</ele>
        <time>2021-06-23T11:04:05Z</time>
      </trkpt>
      <trkpt lat="47.80288" lon="6.8407">
        <ele>891.11</ele>
        <time>2021-06-23T11:04:06Z</time>
      </trkpt>
      <trkpt lat="47.80263" lon="6.84056">
        <ele>889.81</ele>
        <time>2021-06-23T11:04:08Z</time>
      </trkpt>
      <trkpt lat="47.8023" lon="6.84028">
        <ele>878.71</ele>
        <time>2021-06-23T11:04:09Z</time>
      </trkpt>
      <trkpt lat="47.80204" lon="6.84017">
        <ele>876.96</ele>
        <time>2021-06-23T11:04:11Z</time>
      </trkpt>
      <trkpt lat="47.80189" lon="6.84013">
        <ele>876.39</ele>
        <time>2021-06-23T11:04:12Z</time>
      </trkpt>
      <trkpt lat="47.80094" lon="6.84006">
        <ele>865.84</ele>
        <time>2021-06-23T11:04:14Z</time>
      </trkpt>
      <trkpt lat="47.80079" lon="6.84006">
        <ele>862.97</ele>
        <time>2021-06-23T11:04:15Z</time>
      </trkpt>
      <trkpt lat="47.80064" lon="6.84011">
        <ele>861.42</ele>
        <time>2021-06-23T11:04:17Z</time>
      </trkpt>
      <trkpt lat="47.80054" lon="6.84017">
        <ele>862.04</ele>
        <time>2021-06-23T11:04:18Z</time>
      </trkpt>
      <trkpt lat="47.80031" lon="6.84044">
        <ele>864.84</ele>
        <time>2021-06-23T11:04:20Z</time>
      </trkpt>
      <trkpt lat="47.80026" lon="6.84046">
        <ele>864.18</ele>
        <time>2021-06-23T11:04:21Z</time>
      </trkpt>
      <trkpt lat="47.79995" lon="6.84046">
        <ele>855.15</ele>
        <time>2021-06-23T11:04:23Z</time>
      </trkpt>
      <trkpt lat="47.79989" lon="6.84051">
        <ele>855.74</ele>
        <time>2021-06-23T11:04:25Z</time>
      </trkpt>
      <trkpt lat="47.79985" lon="6.84058">
        <ele>856.86</ele>
        <time>2021-06-23T11:04:26Z</time>
      </trkpt>
      <trkpt lat="47.7998" lon="6.8407">
        <ele>858.39</ele>
        <time>2021-06-23T11:04:28Z</time>
      </trkpt>
      <trkpt lat="47.79974" lon="6.84101">
        <ele>862.72</ele>
        <time>2021-06-23T11:04:29Z</time>
      </trkpt>
      <trkpt lat="47.7997" lon="6.84111">
        <ele>864.16</ele>
        <time>2021-06-23T11:04:31Z</time>
      </trkpt>
      <trkpt lat="47.79964" lon="6.84115">
        <ele>865.71</ele>
        <time>2021-06-23T11:04:32Z</time>
      </trkpt>
      <trkpt lat="47.79958" lon="6.84115">
        <ele>866.26</ele>
        <time>2021-06-23T11:04:34Z</time>
      </trkpt>
      <trkpt lat="47.79953" lon="6.8411">
        <ele>865.88</ele>
        <time>2021-06-23T11:04:35Z</time>
      </trkpt>
      <trkpt lat="47.79947" lon="6.841">
        <ele>864.81</ele>
        <time>2021-06-23T11:04:37Z</time>
      </trkpt>
      <trkpt lat="47.79936" lon="6.84075">
        <ele>862.93</ele>
        <time>2021-06-23T11:04:38Z</time>
      </trkpt>
      <trkpt lat="47.79918" lon="6.84044">
        <ele>859.5</ele>
        <time>2021-06-23T11:04:40Z</time>
      </trkpt>
      <trkpt lat="47.79898" lon="6.84021">
        <ele>855.67</ele>
        <time>2021-06-23T11:04:41Z</time>
      </trkpt>
      <trkpt lat="47.79878" lon="6.84008">
        <ele>853.13</ele>
        <time>2021-06-23T11:04:43Z</time>
      </trkpt>
      <trkpt lat="47.79868" lon="6.84004">
        <ele>851.67</ele>
        <time>2021-06-23T11:04:44Z</time>
      </trkpt>
      <trkpt lat="47.79858" lon="6.84002">
        <ele>851.14</ele>
        <time>2021-06-23T11:04:46Z</time>
      </trkpt>
      <trkpt lat="47.79828" lon="6.84002">
        <ele>856.26</ele>
        <time>2021-06-23T11:04:47Z</time>
      </trkpt>
      <trkpt lat="47.79822" lon="6.84">
        <ele>856.41</ele>
        <time>2021-06-23T11:04:49Z</time>
      </trkpt>
      <trkpt lat="47.79814" lon="6.83991">
        <ele>854.78</ele>
        <time>2021-06-23T11:04:50Z</time>
      </trkpt>
      <trkpt lat="47.79801" lon="6.83958">
        <ele>844.19</ele>
        <time>2021-06-23T11:04:52Z</time>
      </trkpt>
      <trkpt lat="47.79793" lon="6.83944">
        <ele>840.19</ele>
        <time>2021-06-23T11:04:53Z</time>
      </trkpt>
      <trkpt lat="47.79786" lon="6.83938">
        <ele>838.84</ele>
        <time>2021-06-23T11:04:55Z</time>
      </trkpt>
      <trkpt lat="47.7977" lon="6.8393">
        <ele>838.18</ele>
        <time>2021-06-23T11:04:57Z</time>
      </trkpt>
      <trkpt lat="47.7975" lon="6.8393">
        <ele>842.72</ele>
        <time>2021-06-23T11:04:58Z</time>
      </trkpt>
      <trkpt lat="47.79731" lon="6.83935">
        <ele>846.44</ele>
        <time>2021-06-23T11:05:00Z</time>
      </trkpt>
      <trkpt lat="47.7972" lon="6.83933">
        <ele>846.32</ele>
        <time>2021-06-23T11:05:01Z</time>
      </trkpt>
      <trkpt lat="47.79715" lon="6.83928">
        <ele>844.66</ele>
        <time>2021-06-23T11:05:03Z</time>
      </trkpt>
      <trkpt lat="47.79713" lon="6.83922">
        <ele>842.38</ele>
        <time>2021-06-23T11:05:04Z</time>
      </trkpt>
      <trkpt lat="47.79714" lon="6.83908">
        <ele>837.31</ele>
        <time>2021-06-23T11:05:06Z</time>
      </trkpt>
      <trkpt lat="47.79719" lon="6.83901">
        <ele>834.65</ele>
        <time>2021-06-23T11:05:07Z</time>
      </trkpt>
      <trkpt lat="47.79729" lon="6.839">
        <ele>833.13</ele>
        <time>2021-06-23T11:05:09Z</time>
      </trkpt>
      <trkpt lat="47.79748" lon="6.83905">
        <ele>832.67</ele>
        <time>2021-06-23T11:05:10Z</time>
      </trkpt>
      <trkpt lat="47.79794" lon="6.83913">
        <ele>826.92</ele>
        <time>2021-06-23T11:05:12Z</time>
      </trkpt>
      <trkpt lat="47.79811" lon="6.83919">
        <ele>827.58</ele>
        <time>2021-06-23T11:05:13Z</time>
      </trkpt>
      <trkpt lat="47.79832" lon="6.83942">
        <ele>832.64</ele>
        <time>2021-06-23T11:05:15Z</time>
      </trkpt>
      <trkpt lat="47.79838" lon="6.83944">
        <ele>832.79</ele>
        <time>2021-06-23T11:05:16Z</time>
      </trkpt>
      <trkpt lat="47.79867" lon="6.83938">
        <ele>830.28</ele>
        <time>2021-06-23T11:05:18Z</time>
      </trkpt>
      <trkpt lat="47.79891" lon="6.83938">
        <ele>831.55</ele>
        <time>2021-06-23T11:05:19Z</time>
      </trkpt>
      <trkpt lat="47.79907" lon="6.83944">
        <ele>831.27</ele>
        <time>2021-06-23T11:05:21Z</time>
      </trkpt>
      <trkpt lat="47.79921" lon="6.83953">
        <ele>831.44</ele>
        <time>2021-06-23T11:05:22Z</time>
      </trkpt>
      <trkpt lat="47.7993" lon="6.83955">
        <ele>828.84</ele>
        <time>2021-06-23T11:05:24Z</time>
      </trkpt>
      <trkpt lat="47.79943" lon="6.83951">
        <ele>824.29</ele>
        <time>2021-06-23T11:05:26Z</time>
      </trkpt>
      <trkpt lat="47.79955" lon="6.83939">
        <ele>821.04</ele>
        <time>2021-06-23T11:05:27Z</time>
      </trkpt>
      <trkpt lat="47.80002" lon="6.83884">
        <ele>817.29</ele>
        <time>2021-06-23T11:05:29Z</time>
      </trkpt>
      <trkpt lat="47.80011" lon="6.83878">
        <ele>817.16</ele>
        <time>2021-06-23T11:05:30Z</time>
      </trkpt>
      <trkpt lat="47.8016" lon="6.83836">
        <ele>797.62</ele>
        <time>2021-06-23T11:05:32Z</time>
      </trkpt>
      <trkpt lat="47.80172" lon="6.83826">
        <ele>794.62</ele>
        <time>2021-06-23T11:05:33Z</time>
      </trkpt>
      <trkpt lat="47.80176" lon="6.83816">
        <ele>794.09</ele>
        <time>2021-06-23T11:05:35Z</time>
      </trkpt>
      <trkpt lat="47.8018" lon="6.83793">
        <ele>793.68</ele>
        <time>2021-06-23T11:05:36Z</time>
      </trkpt>
      <trkpt lat="47.80179" lon="6.8377">
        <ele>794.33</ele>
        <time>2021-06-23T11:05:38Z</time>
      </trkpt>
      <trkpt lat="47.80177" lon="6.83754">
        <ele>795.14</ele>
        <time>2021-06-23T11:05:39Z</time>
      </trkpt>
      <trkpt lat="47.80163" lon="6.83721">
        <ele>795.57</ele>
        <time>2021-06-23T11:05:41Z</time>
      </trkpt>
      <trkpt lat="47.80157" lon="6.83702">
        <ele>793.75</ele>
        <time>2021-06-23T11:05:42Z</time>
      </trkpt>
      <trkpt lat="47.80152" lon="6.8366">
        <ele>790.32</ele>
        <time>2021-06-23T11:05:44Z</time>
      </trkpt>
      <trkpt lat="47.80138" lon="6.83601">
        <ele>782.79</ele>
        <time>2021-06-23T11:05:45Z</time>
      </trkpt>
      <trkpt lat="47.8012" lon="6.83489">
        <ele>778.38</ele>
        <time>2021-06-23T11:05:47Z</time>
      </trkpt>
      <trkpt lat="47.80121" lon="6.83466">
        <ele>779.93</ele>
        <time>2021-06-23T11:05:48Z</time>
      </trkpt>
      <trkpt lat="47.80123" lon="6.83451">
        <ele>782.27</ele>
        <time>2021-06-23T11:05:50Z</time>
      </trkpt>
      <trkpt lat="47.80131" lon="6.8343">
        <ele>786.71</ele>
        <time>2021-06-23T11:05:51Z</time>
      </trkpt>
      <trkpt lat="47.80138" lon="6.83415">
        <ele>790.66</ele>
        <time>2021-06-23T11:05:53Z</time>
      </trkpt>
      <trkpt lat="47.80139" lon="6.83399">
        <ele>790.4</ele>
        <time>2021-06-23T11:05:54Z</time>
      </trkpt>
      <trkpt lat="47.80134" lon="6.83391">
        <ele>788.28</ele>
        <time>2021-06-23T11:05:56Z</time>
      </trkpt>
      <trkpt lat="47.80131" lon="6.8339">
        <ele>786.71</ele>
        <time>2021-06-23T11:05:58Z</time>
      </trkpt>
      <trkpt lat="47.80122" lon="6.83396">
        <ele>783.46</ele>
        <time>2021-06-23T11:05:59Z</time>
      </trkpt>
      <trkpt lat="47.80106" lon="6.83423">
        <ele>776.95</ele>
        <time>2021-06-23T11:06:01Z</time>
      </trkpt>
      <trkpt lat="47.80065" lon="6.83464">
        <ele>767.43</ele>
        <time>2021-06-23T11:06:02Z</time>
      </trkpt>
      <trkpt lat="47.80052" lon="6.83484">
        <ele>764.85</ele>
        <time>2021-06-23T11:06:04Z</time>
      </trkpt>
      <trkpt lat="47.80046" lon="6.83507">
        <ele>763.23</ele>
        <time>2021-06-23T11:06:05Z</time>
      </trkpt>
      <trkpt lat="47.80043" lon="6.83535">
        <ele>763.84</ele>
        <time>2021-06-23T11:06:07Z</time>
      </trkpt>
      <trkpt lat="47.80043" lon="6.83556">
        <ele>766.04</ele>
        <time>2021-06-23T11:06:08Z</time>
      </trkpt>
      <trkpt lat="47.8005" lon="6.83595">
        <ele>769.46</ele>
        <time>2021-06-23T11:06:10Z</time>
      </trkpt>
      <trkpt lat="47.80051" lon="6.83615">
        <ele>769.66</ele>
        <time>2021-06-23T11:06:11Z</time>
      </trkpt>
      <trkpt lat="47.80047" lon="6.83646">
        <ele>769.11</ele>
        <time>2021-06-23T11:06:13Z</time>
      </trkpt>
      <trkpt lat="47.80043" lon="6.83657">
        <ele>768.96</ele>
        <time>2021-06-23T11:06:14Z</time>
      </trkpt>
      <trkpt lat="47.80037" lon="6.83668">
        <ele>768.82</ele>
        <time>2021-06-23T11:06:16Z</time>
      </trkpt>
      <trkpt lat="47.80031" lon="6.83674">
        <ele>769.07</ele>
        <time>2021-06-23T11:06:17Z</time>
      </trkpt>
      <trkpt lat="47.80025" lon="6.83678">
        <ele>768.79</ele>
        <time>2021-06-23T11:06:19Z</time>
      </trkpt>
      <trkpt lat="47.80005" lon="6.83679">
        <ele>766.35</ele>
        <time>2021-06-23T11:06:20Z</time>
      </trkpt>
      <trkpt lat="47.79998" lon="6.83682">
        <ele>765.75</ele>
        <time>2021-06-23T11:06:22Z</time>
      </trkpt>
      <trkpt lat="47.79974" lon="6.83708">
        <ele>766.23</ele>
        <time>2021-06-23T11:06:23Z</time>
      </trkpt>
      <trkpt lat="47.79964" lon="6.83713">
        <ele>765.58</ele>
        <time>2021-06-23T11:06:25Z</time>
      </trkpt>
      <trkpt lat="47.79953" lon="6.83714">
        <ele>763.46</ele>
        <time>2021-06-23T11:06:27Z</time>
      </trkpt>
      <trkpt lat="47.79923" lon="6.83713">
        <ele>758.29</ele>
        <time>2021-06-23T11:06:28Z</time>
      </trkpt>
      <trkpt lat="47.79899" lon="6.83707">
        <ele>755.97</ele>
        <time>2021-06-23T11:06:30Z</time>
      </trkpt>
      <trkpt lat="47.79849" lon="6.83684">
        <ele>751.33</ele>
        <time>2021-06-23T11:06:31Z</time>
      </trkpt>
      <trkpt lat="47.79834" lon="6.83681">
        <ele>750.97</ele>
        <time>2021-06-23T11:06:33Z</time>
      </trkpt>
      <trkpt lat="47.79737" lon="6.8368">
        <ele>740.73</ele>
        <time>2021-06-23T11:06:34Z</time>
      </trkpt>
      <trkpt lat="47.7973" lon="6.83674">
        <ele>740.73</ele>
        <time>2021-06-23T11:06:36Z</time>
      </trkpt>
      <trkpt lat="47.79728" lon="6.83663">
        <ele>737.6</ele>
        <time>2021-06-23T11:06:37Z</time>
      </trkpt>
      <trkpt lat="47.79731" lon="6.83652">
        <ele>733.11</ele>
        <time>2021-06-23T11:06:39Z</time>
      </trkpt>
      <trkpt lat="47.79735" lon="6.83648">
        <ele>730.67</ele>
        <time>2021-06-23T11:06:40Z</time>
      </trkpt>
      <trkpt lat="47.79773" lon="6.83642">
        <ele>729.75</ele>
        <time>2021-06-23T11:06:42Z</time>
      </trkpt>
      <trkpt lat="47.79799" lon="6.83633">
        <ele>731.49</ele>
        <time>2021-06-23T11:06:43Z</time>
      </trkpt>
      <trkpt lat="47.79834" lon="6.83614">
        <ele>729.03</ele>
        <time>2021-06-23T11:06:45Z</time>
      </trkpt>
      <trkpt lat="47.79872" lon="6.83597">
        <ele>727.82</ele>
        <time>2021-06-23T11:06:46Z</time>
      </trkpt>
      <trkpt lat="47.79882" lon="6.8359">
        <ele>727.25</ele>
        <time>2021-06-23T11:06:48Z</time>
      </trkpt>
      <trkpt lat="47.79889" lon="6.83582">
        <ele>726.52</ele>
        <time>2021-06-23T11:06:49Z</time>
      </trkpt>
      <trkpt lat="47.79896" lon="6.83569">
        <ele>725.49</ele>
        <time>2021-06-23T11:06:51Z</time>
      </trkpt>
      <trkpt lat="47.79897" lon="6.83559">
        <ele>724.66</ele>
        <time>2021-06-23T11:06:52Z</time>
      </trkpt>
      <trkpt lat="47.79897" lon="6.83508">
        <ele>717.98</ele>
        <time>2021-06-23T11:06:54Z</time>
      </trkpt>
      <trkpt lat="47.79899" lon="6.83489">
        <ele>716.12</ele>
        <time>2021-06-23T11:06:55Z</time>
      </trkpt>
      <trkpt lat="47.79918" lon="6.83417">
        <ele>719.53</ele>
        <time>2021-06-23T11:06:57Z</time>
      </trkpt>
      <trkpt lat="47.79929" lon="6.83388">
        <ele>718.58</ele>
        <time>2021-06-23T11:06:59Z</time>
      </trkpt>
      <trkpt lat="47.79935" lon="6.83377">
        <ele>718.29</ele>
        <time>2021-06-23T11:07:00Z</time>
      </trkpt>
      <trkpt lat="47.80002" lon="6.83306">
        <ele>720.66</ele>
        <time>2021-06-23T11:07:02Z</time>
      </trkpt>
      <trkpt lat="47.8001" lon="6.83292">
        <ele>720.21</ele>
        <time>2021-06-23T11:07:03Z</time>
      </trkpt>
      <trkpt lat="47.80013" lon="6.83275">
        <ele>718.95</ele>
        <time>2021-06-23T11:07:05Z</time>
      </trkpt>
      <trkpt lat="47.80013" lon="6.83255">
        <ele>716.82</ele>
        <time>2021-06-23T11:07:06Z</time>
      </trkpt>
      <trkpt lat="47.80008" lon="6.83238">
        <ele>713.71</ele>
        <time>2021-06-23T11:07:08Z</time>
      </trkpt>
      <trkpt lat="47.7999" lon="6.83206">
        <ele>709.31</ele>
        <time>2021-06-23T11:07:09Z</time>
      </trkpt>
      <trkpt lat="47.79982" lon="6.83195">
        <ele>708.6</ele>
        <time>2021-06-23T11:07:11Z</time>
      </trkpt>
      <trkpt lat="47.79966" lon="6.83181">
        <ele>708.71</ele>
        <time>2021-06-23T11:07:12Z</time>
      </trkpt>
      <trkpt lat="47.79966" lon="6.83181">
        <ele>708.71</ele>
        <time>2021-06-23T11:07:12Z</time>
      </trkpt>
      <trkpt lat="47.79945" lon="6.83172">
        <ele>708.23</ele>
        <time>2021-06-23T11:07:15Z</time>
      </trkpt>
      <trkpt lat="47.79925" lon="6.83171">
        <ele>707.86</ele>
        <time>2021-06-23T11:07:18Z</time>
      </trkpt>
      <trkpt lat="47.79917" lon="6.83174">
        <ele>706.78</ele>
        <time>2021-06-23T11:07:20Z</time>
      </trkpt>
      <trkpt lat="47.79887" lon="6.83223">
        <ele>696.52</ele>
        <time>2021-06-23T11:07:23Z</time>
      </trkpt>
      <trkpt lat="47.79876" lon="6.83234">
        <ele>692.77</ele>
        <time>2021-06-23T11:07:26Z</time>
      </trkpt>
      <trkpt lat="47.79868" lon="6.83234">
        <ele>692.49</ele>
        <time>2021-06-23T11:07:28Z</time>
      </trkpt>
      <trkpt lat="47.79798" lon="6.83215">
        <ele>693.53</ele>
        <time>2021-06-23T11:07:31Z</time>
      </trkpt>
      <trkpt lat="47.79775" lon="6.83209">
        <ele>695.52</ele>
        <time>2021-06-23T11:07:33Z</time>
      </trkpt>
      <trkpt lat="47.79738" lon="6.83189">
        <ele>700.33</ele>
        <time>2021-06-23T11:07:36Z</time>
      </trkpt>
      <trkpt lat="47.79729" lon="6.83188">
        <ele>699.51</ele>
        <time>2021-06-23T11:07:39Z</time>
      </trkpt>
      <trkpt lat="47.79704" lon="6.83191">
        <ele>693.6</ele>
        <time>2021-06-23T11:07:41Z</time>
      </trkpt>
      <trkpt lat="47.79691" lon="6.83189">
        <ele>691.52</ele>
        <time>2021-06-23T11:07:44Z</time>
      </trkpt>
      <trkpt lat="47.7961" lon="6.83144">
        <ele>687.64</ele>
        <time>2021-06-23T11:07:47Z</time>
      </trkpt>
      <trkpt lat="47.79572" lon="6.83112">
        <ele>697.09</ele>
        <time>2021-06-23T11:07:49Z</time>
      </trkpt>
      <trkpt lat="47.79566" lon="6.8311">
        <ele>696.65</ele>
        <time>2021-06-23T11:07:52Z</time>
      </trkpt>
      <trkpt lat="47.79544" lon="6.83111">
        <ele>690.73</ele>
        <time>2021-06-23T11:07:55Z</time>
      </trkpt>
      <trkpt lat="47.79487" lon="6.83125">
        <ele>674.24</ele>
        <time>2021-06-23T11:07:57Z</time>
      </trkpt>
      <trkpt lat="47.79476" lon="6.83126">
        <ele>672.44</ele>
        <time>2021-06-23T11:08:00Z</time>
      </trkpt>
      <trkpt lat="47.79465" lon="6.83125">
        <ele>671.22</ele>
        <time>2021-06-23T11:08:03Z</time>
      </trkpt>
      <trkpt lat="47.79447" lon="6.83114">
        <ele>672.21</ele>
        <time>2021-06-23T11:08:05Z</time>
      </trkpt>
      <trkpt lat="47.79415" lon="6.83081">
        <ele>681.36</ele>
        <time>2021-06-23T11:08:08Z</time>
      </trkpt>
      <trkpt lat="47.79401" lon="6.83074">
        <ele>679.89</ele>
        <time>2021-06-23T11:08:10Z</time>
      </trkpt>
      <trkpt lat="47.79365" lon="6.83061">
        <ele>673.15</ele>
        <time>2021-06-23T11:08:13Z</time>
      </trkpt>
      <trkpt lat="47.79332" lon="6.83057">
        <ele>665.47</ele>
        <time>2021-06-23T11:08:16Z</time>
      </trkpt>
      <trkpt lat="47.79321" lon="6.83052">
        <ele>664.59</ele>
        <time>2021-06-23T11:08:18Z</time>
      </trkpt>
      <trkpt lat="47.79312" lon="6.83043">
        <ele>664.83</ele>
        <time>2021-06-23T11:08:21Z</time>
      </trkpt>
      <trkpt lat="47.79267" lon="6.82979">
        <ele>662.38</ele>
        <time>2021-06-23T11:08:24Z</time>
      </trkpt>
      <trkpt lat="47.79215" lon="6.82897">
        <ele>674.28</ele>
        <time>2021-06-23T11:08:26Z</time>
      </trkpt>
      <trkpt lat="47.79205" lon="6.82888">
        <ele>675.4</ele>
        <time>2021-06-23T11:08:29Z</time>
      </trkpt>
      <trkpt lat="47.792" lon="6.82887">
        <ele>675.84</ele>
        <time>2021-06-23T11:08:32Z</time>
      </trkpt>
      <trkpt lat="47.7919" lon="6.82887">
        <ele>676.69</ele>
        <time>2021-06-23T11:08:34Z</time>
      </trkpt>
      <trkpt lat="47.79184" lon="6.8289">
        <ele>677.29</ele>
        <time>2021-06-23T11:08:37Z</time>
      </trkpt>
      <trkpt lat="47.79146" lon="6.82925">
        <ele>661.87</ele>
        <time>2021-06-23T11:08:40Z</time>
      </trkpt>
      <trkpt lat="47.79085" lon="6.82965">
        <ele>649.44</ele>
        <time>2021-06-23T11:08:42Z</time>
      </trkpt>
      <trkpt lat="47.79078" lon="6.82967">
        <ele>648.69</ele>
        <time>2021-06-23T11:08:45Z</time>
      </trkpt>
      <trkpt lat="47.79065" lon="6.82966">
        <ele>649.19</ele>
        <time>2021-06-23T11:08:47Z</time>
      </trkpt>
      <trkpt lat="47.79031" lon="6.82947">
        <ele>655.18</ele>
        <time>2021-06-23T11:08:50Z</time>
      </trkpt>
      <trkpt lat="47.79024" lon="6.82945">
        <ele>655.86</ele>
        <time>2021-06-23T11:08:53Z</time>
      </trkpt>
      <trkpt lat="47.79017" lon="6.82944">
        <ele>656.42</ele>
        <time>2021-06-23T11:08:55Z</time>
      </trkpt>
      <trkpt lat="47.78985" lon="6.82947">
        <ele>655.83</ele>
        <time>2021-06-23T11:08:58Z</time>
      </trkpt>
      <trkpt lat="47.78927" lon="6.82965">
        <ele>658.67</ele>
        <time>2021-06-23T11:09:01Z</time>
      </trkpt>
      <trkpt lat="47.78895" lon="6.82979">
        <ele>655.96</ele>
        <time>2021-06-23T11:09:03Z</time>
      </trkpt>
      <trkpt lat="47.78789" lon="6.83051">
        <ele>643.32</ele>
        <time>2021-06-23T11:09:06Z</time>
      </trkpt>
      <trkpt lat="47.78773" lon="6.83064">
        <ele>641.93</ele>
        <time>2021-06-23T11:09:09Z</time>
      </trkpt>
      <trkpt lat="47.78629" lon="6.83201">
        <ele>631.88</ele>
        <time>2021-06-23T11:09:11Z</time>
      </trkpt>
      <trkpt lat="47.78611" lon="6.83221">
        <ele>627.56</ele>
        <time>2021-06-23T11:09:14Z</time>
      </trkpt>
      <trkpt lat="47.78591" lon="6.83248">
        <ele>622.04</ele>
        <time>2021-06-23T11:09:17Z</time>
      </trkpt>
      <trkpt lat="47.78544" lon="6.83322">
        <ele>612.41</ele>
        <time>2021-06-23T11:09:19Z</time>
      </trkpt>
      <trkpt lat="47.78498" lon="6.83388">
        <ele>596.46</ele>
        <time>2021-06-23T11:09:22Z</time>
      </trkpt>
      <trkpt lat="47.78491" lon="6.83395">
        <ele>596.64</ele>
        <time>2021-06-23T11:09:25Z</time>
      </trkpt>
      <trkpt lat="47.78482" lon="6.834">
        <ele>597.42</ele>
        <time>2021-06-23T11:09:27Z</time>
      </trkpt>
      <trkpt lat="47.78457" lon="6.83405">
        <ele>598.81</ele>
        <time>2021-06-23T11:09:30Z</time>
      </trkpt>
      <trkpt lat="47.78418" lon="6.83409">
        <ele>594.72</ele>
        <time>2021-06-23T11:09:32Z</time>
      </trkpt>
      <trkpt lat="47.78322" lon="6.83418">
        <ele>591.05</ele>
        <time>2021-06-23T11:09:35Z</time>
      </trkpt>
      <trkpt lat="47.78305" lon="6.83412">
        <ele>591.28</ele>
        <time>2021-06-23T11:09:38Z</time>
      </trkpt>
      <trkpt lat="47.78228" lon="6.83357">
        <ele>586.08</ele>
        <time>2021-06-23T11:09:40Z</time>
      </trkpt>
      <trkpt lat="47.78184" lon="6.83318">
        <ele>596.01</ele>
        <time>2021-06-23T11:09:43Z</time>
      </trkpt>
      <trkpt lat="47.78165" lon="6.83314">
        <ele>597.59</ele>
        <time>2021-06-23T11:09:46Z</time>
      </trkpt>
      <trkpt lat="47.78157" lon="6.83315">
        <ele>597.32</ele>
        <time>2021-06-23T11:09:48Z</time>
      </trkpt>
      <trkpt lat="47.78141" lon="6.83323">
        <ele>594.97</ele>
        <time>2021-06-23T11:09:51Z</time>
      </trkpt>
      <trkpt lat="47.78091" lon="6.83355">
        <ele>586.26</ele>
        <time>2021-06-23T11:09:54Z</time>
      </trkpt>
      <trkpt lat="47.78015" lon="6.83389">
        <ele>579.01</ele>
        <time>2021-06-23T11:09:56Z</time>
      </trkpt>
      <trkpt lat="47.77958" lon="6.83388">
        <ele>581</ele>
        <time>2021-06-23T11:09:59Z</time>
      </trkpt>
      <trkpt lat="47.77946" lon="6.8339">
        <ele>580.2</ele>
        <time>2021-06-23T11:10:02Z</time>
      </trkpt>
      <trkpt lat="47.77897" lon="6.83408">
        <ele>572.38</ele>
        <time>2021-06-23T11:10:04Z</time>
      </trkpt>
      <trkpt lat="47.77874" lon="6.83419">
        <ele>567.41</ele>
        <time>2021-06-23T11:10:07Z</time>
      </trkpt>
      <trkpt lat="47.7786" lon="6.83434">
        <ele>566.05</ele>
        <time>2021-06-23T11:10:09Z</time>
      </trkpt>
      <trkpt lat="47.77849" lon="6.83456">
        <ele>566.51</ele>
        <time>2021-06-23T11:10:12Z</time>
      </trkpt>
      <trkpt lat="47.77844" lon="6.8347">
        <ele>567.5</ele>
        <time>2021-06-23T11:10:15Z</time>
      </trkpt>
      <trkpt lat="47.7784" lon="6.83483">
        <ele>568.19</ele>
        <time>2021-06-23T11:10:17Z</time>
      </trkpt>
      <trkpt lat="47.77835" lon="6.83511">
        <ele>569.58</ele>
        <time>2021-06-23T11:10:20Z</time>
      </trkpt>
      <trkpt lat="47.77831" lon="6.83557">
        <ele>573.47</ele>
        <time>2021-06-23T11:10:23Z</time>
      </trkpt>
      <trkpt lat="47.77825" lon="6.83571">
        <ele>574.96</ele>
        <time>2021-06-23T11:10:25Z</time>
      </trkpt>
      <trkpt lat="47.77815" lon="6.83578">
        <ele>572.08</ele>
        <time>2021-06-23T11:10:28Z</time>
      </trkpt>
      <trkpt lat="47.7781" lon="6.83578">
        <ele>569.54</ele>
        <time>2021-06-23T11:10:31Z</time>
      </trkpt>
      <trkpt lat="47.77762" lon="6.83555">
        <ele>560.29</ele>
        <time>2021-06-23T11:10:33Z</time>
      </trkpt>
      <trkpt lat="47.77762" lon="6.83555">
        <ele>560.29</ele>
        <time>2021-06-23T11:10:33Z</time>
      </trkpt>
      <trkpt lat="47.77725" lon="6.83536">
        <ele>559.32</ele>
        <time>2021-06-23T11:10:38Z</time>
      </trkpt>
      <trkpt lat="47.77716" lon="6.83528">
        <ele>557.34</ele>
        <time>2021-06-23T11:10:42Z</time>
      </trkpt>
      <trkpt lat="47.77667" lon="6.8346">
        <ele>546.11</ele>
        <time>2021-06-23T11:10:46Z</time>
      </trkpt>
      <trkpt lat="47.77638" lon="6.83424">
        <ele>545.27</ele>
        <time>2021-06-23T11:10:50Z</time>
      </trkpt>
      <trkpt lat="47.77552" lon="6.83323">
        <ele>544.72</ele>
        <time>2021-06-23T11:10:54Z</time>
      </trkpt>
      <trkpt lat="47.77522" lon="6.83281">
        <ele>547.45</ele>
        <time>2021-06-23T11:10:59Z</time>
      </trkpt>
      <trkpt lat="47.77504" lon="6.83247">
        <ele>544.68</ele>
        <time>2021-06-23T11:11:03Z</time>
      </trkpt>
      <trkpt lat="47.77433" lon="6.83067">
        <ele>539.6</ele>
        <time>2021-06-23T11:11:07Z</time>
      </trkpt>
      <trkpt lat="47.7739" lon="6.82981">
        <ele>533.89</ele>
        <time>2021-06-23T11:11:11Z</time>
      </trkpt>
      <trkpt lat="47.7737" lon="6.82953">
        <ele>533.11</ele>
        <time>2021-06-23T11:11:15Z</time>
      </trkpt>
      <trkpt lat="47.7735" lon="6.82933">
        <ele>533.21</ele>
        <time>2021-06-23T11:11:20Z</time>
      </trkpt>
      <trkpt lat="47.77315" lon="6.82911">
        <ele>532.63</ele>
        <time>2021-06-23T11:11:24Z</time>
      </trkpt>
      <trkpt lat="47.77303" lon="6.82906">
        <ele>532.27</ele>
        <time>2021-06-23T11:11:28Z</time>
      </trkpt>
      <trkpt lat="47.77277" lon="6.82903">
        <ele>532.05</ele>
        <time>2021-06-23T11:11:32Z</time>
      </trkpt>
      <trkpt lat="47.77233" lon="6.82906">
        <ele>533.25</ele>
        <time>2021-06-23T11:11:36Z</time>
      </trkpt>
      <trkpt lat="47.77209" lon="6.82906">
        <ele>533.88</ele>
        <time>2021-06-23T11:11:41Z</time>
      </trkpt>
      <trkpt lat="47.77198" lon="6.82903">
        <ele>533.93</ele>
        <time>2021-06-23T11:11:45Z</time>
      </trkpt>
      <trkpt lat="47.77171" lon="6.82889">
        <ele>533.87</ele>
        <time>2021-06-23T11:11:49Z</time>
      </trkpt>
      <trkpt lat="47.77102" lon="6.8285">
        <ele>533.56</ele>
        <time>2021-06-23T11:11:53Z</time>
      </trkpt>
      <trkpt lat="47.76954" lon="6.82803">
        <ele>524.78</ele>
        <time>2021-06-23T11:11:58Z</time>
      </trkpt>
      <trkpt lat="47.76931" lon="6.82791">
        <ele>524.42</ele>
        <time>2021-06-23T11:12:02Z</time>
      </trkpt>
      <trkpt lat="47.76909" lon="6.82774">
        <ele>523.74</ele>
        <time>2021-06-23T11:12:06Z</time>
      </trkpt>
      <trkpt lat="47.76826" lon="6.82676">
        <ele>525.85</ele>
        <time>2021-06-23T11:12:10Z</time>
      </trkpt>
      <trkpt lat="47.76746" lon="6.82615">
        <ele>525.42</ele>
        <time>2021-06-23T11:12:14Z</time>
      </trkpt>
      <trkpt lat="47.76708" lon="6.8259">
        <ele>526.97</ele>
        <time>2021-06-23T11:12:19Z</time>
      </trkpt>
      <trkpt lat="47.76699" lon="6.8258">
        <ele>527.29</ele>
        <time>2021-06-23T11:12:23Z</time>
      </trkpt>
      <trkpt lat="47.76676" lon="6.82541">
        <ele>524.46</ele>
        <time>2021-06-23T11:12:27Z</time>
      </trkpt>
      <trkpt lat="47.76666" lon="6.82529">
        <ele>523.14</ele>
        <time>2021-06-23T11:12:31Z</time>
      </trkpt>
      <trkpt lat="47.76652" lon="6.82519">
        <ele>521.39</ele>
        <time>2021-06-23T11:12:35Z</time>
      </trkpt>
      <trkpt lat="47.76607" lon="6.82502">
        <ele>520.87</ele>
        <time>2021-06-23T11:12:40Z</time>
      </trkpt>
      <trkpt lat="47.76547" lon="6.82473">
        <ele>520.8</ele>
        <time>2021-06-23T11:12:44Z</time>
      </trkpt>
      <trkpt lat="47.76525" lon="6.82458">
        <ele>519.35</ele>
        <time>2021-06-23T11:12:48Z</time>
      </trkpt>
      <trkpt lat="47.76509" lon="6.82439">
        <ele>515.63</ele>
        <time>2021-06-23T11:12:52Z</time>
      </trkpt>
      <trkpt lat="47.76493" lon="6.82409">
        <ele>512.55</ele>
        <time>2021-06-23T11:12:56Z</time>
      </trkpt>
      <trkpt lat="47.76476" lon="6.82361">
        <ele>510.85</ele>
        <time>2021-06-23T11:13:01Z</time>
      </trkpt>
      <trkpt lat="47.76462" lon="6.82325">
        <ele>510.92</ele>
        <time>2021-06-23T11:13:05Z</time>
      </trkpt>
      <trkpt lat="47.76443" lon="6.82297">
        <ele>511.7</ele>
        <time>2021-06-23T11:13:09Z</time>
      </trkpt>
      <trkpt lat="47.7643" lon="6.82285">
        <ele>511.64</ele>
        <time>2021-06-23T11:13:13Z</time>
      </trkpt>
      <trkpt lat="47.76407" lon="6.82269">
        <ele>511</ele>
        <time>2021-06-23T11:13:18Z</time>
      </trkpt>
      <trkpt lat="47.76351" lon="6.82234">
        <ele>507.43</ele>
        <time>2021-06-23T11:13:22Z</time>
      </trkpt>
      <trkpt lat="47.76337" lon="6.82228">
        <ele>507.21</ele>
        <time>2021-06-23T11:13:26Z</time>
      </trkpt>
      <trkpt lat="47.76256" lon="6.82202">
        <ele>504.42</ele>
        <time>2021-06-23T11:13:30Z</time>
      </trkpt>
      <trkpt lat="47.76243" lon="6.82194">
        <ele>503.73</ele>
        <time>2021-06-23T11:13:34Z</time>
      </trkpt>
      <trkpt lat="47.76195" lon="6.82155">
        <ele>501.58</ele>
        <time>2021-06-23T11:13:39Z</time>
      </trkpt>
      <trkpt lat="47.76173" lon="6.82139">
        <ele>501.77</ele>
        <time>2021-06-23T11:13:43Z</time>
      </trkpt>
      <trkpt lat="47.76148" lon="6.82123">
        <ele>502.79</ele>
        <time>2021-06-23T11:13:47Z</time>
      </trkpt>
      <trkpt lat="47.76065" lon="6.82074">
        <ele>502.45</ele>
        <time>2021-06-23T11:13:51Z</time>
      </trkpt>
      <trkpt lat="47.75998" lon="6.82031">
        <ele>502.23</ele>
        <time>2021-06-23T11:13:55Z</time>
      </trkpt>
      <trkpt lat="47.75946" lon="6.82009">
        <ele>502.63</ele>
        <time>2021-06-23T11:14:00Z</time>
      </trkpt>
      <trkpt lat="47.75898" lon="6.81986">
        <ele>502.63</ele>
        <time>2021-06-23T11:14:04Z</time>
      </trkpt>
      <trkpt lat="47.75876" lon="6.81969">
        <ele>500.97</ele>
        <time>2021-06-23T11:14:08Z</time>
      </trkpt>
      <trkpt lat="47.75841" lon="6.81935">
        <ele>499.33</ele>
        <time>2021-06-23T11:14:12Z</time>
      </trkpt>
      <trkpt lat="47.75806" lon="6.81929">
        <ele>500.56</ele>
        <time>2021-06-23T11:14:17Z</time>
      </trkpt>
      <trkpt lat="47.75738" lon="6.81905">
        <ele>499.43</ele>
        <time>2021-06-23T11:14:21Z</time>
      </trkpt>
      <trkpt lat="47.75703" lon="6.81898">
        <ele>499.9</ele>
        <time>2021-06-23T11:14:25Z</time>
      </trkpt>
      <trkpt lat="47.75647" lon="6.81898">
        <ele>500.32</ele>
        <time>2021-06-23T11:14:29Z</time>
      </trkpt>
      <trkpt lat="47.75619" lon="6.81902">
        <ele>499.77</ele>
        <time>2021-06-23T11:14:33Z</time>
      </trkpt>
      <trkpt lat="47.75511" lon="6.81937">
        <ele>500.72</ele>
        <time>2021-06-23T11:14:38Z</time>
      </trkpt>
      <trkpt lat="47.75485" lon="6.81938">
        <ele>499.66</ele>
        <time>2021-06-23T11:14:42Z</time>
      </trkpt>
      <trkpt lat="47.75475" lon="6.81935">
        <ele>498.84</ele>
        <time>2021-06-23T11:14:46Z</time>
      </trkpt>
      <trkpt lat="47.75456" lon="6.81923">
        <ele>496.21</ele>
        <time>2021-06-23T11:14:50Z</time>
      </trkpt>
      <trkpt lat="47.75425" lon="6.81894">
        <ele>494.97</ele>
        <time>2021-06-23T11:14:54Z</time>
      </trkpt>
      <trkpt lat="47.75416" lon="6.81889">
        <ele>494.95</ele>
        <time>2021-06-23T11:14:59Z</time>
      </trkpt>
      <trkpt lat="47.75396" lon="6.81884">
        <ele>494.37</ele>
        <time>2021-06-23T11:15:03Z</time>
      </trkpt>
      <trkpt lat="47.75343" lon="6.81886">
        <ele>494.43</ele>
        <time>2021-06-23T11:15:07Z</time>
      </trkpt>
      <trkpt lat="47.75327" lon="6.8189">
        <ele>494</ele>
        <time>2021-06-23T11:15:11Z</time>
      </trkpt>
      <trkpt lat="47.75224" lon="6.81948">
        <ele>496.94</ele>
        <time>2021-06-23T11:15:15Z</time>
      </trkpt>
      <trkpt lat="47.75178" lon="6.8197">
        <ele>494.25</ele>
        <time>2021-06-23T11:15:20Z</time>
      </trkpt>
      <trkpt lat="47.75164" lon="6.81972">
        <ele>493</ele>
        <time>2021-06-23T11:15:24Z</time>
      </trkpt>
      <trkpt lat="47.75152" lon="6.81971">
        <ele>493.06</ele>
        <time>2021-06-23T11:15:28Z</time>
      </trkpt>
      <trkpt lat="47.75099" lon="6.81948">
        <ele>493.42</ele>
        <time>2021-06-23T11:15:32Z</time>
      </trkpt>
      <trkpt lat="47.75083" lon="6.81944">
        <ele>493.03</ele>
        <time>2021-06-23T11:15:37Z</time>
      </trkpt>
      <trkpt lat="47.75057" lon="6.81943">
        <ele>494</ele>
        <time>2021-06-23T11:15:41Z</time>
      </trkpt>
      <trkpt lat="47.75026" lon="6.81952">
        <ele>494.04</ele>
        <time>2021-06-23T11:15:45Z</time>
      </trkpt>
      <trkpt lat="47.75017" lon="6.81956">
        <ele>494.22</ele>
        <time>2021-06-23T11:15:49Z</time>
      </trkpt>
      <trkpt lat="47.74996" lon="6.81972">
        <ele>494.17</ele>
        <time>2021-06-23T11:15:53Z</time>
      </trkpt>
      <trkpt lat="47.74971" lon="6.81989">
        <ele>494.52</ele>
        <time>2021-06-23T11:15:58Z</time>
      </trkpt>
      <trkpt lat="47.74965" lon="6.81996">
        <ele>494.65</ele>
        <time>2021-06-23T11:16:02Z</time>
      </trkpt>
      <trkpt lat="47.7488" lon="6.82065">
        <ele>492.43</ele>
        <time>2021-06-23T11:16:06Z</time>
      </trkpt>
      <trkpt lat="47.7482" lon="6.8213">
        <ele>493.15</ele>
        <time>2021-06-23T11:16:10Z</time>
      </trkpt>
      <trkpt lat="47.74733" lon="6.82239">
        <ele>491.61</ele>
        <time>2021-06-23T11:16:14Z</time>
      </trkpt>
      <trkpt lat="47.7468" lon="6.82297">
        <ele>493.37</ele>
        <time>2021-06-23T11:16:19Z</time>
      </trkpt>
      <trkpt lat="47.74641" lon="6.82355">
        <ele>493.17</ele>
        <time>2021-06-23T11:16:23Z</time>
      </trkpt>
      <trkpt lat="47.74622" lon="6.8238">
        <ele>491.47</ele>
        <time>2021-06-23T11:16:27Z</time>
      </trkpt>
      <trkpt lat="47.74609" lon="6.82391">
        <ele>490.66</ele>
        <time>2021-06-23T11:16:31Z</time>
      </trkpt>
      <trkpt lat="47.74591" lon="6.82407">
        <ele>488.05</ele>
        <time>2021-06-23T11:16:36Z</time>
      </trkpt>
      <trkpt lat="47.74567" lon="6.82422">
        <ele>487.22</ele>
        <time>2021-06-23T11:16:40Z</time>
      </trkpt>
      <trkpt lat="47.74517" lon="6.82446">
        <ele>484.66</ele>
        <time>2021-06-23T11:16:44Z</time>
      </trkpt>
      <trkpt lat="47.74457" lon="6.82469">
        <ele>482.67</ele>
        <time>2021-06-23T11:16:48Z</time>
      </trkpt>
      <trkpt lat="47.74424" lon="6.82477">
        <ele>482.88</ele>
        <time>2021-06-23T11:16:52Z</time>
      </trkpt>
      <trkpt lat="47.74435" lon="6.82429">
        <ele>483.85</ele>
        <time>2021-06-23T11:17:01Z</time>
      </trkpt>
      <trkpt lat="47.74449" lon="6.82343">
        <ele>485.64</ele>
        <time>2021-06-23T11:17:10Z</time>
      </trkpt>
      <trkpt lat="47.7444" lon="6.8234">
        <ele>485.76</ele>
        <time>2021-06-23T11:17:12Z</time>
      </trkpt>
      <trkpt lat="47.74436" lon="6.82341">
        <ele>485.73</ele>
        <time>2021-06-23T11:17:13Z</time>
      </trkpt>
      <trkpt lat="47.74421" lon="6.82357">
        <ele>485.13</ele>
        <time>2021-06-23T11:17:15Z</time>
      </trkpt>
      <trkpt lat="47.74406" lon="6.82345">
        <ele>486.14</ele>
        <time>2021-06-23T11:17:19Z</time>
      </trkpt>
      <trkpt lat="47.74414" lon="6.82237">
        <ele>488.91</ele>
        <time>2021-06-23T11:17:25Z</time>
      </trkpt>
      <trkpt lat="47.74411" lon="6.82219">
        <ele>489.92</ele>
        <time>2021-06-23T11:17:32Z</time>
      </trkpt>
      <trkpt lat="47.74373" lon="6.82149">
        <ele>489.23</ele>
        <time>2021-06-23T11:17:39Z</time>
      </trkpt>
      <trkpt lat="47.74362" lon="6.82131">
        <ele>489.3</ele>
        <time>2021-06-23T11:17:45Z</time>
      </trkpt>
      <trkpt lat="47.74356" lon="6.82107">
        <ele>490.09</ele>
        <time>2021-06-23T11:17:52Z</time>
      </trkpt>
      <trkpt lat="47.74341" lon="6.82106">
        <ele>489.61</ele>
        <time>2021-06-23T11:17:55Z</time>
      </trkpt>
      <trkpt lat="47.74339" lon="6.82099">
        <ele>490.06</ele>
        <time>2021-06-23T11:18:00Z</time>
      </trkpt>
      <trkpt lat="47.74337" lon="6.82089">
        <ele>490.73</ele>
        <time>2021-06-23T11:18:05Z</time>
      </trkpt>
      <trkpt lat="47.74333" lon="6.82075">
        <ele>491.61</ele>
        <time>2021-06-23T11:18:10Z</time>
      </trkpt>
      <trkpt lat="47.74325" lon="6.82057">
        <ele>492.33</ele>
        <time>2021-06-23T11:18:16Z</time>
      </trkpt>
      <trkpt lat="47.74319" lon="6.8205">
        <ele>492.06</ele>
        <time>2021-06-23T11:18:21Z</time>
      </trkpt>
      <trkpt lat="47.74289" lon="6.81989">
        <ele>490.74</ele>
        <time>2021-06-23T11:18:26Z</time>
      </trkpt>
      <trkpt lat="47.74272" lon="6.8193">
        <ele>492.61</ele>
        <time>2021-06-23T11:18:31Z</time>
      </trkpt>
      <trkpt lat="47.74261" lon="6.81903">
        <ele>493.79</ele>
        <time>2021-06-23T11:18:37Z</time>
      </trkpt>
      <trkpt lat="47.74246" lon="6.81878">
        <ele>494.11</ele>
        <time>2021-06-23T11:18:42Z</time>
      </trkpt>
      <trkpt lat="47.7424" lon="6.81872">
        <ele>493.9</ele>
        <time>2021-06-23T11:18:47Z</time>
      </trkpt>
      <trkpt lat="47.74239" lon="6.81867">
        <ele>493.98</ele>
        <time>2021-06-23T11:18:52Z</time>
      </trkpt>
      <trkpt lat="47.7421" lon="6.81824">
        <ele>496.35</ele>
        <time>2021-06-23T11:18:58Z</time>
      </trkpt>
      <trkpt lat="47.74171" lon="6.81785">
        <ele>497.36</ele>
        <time>2021-06-23T11:19:03Z</time>
      </trkpt>
      <trkpt lat="47.74143" lon="6.81724">
        <ele>505.17</ele>
        <time>2021-06-23T11:19:08Z</time>
      </trkpt>
      <trkpt lat="47.74143" lon="6.81724">
        <ele>505.17</ele>
        <time>2021-06-23T11:19:08Z</time>
      </trkpt>
      <trkpt lat="47.74124" lon="6.81683">
        <ele>505.52</ele>
        <time>2021-06-23T11:19:10Z</time>
      </trkpt>
      <trkpt lat="47.74117" lon="6.81673">
        <ele>505.36</ele>
        <time>2021-06-23T11:19:12Z</time>
      </trkpt>
      <trkpt lat="47.74116" lon="6.81666">
        <ele>505.65</ele>
        <time>2021-06-23T11:19:14Z</time>
      </trkpt>
      <trkpt lat="47.7409" lon="6.8161">
        <ele>509.93</ele>
        <time>2021-06-23T11:19:17Z</time>
      </trkpt>
      <trkpt lat="47.74082" lon="6.8159">
        <ele>510.52</ele>
        <time>2021-06-23T11:19:19Z</time>
      </trkpt>
      <trkpt lat="47.74079" lon="6.81568">
        <ele>511.31</ele>
        <time>2021-06-23T11:19:21Z</time>
      </trkpt>
      <trkpt lat="47.7408" lon="6.81548">
        <ele>511.8</ele>
        <time>2021-06-23T11:19:23Z</time>
      </trkpt>
      <trkpt lat="47.74084" lon="6.81528">
        <ele>512.02</ele>
        <time>2021-06-23T11:19:25Z</time>
      </trkpt>
      <trkpt lat="47.74142" lon="6.81335">
        <ele>518.2</ele>
        <time>2021-06-23T11:19:27Z</time>
      </trkpt>
      <trkpt lat="47.74144" lon="6.81309">
        <ele>517.65</ele>
        <time>2021-06-23T11:19:29Z</time>
      </trkpt>
      <trkpt lat="47.74141" lon="6.81244">
        <ele>518.29</ele>
        <time>2021-06-23T11:19:31Z</time>
      </trkpt>
      <trkpt lat="47.7413" lon="6.81122">
        <ele>524.36</ele>
        <time>2021-06-23T11:19:34Z</time>
      </trkpt>
      <trkpt lat="47.74129" lon="6.81101">
        <ele>524.64</ele>
        <time>2021-06-23T11:19:36Z</time>
      </trkpt>
      <trkpt lat="47.74135" lon="6.81054">
        <ele>523.48</ele>
        <time>2021-06-23T11:19:38Z</time>
      </trkpt>
      <trkpt lat="47.74171" lon="6.80858">
        <ele>519.94</ele>
        <time>2021-06-23T11:19:40Z</time>
      </trkpt>
      <trkpt lat="47.74172" lon="6.80836">
        <ele>521.06</ele>
        <time>2021-06-23T11:19:42Z</time>
      </trkpt>
      <trkpt lat="47.7416" lon="6.80743">
        <ele>530.57</ele>
        <time>2021-06-23T11:19:44Z</time>
      </trkpt>
      <trkpt lat="47.74152" lon="6.80548">
        <ele>522.68</ele>
        <time>2021-06-23T11:19:46Z</time>
      </trkpt>
      <trkpt lat="47.74148" lon="6.80521">
        <ele>521.79</ele>
        <time>2021-06-23T11:19:48Z</time>
      </trkpt>
      <trkpt lat="47.74136" lon="6.80476">
        <ele>522.23</ele>
        <time>2021-06-23T11:19:50Z</time>
      </trkpt>
      <trkpt lat="47.74125" lon="6.80446">
        <ele>523.4</ele>
        <time>2021-06-23T11:19:53Z</time>
      </trkpt>
      <trkpt lat="47.74119" lon="6.8042">
        <ele>524.58</ele>
        <time>2021-06-23T11:19:55Z</time>
      </trkpt>
      <trkpt lat="47.7411" lon="6.80358">
        <ele>522.85</ele>
        <time>2021-06-23T11:19:57Z</time>
      </trkpt>
      <trkpt lat="47.74106" lon="6.8031">
        <ele>523.22</ele>
        <time>2021-06-23T11:19:59Z</time>
      </trkpt>
      <trkpt lat="47.74107" lon="6.8026">
        <ele>524.37</ele>
        <time>2021-06-23T11:20:01Z</time>
      </trkpt>
      <trkpt lat="47.74114" lon="6.80204">
        <ele>526.34</ele>
        <time>2021-06-23T11:20:03Z</time>
      </trkpt>
      <trkpt lat="47.74149" lon="6.80063">
        <ele>525.89</ele>
        <time>2021-06-23T11:20:05Z</time>
      </trkpt>
      <trkpt lat="47.7416" lon="6.80027">
        <ele>523.14</ele>
        <time>2021-06-23T11:20:07Z</time>
      </trkpt>
      <trkpt lat="47.74188" lon="6.79963">
        <ele>526.82</ele>
        <time>2021-06-23T11:20:10Z</time>
      </trkpt>
      <trkpt lat="47.74196" lon="6.79936">
        <ele>528.79</ele>
        <time>2021-06-23T11:20:12Z</time>
      </trkpt>
      <trkpt lat="47.74198" lon="6.79923">
        <ele>529.43</ele>
        <time>2021-06-23T11:20:14Z</time>
      </trkpt>
      <trkpt lat="47.74198" lon="6.79912">
        <ele>529.65</ele>
        <time>2021-06-23T11:20:16Z</time>
      </trkpt>
      <trkpt lat="47.74195" lon="6.79899">
        <ele>530.02</ele>
        <time>2021-06-23T11:20:18Z</time>
      </trkpt>
      <trkpt lat="47.74189" lon="6.7989">
        <ele>530.64</ele>
        <time>2021-06-23T11:20:20Z</time>
      </trkpt>
      <trkpt lat="47.74177" lon="6.79882">
        <ele>531.84</ele>
        <time>2021-06-23T11:20:22Z</time>
      </trkpt>
      <trkpt lat="47.74115" lon="6.79886">
        <ele>530.82</ele>
        <time>2021-06-23T11:20:24Z</time>
      </trkpt>
      <trkpt lat="47.74104" lon="6.79883">
        <ele>530.12</ele>
        <time>2021-06-23T11:20:26Z</time>
      </trkpt>
      <trkpt lat="47.74087" lon="6.7987">
        <ele>530.99</ele>
        <time>2021-06-23T11:20:29Z</time>
      </trkpt>
      <trkpt lat="47.74075" lon="6.79854">
        <ele>533.92</ele>
        <time>2021-06-23T11:20:31Z</time>
      </trkpt>
      <trkpt lat="47.74031" lon="6.79762">
        <ele>545.96</ele>
        <time>2021-06-23T11:20:33Z</time>
      </trkpt>
      <trkpt lat="47.74018" lon="6.7974">
        <ele>547.22</ele>
        <time>2021-06-23T11:20:35Z</time>
      </trkpt>
      <trkpt lat="47.73978" lon="6.79688">
        <ele>545.29</ele>
        <time>2021-06-23T11:20:37Z</time>
      </trkpt>
      <trkpt lat="47.73967" lon="6.7967">
        <ele>544.66</ele>
        <time>2021-06-23T11:20:39Z</time>
      </trkpt>
      <trkpt lat="47.73959" lon="6.79651">
        <ele>545.4</ele>
        <time>2021-06-23T11:20:41Z</time>
      </trkpt>
      <trkpt lat="47.7395" lon="6.79613">
        <ele>546.48</ele>
        <time>2021-06-23T11:20:43Z</time>
      </trkpt>
      <trkpt lat="47.73923" lon="6.79465">
        <ele>541.41</ele>
        <time>2021-06-23T11:20:46Z</time>
      </trkpt>
      <trkpt lat="47.73913" lon="6.79418">
        <ele>541.4</ele>
        <time>2021-06-23T11:20:48Z</time>
      </trkpt>
      <trkpt lat="47.73904" lon="6.79393">
        <ele>541.42</ele>
        <time>2021-06-23T11:20:50Z</time>
      </trkpt>
      <trkpt lat="47.7386" lon="6.79299">
        <ele>535.04</ele>
        <time>2021-06-23T11:20:52Z</time>
      </trkpt>
      <trkpt lat="47.73837" lon="6.79244">
        <ele>534.88</ele>
        <time>2021-06-23T11:20:54Z</time>
      </trkpt>
      <trkpt lat="47.73819" lon="6.79196">
        <ele>532.91</ele>
        <time>2021-06-23T11:20:56Z</time>
      </trkpt>
      <trkpt lat="47.73809" lon="6.79161">
        <ele>531.65</ele>
        <time>2021-06-23T11:20:58Z</time>
      </trkpt>
      <trkpt lat="47.73802" lon="6.79119">
        <ele>530.05</ele>
        <time>2021-06-23T11:21:00Z</time>
      </trkpt>
      <trkpt lat="47.7378" lon="6.78951">
        <ele>520.7</ele>
        <time>2021-06-23T11:21:02Z</time>
      </trkpt>
      <trkpt lat="47.73762" lon="6.7884">
        <ele>522.03</ele>
        <time>2021-06-23T11:21:05Z</time>
      </trkpt>
      <trkpt lat="47.73748" lon="6.78778">
        <ele>523.19</ele>
        <time>2021-06-23T11:21:07Z</time>
      </trkpt>
      <trkpt lat="47.73706" lon="6.78621">
        <ele>519.21</ele>
        <time>2021-06-23T11:21:09Z</time>
      </trkpt>
      <trkpt lat="47.7368" lon="6.78529">
        <ele>516.8</ele>
        <time>2021-06-23T11:21:11Z</time>
      </trkpt>
      <trkpt lat="47.73674" lon="6.78513">
        <ele>516.58</ele>
        <time>2021-06-23T11:21:13Z</time>
      </trkpt>
      <trkpt lat="47.73662" lon="6.78492">
        <ele>515.41</ele>
        <time>2021-06-23T11:21:15Z</time>
      </trkpt>
      <trkpt lat="47.73639" lon="6.78456">
        <ele>511.62</ele>
        <time>2021-06-23T11:21:17Z</time>
      </trkpt>
      <trkpt lat="47.7362" lon="6.78423">
        <ele>509.08</ele>
        <time>2021-06-23T11:21:19Z</time>
      </trkpt>
      <trkpt lat="47.73605" lon="6.78402">
        <ele>507.79</ele>
        <time>2021-06-23T11:21:22Z</time>
      </trkpt>
      <trkpt lat="47.73599" lon="6.78396">
        <ele>507.29</ele>
        <time>2021-06-23T11:21:24Z</time>
      </trkpt>
      <trkpt lat="47.73569" lon="6.78351">
        <ele>506.18</ele>
        <time>2021-06-23T11:21:26Z</time>
      </trkpt>
      <trkpt lat="47.7355" lon="6.78329">
        <ele>505.86</ele>
        <time>2021-06-23T11:21:28Z</time>
      </trkpt>
      <trkpt lat="47.7354" lon="6.78323">
        <ele>505.43</ele>
        <time>2021-06-23T11:21:30Z</time>
      </trkpt>
      <trkpt lat="47.73526" lon="6.78322">
        <ele>504.32</ele>
        <time>2021-06-23T11:21:32Z</time>
      </trkpt>
      <trkpt lat="47.73512" lon="6.78324">
        <ele>503.56</ele>
        <time>2021-06-23T11:21:34Z</time>
      </trkpt>
      <trkpt lat="47.73494" lon="6.78331">
        <ele>503</ele>
        <time>2021-06-23T11:21:36Z</time>
      </trkpt>
      <trkpt lat="47.73481" lon="6.78344">
        <ele>502.22</ele>
        <time>2021-06-23T11:21:38Z</time>
      </trkpt>
      <trkpt lat="47.73475" lon="6.78356">
        <ele>501.39</ele>
        <time>2021-06-23T11:21:41Z</time>
      </trkpt>
      <trkpt lat="47.73457" lon="6.78412">
        <ele>498.36</ele>
        <time>2021-06-23T11:21:43Z</time>
      </trkpt>
      <trkpt lat="47.73448" lon="6.78426">
        <ele>497.92</ele>
        <time>2021-06-23T11:21:45Z</time>
      </trkpt>
      <trkpt lat="47.73441" lon="6.78432">
        <ele>498.05</ele>
        <time>2021-06-23T11:21:47Z</time>
      </trkpt>
      <trkpt lat="47.73425" lon="6.78439">
        <ele>498.14</ele>
        <time>2021-06-23T11:21:49Z</time>
      </trkpt>
      <trkpt lat="47.73386" lon="6.78446">
        <ele>497.11</ele>
        <time>2021-06-23T11:21:51Z</time>
      </trkpt>
      <trkpt lat="47.73364" lon="6.78442">
        <ele>497.91</ele>
        <time>2021-06-23T11:21:54Z</time>
      </trkpt>
      <trkpt lat="47.73357" lon="6.78438">
        <ele>498.16</ele>
        <time>2021-06-23T11:21:56Z</time>
      </trkpt>
      <trkpt lat="47.73346" lon="6.78423">
        <ele>498.53</ele>
        <time>2021-06-23T11:21:58Z</time>
      </trkpt>
      <trkpt lat="47.7334" lon="6.78404">
        <ele>498.87</ele>
        <time>2021-06-23T11:22:01Z</time>
      </trkpt>
      <trkpt lat="47.73336" lon="6.7838">
        <ele>499.3</ele>
        <time>2021-06-23T11:22:03Z</time>
      </trkpt>
      <trkpt lat="47.73339" lon="6.78326">
        <ele>499.69</ele>
        <time>2021-06-23T11:22:06Z</time>
      </trkpt>
      <trkpt lat="47.73338" lon="6.78295">
        <ele>497.72</ele>
        <time>2021-06-23T11:22:08Z</time>
      </trkpt>
      <trkpt lat="47.73322" lon="6.78216">
        <ele>487.51</ele>
        <time>2021-06-23T11:22:11Z</time>
      </trkpt>
      <trkpt lat="47.73325" lon="6.78207">
        <ele>486.9</ele>
        <time>2021-06-23T11:22:13Z</time>
      </trkpt>
      <trkpt lat="47.73324" lon="6.78202">
        <ele>486.66</ele>
        <time>2021-06-23T11:22:16Z</time>
      </trkpt>
      <trkpt lat="47.73321" lon="6.78193">
        <ele>486.47</ele>
        <time>2021-06-23T11:22:19Z</time>
      </trkpt>
      <trkpt lat="47.73316" lon="6.78189">
        <ele>486.69</ele>
        <time>2021-06-23T11:22:22Z</time>
      </trkpt>
      <trkpt lat="47.73311" lon="6.7819">
        <ele>486.85</ele>
        <time>2021-06-23T11:22:25Z</time>
      </trkpt>
      <trkpt lat="47.73309" lon="6.78179">
        <ele>486.95</ele>
        <time>2021-06-23T11:22:28Z</time>
      </trkpt>
      <trkpt lat="47.73305" lon="6.78122">
        <ele>487.99</ele>
        <time>2021-06-23T11:22:31Z</time>
      </trkpt>
      <trkpt lat="47.73307" lon="6.78094">
        <ele>488.04</ele>
        <time>2021-06-23T11:22:34Z</time>
      </trkpt>
      <trkpt lat="47.73311" lon="6.78064">
        <ele>487.61</ele>
        <time>2021-06-23T11:22:37Z</time>
      </trkpt>
      <trkpt lat="47.73322" lon="6.78026">
        <ele>487.56</ele>
        <time>2021-06-23T11:22:40Z</time>
      </trkpt>
      <trkpt lat="47.73393" lon="6.77847">
        <ele>492.18</ele>
        <time>2021-06-23T11:22:43Z</time>
      </trkpt>
      <trkpt lat="47.73438" lon="6.77713">
        <ele>494.92</ele>
        <time>2021-06-23T11:22:46Z</time>
      </trkpt>
      <trkpt lat="47.73446" lon="6.77679">
        <ele>495</ele>
        <time>2021-06-23T11:22:48Z</time>
      </trkpt>
      <trkpt lat="47.73448" lon="6.77648">
        <ele>495</ele>
        <time>2021-06-23T11:22:51Z</time>
      </trkpt>
      <trkpt lat="47.73445" lon="6.7762">
        <ele>495.67</ele>
        <time>2021-06-23T11:22:54Z</time>
      </trkpt>
      <trkpt lat="47.73439" lon="6.77601">
        <ele>495.98</ele>
        <time>2021-06-23T11:22:57Z</time>
      </trkpt>
      <trkpt lat="47.73427" lon="6.77576">
        <ele>495.86</ele>
        <time>2021-06-23T11:23:00Z</time>
      </trkpt>
      <trkpt lat="47.73363" lon="6.77498">
        <ele>493.31</ele>
        <time>2021-06-23T11:23:03Z</time>
      </trkpt>
      <trkpt lat="47.73349" lon="6.77466">
        <ele>493.67</ele>
        <time>2021-06-23T11:23:06Z</time>
      </trkpt>
      <trkpt lat="47.73341" lon="6.77435">
        <ele>494.09</ele>
        <time>2021-06-23T11:23:09Z</time>
      </trkpt>
      <trkpt lat="47.7331" lon="6.7723">
        <ele>497.71</ele>
        <time>2021-06-23T11:23:12Z</time>
      </trkpt>
      <trkpt lat="47.73303" lon="6.77195">
        <ele>499.64</ele>
        <time>2021-06-23T11:23:15Z</time>
      </trkpt>
      <trkpt lat="47.7324" lon="6.76966">
        <ele>508.85</ele>
        <time>2021-06-23T11:23:18Z</time>
      </trkpt>
      <trkpt lat="47.73221" lon="6.7689">
        <ele>511.86</ele>
        <time>2021-06-23T11:23:21Z</time>
      </trkpt>
      <trkpt lat="47.73201" lon="6.76824">
        <ele>516.32</ele>
        <time>2021-06-23T11:23:23Z</time>
      </trkpt>
      <trkpt lat="47.7319" lon="6.76796">
        <ele>516.83</ele>
        <time>2021-06-23T11:23:26Z</time>
      </trkpt>
      <trkpt lat="47.73183" lon="6.76781">
        <ele>516.57</ele>
        <time>2021-06-23T11:23:29Z</time>
      </trkpt>
      <trkpt lat="47.73163" lon="6.76731">
        <ele>514.7</ele>
        <time>2021-06-23T11:23:32Z</time>
      </trkpt>
      <trkpt lat="47.73135" lon="6.76667">
        <ele>513.66</ele>
        <time>2021-06-23T11:23:35Z</time>
      </trkpt>
      <trkpt lat="47.73081" lon="6.76571">
        <ele>510.93</ele>
        <time>2021-06-23T11:23:38Z</time>
      </trkpt>
      <trkpt lat="47.73073" lon="6.76559">
        <ele>508.44</ele>
        <time>2021-06-23T11:23:41Z</time>
      </trkpt>
      <trkpt lat="47.73065" lon="6.76551">
        <ele>506.25</ele>
        <time>2021-06-23T11:23:44Z</time>
      </trkpt>
      <trkpt lat="47.73056" lon="6.76545">
        <ele>504.14</ele>
        <time>2021-06-23T11:23:47Z</time>
      </trkpt>
      <trkpt lat="47.73047" lon="6.76543">
        <ele>502.77</ele>
        <time>2021-06-23T11:23:50Z</time>
      </trkpt>
      <trkpt lat="47.73036" lon="6.76542">
        <ele>501.23</ele>
        <time>2021-06-23T11:23:53Z</time>
      </trkpt>
      <trkpt lat="47.72972" lon="6.76559">
        <ele>499.4</ele>
        <time>2021-06-23T11:23:56Z</time>
      </trkpt>
      <trkpt lat="47.72955" lon="6.76558">
        <ele>499.98</ele>
        <time>2021-06-23T11:23:58Z</time>
      </trkpt>
      <trkpt lat="47.72934" lon="6.76548">
        <ele>501.87</ele>
        <time>2021-06-23T11:24:01Z</time>
      </trkpt>
      <trkpt lat="47.72925" lon="6.7654">
        <ele>502.64</ele>
        <time>2021-06-23T11:24:04Z</time>
      </trkpt>
      <trkpt lat="47.72913" lon="6.76522">
        <ele>502.16</ele>
        <time>2021-06-23T11:24:07Z</time>
      </trkpt>
      <trkpt lat="47.72902" lon="6.76496">
        <ele>500.53</ele>
        <time>2021-06-23T11:24:10Z</time>
      </trkpt>
      <trkpt lat="47.72881" lon="6.76442">
        <ele>497.23</ele>
        <time>2021-06-23T11:24:13Z</time>
      </trkpt>
      <trkpt lat="47.72859" lon="6.76374">
        <ele>495.66</ele>
        <time>2021-06-23T11:24:16Z</time>
      </trkpt>
      <trkpt lat="47.72839" lon="6.7629">
        <ele>493.02</ele>
        <time>2021-06-23T11:24:19Z</time>
      </trkpt>
      <trkpt lat="47.72827" lon="6.76229">
        <ele>487.69</ele>
        <time>2021-06-23T11:24:22Z</time>
      </trkpt>
      <trkpt lat="47.728" lon="6.76111">
        <ele>478.73</ele>
        <time>2021-06-23T11:24:25Z</time>
      </trkpt>
      <trkpt lat="47.72783" lon="6.7605">
        <ele>476.45</ele>
        <time>2021-06-23T11:24:28Z</time>
      </trkpt>
      <trkpt lat="47.7277" lon="6.76008">
        <ele>473.97</ele>
        <time>2021-06-23T11:24:31Z</time>
      </trkpt>
      <trkpt lat="47.72754" lon="6.75966">
        <ele>471.87</ele>
        <time>2021-06-23T11:24:33Z</time>
      </trkpt>
      <trkpt lat="47.72716" lon="6.75875">
        <ele>470.05</ele>
        <time>2021-06-23T11:24:36Z</time>
      </trkpt>
      <trkpt lat="47.72701" lon="6.75845">
        <ele>468.11</ele>
        <time>2021-06-23T11:24:39Z</time>
      </trkpt>
      <trkpt lat="47.7269" lon="6.75828">
        <ele>466.08</ele>
        <time>2021-06-23T11:24:42Z</time>
      </trkpt>
      <trkpt lat="47.72673" lon="6.7581">
        <ele>464.16</ele>
        <time>2021-06-23T11:24:45Z</time>
      </trkpt>
      <trkpt lat="47.72655" lon="6.75797">
        <ele>462.29</ele>
        <time>2021-06-23T11:24:48Z</time>
      </trkpt>
      <trkpt lat="47.72628" lon="6.75783">
        <ele>460.3</ele>
        <time>2021-06-23T11:24:51Z</time>
      </trkpt>
      <trkpt lat="47.72613" lon="6.75777">
        <ele>459.86</ele>
        <time>2021-06-23T11:24:54Z</time>
      </trkpt>
      <trkpt lat="47.72578" lon="6.75772">
        <ele>461.83</ele>
        <time>2021-06-23T11:24:57Z</time>
      </trkpt>
      <trkpt lat="47.7256" lon="6.75763">
        <ele>462.73</ele>
        <time>2021-06-23T11:25:00Z</time>
      </trkpt>
      <trkpt lat="47.72533" lon="6.75742">
        <ele>462.73</ele>
        <time>2021-06-23T11:25:03Z</time>
      </trkpt>
      <trkpt lat="47.72514" lon="6.75717">
        <ele>459.01</ele>
        <time>2021-06-23T11:25:06Z</time>
      </trkpt>
      <trkpt lat="47.72497" lon="6.75685">
        <ele>453.66</ele>
        <time>2021-06-23T11:25:08Z</time>
      </trkpt>
      <trkpt lat="47.72491" lon="6.75671">
        <ele>451.86</ele>
        <time>2021-06-23T11:25:11Z</time>
      </trkpt>
      <trkpt lat="47.72487" lon="6.75647">
        <ele>450.03</ele>
        <time>2021-06-23T11:25:14Z</time>
      </trkpt>
      <trkpt lat="47.7249" lon="6.75618">
        <ele>448.17</ele>
        <time>2021-06-23T11:25:17Z</time>
      </trkpt>
      <trkpt lat="47.72506" lon="6.75543">
        <ele>449.07</ele>
        <time>2021-06-23T11:25:20Z</time>
      </trkpt>
      <trkpt lat="47.72508" lon="6.75525">
        <ele>449.99</ele>
        <time>2021-06-23T11:25:23Z</time>
      </trkpt>
      <trkpt lat="47.72509" lon="6.75487">
        <ele>451.82</ele>
        <time>2021-06-23T11:25:26Z</time>
      </trkpt>
      <trkpt lat="47.72502" lon="6.75441">
        <ele>451.27</ele>
        <time>2021-06-23T11:25:29Z</time>
      </trkpt>
      <trkpt lat="47.72443" lon="6.75202">
        <ele>449.28</ele>
        <time>2021-06-23T11:25:32Z</time>
      </trkpt>
      <trkpt lat="47.72436" lon="6.75165">
        <ele>449.47</ele>
        <time>2021-06-23T11:25:35Z</time>
      </trkpt>
      <trkpt lat="47.72406" lon="6.74966">
        <ele>442.17</ele>
        <time>2021-06-23T11:25:38Z</time>
      </trkpt>
      <trkpt lat="47.72402" lon="6.74913">
        <ele>440.31</ele>
        <time>2021-06-23T11:25:41Z</time>
      </trkpt>
      <trkpt lat="47.72403" lon="6.74887">
        <ele>439.49</ele>
        <time>2021-06-23T11:25:43Z</time>
      </trkpt>
      <trkpt lat="47.72406" lon="6.74853">
        <ele>440.17</ele>
        <time>2021-06-23T11:25:46Z</time>
      </trkpt>
      <trkpt lat="47.72422" lon="6.74743">
        <ele>439.93</ele>
        <time>2021-06-23T11:25:49Z</time>
      </trkpt>
      <trkpt lat="47.72424" lon="6.74713">
        <ele>438.93</ele>
        <time>2021-06-23T11:25:52Z</time>
      </trkpt>
      <trkpt lat="47.72423" lon="6.74692">
        <ele>438.18</ele>
        <time>2021-06-23T11:25:55Z</time>
      </trkpt>
      <trkpt lat="47.72419" lon="6.74672">
        <ele>437.42</ele>
        <time>2021-06-23T11:25:58Z</time>
      </trkpt>
      <trkpt lat="47.72412" lon="6.74647">
        <ele>436.77</ele>
        <time>2021-06-23T11:26:01Z</time>
      </trkpt>
      <trkpt lat="47.72286" lon="6.74307">
        <ele>437.44</ele>
        <time>2021-06-23T11:26:04Z</time>
      </trkpt>
      <trkpt lat="47.72286" lon="6.74307">
        <ele>437.44</ele>
        <time>2021-06-23T11:26:04Z</time>
      </trkpt>
      <trkpt lat="47.72243" lon="6.74191">
        <ele>436.9</ele>
        <time>2021-06-23T11:26:06Z</time>
      </trkpt>
      <trkpt lat="47.72227" lon="6.7416">
        <ele>435.09</ele>
        <time>2021-06-23T11:26:09Z</time>
      </trkpt>
      <trkpt lat="47.72096" lon="6.7398">
        <ele>430.01</ele>
        <time>2021-06-23T11:26:11Z</time>
      </trkpt>
      <trkpt lat="47.72076" lon="6.73956">
        <ele>433.14</ele>
        <time>2021-06-23T11:26:13Z</time>
      </trkpt>
      <trkpt lat="47.72064" lon="6.73947">
        <ele>433</ele>
        <time>2021-06-23T11:26:16Z</time>
      </trkpt>
      <trkpt lat="47.72053" lon="6.73941">
        <ele>432.44</ele>
        <time>2021-06-23T11:26:18Z</time>
      </trkpt>
      <trkpt lat="47.72041" lon="6.73939">
        <ele>432.34</ele>
        <time>2021-06-23T11:26:21Z</time>
      </trkpt>
      <trkpt lat="47.71967" lon="6.73939">
        <ele>429.22</ele>
        <time>2021-06-23T11:26:23Z</time>
      </trkpt>
      <trkpt lat="47.71932" lon="6.73934">
        <ele>428.57</ele>
        <time>2021-06-23T11:26:26Z</time>
      </trkpt>
      <trkpt lat="47.71899" lon="6.73926">
        <ele>428.67</ele>
        <time>2021-06-23T11:26:28Z</time>
      </trkpt>
      <trkpt lat="47.71883" lon="6.73915">
        <ele>428.6</ele>
        <time>2021-06-23T11:26:30Z</time>
      </trkpt>
      <trkpt lat="47.71866" lon="6.73899">
        <ele>427.48</ele>
        <time>2021-06-23T11:26:33Z</time>
      </trkpt>
      <trkpt lat="47.71779" lon="6.73792">
        <ele>427.51</ele>
        <time>2021-06-23T11:26:35Z</time>
      </trkpt>
      <trkpt lat="47.71765" lon="6.7377">
        <ele>427.39</ele>
        <time>2021-06-23T11:26:38Z</time>
      </trkpt>
      <trkpt lat="47.71752" lon="6.73745">
        <ele>426.83</ele>
        <time>2021-06-23T11:26:40Z</time>
      </trkpt>
      <trkpt lat="47.7174" lon="6.73711">
        <ele>425.85</ele>
        <time>2021-06-23T11:26:42Z</time>
      </trkpt>
      <trkpt lat="47.71731" lon="6.73667">
        <ele>424.99</ele>
        <time>2021-06-23T11:26:45Z</time>
      </trkpt>
      <trkpt lat="47.71731" lon="6.73638">
        <ele>424.32</ele>
        <time>2021-06-23T11:26:47Z</time>
      </trkpt>
      <trkpt lat="47.71735" lon="6.73629">
        <ele>424.3</ele>
        <time>2021-06-23T11:26:52Z</time>
      </trkpt>
      <trkpt lat="47.71733" lon="6.73619">
        <ele>424.11</ele>
        <time>2021-06-23T11:26:58Z</time>
      </trkpt>
      <trkpt lat="47.7173" lon="6.73615">
        <ele>424.04</ele>
        <time>2021-06-23T11:27:03Z</time>
      </trkpt>
      <trkpt lat="47.71724" lon="6.73614">
        <ele>424.01</ele>
        <time>2021-06-23T11:27:08Z</time>
      </trkpt>
      <trkpt lat="47.71718" lon="6.73619">
        <ele>423.76</ele>
        <time>2021-06-23T11:27:13Z</time>
      </trkpt>
      <trkpt lat="47.71704" lon="6.73623">
        <ele>422.96</ele>
        <time>2021-06-23T11:27:19Z</time>
      </trkpt>
      <trkpt lat="47.71672" lon="6.73623">
        <ele>421.3</ele>
        <time>2021-06-23T11:27:24Z</time>
      </trkpt>
      <trkpt lat="47.71647" lon="6.73629">
        <ele>420.3</ele>
        <time>2021-06-23T11:27:29Z</time>
      </trkpt>
      <trkpt lat="47.71634" lon="6.73628">
        <ele>419.81</ele>
        <time>2021-06-23T11:27:35Z</time>
      </trkpt>
      <trkpt lat="47.71619" lon="6.7362">
        <ele>419.28</ele>
        <time>2021-06-23T11:27:40Z</time>
      </trkpt>
      <trkpt lat="47.71543" lon="6.73536">
        <ele>420.7</ele>
        <time>2021-06-23T11:27:45Z</time>
      </trkpt>
      <trkpt lat="47.71518" lon="6.73517">
        <ele>421.75</ele>
        <time>2021-06-23T11:27:50Z</time>
      </trkpt>
      <trkpt lat="47.71491" lon="6.73507">
        <ele>422.76</ele>
        <time>2021-06-23T11:27:56Z</time>
      </trkpt>
      <trkpt lat="47.71456" lon="6.73472">
        <ele>422.39</ele>
        <time>2021-06-23T11:28:01Z</time>
      </trkpt>
      <trkpt lat="47.71444" lon="6.73463">
        <ele>421.63</ele>
        <time>2021-06-23T11:28:06Z</time>
      </trkpt>
      <trkpt lat="47.71398" lon="6.73446">
        <ele>418.65</ele>
        <time>2021-06-23T11:28:11Z</time>
      </trkpt>
      <trkpt lat="47.71382" lon="6.73436">
        <ele>418.3</ele>
        <time>2021-06-23T11:28:17Z</time>
      </trkpt>
      <trkpt lat="47.71279" lon="6.73356">
        <ele>421.2</ele>
        <time>2021-06-23T11:28:22Z</time>
      </trkpt>
      <trkpt lat="47.71258" lon="6.73335">
        <ele>421.92</ele>
        <time>2021-06-23T11:28:27Z</time>
      </trkpt>
      <trkpt lat="47.7119" lon="6.73247">
        <ele>422.88</ele>
        <time>2021-06-23T11:28:32Z</time>
      </trkpt>
      <trkpt lat="47.7117" lon="6.73216">
        <ele>422.89</ele>
        <time>2021-06-23T11:28:38Z</time>
      </trkpt>
      <trkpt lat="47.71107" lon="6.7311">
        <ele>419.37</ele>
        <time>2021-06-23T11:28:43Z</time>
      </trkpt>
      <trkpt lat="47.71065" lon="6.73033">
        <ele>415.77</ele>
        <time>2021-06-23T11:28:48Z</time>
      </trkpt>
      <trkpt lat="47.71019" lon="6.72952">
        <ele>413.58</ele>
        <time>2021-06-23T11:28:54Z</time>
      </trkpt>
      <trkpt lat="47.70892" lon="6.72736">
        <ele>409</ele>
        <time>2021-06-23T11:28:59Z</time>
      </trkpt>
      <trkpt lat="47.70877" lon="6.72704">
        <ele>408.2</ele>
        <time>2021-06-23T11:29:04Z</time>
      </trkpt>
      <trkpt lat="47.70872" lon="6.72682">
        <ele>408</ele>
        <time>2021-06-23T11:29:09Z</time>
      </trkpt>
      <trkpt lat="47.70871" lon="6.72673">
        <ele>408</ele>
        <time>2021-06-23T11:29:11Z</time>
      </trkpt>
      <trkpt lat="47.70868" lon="6.72665">
        <ele>407.95</ele>
        <time>2021-06-23T11:29:14Z</time>
      </trkpt>
      <trkpt lat="47.70861" lon="6.72661">
        <ele>407.78</ele>
        <time>2021-06-23T11:29:16Z</time>
      </trkpt>
      <trkpt lat="47.70857" lon="6.72661">
        <ele>407.78</ele>
        <time>2021-06-23T11:29:18Z</time>
      </trkpt>
      <trkpt lat="47.70849" lon="6.72652">
        <ele>407.46</ele>
        <time>2021-06-23T11:29:20Z</time>
      </trkpt>
      <trkpt lat="47.7083" lon="6.72624">
        <ele>407.19</ele>
        <time>2021-06-23T11:29:22Z</time>
      </trkpt>
      <trkpt lat="47.70645" lon="6.72294">
        <ele>403.48</ele>
        <time>2021-06-23T11:29:24Z</time>
      </trkpt>
      <trkpt lat="47.70606" lon="6.72228">
        <ele>403.32</ele>
        <time>2021-06-23T11:29:27Z</time>
      </trkpt>
      <trkpt lat="47.7059" lon="6.72208">
        <ele>405.62</ele>
        <time>2021-06-23T11:29:29Z</time>
      </trkpt>
      <trkpt lat="47.70576" lon="6.72201">
        <ele>407.21</ele>
        <time>2021-06-23T11:29:31Z</time>
      </trkpt>
      <trkpt lat="47.70518" lon="6.72193">
        <ele>407.28</ele>
        <time>2021-06-23T11:29:33Z</time>
      </trkpt>
      <trkpt lat="47.70503" lon="6.72186">
        <ele>407.24</ele>
        <time>2021-06-23T11:29:35Z</time>
      </trkpt>
      <trkpt lat="47.7049" lon="6.72175">
        <ele>407.14</ele>
        <time>2021-06-23T11:29:37Z</time>
      </trkpt>
      <trkpt lat="47.70476" lon="6.72151">
        <ele>408.24</ele>
        <time>2021-06-23T11:29:40Z</time>
      </trkpt>
      <trkpt lat="47.7046" lon="6.72112">
        <ele>410.43</ele>
        <time>2021-06-23T11:29:42Z</time>
      </trkpt>
      <trkpt lat="47.7042" lon="6.71946">
        <ele>415.48</ele>
        <time>2021-06-23T11:29:44Z</time>
      </trkpt>
      <trkpt lat="47.70416" lon="6.7192">
        <ele>405.11</ele>
        <time>2021-06-23T11:29:46Z</time>
      </trkpt>
      <trkpt lat="47.70416" lon="6.7192">
        <ele>405.11</ele>
        <time>2021-06-23T11:29:46Z</time>
      </trkpt>
      <trkpt lat="47.70335" lon="6.71459">
        <ele>394.74</ele>
        <time>2021-06-23T11:29:53Z</time>
      </trkpt>
      <trkpt lat="47.70287" lon="6.71191">
        <ele>391.46</ele>
        <time>2021-06-23T11:30:00Z</time>
      </trkpt>
      <trkpt lat="47.70279" lon="6.71106">
        <ele>391.02</ele>
        <time>2021-06-23T11:30:07Z</time>
      </trkpt>
      <trkpt lat="47.70287" lon="6.70681">
        <ele>387.67</ele>
        <time>2021-06-23T11:30:14Z</time>
      </trkpt>
      <trkpt lat="47.70288" lon="6.70507">
        <ele>387.91</ele>
        <time>2021-06-23T11:30:21Z</time>
      </trkpt>
      <trkpt lat="47.7029" lon="6.70441">
        <ele>389.37</ele>
        <time>2021-06-23T11:30:27Z</time>
      </trkpt>
      <trkpt lat="47.70298" lon="6.70358">
        <ele>387</ele>
        <time>2021-06-23T11:30:34Z</time>
      </trkpt>
      <trkpt lat="47.703" lon="6.70316">
        <ele>387</ele>
        <time>2021-06-23T11:30:41Z</time>
      </trkpt>
      <trkpt lat="47.703" lon="6.7029">
        <ele>387</ele>
        <time>2021-06-23T11:30:48Z</time>
      </trkpt>
      <trkpt lat="47.7028" lon="6.70143">
        <ele>385.39</ele>
        <time>2021-06-23T11:30:55Z</time>
      </trkpt>
      <trkpt lat="47.70279" lon="6.701">
        <ele>384.02</ele>
        <time>2021-06-23T11:31:02Z</time>
      </trkpt>
      <trkpt lat="47.70281" lon="6.70078">
        <ele>384</ele>
        <time>2021-06-23T11:31:09Z</time>
      </trkpt>
      <trkpt lat="47.70288" lon="6.70054">
        <ele>384</ele>
        <time>2021-06-23T11:31:16Z</time>
      </trkpt>
      <trkpt lat="47.70297" lon="6.70029">
        <ele>384</ele>
        <time>2021-06-23T11:31:23Z</time>
      </trkpt>
      <trkpt lat="47.70302" lon="6.70001">
        <ele>384.97</ele>
        <time>2021-06-23T11:31:30Z</time>
      </trkpt>
      <trkpt lat="47.70323" lon="6.69349">
        <ele>378.39</ele>
        <time>2021-06-23T11:31:36Z</time>
      </trkpt>
      <trkpt lat="47.70327" lon="6.69312">
        <ele>378.23</ele>
        <time>2021-06-23T11:31:43Z</time>
      </trkpt>
      <trkpt lat="47.70421" lon="6.68933">
        <ele>376.17</ele>
        <time>2021-06-23T11:31:50Z</time>
      </trkpt>
      <trkpt lat="47.70484" lon="6.68799">
        <ele>375.19</ele>
        <time>2021-06-23T11:31:57Z</time>
      </trkpt>
      <trkpt lat="47.70498" lon="6.68761">
        <ele>374.37</ele>
        <time>2021-06-23T11:32:04Z</time>
      </trkpt>
      <trkpt lat="47.70544" lon="6.68619">
        <ele>373.71</ele>
        <time>2021-06-23T11:32:11Z</time>
      </trkpt>
      <trkpt lat="47.70552" lon="6.68588">
        <ele>373.14</ele>
        <time>2021-06-23T11:32:18Z</time>
      </trkpt>
      <trkpt lat="47.7056" lon="6.68519">
        <ele>373</ele>
        <time>2021-06-23T11:32:25Z</time>
      </trkpt>
      <trkpt lat="47.70557" lon="6.68491">
        <ele>373</ele>
        <time>2021-06-23T11:32:32Z</time>
      </trkpt>
      <trkpt lat="47.70537" lon="6.68447">
        <ele>371.42</ele>
        <time>2021-06-23T11:32:39Z</time>
      </trkpt>
      <trkpt lat="47.70531" lon="6.68429">
        <ele>371.05</ele>
        <time>2021-06-23T11:32:46Z</time>
      </trkpt>
      <trkpt lat="47.70515" lon="6.68317">
        <ele>369</ele>
        <time>2021-06-23T11:32:52Z</time>
      </trkpt>
      <trkpt lat="47.70512" lon="6.68281">
        <ele>369</ele>
        <time>2021-06-23T11:32:59Z</time>
      </trkpt>
      <trkpt lat="47.70513" lon="6.68251">
        <ele>368.02</ele>
        <time>2021-06-23T11:33:06Z</time>
      </trkpt>
      <trkpt lat="47.70512" lon="6.68239">
        <ele>367.41</ele>
        <time>2021-06-23T11:33:13Z</time>
      </trkpt>
      <trkpt lat="47.70509" lon="6.68229">
        <ele>366.98</ele>
        <time>2021-06-23T11:33:20Z</time>
      </trkpt>
      <trkpt lat="47.70498" lon="6.68213">
        <ele>367.06</ele>
        <time>2021-06-23T11:33:27Z</time>
      </trkpt>
      <trkpt lat="47.70397" lon="6.68129">
        <ele>368.19</ele>
        <time>2021-06-23T11:33:34Z</time>
      </trkpt>
      <trkpt lat="47.70371" lon="6.68103">
        <ele>367.25</ele>
        <time>2021-06-23T11:33:41Z</time>
      </trkpt>
      <trkpt lat="47.7034" lon="6.6807">
        <ele>366.63</ele>
        <time>2021-06-23T11:33:48Z</time>
      </trkpt>
      <trkpt lat="47.70334" lon="6.68055">
        <ele>366.04</ele>
        <time>2021-06-23T11:33:55Z</time>
      </trkpt>
      <trkpt lat="47.70332" lon="6.68038">
        <ele>366.02</ele>
        <time>2021-06-23T11:34:01Z</time>
      </trkpt>
      <trkpt lat="47.70331" lon="6.67981">
        <ele>367.69</ele>
        <time>2021-06-23T11:34:08Z</time>
      </trkpt>
      <trkpt lat="47.70335" lon="6.67814">
        <ele>367.71</ele>
        <time>2021-06-23T11:34:15Z</time>
      </trkpt>
      <trkpt lat="47.70348" lon="6.67489">
        <ele>363.52</ele>
        <time>2021-06-23T11:34:22Z</time>
      </trkpt>
      <trkpt lat="47.70351" lon="6.67489">
        <ele>363.64</ele>
        <time>2021-06-23T11:34:27Z</time>
      </trkpt>
      <trkpt lat="47.7036" lon="6.67483">
        <ele>363.95</ele>
        <time>2021-06-23T11:34:32Z</time>
      </trkpt>
      <trkpt lat="47.70363" lon="6.67474">
        <ele>364.01</ele>
        <time>2021-06-23T11:34:36Z</time>
      </trkpt>
      <trkpt lat="47.70363" lon="6.67463">
        <ele>363.66</ele>
        <time>2021-06-23T11:34:41Z</time>
      </trkpt>
      <trkpt lat="47.70357" lon="6.67453">
        <ele>363.16</ele>
        <time>2021-06-23T11:34:46Z</time>
      </trkpt>
      <trkpt lat="47.70352" lon="6.6745">
        <ele>362.9</ele>
        <time>2021-06-23T11:34:50Z</time>
      </trkpt>
      <trkpt lat="47.7036" lon="6.67258">
        <ele>358.62</ele>
        <time>2021-06-23T11:34:55Z</time>
      </trkpt>
      <trkpt lat="47.70359" lon="6.67201">
        <ele>359.86</ele>
        <time>2021-06-23T11:35:00Z</time>
      </trkpt>
      <trkpt lat="47.7035" lon="6.67127">
        <ele>359.38</ele>
        <time>2021-06-23T11:35:04Z</time>
      </trkpt>
      <trkpt lat="47.70338" lon="6.6707">
        <ele>360.13</ele>
        <time>2021-06-23T11:35:09Z</time>
      </trkpt>
      <trkpt lat="47.70296" lon="6.66934">
        <ele>361.2</ele>
        <time>2021-06-23T11:35:14Z</time>
      </trkpt>
      <trkpt lat="47.70249" lon="6.66805">
        <ele>362</ele>
        <time>2021-06-23T11:35:19Z</time>
      </trkpt>
      <trkpt lat="47.70226" lon="6.66711">
        <ele>360</ele>
        <time>2021-06-23T11:35:23Z</time>
      </trkpt>
      <trkpt lat="47.70216" lon="6.66648">
        <ele>360.79</ele>
        <time>2021-06-23T11:35:28Z</time>
      </trkpt>
      <trkpt lat="47.70175" lon="6.66443">
        <ele>359.23</ele>
        <time>2021-06-23T11:35:33Z</time>
      </trkpt>
      <trkpt lat="47.7016" lon="6.66388">
        <ele>358.86</ele>
        <time>2021-06-23T11:35:37Z</time>
      </trkpt>
      <trkpt lat="47.70103" lon="6.66227">
        <ele>355.71</ele>
        <time>2021-06-23T11:35:42Z</time>
      </trkpt>
      <trkpt lat="47.7007" lon="6.66131">
        <ele>355.21</ele>
        <time>2021-06-23T11:35:47Z</time>
      </trkpt>
      <trkpt lat="47.70057" lon="6.66053">
        <ele>356.04</ele>
        <time>2021-06-23T11:35:51Z</time>
      </trkpt>
      <trkpt lat="47.70045" lon="6.65949">
        <ele>355.93</ele>
        <time>2021-06-23T11:35:56Z</time>
      </trkpt>
      <trkpt lat="47.70023" lon="6.65807">
        <ele>356</ele>
        <time>2021-06-23T11:36:01Z</time>
      </trkpt>
      <trkpt lat="47.70003" lon="6.65733">
        <ele>355.89</ele>
        <time>2021-06-23T11:36:06Z</time>
      </trkpt>
      <trkpt lat="47.69938" lon="6.65574">
        <ele>356.17</ele>
        <time>2021-06-23T11:36:10Z</time>
      </trkpt>
      <trkpt lat="47.69925" lon="6.65529">
        <ele>353.06</ele>
        <time>2021-06-23T11:36:15Z</time>
      </trkpt>
      <trkpt lat="47.69909" lon="6.65453">
        <ele>351.29</ele>
        <time>2021-06-23T11:36:20Z</time>
      </trkpt>
      <trkpt lat="47.69766" lon="6.64759">
        <ele>348.41</ele>
        <time>2021-06-23T11:36:24Z</time>
      </trkpt>
      <trkpt lat="47.69724" lon="6.64361">
        <ele>345.02</ele>
        <time>2021-06-23T11:36:29Z</time>
      </trkpt>
      <trkpt lat="47.69723" lon="6.64344">
        <ele>345.61</ele>
        <time>2021-06-23T11:36:34Z</time>
      </trkpt>
      <trkpt lat="47.69725" lon="6.64314">
        <ele>346.63</ele>
        <time>2021-06-23T11:36:39Z</time>
      </trkpt>
      <trkpt lat="47.69728" lon="6.64292">
        <ele>346.33</ele>
        <time>2021-06-23T11:36:43Z</time>
      </trkpt>
      <trkpt lat="47.69728" lon="6.64277">
        <ele>345.79</ele>
        <time>2021-06-23T11:36:48Z</time>
      </trkpt>
      <trkpt lat="47.69725" lon="6.64262">
        <ele>345.4</ele>
        <time>2021-06-23T11:36:53Z</time>
      </trkpt>
      <trkpt lat="47.6971" lon="6.64232">
        <ele>345.16</ele>
        <time>2021-06-23T11:36:57Z</time>
      </trkpt>
      <trkpt lat="47.697" lon="6.64218">
        <ele>345</ele>
        <time>2021-06-23T11:37:02Z</time>
      </trkpt>
      <trkpt lat="47.6976" lon="6.63936">
        <ele>342.68</ele>
        <time>2021-06-23T11:37:13Z</time>
      </trkpt>
      <trkpt lat="47.69846" lon="6.63543">
        <ele>340.46</ele>
        <time>2021-06-23T11:37:25Z</time>
      </trkpt>
      <trkpt lat="47.69874" lon="6.63405">
        <ele>342.8</ele>
        <time>2021-06-23T11:37:36Z</time>
      </trkpt>
      <trkpt lat="47.69884" lon="6.63369">
        <ele>342.19</ele>
        <time>2021-06-23T11:37:47Z</time>
      </trkpt>
      <trkpt lat="47.69893" lon="6.63348">
        <ele>341.86</ele>
        <time>2021-06-23T11:37:59Z</time>
      </trkpt>
      <trkpt lat="47.69901" lon="6.63334">
        <ele>341.55</ele>
        <time>2021-06-23T11:38:10Z</time>
      </trkpt>
      <trkpt lat="47.69913" lon="6.63324">
        <ele>341.14</ele>
        <time>2021-06-23T11:38:21Z</time>
      </trkpt>
      <trkpt lat="47.69969" lon="6.63296">
        <ele>341.22</ele>
        <time>2021-06-23T11:38:33Z</time>
      </trkpt>
      <trkpt lat="47.70039" lon="6.63274">
        <ele>347.78</ele>
        <time>2021-06-23T11:38:44Z</time>
      </trkpt>
      <trkpt lat="47.70041" lon="6.6326">
        <ele>347.94</ele>
        <time>2021-06-23T11:38:50Z</time>
      </trkpt>
      <trkpt lat="47.70028" lon="6.6316">
        <ele>345.76</ele>
        <time>2021-06-23T11:38:57Z</time>
      </trkpt>
      <trkpt lat="47.70023" lon="6.63055">
        <ele>344</ele>
        <time>2021-06-23T11:39:04Z</time>
      </trkpt>
      <trkpt lat="47.7007" lon="6.63055">
        <ele>346.55</ele>
        <time>2021-06-23T11:39:07Z</time>
      </trkpt>
      <trkpt lat="47.70084" lon="6.63059">
        <ele>347.89</ele>
        <time>2021-06-23T11:39:11Z</time>
      </trkpt>
      <trkpt lat="47.70113" lon="6.63086">
        <ele>348.94</ele>
        <time>2021-06-23T11:39:15Z</time>
      </trkpt>
      <trkpt lat="47.70123" lon="6.63089">
        <ele>349.41</ele>
        <time>2021-06-23T11:39:18Z</time>
      </trkpt>
      <trkpt lat="47.70135" lon="6.63088">
        <ele>350.43</ele>
        <time>2021-06-23T11:39:22Z</time>
      </trkpt>
      <trkpt lat="47.70158" lon="6.63071">
        <ele>353.55</ele>
        <time>2021-06-23T11:39:26Z</time>
      </trkpt>
      <trkpt lat="47.70246" lon="6.62984">
        <ele>367.26</ele>
        <time>2021-06-23T11:39:30Z</time>
      </trkpt>
      <trkpt lat="47.70268" lon="6.62954">
        <ele>371.2</ele>
        <time>2021-06-23T11:39:33Z</time>
      </trkpt>
      <trkpt lat="47.70335" lon="6.62874">
        <ele>380.21</ele>
        <time>2021-06-23T11:39:37Z</time>
      </trkpt>
      <trkpt lat="47.70395" lon="6.62817">
        <ele>395.39</ele>
        <time>2021-06-23T11:39:41Z</time>
      </trkpt>
      <trkpt lat="47.70431" lon="6.62783">
        <ele>403.24</ele>
        <time>2021-06-23T11:39:44Z</time>
      </trkpt>
      <trkpt lat="47.70521" lon="6.62712">
        <ele>417.45</ele>
        <time>2021-06-23T11:39:48Z</time>
      </trkpt>
      <trkpt lat="47.7055" lon="6.62684">
        <ele>421.35</ele>
        <time>2021-06-23T11:39:52Z</time>
      </trkpt>
      <trkpt lat="47.70574" lon="6.6265">
        <ele>425.36</ele>
        <time>2021-06-23T11:39:56Z</time>
      </trkpt>
      <trkpt lat="47.70604" lon="6.62596">
        <ele>432.76</ele>
        <time>2021-06-23T11:39:59Z</time>
      </trkpt>
      <trkpt lat="47.70616" lon="6.62549">
        <ele>432.93</ele>
        <time>2021-06-23T11:40:03Z</time>
      </trkpt>
      <trkpt lat="47.70617" lon="6.62521">
        <ele>431.96</ele>
        <time>2021-06-23T11:40:07Z</time>
      </trkpt>
      <trkpt lat="47.70616" lon="6.62483">
        <ele>430.69</ele>
        <time>2021-06-23T11:40:10Z</time>
      </trkpt>
      <trkpt lat="47.70608" lon="6.62455">
        <ele>428.72</ele>
        <time>2021-06-23T11:40:14Z</time>
      </trkpt>
      <trkpt lat="47.70603" lon="6.62424">
        <ele>426.52</ele>
        <time>2021-06-23T11:40:18Z</time>
      </trkpt>
      <trkpt lat="47.70606" lon="6.62358">
        <ele>427.14</ele>
        <time>2021-06-23T11:40:22Z</time>
      </trkpt>
      <trkpt lat="47.70603" lon="6.62337">
        <ele>428.33</ele>
        <time>2021-06-23T11:40:25Z</time>
      </trkpt>
      <trkpt lat="47.70564" lon="6.62234">
        <ele>438.2</ele>
        <time>2021-06-23T11:40:29Z</time>
      </trkpt>
      <trkpt lat="47.70553" lon="6.62223">
        <ele>441.36</ele>
        <time>2021-06-23T11:40:33Z</time>
      </trkpt>
      <trkpt lat="47.70514" lon="6.62208">
        <ele>447.03</ele>
        <time>2021-06-23T11:40:36Z</time>
      </trkpt>
      <trkpt lat="47.7043" lon="6.62189">
        <ele>454.23</ele>
        <time>2021-06-23T11:40:40Z</time>
      </trkpt>
      <trkpt lat="47.7041" lon="6.6218">
        <ele>455.07</ele>
        <time>2021-06-23T11:40:44Z</time>
      </trkpt>
      <trkpt lat="47.70327" lon="6.6208">
        <ele>449.46</ele>
        <time>2021-06-23T11:40:48Z</time>
      </trkpt>
      <trkpt lat="47.70299" lon="6.62054">
        <ele>447.69</ele>
        <time>2021-06-23T11:40:51Z</time>
      </trkpt>
      <trkpt lat="47.70298" lon="6.62052">
        <ele>447.2</ele>
        <time>2021-06-23T11:40:55Z</time>
      </trkpt>
      <trkpt lat="47.70298" lon="6.62052">
        <ele>447.2</ele>
        <time>2021-06-23T11:40:55Z</time>
      </trkpt>
      <trkpt lat="47.70299" lon="6.62054">
        <ele>447.69</ele>
        <time>2021-06-23T11:40:59Z</time>
      </trkpt>
      <trkpt lat="47.70327" lon="6.6208">
        <ele>449.46</ele>
        <time>2021-06-23T11:41:02Z</time>
      </trkpt>
      <trkpt lat="47.7041" lon="6.6218">
        <ele>455.07</ele>
        <time>2021-06-23T11:41:06Z</time>
      </trkpt>
      <trkpt lat="47.7043" lon="6.62189">
        <ele>454.23</ele>
        <time>2021-06-23T11:41:10Z</time>
      </trkpt>
      <trkpt lat="47.70514" lon="6.62208">
        <ele>447.03</ele>
        <time>2021-06-23T11:41:14Z</time>
      </trkpt>
      <trkpt lat="47.70553" lon="6.62223">
        <ele>441.36</ele>
        <time>2021-06-23T11:41:17Z</time>
      </trkpt>
      <trkpt lat="47.70564" lon="6.62234">
        <ele>438.2</ele>
        <time>2021-06-23T11:41:21Z</time>
      </trkpt>
      <trkpt lat="47.70603" lon="6.62337">
        <ele>428.33</ele>
        <time>2021-06-23T11:41:25Z</time>
      </trkpt>
      <trkpt lat="47.70606" lon="6.62358">
        <ele>427.14</ele>
        <time>2021-06-23T11:41:28Z</time>
      </trkpt>
      <trkpt lat="47.70603" lon="6.62424">
        <ele>426.52</ele>
        <time>2021-06-23T11:41:32Z</time>
      </trkpt>
      <trkpt lat="47.70608" lon="6.62455">
        <ele>428.72</ele>
        <time>2021-06-23T11:41:36Z</time>
      </trkpt>
      <trkpt lat="47.70616" lon="6.62483">
        <ele>430.69</ele>
        <time>2021-06-23T11:41:40Z</time>
      </trkpt>
      <trkpt lat="47.70617" lon="6.62521">
        <ele>431.96</ele>
        <time>2021-06-23T11:41:43Z</time>
      </trkpt>
      <trkpt lat="47.70616" lon="6.62549">
        <ele>432.93</ele>
        <time>2021-06-23T11:41:47Z</time>
      </trkpt>
      <trkpt lat="47.70604" lon="6.62596">
        <ele>432.76</ele>
        <time>2021-06-23T11:41:51Z</time>
      </trkpt>
      <trkpt lat="47.70574" lon="6.6265">
        <ele>425.36</ele>
        <time>2021-06-23T11:41:55Z</time>
      </trkpt>
      <trkpt lat="47.7055" lon="6.62684">
        <ele>421.35</ele>
        <time>2021-06-23T11:41:58Z</time>
      </trkpt>
      <trkpt lat="47.70521" lon="6.62712">
        <ele>417.45</ele>
        <time>2021-06-23T11:42:02Z</time>
      </trkpt>
      <trkpt lat="47.70431" lon="6.62783">
        <ele>403.24</ele>
        <time>2021-06-23T11:42:06Z</time>
      </trkpt>
      <trkpt lat="47.70395" lon="6.62817">
        <ele>395.39</ele>
        <time>2021-06-23T11:42:09Z</time>
      </trkpt>
      <trkpt lat="47.70335" lon="6.62874">
        <ele>380.21</ele>
        <time>2021-06-23T11:42:13Z</time>
      </trkpt>
      <trkpt lat="47.70268" lon="6.62954">
        <ele>371.2</ele>
        <time>2021-06-23T11:42:17Z</time>
      </trkpt>
      <trkpt lat="47.70246" lon="6.62984">
        <ele>367.26</ele>
        <time>2021-06-23T11:42:21Z</time>
      </trkpt>
      <trkpt lat="47.70158" lon="6.63071">
        <ele>353.55</ele>
        <time>2021-06-23T11:42:24Z</time>
      </trkpt>
      <trkpt lat="47.70135" lon="6.63088">
        <ele>350.43</ele>
        <time>2021-06-23T11:42:28Z</time>
      </trkpt>
      <trkpt lat="47.70123" lon="6.63089">
        <ele>349.41</ele>
        <time>2021-06-23T11:42:32Z</time>
      </trkpt>
      <trkpt lat="47.70113" lon="6.63086">
        <ele>348.94</ele>
        <time>2021-06-23T11:42:35Z</time>
      </trkpt>
      <trkpt lat="47.70084" lon="6.63059">
        <ele>347.89</ele>
        <time>2021-06-23T11:42:39Z</time>
      </trkpt>
      <trkpt lat="47.7007" lon="6.63055">
        <ele>346.55</ele>
        <time>2021-06-23T11:42:43Z</time>
      </trkpt>
      <trkpt lat="47.70023" lon="6.63055">
        <ele>344</ele>
        <time>2021-06-23T11:42:47Z</time>
      </trkpt>
      <trkpt lat="47.70028" lon="6.6316">
        <ele>345.76</ele>
        <time>2021-06-23T11:42:53Z</time>
      </trkpt>
      <trkpt lat="47.70041" lon="6.6326">
        <ele>347.94</ele>
        <time>2021-06-23T11:43:00Z</time>
      </trkpt>
      <trkpt lat="47.70039" lon="6.63274">
        <ele>347.78</ele>
        <time>2021-06-23T11:43:06Z</time>
      </trkpt>
      <trkpt lat="47.69969" lon="6.63296">
        <ele>341.22</ele>
        <time>2021-06-23T11:43:18Z</time>
      </trkpt>
      <trkpt lat="47.69913" lon="6.63324">
        <ele>341.14</ele>
        <time>2021-06-23T11:43:29Z</time>
      </trkpt>
      <trkpt lat="47.69901" lon="6.63334">
        <ele>341.55</ele>
        <time>2021-06-23T11:43:40Z</time>
      </trkpt>
      <trkpt lat="47.69893" lon="6.63348">
        <ele>341.86</ele>
        <time>2021-06-23T11:43:52Z</time>
      </trkpt>
      <trkpt lat="47.69884" lon="6.63369">
        <ele>342.19</ele>
        <time>2021-06-23T11:44:03Z</time>
      </trkpt>
      <trkpt lat="47.69874" lon="6.63405">
        <ele>342.8</ele>
        <time>2021-06-23T11:44:15Z</time>
      </trkpt>
      <trkpt lat="47.69846" lon="6.63543">
        <ele>340.46</ele>
        <time>2021-06-23T11:44:26Z</time>
      </trkpt>
      <trkpt lat="47.6976" lon="6.63936">
        <ele>342.68</ele>
        <time>2021-06-23T11:44:38Z</time>
      </trkpt>
      <trkpt lat="47.69698" lon="6.64227">
        <ele>345.16</ele>
        <time>2021-06-23T11:44:49Z</time>
      </trkpt>
      <trkpt lat="47.69699" lon="6.64235">
        <ele>345.4</ele>
        <time>2021-06-23T11:44:54Z</time>
      </trkpt>
      <trkpt lat="47.69702" lon="6.64243">
        <ele>345.55</ele>
        <time>2021-06-23T11:45:00Z</time>
      </trkpt>
      <trkpt lat="47.69706" lon="6.64248">
        <ele>345.53</ele>
        <time>2021-06-23T11:45:05Z</time>
      </trkpt>
      <trkpt lat="47.6972" lon="6.64271">
        <ele>345.78</ele>
        <time>2021-06-23T11:45:10Z</time>
      </trkpt>
      <trkpt lat="47.69722" lon="6.6428">
        <ele>346.08</ele>
        <time>2021-06-23T11:45:16Z</time>
      </trkpt>
      <trkpt lat="47.69725" lon="6.64314">
        <ele>346.63</ele>
        <time>2021-06-23T11:45:21Z</time>
      </trkpt>
      <trkpt lat="47.69723" lon="6.64344">
        <ele>345.61</ele>
        <time>2021-06-23T11:45:27Z</time>
      </trkpt>
      <trkpt lat="47.69724" lon="6.64361">
        <ele>345.02</ele>
        <time>2021-06-23T11:45:32Z</time>
      </trkpt>
      <trkpt lat="47.69766" lon="6.64759">
        <ele>348.41</ele>
        <time>2021-06-23T11:45:37Z</time>
      </trkpt>
      <trkpt lat="47.69909" lon="6.65453">
        <ele>351.29</ele>
        <time>2021-06-23T11:45:43Z</time>
      </trkpt>
      <trkpt lat="47.69925" lon="6.65529">
        <ele>353.06</ele>
        <time>2021-06-23T11:45:48Z</time>
      </trkpt>
      <trkpt lat="47.69938" lon="6.65574">
        <ele>356.17</ele>
        <time>2021-06-23T11:45:53Z</time>
      </trkpt>
      <trkpt lat="47.70003" lon="6.65733">
        <ele>355.89</ele>
        <time>2021-06-23T11:45:59Z</time>
      </trkpt>
      <trkpt lat="47.70023" lon="6.65807">
        <ele>356</ele>
        <time>2021-06-23T11:46:04Z</time>
      </trkpt>
      <trkpt lat="47.70045" lon="6.65949">
        <ele>355.93</ele>
        <time>2021-06-23T11:46:10Z</time>
      </trkpt>
      <trkpt lat="47.70057" lon="6.66053">
        <ele>356.04</ele>
        <time>2021-06-23T11:46:15Z</time>
      </trkpt>
      <trkpt lat="47.7007" lon="6.66131">
        <ele>355.21</ele>
        <time>2021-06-23T11:46:20Z</time>
      </trkpt>
      <trkpt lat="47.70103" lon="6.66227">
        <ele>355.71</ele>
        <time>2021-06-23T11:46:26Z</time>
      </trkpt>
      <trkpt lat="47.7016" lon="6.66388">
        <ele>358.86</ele>
        <time>2021-06-23T11:46:31Z</time>
      </trkpt>
      <trkpt lat="47.70175" lon="6.66443">
        <ele>359.23</ele>
        <time>2021-06-23T11:46:36Z</time>
      </trkpt>
      <trkpt lat="47.70216" lon="6.66648">
        <ele>360.79</ele>
        <time>2021-06-23T11:46:42Z</time>
      </trkpt>
      <trkpt lat="47.70226" lon="6.66711">
        <ele>360</ele>
        <time>2021-06-23T11:46:47Z</time>
      </trkpt>
      <trkpt lat="47.70249" lon="6.66805">
        <ele>362</ele>
        <time>2021-06-23T11:46:53Z</time>
      </trkpt>
      <trkpt lat="47.70296" lon="6.66934">
        <ele>361.2</ele>
        <time>2021-06-23T11:46:58Z</time>
      </trkpt>
      <trkpt lat="47.70338" lon="6.6707">
        <ele>360.13</ele>
        <time>2021-06-23T11:47:03Z</time>
      </trkpt>
      <trkpt lat="47.7035" lon="6.67127">
        <ele>359.38</ele>
        <time>2021-06-23T11:47:09Z</time>
      </trkpt>
      <trkpt lat="47.70359" lon="6.67201">
        <ele>359.86</ele>
        <time>2021-06-23T11:47:14Z</time>
      </trkpt>
      <trkpt lat="47.7036" lon="6.67258">
        <ele>358.62</ele>
        <time>2021-06-23T11:47:19Z</time>
      </trkpt>
      <trkpt lat="47.70352" lon="6.6745">
        <ele>362.9</ele>
        <time>2021-06-23T11:47:25Z</time>
      </trkpt>
      <trkpt lat="47.70347" lon="6.67451">
        <ele>362.73</ele>
        <time>2021-06-23T11:47:31Z</time>
      </trkpt>
      <trkpt lat="47.70339" lon="6.6746">
        <ele>362.76</ele>
        <time>2021-06-23T11:47:37Z</time>
      </trkpt>
      <trkpt lat="47.70337" lon="6.6747">
        <ele>363.05</ele>
        <time>2021-06-23T11:47:42Z</time>
      </trkpt>
      <trkpt lat="47.70338" lon="6.67477">
        <ele>363.17</ele>
        <time>2021-06-23T11:47:48Z</time>
      </trkpt>
      <trkpt lat="47.70344" lon="6.67486">
        <ele>363.37</ele>
        <time>2021-06-23T11:47:54Z</time>
      </trkpt>
      <trkpt lat="47.70348" lon="6.67489">
        <ele>363.52</ele>
        <time>2021-06-23T11:48:00Z</time>
      </trkpt>
      <trkpt lat="47.70335" lon="6.67814">
        <ele>367.71</ele>
        <time>2021-06-23T11:48:06Z</time>
      </trkpt>
      <trkpt lat="47.70331" lon="6.67981">
        <ele>367.69</ele>
        <time>2021-06-23T11:48:12Z</time>
      </trkpt>
      <trkpt lat="47.70332" lon="6.68038">
        <ele>366.02</ele>
        <time>2021-06-23T11:48:17Z</time>
      </trkpt>
      <trkpt lat="47.70334" lon="6.68055">
        <ele>366.04</ele>
        <time>2021-06-23T11:48:23Z</time>
      </trkpt>
      <trkpt lat="47.7034" lon="6.6807">
        <ele>366.63</ele>
        <time>2021-06-23T11:48:29Z</time>
      </trkpt>
      <trkpt lat="47.70371" lon="6.68103">
        <ele>367.25</ele>
        <time>2021-06-23T11:48:35Z</time>
      </trkpt>
      <trkpt lat="47.70397" lon="6.68129">
        <ele>368.19</ele>
        <time>2021-06-23T11:48:41Z</time>
      </trkpt>
      <trkpt lat="47.70498" lon="6.68213">
        <ele>367.06</ele>
        <time>2021-06-23T11:48:47Z</time>
      </trkpt>
      <trkpt lat="47.70509" lon="6.68229">
        <ele>366.98</ele>
        <time>2021-06-23T11:48:52Z</time>
      </trkpt>
      <trkpt lat="47.70512" lon="6.68239">
        <ele>367.41</ele>
        <time>2021-06-23T11:48:58Z</time>
      </trkpt>
      <trkpt lat="47.70513" lon="6.68251">
        <ele>368.02</ele>
        <time>2021-06-23T11:49:04Z</time>
      </trkpt>
      <trkpt lat="47.70512" lon="6.68281">
        <ele>369</ele>
        <time>2021-06-23T11:49:10Z</time>
      </trkpt>
      <trkpt lat="47.70515" lon="6.68317">
        <ele>369</ele>
        <time>2021-06-23T11:49:16Z</time>
      </trkpt>
      <trkpt lat="47.70531" lon="6.68429">
        <ele>371.05</ele>
        <time>2021-06-23T11:49:22Z</time>
      </trkpt>
      <trkpt lat="47.70537" lon="6.68447">
        <ele>371.42</ele>
        <time>2021-06-23T11:49:27Z</time>
      </trkpt>
      <trkpt lat="47.70557" lon="6.68491">
        <ele>373</ele>
        <time>2021-06-23T11:49:33Z</time>
      </trkpt>
      <trkpt lat="47.7056" lon="6.68519">
        <ele>373</ele>
        <time>2021-06-23T11:49:39Z</time>
      </trkpt>
      <trkpt lat="47.70552" lon="6.68588">
        <ele>373.14</ele>
        <time>2021-06-23T11:49:45Z</time>
      </trkpt>
      <trkpt lat="47.70544" lon="6.68619">
        <ele>373.71</ele>
        <time>2021-06-23T11:49:51Z</time>
      </trkpt>
      <trkpt lat="47.70498" lon="6.68761">
        <ele>374.37</ele>
        <time>2021-06-23T11:49:57Z</time>
      </trkpt>
      <trkpt lat="47.70484" lon="6.68799">
        <ele>375.19</ele>
        <time>2021-06-23T11:50:02Z</time>
      </trkpt>
      <trkpt lat="47.70421" lon="6.68933">
        <ele>376.17</ele>
        <time>2021-06-23T11:50:08Z</time>
      </trkpt>
      <trkpt lat="47.70327" lon="6.69312">
        <ele>378.23</ele>
        <time>2021-06-23T11:50:14Z</time>
      </trkpt>
      <trkpt lat="47.70323" lon="6.69349">
        <ele>378.39</ele>
        <time>2021-06-23T11:50:20Z</time>
      </trkpt>
      <trkpt lat="47.70302" lon="6.70001">
        <ele>384.97</ele>
        <time>2021-06-23T11:50:26Z</time>
      </trkpt>
      <trkpt lat="47.70297" lon="6.70029">
        <ele>384</ele>
        <time>2021-06-23T11:50:32Z</time>
      </trkpt>
      <trkpt lat="47.70288" lon="6.70054">
        <ele>384</ele>
        <time>2021-06-23T11:50:38Z</time>
      </trkpt>
      <trkpt lat="47.70281" lon="6.70078">
        <ele>384</ele>
        <time>2021-06-23T11:50:43Z</time>
      </trkpt>
      <trkpt lat="47.70279" lon="6.701">
        <ele>384.02</ele>
        <time>2021-06-23T11:50:49Z</time>
      </trkpt>
      <trkpt lat="47.7028" lon="6.70143">
        <ele>385.39</ele>
        <time>2021-06-23T11:50:55Z</time>
      </trkpt>
      <trkpt lat="47.703" lon="6.7029">
        <ele>387</ele>
        <time>2021-06-23T11:51:01Z</time>
      </trkpt>
      <trkpt lat="47.703" lon="6.70316">
        <ele>387</ele>
        <time>2021-06-23T11:51:07Z</time>
      </trkpt>
      <trkpt lat="47.70298" lon="6.70358">
        <ele>387</ele>
        <time>2021-06-23T11:51:13Z</time>
      </trkpt>
      <trkpt lat="47.7029" lon="6.70441">
        <ele>389.37</ele>
        <time>2021-06-23T11:51:18Z</time>
      </trkpt>
      <trkpt lat="47.70288" lon="6.70532">
        <ele>387.65</ele>
        <time>2021-06-23T11:51:24Z</time>
      </trkpt>
      <trkpt lat="47.70287" lon="6.70681">
        <ele>387.67</ele>
        <time>2021-06-23T11:51:30Z</time>
      </trkpt>
      <trkpt lat="47.7028" lon="6.71047">
        <ele>389.34</ele>
        <time>2021-06-23T11:51:36Z</time>
      </trkpt>
      <trkpt lat="47.7028" lon="6.71047">
        <ele>389.34</ele>
        <time>2021-06-23T11:51:36Z</time>
      </trkpt>
      <trkpt lat="47.70279" lon="6.71106">
        <ele>391.02</ele>
        <time>2021-06-23T11:51:40Z</time>
      </trkpt>
      <trkpt lat="47.70287" lon="6.71191">
        <ele>391.46</ele>
        <time>2021-06-23T11:51:44Z</time>
      </trkpt>
      <trkpt lat="47.70335" lon="6.71459">
        <ele>394.74</ele>
        <time>2021-06-23T11:51:48Z</time>
      </trkpt>
      <trkpt lat="47.7042" lon="6.71946">
        <ele>415.48</ele>
        <time>2021-06-23T11:51:51Z</time>
      </trkpt>
      <trkpt lat="47.7046" lon="6.72112">
        <ele>410.43</ele>
        <time>2021-06-23T11:51:55Z</time>
      </trkpt>
      <trkpt lat="47.70476" lon="6.72151">
        <ele>408.24</ele>
        <time>2021-06-23T11:51:59Z</time>
      </trkpt>
      <trkpt lat="47.7049" lon="6.72175">
        <ele>407.14</ele>
        <time>2021-06-23T11:52:03Z</time>
      </trkpt>
      <trkpt lat="47.70503" lon="6.72186">
        <ele>407.24</ele>
        <time>2021-06-23T11:52:07Z</time>
      </trkpt>
      <trkpt lat="47.70518" lon="6.72193">
        <ele>407.28</ele>
        <time>2021-06-23T11:52:11Z</time>
      </trkpt>
      <trkpt lat="47.70576" lon="6.72201">
        <ele>407.21</ele>
        <time>2021-06-23T11:52:15Z</time>
      </trkpt>
      <trkpt lat="47.7059" lon="6.72208">
        <ele>405.62</ele>
        <time>2021-06-23T11:52:19Z</time>
      </trkpt>
      <trkpt lat="47.70606" lon="6.72228">
        <ele>403.32</ele>
        <time>2021-06-23T11:52:23Z</time>
      </trkpt>
      <trkpt lat="47.70645" lon="6.72294">
        <ele>403.48</ele>
        <time>2021-06-23T11:52:26Z</time>
      </trkpt>
      <trkpt lat="47.7083" lon="6.72624">
        <ele>407.19</ele>
        <time>2021-06-23T11:52:30Z</time>
      </trkpt>
      <trkpt lat="47.70843" lon="6.72657">
        <ele>407.65</ele>
        <time>2021-06-23T11:52:34Z</time>
      </trkpt>
      <trkpt lat="47.70848" lon="6.72672">
        <ele>408</ele>
        <time>2021-06-23T11:52:38Z</time>
      </trkpt>
      <trkpt lat="47.70847" lon="6.72678">
        <ele>408</ele>
        <time>2021-06-23T11:52:43Z</time>
      </trkpt>
      <trkpt lat="47.70848" lon="6.72689">
        <ele>408</ele>
        <time>2021-06-23T11:52:49Z</time>
      </trkpt>
      <trkpt lat="47.70851" lon="6.72694">
        <ele>408</ele>
        <time>2021-06-23T11:52:54Z</time>
      </trkpt>
      <trkpt lat="47.70859" lon="6.72698">
        <ele>407.99</ele>
        <time>2021-06-23T11:52:59Z</time>
      </trkpt>
      <trkpt lat="47.70862" lon="6.72698">
        <ele>408</ele>
        <time>2021-06-23T11:53:05Z</time>
      </trkpt>
      <trkpt lat="47.70872" lon="6.72709">
        <ele>408.21</ele>
        <time>2021-06-23T11:53:10Z</time>
      </trkpt>
      <trkpt lat="47.70892" lon="6.72736">
        <ele>409</ele>
        <time>2021-06-23T11:53:15Z</time>
      </trkpt>
      <trkpt lat="47.71019" lon="6.72952">
        <ele>413.58</ele>
        <time>2021-06-23T11:53:20Z</time>
      </trkpt>
      <trkpt lat="47.71065" lon="6.73033">
        <ele>415.77</ele>
        <time>2021-06-23T11:53:26Z</time>
      </trkpt>
      <trkpt lat="47.71107" lon="6.7311">
        <ele>419.37</ele>
        <time>2021-06-23T11:53:31Z</time>
      </trkpt>
      <trkpt lat="47.7117" lon="6.73216">
        <ele>422.89</ele>
        <time>2021-06-23T11:53:36Z</time>
      </trkpt>
      <trkpt lat="47.7119" lon="6.73247">
        <ele>422.88</ele>
        <time>2021-06-23T11:53:42Z</time>
      </trkpt>
      <trkpt lat="47.71258" lon="6.73335">
        <ele>421.92</ele>
        <time>2021-06-23T11:53:47Z</time>
      </trkpt>
      <trkpt lat="47.71279" lon="6.73356">
        <ele>421.2</ele>
        <time>2021-06-23T11:53:52Z</time>
      </trkpt>
      <trkpt lat="47.713" lon="6.73372">
        <ele>419.75</ele>
        <time>2021-06-23T11:53:58Z</time>
      </trkpt>
      <trkpt lat="47.713" lon="6.73372">
        <ele>419.75</ele>
        <time>2021-06-23T11:53:58Z</time>
      </trkpt>
      <trkpt lat="47.71382" lon="6.73436">
        <ele>418.3</ele>
        <time>2021-06-23T11:54:02Z</time>
      </trkpt>
      <trkpt lat="47.71398" lon="6.73446">
        <ele>418.65</ele>
        <time>2021-06-23T11:54:07Z</time>
      </trkpt>
      <trkpt lat="47.71444" lon="6.73463">
        <ele>421.63</ele>
        <time>2021-06-23T11:54:12Z</time>
      </trkpt>
      <trkpt lat="47.71456" lon="6.73472">
        <ele>422.39</ele>
        <time>2021-06-23T11:54:16Z</time>
      </trkpt>
      <trkpt lat="47.71491" lon="6.73507">
        <ele>422.76</ele>
        <time>2021-06-23T11:54:21Z</time>
      </trkpt>
      <trkpt lat="47.71518" lon="6.73517">
        <ele>421.75</ele>
        <time>2021-06-23T11:54:26Z</time>
      </trkpt>
      <trkpt lat="47.71543" lon="6.73536">
        <ele>420.7</ele>
        <time>2021-06-23T11:54:31Z</time>
      </trkpt>
      <trkpt lat="47.71619" lon="6.7362">
        <ele>419.28</ele>
        <time>2021-06-23T11:54:35Z</time>
      </trkpt>
      <trkpt lat="47.71634" lon="6.73628">
        <ele>419.81</ele>
        <time>2021-06-23T11:54:40Z</time>
      </trkpt>
      <trkpt lat="47.71647" lon="6.73629">
        <ele>420.3</ele>
        <time>2021-06-23T11:54:45Z</time>
      </trkpt>
      <trkpt lat="47.71672" lon="6.73623">
        <ele>421.3</ele>
        <time>2021-06-23T11:54:49Z</time>
      </trkpt>
      <trkpt lat="47.71704" lon="6.73623">
        <ele>422.96</ele>
        <time>2021-06-23T11:54:54Z</time>
      </trkpt>
      <trkpt lat="47.71719" lon="6.73634">
        <ele>423.85</ele>
        <time>2021-06-23T11:54:59Z</time>
      </trkpt>
      <trkpt lat="47.71725" lon="6.73641">
        <ele>424.15</ele>
        <time>2021-06-23T11:55:00Z</time>
      </trkpt>
      <trkpt lat="47.71731" lon="6.73638">
        <ele>424.32</ele>
        <time>2021-06-23T11:55:01Z</time>
      </trkpt>
      <trkpt lat="47.71735" lon="6.73629">
        <ele>424.3</ele>
        <time>2021-06-23T11:55:03Z</time>
      </trkpt>
      <trkpt lat="47.71746" lon="6.73614">
        <ele>424.1</ele>
        <time>2021-06-23T11:55:04Z</time>
      </trkpt>
      <trkpt lat="47.7177" lon="6.73611">
        <ele>424.73</ele>
        <time>2021-06-23T11:55:11Z</time>
      </trkpt>
      <trkpt lat="47.71785" lon="6.73615">
        <ele>425.4</ele>
        <time>2021-06-23T11:55:18Z</time>
      </trkpt>
      <trkpt lat="47.71838" lon="6.73636">
        <ele>426.74</ele>
        <time>2021-06-23T11:55:24Z</time>
      </trkpt>
      <trkpt lat="47.7186" lon="6.73639">
        <ele>426.05</ele>
        <time>2021-06-23T11:55:31Z</time>
      </trkpt>
      <trkpt lat="47.71879" lon="6.73636">
        <ele>426.61</ele>
        <time>2021-06-23T11:55:38Z</time>
      </trkpt>
      <trkpt lat="47.71908" lon="6.73627">
        <ele>428.06</ele>
        <time>2021-06-23T11:55:45Z</time>
      </trkpt>
      <trkpt lat="47.71931" lon="6.73612">
        <ele>429.03</ele>
        <time>2021-06-23T11:55:52Z</time>
      </trkpt>
      <trkpt lat="47.71965" lon="6.73581">
        <ele>430.41</ele>
        <time>2021-06-23T11:55:59Z</time>
      </trkpt>
      <trkpt lat="47.72059" lon="6.7349">
        <ele>429.19</ele>
        <time>2021-06-23T11:56:06Z</time>
      </trkpt>
      <trkpt lat="47.72128" lon="6.73427">
        <ele>431.6</ele>
        <time>2021-06-23T11:56:13Z</time>
      </trkpt>
      <trkpt lat="47.7225" lon="6.73327">
        <ele>435.03</ele>
        <time>2021-06-23T11:56:20Z</time>
      </trkpt>
      <trkpt lat="47.72278" lon="6.73306">
        <ele>433.02</ele>
        <time>2021-06-23T11:56:27Z</time>
      </trkpt>
      <trkpt lat="47.72301" lon="6.73296">
        <ele>432.78</ele>
        <time>2021-06-23T11:56:34Z</time>
      </trkpt>
      <trkpt lat="47.72375" lon="6.73289">
        <ele>435.34</ele>
        <time>2021-06-23T11:56:41Z</time>
      </trkpt>
      <trkpt lat="47.72447" lon="6.73279">
        <ele>440.66</ele>
        <time>2021-06-23T11:56:48Z</time>
      </trkpt>
      <trkpt lat="47.72612" lon="6.73227">
        <ele>443.79</ele>
        <time>2021-06-23T11:56:54Z</time>
      </trkpt>
      <trkpt lat="47.7264" lon="6.73222">
        <ele>442.89</ele>
        <time>2021-06-23T11:57:01Z</time>
      </trkpt>
      <trkpt lat="47.72698" lon="6.73217">
        <ele>443.53</ele>
        <time>2021-06-23T11:57:08Z</time>
      </trkpt>
      <trkpt lat="47.72782" lon="6.73216">
        <ele>441.66</ele>
        <time>2021-06-23T11:57:15Z</time>
      </trkpt>
      <trkpt lat="47.72851" lon="6.73226">
        <ele>440.64</ele>
        <time>2021-06-23T11:57:22Z</time>
      </trkpt>
      <trkpt lat="47.72893" lon="6.73228">
        <ele>442.46</ele>
        <time>2021-06-23T11:57:29Z</time>
      </trkpt>
      <trkpt lat="47.72912" lon="6.7322">
        <ele>443.63</ele>
        <time>2021-06-23T11:57:36Z</time>
      </trkpt>
      <trkpt lat="47.72927" lon="6.7321">
        <ele>444</ele>
        <time>2021-06-23T11:57:43Z</time>
      </trkpt>
      <trkpt lat="47.72948" lon="6.73195">
        <ele>444</ele>
        <time>2021-06-23T11:57:50Z</time>
      </trkpt>
      <trkpt lat="47.72979" lon="6.73168">
        <ele>444.24</ele>
        <time>2021-06-23T11:57:57Z</time>
      </trkpt>
      <trkpt lat="47.73021" lon="6.7314">
        <ele>444.01</ele>
        <time>2021-06-23T11:58:04Z</time>
      </trkpt>
      <trkpt lat="47.73048" lon="6.73115">
        <ele>443.36</ele>
        <time>2021-06-23T11:58:11Z</time>
      </trkpt>
      <trkpt lat="47.73104" lon="6.73045">
        <ele>444</ele>
        <time>2021-06-23T11:58:17Z</time>
      </trkpt>
      <trkpt lat="47.73113" lon="6.73036">
        <ele>444.02</ele>
        <time>2021-06-23T11:58:24Z</time>
      </trkpt>
      <trkpt lat="47.73139" lon="6.73017">
        <ele>444.03</ele>
        <time>2021-06-23T11:58:31Z</time>
      </trkpt>
      <trkpt lat="47.73178" lon="6.72998">
        <ele>445.9</ele>
        <time>2021-06-23T11:58:38Z</time>
      </trkpt>
      <trkpt lat="47.73256" lon="6.72979">
        <ele>447.94</ele>
        <time>2021-06-23T11:58:45Z</time>
      </trkpt>
      <trkpt lat="47.73348" lon="6.72952">
        <ele>451.07</ele>
        <time>2021-06-23T11:58:52Z</time>
      </trkpt>
      <trkpt lat="47.734" lon="6.72927">
        <ele>450.85</ele>
        <time>2021-06-23T11:58:59Z</time>
      </trkpt>
      <trkpt lat="47.73515" lon="6.72859">
        <ele>452.62</ele>
        <time>2021-06-23T11:59:06Z</time>
      </trkpt>
      <trkpt lat="47.73534" lon="6.72856">
        <ele>453.2</ele>
        <time>2021-06-23T11:59:13Z</time>
      </trkpt>
      <trkpt lat="47.73596" lon="6.72867">
        <ele>452.46</ele>
        <time>2021-06-23T11:59:20Z</time>
      </trkpt>
      <trkpt lat="47.73664" lon="6.72863">
        <ele>454.99</ele>
        <time>2021-06-23T11:59:27Z</time>
      </trkpt>
      <trkpt lat="47.73723" lon="6.72835">
        <ele>456</ele>
        <time>2021-06-23T11:59:34Z</time>
      </trkpt>
      <trkpt lat="47.73794" lon="6.72818">
        <ele>457.15</ele>
        <time>2021-06-23T11:59:41Z</time>
      </trkpt>
      <trkpt lat="47.73903" lon="6.72797">
        <ele>460.71</ele>
        <time>2021-06-23T11:59:47Z</time>
      </trkpt>
      <trkpt lat="47.73934" lon="6.72798">
        <ele>461.86</ele>
        <time>2021-06-23T11:59:54Z</time>
      </trkpt>
      <trkpt lat="47.73934" lon="6.72798">
        <ele>461.86</ele>
        <time>2021-06-23T11:59:54Z</time>
      </trkpt>
      <trkpt lat="47.73948" lon="6.72798">
        <ele>463</ele>
        <time>2021-06-23T11:59:59Z</time>
      </trkpt>
      <trkpt lat="47.74088" lon="6.72831">
        <ele>461.92</ele>
        <time>2021-06-23T12:00:04Z</time>
      </trkpt>
      <trkpt lat="47.74286" lon="6.72895">
        <ele>465.47</ele>
        <time>2021-06-23T12:00:09Z</time>
      </trkpt>
      <trkpt lat="47.74298" lon="6.72896">
        <ele>465.7</ele>
        <time>2021-06-23T12:00:14Z</time>
      </trkpt>
      <trkpt lat="47.74316" lon="6.72895">
        <ele>465.83</ele>
        <time>2021-06-23T12:00:19Z</time>
      </trkpt>
      <trkpt lat="47.74343" lon="6.72888">
        <ele>466.36</ele>
        <time>2021-06-23T12:00:24Z</time>
      </trkpt>
      <trkpt lat="47.74357" lon="6.72887">
        <ele>466.83</ele>
        <time>2021-06-23T12:00:29Z</time>
      </trkpt>
      <trkpt lat="47.74394" lon="6.72893">
        <ele>468.24</ele>
        <time>2021-06-23T12:00:34Z</time>
      </trkpt>
      <trkpt lat="47.74472" lon="6.72927">
        <ele>466.01</ele>
        <time>2021-06-23T12:00:39Z</time>
      </trkpt>
      <trkpt lat="47.7449" lon="6.7293">
        <ele>465.35</ele>
        <time>2021-06-23T12:00:44Z</time>
      </trkpt>
      <trkpt lat="47.74508" lon="6.7293">
        <ele>464.84</ele>
        <time>2021-06-23T12:00:49Z</time>
      </trkpt>
      <trkpt lat="47.74535" lon="6.72923">
        <ele>464.23</ele>
        <time>2021-06-23T12:00:54Z</time>
      </trkpt>
      <trkpt lat="47.74556" lon="6.72913">
        <ele>464.01</ele>
        <time>2021-06-23T12:00:59Z</time>
      </trkpt>
      <trkpt lat="47.74584" lon="6.72905">
        <ele>464.61</ele>
        <time>2021-06-23T12:01:04Z</time>
      </trkpt>
      <trkpt lat="47.74598" lon="6.72906">
        <ele>465.32</ele>
        <time>2021-06-23T12:01:09Z</time>
      </trkpt>
      <trkpt lat="47.74612" lon="6.72909">
        <ele>466.05</ele>
        <time>2021-06-23T12:01:14Z</time>
      </trkpt>
      <trkpt lat="47.74646" lon="6.72932">
        <ele>466.87</ele>
        <time>2021-06-23T12:01:19Z</time>
      </trkpt>
      <trkpt lat="47.74741" lon="6.73047">
        <ele>469.16</ele>
        <time>2021-06-23T12:01:24Z</time>
      </trkpt>
      <trkpt lat="47.74752" lon="6.73055">
        <ele>470.05</ele>
        <time>2021-06-23T12:01:29Z</time>
      </trkpt>
      <trkpt lat="47.74761" lon="6.73057">
        <ele>470.43</ele>
        <time>2021-06-23T12:01:34Z</time>
      </trkpt>
      <trkpt lat="47.7478" lon="6.73056">
        <ele>471</ele>
        <time>2021-06-23T12:01:39Z</time>
      </trkpt>
      <trkpt lat="47.74835" lon="6.7304">
        <ele>472.62</ele>
        <time>2021-06-23T12:01:44Z</time>
      </trkpt>
      <trkpt lat="47.74859" lon="6.73038">
        <ele>473.57</ele>
        <time>2021-06-23T12:01:49Z</time>
      </trkpt>
      <trkpt lat="47.74901" lon="6.73043">
        <ele>473.47</ele>
        <time>2021-06-23T12:01:54Z</time>
      </trkpt>
      <trkpt lat="47.74925" lon="6.7305">
        <ele>473.26</ele>
        <time>2021-06-23T12:01:59Z</time>
      </trkpt>
      <trkpt lat="47.74985" lon="6.73074">
        <ele>471.64</ele>
        <time>2021-06-23T12:02:04Z</time>
      </trkpt>
      <trkpt lat="47.75009" lon="6.73078">
        <ele>472.17</ele>
        <time>2021-06-23T12:02:09Z</time>
      </trkpt>
      <trkpt lat="47.75037" lon="6.73077">
        <ele>474.59</ele>
        <time>2021-06-23T12:02:14Z</time>
      </trkpt>
      <trkpt lat="47.7507" lon="6.73083">
        <ele>477.07</ele>
        <time>2021-06-23T12:02:19Z</time>
      </trkpt>
      <trkpt lat="47.75125" lon="6.73107">
        <ele>479.19</ele>
        <time>2021-06-23T12:02:24Z</time>
      </trkpt>
      <trkpt lat="47.75161" lon="6.7313">
        <ele>479.18</ele>
        <time>2021-06-23T12:02:29Z</time>
      </trkpt>
      <trkpt lat="47.75255" lon="6.73215">
        <ele>480.65</ele>
        <time>2021-06-23T12:02:34Z</time>
      </trkpt>
      <trkpt lat="47.75279" lon="6.73231">
        <ele>479.72</ele>
        <time>2021-06-23T12:02:39Z</time>
      </trkpt>
      <trkpt lat="47.75356" lon="6.7327">
        <ele>480.44</ele>
        <time>2021-06-23T12:02:44Z</time>
      </trkpt>
      <trkpt lat="47.75388" lon="6.73293">
        <ele>484.17</ele>
        <time>2021-06-23T12:02:49Z</time>
      </trkpt>
      <trkpt lat="47.75407" lon="6.73312">
        <ele>487.27</ele>
        <time>2021-06-23T12:02:54Z</time>
      </trkpt>
      <trkpt lat="47.75458" lon="6.73397">
        <ele>483.69</ele>
        <time>2021-06-23T12:02:59Z</time>
      </trkpt>
      <trkpt lat="47.7551" lon="6.73477">
        <ele>484.5</ele>
        <time>2021-06-23T12:03:04Z</time>
      </trkpt>
      <trkpt lat="47.75541" lon="6.7355">
        <ele>483.44</ele>
        <time>2021-06-23T12:03:09Z</time>
      </trkpt>
      <trkpt lat="47.75545" lon="6.7357">
        <ele>484.58</ele>
        <time>2021-06-23T12:03:14Z</time>
      </trkpt>
      <trkpt lat="47.75559" lon="6.73712">
        <ele>485.7</ele>
        <time>2021-06-23T12:03:19Z</time>
      </trkpt>
      <trkpt lat="47.75565" lon="6.73748">
        <ele>484.18</ele>
        <time>2021-06-23T12:03:24Z</time>
      </trkpt>
      <trkpt lat="47.75574" lon="6.73764">
        <ele>485.04</ele>
        <time>2021-06-23T12:03:29Z</time>
      </trkpt>
      <trkpt lat="47.75588" lon="6.7378">
        <ele>486.3</ele>
        <time>2021-06-23T12:03:34Z</time>
      </trkpt>
      <trkpt lat="47.75603" lon="6.73792">
        <ele>487.04</ele>
        <time>2021-06-23T12:03:39Z</time>
      </trkpt>
      <trkpt lat="47.75618" lon="6.738">
        <ele>487.68</ele>
        <time>2021-06-23T12:03:44Z</time>
      </trkpt>
      <trkpt lat="47.75707" lon="6.73811">
        <ele>489.81</ele>
        <time>2021-06-23T12:03:49Z</time>
      </trkpt>
      <trkpt lat="47.75719" lon="6.73817">
        <ele>489.58</ele>
        <time>2021-06-23T12:03:54Z</time>
      </trkpt>
      <trkpt lat="47.75737" lon="6.73835">
        <ele>489.51</ele>
        <time>2021-06-23T12:03:59Z</time>
      </trkpt>
      <trkpt lat="47.75778" lon="6.73891">
        <ele>489</ele>
        <time>2021-06-23T12:04:04Z</time>
      </trkpt>
      <trkpt lat="47.75846" lon="6.7397">
        <ele>488.09</ele>
        <time>2021-06-23T12:04:09Z</time>
      </trkpt>
      <trkpt lat="47.75885" lon="6.73992">
        <ele>488</ele>
        <time>2021-06-23T12:04:14Z</time>
      </trkpt>
      <trkpt lat="47.75931" lon="6.74039">
        <ele>490.05</ele>
        <time>2021-06-23T12:04:19Z</time>
      </trkpt>
      <trkpt lat="47.75993" lon="6.74108">
        <ele>492.64</ele>
        <time>2021-06-23T12:04:24Z</time>
      </trkpt>
      <trkpt lat="47.76022" lon="6.7412">
        <ele>493.86</ele>
        <time>2021-06-23T12:04:29Z</time>
      </trkpt>
      <trkpt lat="47.76075" lon="6.7415">
        <ele>494.59</ele>
        <time>2021-06-23T12:04:34Z</time>
      </trkpt>
      <trkpt lat="47.76085" lon="6.7416">
        <ele>495.12</ele>
        <time>2021-06-23T12:04:39Z</time>
      </trkpt>
      <trkpt lat="47.76121" lon="6.74223">
        <ele>497.07</ele>
        <time>2021-06-23T12:04:44Z</time>
      </trkpt>
      <trkpt lat="47.76144" lon="6.74245">
        <ele>501.25</ele>
        <time>2021-06-23T12:04:49Z</time>
      </trkpt>
      <trkpt lat="47.76163" lon="6.74252">
        <ele>503.52</ele>
        <time>2021-06-23T12:04:54Z</time>
      </trkpt>
      <trkpt lat="47.76173" lon="6.74251">
        <ele>502.98</ele>
        <time>2021-06-23T12:04:59Z</time>
      </trkpt>
      <trkpt lat="47.76247" lon="6.74221">
        <ele>498.43</ele>
        <time>2021-06-23T12:05:04Z</time>
      </trkpt>
      <trkpt lat="47.76324" lon="6.74214">
        <ele>502.77</ele>
        <time>2021-06-23T12:05:09Z</time>
      </trkpt>
      <trkpt lat="47.76366" lon="6.74205">
        <ele>500.4</ele>
        <time>2021-06-23T12:05:14Z</time>
      </trkpt>
      <trkpt lat="47.76413" lon="6.74179">
        <ele>499.92</ele>
        <time>2021-06-23T12:05:19Z</time>
      </trkpt>
      <trkpt lat="47.76436" lon="6.74171">
        <ele>500.51</ele>
        <time>2021-06-23T12:05:24Z</time>
      </trkpt>
      <trkpt lat="47.76501" lon="6.74157">
        <ele>503.82</ele>
        <time>2021-06-23T12:05:29Z</time>
      </trkpt>
      <trkpt lat="47.76565" lon="6.74133">
        <ele>506.02</ele>
        <time>2021-06-23T12:05:34Z</time>
      </trkpt>
      <trkpt lat="47.76576" lon="6.74133">
        <ele>504.58</ele>
        <time>2021-06-23T12:05:39Z</time>
      </trkpt>
      <trkpt lat="47.76635" lon="6.74151">
        <ele>502.31</ele>
        <time>2021-06-23T12:05:44Z</time>
      </trkpt>
      <trkpt lat="47.76644" lon="6.74158">
        <ele>501.74</ele>
        <time>2021-06-23T12:05:49Z</time>
      </trkpt>
      <trkpt lat="47.76706" lon="6.74229">
        <ele>502.17</ele>
        <time>2021-06-23T12:05:54Z</time>
      </trkpt>
      <trkpt lat="47.76726" lon="6.74249">
        <ele>503.33</ele>
        <time>2021-06-23T12:05:59Z</time>
      </trkpt>
      <trkpt lat="47.76745" lon="6.74265">
        <ele>504.52</ele>
        <time>2021-06-23T12:06:04Z</time>
      </trkpt>
      <trkpt lat="47.7676" lon="6.74273">
        <ele>505.73</ele>
        <time>2021-06-23T12:06:09Z</time>
      </trkpt>
      <trkpt lat="47.76798" lon="6.74276">
        <ele>507.69</ele>
        <time>2021-06-23T12:06:14Z</time>
      </trkpt>
      <trkpt lat="47.76813" lon="6.7427">
        <ele>507.67</ele>
        <time>2021-06-23T12:06:19Z</time>
      </trkpt>
      <trkpt lat="47.76826" lon="6.74258">
        <ele>508.15</ele>
        <time>2021-06-23T12:06:24Z</time>
      </trkpt>
      <trkpt lat="47.76856" lon="6.74224">
        <ele>510.67</ele>
        <time>2021-06-23T12:06:29Z</time>
      </trkpt>
      <trkpt lat="47.76873" lon="6.74212">
        <ele>511.73</ele>
        <time>2021-06-23T12:06:34Z</time>
      </trkpt>
      <trkpt lat="47.76886" lon="6.74208">
        <ele>512.04</ele>
        <time>2021-06-23T12:06:39Z</time>
      </trkpt>
      <trkpt lat="47.769" lon="6.74207">
        <ele>511.89</ele>
        <time>2021-06-23T12:06:44Z</time>
      </trkpt>
      <trkpt lat="47.76916" lon="6.74209">
        <ele>511.5</ele>
        <time>2021-06-23T12:06:49Z</time>
      </trkpt>
      <trkpt lat="47.76936" lon="6.74215">
        <ele>510.95</ele>
        <time>2021-06-23T12:06:54Z</time>
      </trkpt>
      <trkpt lat="47.76964" lon="6.74227">
        <ele>511.83</ele>
        <time>2021-06-23T12:06:59Z</time>
      </trkpt>
      <trkpt lat="47.77" lon="6.74238">
        <ele>515.82</ele>
        <time>2021-06-23T12:07:04Z</time>
      </trkpt>
      <trkpt lat="47.77024" lon="6.74249">
        <ele>515.36</ele>
        <time>2021-06-23T12:07:09Z</time>
      </trkpt>
      <trkpt lat="47.77024" lon="6.74249">
        <ele>515.36</ele>
        <time>2021-06-23T12:07:09Z</time>
      </trkpt>
      <trkpt lat="47.77034" lon="6.74254">
        <ele>514.9</ele>
        <time>2021-06-23T12:07:11Z</time>
      </trkpt>
      <trkpt lat="47.77046" lon="6.74271">
        <ele>513.69</ele>
        <time>2021-06-23T12:07:14Z</time>
      </trkpt>
      <trkpt lat="47.77058" lon="6.74294">
        <ele>512.74</ele>
        <time>2021-06-23T12:07:16Z</time>
      </trkpt>
      <trkpt lat="47.77062" lon="6.7431">
        <ele>512.49</ele>
        <time>2021-06-23T12:07:19Z</time>
      </trkpt>
      <trkpt lat="47.7707" lon="6.74362">
        <ele>511</ele>
        <time>2021-06-23T12:07:21Z</time>
      </trkpt>
      <trkpt lat="47.77077" lon="6.74386">
        <ele>511</ele>
        <time>2021-06-23T12:07:24Z</time>
      </trkpt>
      <trkpt lat="47.77125" lon="6.74478">
        <ele>517.9</ele>
        <time>2021-06-23T12:07:26Z</time>
      </trkpt>
      <trkpt lat="47.77129" lon="6.74495">
        <ele>519.32</ele>
        <time>2021-06-23T12:07:29Z</time>
      </trkpt>
      <trkpt lat="47.77129" lon="6.74517">
        <ele>520.05</ele>
        <time>2021-06-23T12:07:31Z</time>
      </trkpt>
      <trkpt lat="47.77109" lon="6.74574">
        <ele>521.46</ele>
        <time>2021-06-23T12:07:34Z</time>
      </trkpt>
      <trkpt lat="47.77104" lon="6.74591">
        <ele>523.14</ele>
        <time>2021-06-23T12:07:36Z</time>
      </trkpt>
      <trkpt lat="47.77101" lon="6.74614">
        <ele>525.92</ele>
        <time>2021-06-23T12:07:39Z</time>
      </trkpt>
      <trkpt lat="47.77103" lon="6.74638">
        <ele>528.55</ele>
        <time>2021-06-23T12:07:41Z</time>
      </trkpt>
      <trkpt lat="47.77113" lon="6.74667">
        <ele>529.42</ele>
        <time>2021-06-23T12:07:44Z</time>
      </trkpt>
      <trkpt lat="47.77141" lon="6.74696">
        <ele>525.9</ele>
        <time>2021-06-23T12:07:46Z</time>
      </trkpt>
      <trkpt lat="47.77157" lon="6.74719">
        <ele>526.03</ele>
        <time>2021-06-23T12:07:49Z</time>
      </trkpt>
      <trkpt lat="47.77172" lon="6.74748">
        <ele>527.76</ele>
        <time>2021-06-23T12:07:51Z</time>
      </trkpt>
      <trkpt lat="47.77186" lon="6.74791">
        <ele>530.16</ele>
        <time>2021-06-23T12:07:54Z</time>
      </trkpt>
      <trkpt lat="47.7719" lon="6.74807">
        <ele>531.1</ele>
        <time>2021-06-23T12:07:56Z</time>
      </trkpt>
      <trkpt lat="47.77194" lon="6.74867">
        <ele>537.52</ele>
        <time>2021-06-23T12:07:59Z</time>
      </trkpt>
      <trkpt lat="47.77199" lon="6.74891">
        <ele>537.72</ele>
        <time>2021-06-23T12:08:01Z</time>
      </trkpt>
      <trkpt lat="47.77255" lon="6.75107">
        <ele>541.79</ele>
        <time>2021-06-23T12:08:04Z</time>
      </trkpt>
      <trkpt lat="47.7726" lon="6.75133">
        <ele>542.01</ele>
        <time>2021-06-23T12:08:06Z</time>
      </trkpt>
      <trkpt lat="47.77262" lon="6.75153">
        <ele>542.38</ele>
        <time>2021-06-23T12:08:09Z</time>
      </trkpt>
      <trkpt lat="47.77263" lon="6.75177">
        <ele>544.11</ele>
        <time>2021-06-23T12:08:11Z</time>
      </trkpt>
      <trkpt lat="47.77279" lon="6.75332">
        <ele>551.44</ele>
        <time>2021-06-23T12:08:13Z</time>
      </trkpt>
      <trkpt lat="47.77303" lon="6.75519">
        <ele>569.98</ele>
        <time>2021-06-23T12:08:16Z</time>
      </trkpt>
      <trkpt lat="47.77314" lon="6.75618">
        <ele>576.79</ele>
        <time>2021-06-23T12:08:18Z</time>
      </trkpt>
      <trkpt lat="47.77323" lon="6.75676">
        <ele>588.7</ele>
        <time>2021-06-23T12:08:20Z</time>
      </trkpt>
      <trkpt lat="47.7733" lon="6.75717">
        <ele>593.57</ele>
        <time>2021-06-23T12:08:22Z</time>
      </trkpt>
      <trkpt lat="47.77338" lon="6.75741">
        <ele>592.8</ele>
        <time>2021-06-23T12:08:24Z</time>
      </trkpt>
      <trkpt lat="47.77354" lon="6.75778">
        <ele>591.13</ele>
        <time>2021-06-23T12:08:27Z</time>
      </trkpt>
      <trkpt lat="47.77367" lon="6.75814">
        <ele>592.61</ele>
        <time>2021-06-23T12:08:29Z</time>
      </trkpt>
      <trkpt lat="47.77378" lon="6.75868">
        <ele>596.35</ele>
        <time>2021-06-23T12:08:31Z</time>
      </trkpt>
      <trkpt lat="47.77387" lon="6.75899">
        <ele>597.84</ele>
        <time>2021-06-23T12:08:33Z</time>
      </trkpt>
      <trkpt lat="47.77437" lon="6.76033">
        <ele>611.99</ele>
        <time>2021-06-23T12:08:35Z</time>
      </trkpt>
      <trkpt lat="47.77457" lon="6.7609">
        <ele>619.25</ele>
        <time>2021-06-23T12:08:38Z</time>
      </trkpt>
      <trkpt lat="47.7749" lon="6.76207">
        <ele>631.85</ele>
        <time>2021-06-23T12:08:40Z</time>
      </trkpt>
      <trkpt lat="47.775" lon="6.76235">
        <ele>633.68</ele>
        <time>2021-06-23T12:08:42Z</time>
      </trkpt>
      <trkpt lat="47.77558" lon="6.76364">
        <ele>645.07</ele>
        <time>2021-06-23T12:08:44Z</time>
      </trkpt>
      <trkpt lat="47.77588" lon="6.76442">
        <ele>654.06</ele>
        <time>2021-06-23T12:08:47Z</time>
      </trkpt>
      <trkpt lat="47.77609" lon="6.76518">
        <ele>666.9</ele>
        <time>2021-06-23T12:08:49Z</time>
      </trkpt>
      <trkpt lat="47.77618" lon="6.76534">
        <ele>668.27</ele>
        <time>2021-06-23T12:08:51Z</time>
      </trkpt>
      <trkpt lat="47.77637" lon="6.76555">
        <ele>668.44</ele>
        <time>2021-06-23T12:08:53Z</time>
      </trkpt>
      <trkpt lat="47.77655" lon="6.76589">
        <ele>672.23</ele>
        <time>2021-06-23T12:08:55Z</time>
      </trkpt>
      <trkpt lat="47.77725" lon="6.76686">
        <ele>685.24</ele>
        <time>2021-06-23T12:08:58Z</time>
      </trkpt>
      <trkpt lat="47.77748" lon="6.76705">
        <ele>684.69</ele>
        <time>2021-06-23T12:09:00Z</time>
      </trkpt>
      <trkpt lat="47.7779" lon="6.76734">
        <ele>681.13</ele>
        <time>2021-06-23T12:09:02Z</time>
      </trkpt>
      <trkpt lat="47.77814" lon="6.76755">
        <ele>679.84</ele>
        <time>2021-06-23T12:09:04Z</time>
      </trkpt>
      <trkpt lat="47.77834" lon="6.76784">
        <ele>682.14</ele>
        <time>2021-06-23T12:09:07Z</time>
      </trkpt>
      <trkpt lat="47.77877" lon="6.76854">
        <ele>686.56</ele>
        <time>2021-06-23T12:09:09Z</time>
      </trkpt>
      <trkpt lat="47.7791" lon="6.76869">
        <ele>683.6</ele>
        <time>2021-06-23T12:09:11Z</time>
      </trkpt>
      <trkpt lat="47.77917" lon="6.76877">
        <ele>683.75</ele>
        <time>2021-06-23T12:09:13Z</time>
      </trkpt>
      <trkpt lat="47.77919" lon="6.76888">
        <ele>685.22</ele>
        <time>2021-06-23T12:09:15Z</time>
      </trkpt>
      <trkpt lat="47.77918" lon="6.76893">
        <ele>686.5</ele>
        <time>2021-06-23T12:09:18Z</time>
      </trkpt>
      <trkpt lat="47.77916" lon="6.76897">
        <ele>688.14</ele>
        <time>2021-06-23T12:09:20Z</time>
      </trkpt>
      <trkpt lat="47.77906" lon="6.76902">
        <ele>692.13</ele>
        <time>2021-06-23T12:09:22Z</time>
      </trkpt>
      <trkpt lat="47.77888" lon="6.7689">
        <ele>693.45</ele>
        <time>2021-06-23T12:09:24Z</time>
      </trkpt>
      <trkpt lat="47.77858" lon="6.7686">
        <ele>694.27</ele>
        <time>2021-06-23T12:09:26Z</time>
      </trkpt>
      <trkpt lat="47.77802" lon="6.76794">
        <ele>699.05</ele>
        <time>2021-06-23T12:09:29Z</time>
      </trkpt>
      <trkpt lat="47.77769" lon="6.76762">
        <ele>702.36</ele>
        <time>2021-06-23T12:09:31Z</time>
      </trkpt>
      <trkpt lat="47.77745" lon="6.76749">
        <ele>704.7</ele>
        <time>2021-06-23T12:09:33Z</time>
      </trkpt>
      <trkpt lat="47.77714" lon="6.76736">
        <ele>708.4</ele>
        <time>2021-06-23T12:09:35Z</time>
      </trkpt>
      <trkpt lat="47.77637" lon="6.76697">
        <ele>712.45</ele>
        <time>2021-06-23T12:09:38Z</time>
      </trkpt>
      <trkpt lat="47.77628" lon="6.76693">
        <ele>713.48</ele>
        <time>2021-06-23T12:09:40Z</time>
      </trkpt>
      <trkpt lat="47.77603" lon="6.76689">
        <ele>718.46</ele>
        <time>2021-06-23T12:09:42Z</time>
      </trkpt>
      <trkpt lat="47.77562" lon="6.76667">
        <ele>719.43</ele>
        <time>2021-06-23T12:09:44Z</time>
      </trkpt>
      <trkpt lat="47.77532" lon="6.76665">
        <ele>728.96</ele>
        <time>2021-06-23T12:09:46Z</time>
      </trkpt>
      <trkpt lat="47.77523" lon="6.76661">
        <ele>730.63</ele>
        <time>2021-06-23T12:09:49Z</time>
      </trkpt>
      <trkpt lat="47.77515" lon="6.76655">
        <ele>731.21</ele>
        <time>2021-06-23T12:09:51Z</time>
      </trkpt>
      <trkpt lat="47.7745" lon="6.76571">
        <ele>732.92</ele>
        <time>2021-06-23T12:09:53Z</time>
      </trkpt>
      <trkpt lat="47.7744" lon="6.76562">
        <ele>733.38</ele>
        <time>2021-06-23T12:09:55Z</time>
      </trkpt>
      <trkpt lat="47.77427" lon="6.76558">
        <ele>735.89</ele>
        <time>2021-06-23T12:09:57Z</time>
      </trkpt>
      <trkpt lat="47.77402" lon="6.76564">
        <ele>746.49</ele>
        <time>2021-06-23T12:10:00Z</time>
      </trkpt>
      <trkpt lat="47.77389" lon="6.76562">
        <ele>751.26</ele>
        <time>2021-06-23T12:10:02Z</time>
      </trkpt>
      <trkpt lat="47.77372" lon="6.76543">
        <ele>753.45</ele>
        <time>2021-06-23T12:10:04Z</time>
      </trkpt>
      <trkpt lat="47.77366" lon="6.76531">
        <ele>754.13</ele>
        <time>2021-06-23T12:10:06Z</time>
      </trkpt>
      <trkpt lat="47.77358" lon="6.76513">
        <ele>754.75</ele>
        <time>2021-06-23T12:10:09Z</time>
      </trkpt>
      <trkpt lat="47.77319" lon="6.76413">
        <ele>760.34</ele>
        <time>2021-06-23T12:10:11Z</time>
      </trkpt>
      <trkpt lat="47.77302" lon="6.76353">
        <ele>763.4</ele>
        <time>2021-06-23T12:10:13Z</time>
      </trkpt>
      <trkpt lat="47.77296" lon="6.76304">
        <ele>763.61</ele>
        <time>2021-06-23T12:10:15Z</time>
      </trkpt>
      <trkpt lat="47.77293" lon="6.76295">
        <ele>763.21</ele>
        <time>2021-06-23T12:10:17Z</time>
      </trkpt>
      <trkpt lat="47.7729" lon="6.76288">
        <ele>763.24</ele>
        <time>2021-06-23T12:10:20Z</time>
      </trkpt>
      <trkpt lat="47.77281" lon="6.76277">
        <ele>764.14</ele>
        <time>2021-06-23T12:10:22Z</time>
      </trkpt>
      <trkpt lat="47.77273" lon="6.76277">
        <ele>766.63</ele>
        <time>2021-06-23T12:10:24Z</time>
      </trkpt>
      <trkpt lat="47.7727" lon="6.76281">
        <ele>768.48</ele>
        <time>2021-06-23T12:10:26Z</time>
      </trkpt>
      <trkpt lat="47.7727" lon="6.76296">
        <ele>770.82</ele>
        <time>2021-06-23T12:10:29Z</time>
      </trkpt>
      <trkpt lat="47.77273" lon="6.76337">
        <ele>773.24</ele>
        <time>2021-06-23T12:10:31Z</time>
      </trkpt>
      <trkpt lat="47.77273" lon="6.76511">
        <ele>786.16</ele>
        <time>2021-06-23T12:10:33Z</time>
      </trkpt>
      <trkpt lat="47.77275" lon="6.76585">
        <ele>791.5</ele>
        <time>2021-06-23T12:10:35Z</time>
      </trkpt>
      <trkpt lat="47.77282" lon="6.76676">
        <ele>799.68</ele>
        <time>2021-06-23T12:10:37Z</time>
      </trkpt>
      <trkpt lat="47.77284" lon="6.76692">
        <ele>801.87</ele>
        <time>2021-06-23T12:10:40Z</time>
      </trkpt>
      <trkpt lat="47.7729" lon="6.76704">
        <ele>803.07</ele>
        <time>2021-06-23T12:10:42Z</time>
      </trkpt>
      <trkpt lat="47.7733" lon="6.76764">
        <ele>809.47</ele>
        <time>2021-06-23T12:10:44Z</time>
      </trkpt>
      <trkpt lat="47.77346" lon="6.76792">
        <ele>811.06</ele>
        <time>2021-06-23T12:10:46Z</time>
      </trkpt>
      <trkpt lat="47.77375" lon="6.76865">
        <ele>820.35</ele>
        <time>2021-06-23T12:10:48Z</time>
      </trkpt>
      <trkpt lat="47.7738" lon="6.76886">
        <ele>822.36</ele>
        <time>2021-06-23T12:10:51Z</time>
      </trkpt>
      <trkpt lat="47.77384" lon="6.76978">
        <ele>839.69</ele>
        <time>2021-06-23T12:10:53Z</time>
      </trkpt>
      <trkpt lat="47.77386" lon="6.76998">
        <ele>842.44</ele>
        <time>2021-06-23T12:10:55Z</time>
      </trkpt>
      <trkpt lat="47.77392" lon="6.77021">
        <ele>843.31</ele>
        <time>2021-06-23T12:10:57Z</time>
      </trkpt>
      <trkpt lat="47.77405" lon="6.77055">
        <ele>846.48</ele>
        <time>2021-06-23T12:11:00Z</time>
      </trkpt>
      <trkpt lat="47.77416" lon="6.77082">
        <ele>850.84</ele>
        <time>2021-06-23T12:11:02Z</time>
      </trkpt>
      <trkpt lat="47.77425" lon="6.77099">
        <ele>853.63</ele>
        <time>2021-06-23T12:11:04Z</time>
      </trkpt>
      <trkpt lat="47.77431" lon="6.77105">
        <ele>853.92</ele>
        <time>2021-06-23T12:11:06Z</time>
      </trkpt>
      <trkpt lat="47.77437" lon="6.77106">
        <ele>853.24</ele>
        <time>2021-06-23T12:11:08Z</time>
      </trkpt>
      <trkpt lat="47.7751" lon="6.77099">
        <ele>848.51</ele>
        <time>2021-06-23T12:11:11Z</time>
      </trkpt>
      <trkpt lat="47.77525" lon="6.77104">
        <ele>848.53</ele>
        <time>2021-06-23T12:11:13Z</time>
      </trkpt>
      <trkpt lat="47.77532" lon="6.7711">
        <ele>848.29</ele>
        <time>2021-06-23T12:11:15Z</time>
      </trkpt>
      <trkpt lat="47.77538" lon="6.77119">
        <ele>848.09</ele>
        <time>2021-06-23T12:11:17Z</time>
      </trkpt>
      <trkpt lat="47.77546" lon="6.7714">
        <ele>848.49</ele>
        <time>2021-06-23T12:11:20Z</time>
      </trkpt>
      <trkpt lat="47.77548" lon="6.7715">
        <ele>849.32</ele>
        <time>2021-06-23T12:11:22Z</time>
      </trkpt>
      <trkpt lat="47.77549" lon="6.77173">
        <ele>851.47</ele>
        <time>2021-06-23T12:11:24Z</time>
      </trkpt>
      <trkpt lat="47.77544" lon="6.77194">
        <ele>853.6</ele>
        <time>2021-06-23T12:11:26Z</time>
      </trkpt>
      <trkpt lat="47.77536" lon="6.77214">
        <ele>856.64</ele>
        <time>2021-06-23T12:11:28Z</time>
      </trkpt>
      <trkpt lat="47.77528" lon="6.77227">
        <ele>858.71</ele>
        <time>2021-06-23T12:11:31Z</time>
      </trkpt>
      <trkpt lat="47.7752" lon="6.77237">
        <ele>860.97</ele>
        <time>2021-06-23T12:11:33Z</time>
      </trkpt>
      <trkpt lat="47.77506" lon="6.77248">
        <ele>863.41</ele>
        <time>2021-06-23T12:11:35Z</time>
      </trkpt>
      <trkpt lat="47.77491" lon="6.77254">
        <ele>865.53</ele>
        <time>2021-06-23T12:11:37Z</time>
      </trkpt>
      <trkpt lat="47.77466" lon="6.77251">
        <ele>868.26</ele>
        <time>2021-06-23T12:11:39Z</time>
      </trkpt>
      <trkpt lat="47.77444" lon="6.77241">
        <ele>871</ele>
        <time>2021-06-23T12:11:42Z</time>
      </trkpt>
      <trkpt lat="47.77431" lon="6.77232">
        <ele>875.01</ele>
        <time>2021-06-23T12:11:44Z</time>
      </trkpt>
      <trkpt lat="47.77392" lon="6.77186">
        <ele>877.8</ele>
        <time>2021-06-23T12:11:46Z</time>
      </trkpt>
      <trkpt lat="47.77382" lon="6.77179">
        <ele>879.11</ele>
        <time>2021-06-23T12:11:48Z</time>
      </trkpt>
      <trkpt lat="47.77336" lon="6.77166">
        <ele>886.91</ele>
        <time>2021-06-23T12:11:51Z</time>
      </trkpt>
      <trkpt lat="47.77316" lon="6.7715">
        <ele>889.73</ele>
        <time>2021-06-23T12:11:53Z</time>
      </trkpt>
      <trkpt lat="47.77308" lon="6.77141">
        <ele>890.63</ele>
        <time>2021-06-23T12:11:55Z</time>
      </trkpt>
      <trkpt lat="47.77297" lon="6.77124">
        <ele>890.66</ele>
        <time>2021-06-23T12:11:57Z</time>
      </trkpt>
      <trkpt lat="47.77268" lon="6.77059">
        <ele>890.5</ele>
        <time>2021-06-23T12:11:59Z</time>
      </trkpt>
      <trkpt lat="47.77255" lon="6.77027">
        <ele>892.05</ele>
        <time>2021-06-23T12:12:02Z</time>
      </trkpt>
      <trkpt lat="47.77247" lon="6.77012">
        <ele>892.47</ele>
        <time>2021-06-23T12:12:04Z</time>
      </trkpt>
      <trkpt lat="47.77237" lon="6.77">
        <ele>893.81</ele>
        <time>2021-06-23T12:12:06Z</time>
      </trkpt>
      <trkpt lat="47.77192" lon="6.76964">
        <ele>900.31</ele>
        <time>2021-06-23T12:12:08Z</time>
      </trkpt>
      <trkpt lat="47.77158" lon="6.76943">
        <ele>909.92</ele>
        <time>2021-06-23T12:12:11Z</time>
      </trkpt>
      <trkpt lat="47.77142" lon="6.76931">
        <ele>913.57</ele>
        <time>2021-06-23T12:12:13Z</time>
      </trkpt>
      <trkpt lat="47.77092" lon="6.76878">
        <ele>914.59</ele>
        <time>2021-06-23T12:12:15Z</time>
      </trkpt>
      <trkpt lat="47.77083" lon="6.76863">
        <ele>913.63</ele>
        <time>2021-06-23T12:12:17Z</time>
      </trkpt>
      <trkpt lat="47.77075" lon="6.76843">
        <ele>913.91</ele>
        <time>2021-06-23T12:12:19Z</time>
      </trkpt>
      <trkpt lat="47.77024" lon="6.7668">
        <ele>924.82</ele>
        <time>2021-06-23T12:12:22Z</time>
      </trkpt>
      <trkpt lat="47.77022" lon="6.76663">
        <ele>925.99</ele>
        <time>2021-06-23T12:12:24Z</time>
      </trkpt>
      <trkpt lat="47.77021" lon="6.76628">
        <ele>926.33</ele>
        <time>2021-06-23T12:12:26Z</time>
      </trkpt>
      <trkpt lat="47.77019" lon="6.76614">
        <ele>927.38</ele>
        <time>2021-06-23T12:12:28Z</time>
      </trkpt>
      <trkpt lat="47.77015" lon="6.76601">
        <ele>929.26</ele>
        <time>2021-06-23T12:12:30Z</time>
      </trkpt>
      <trkpt lat="47.7701" lon="6.76592">
        <ele>931.82</ele>
        <time>2021-06-23T12:12:33Z</time>
      </trkpt>
      <trkpt lat="47.77004" lon="6.76587">
        <ele>934.98</ele>
        <time>2021-06-23T12:12:35Z</time>
      </trkpt>
      <trkpt lat="47.76998" lon="6.76587">
        <ele>938.22</ele>
        <time>2021-06-23T12:12:37Z</time>
      </trkpt>
      <trkpt lat="47.76991" lon="6.76593">
        <ele>941.89</ele>
        <time>2021-06-23T12:12:39Z</time>
      </trkpt>
      <trkpt lat="47.76985" lon="6.76606">
        <ele>944.99</ele>
        <time>2021-06-23T12:12:42Z</time>
      </trkpt>
      <trkpt lat="47.76981" lon="6.76633">
        <ele>947.6</ele>
        <time>2021-06-23T12:12:44Z</time>
      </trkpt>
      <trkpt lat="47.76983" lon="6.76662">
        <ele>949.8</ele>
        <time>2021-06-23T12:12:46Z</time>
      </trkpt>
      <trkpt lat="47.76997" lon="6.76797">
        <ele>954.64</ele>
        <time>2021-06-23T12:12:48Z</time>
      </trkpt>
      <trkpt lat="47.77005" lon="6.76932">
        <ele>960.33</ele>
        <time>2021-06-23T12:12:50Z</time>
      </trkpt>
      <trkpt lat="47.77007" lon="6.76951">
        <ele>964.66</ele>
        <time>2021-06-23T12:12:53Z</time>
      </trkpt>
      <trkpt lat="47.77011" lon="6.76971">
        <ele>967.22</ele>
        <time>2021-06-23T12:12:55Z</time>
      </trkpt>
      <trkpt lat="47.77049" lon="6.77061">
        <ele>968.13</ele>
        <time>2021-06-23T12:12:57Z</time>
      </trkpt>
      <trkpt lat="47.77105" lon="6.77175">
        <ele>978.29</ele>
        <time>2021-06-23T12:12:59Z</time>
      </trkpt>
      <trkpt lat="47.77115" lon="6.77203">
        <ele>978.61</ele>
        <time>2021-06-23T12:13:02Z</time>
      </trkpt>
      <trkpt lat="47.77133" lon="6.77277">
        <ele>982.04</ele>
        <time>2021-06-23T12:13:04Z</time>
      </trkpt>
      <trkpt lat="47.77145" lon="6.77313">
        <ele>980.04</ele>
        <time>2021-06-23T12:13:06Z</time>
      </trkpt>
      <trkpt lat="47.77159" lon="6.77339">
        <ele>978.47</ele>
        <time>2021-06-23T12:13:08Z</time>
      </trkpt>
      <trkpt lat="47.77208" lon="6.77412">
        <ele>976.46</ele>
        <time>2021-06-23T12:13:10Z</time>
      </trkpt>
      <trkpt lat="47.7726" lon="6.77485">
        <ele>977.61</ele>
        <time>2021-06-23T12:13:13Z</time>
      </trkpt>
      <trkpt lat="47.773" lon="6.7756">
        <ele>986.01</ele>
        <time>2021-06-23T12:13:15Z</time>
      </trkpt>
      <trkpt lat="47.77352" lon="6.77661">
        <ele>999.53</ele>
        <time>2021-06-23T12:13:17Z</time>
      </trkpt>
      <trkpt lat="47.77379" lon="6.77709">
        <ele>997.85</ele>
        <time>2021-06-23T12:13:19Z</time>
      </trkpt>
      <trkpt lat="47.77402" lon="6.77753">
        <ele>1000.61</ele>
        <time>2021-06-23T12:13:21Z</time>
      </trkpt>
      <trkpt lat="47.77423" lon="6.77786">
        <ele>1001.81</ele>
        <time>2021-06-23T12:13:24Z</time>
      </trkpt>
      <trkpt lat="47.77439" lon="6.778">
        <ele>999.95</ele>
        <time>2021-06-23T12:13:26Z</time>
      </trkpt>
      <trkpt lat="47.77533" lon="6.77863">
        <ele>994.39</ele>
        <time>2021-06-23T12:13:28Z</time>
      </trkpt>
      <trkpt lat="47.77537" lon="6.77872">
        <ele>993.74</ele>
        <time>2021-06-23T12:13:30Z</time>
      </trkpt>
      <trkpt lat="47.77539" lon="6.77894">
        <ele>993.33</ele>
        <time>2021-06-23T12:13:33Z</time>
      </trkpt>
      <trkpt lat="47.77539" lon="6.77894">
        <ele>993.33</ele>
        <time>2021-06-23T12:13:33Z</time>
      </trkpt>
      <trkpt lat="47.77537" lon="6.77872">
        <ele>993.74</ele>
        <time>2021-06-23T12:13:36Z</time>
      </trkpt>
      <trkpt lat="47.77533" lon="6.77863">
        <ele>994.39</ele>
        <time>2021-06-23T12:13:39Z</time>
      </trkpt>
      <trkpt lat="47.77439" lon="6.778">
        <ele>999.95</ele>
        <time>2021-06-23T12:13:42Z</time>
      </trkpt>
      <trkpt lat="47.77423" lon="6.77786">
        <ele>1001.81</ele>
        <time>2021-06-23T12:13:44Z</time>
      </trkpt>
      <trkpt lat="47.77402" lon="6.77753">
        <ele>1000.61</ele>
        <time>2021-06-23T12:13:47Z</time>
      </trkpt>
      <trkpt lat="47.77379" lon="6.77709">
        <ele>997.85</ele>
        <time>2021-06-23T12:13:50Z</time>
      </trkpt>
      <trkpt lat="47.77352" lon="6.77661">
        <ele>999.53</ele>
        <time>2021-06-23T12:13:53Z</time>
      </trkpt>
      <trkpt lat="47.773" lon="6.7756">
        <ele>986.01</ele>
        <time>2021-06-23T12:13:56Z</time>
      </trkpt>
      <trkpt lat="47.7726" lon="6.77485">
        <ele>977.61</ele>
        <time>2021-06-23T12:13:59Z</time>
      </trkpt>
      <trkpt lat="47.77208" lon="6.77412">
        <ele>976.46</ele>
        <time>2021-06-23T12:14:02Z</time>
      </trkpt>
      <trkpt lat="47.77159" lon="6.77339">
        <ele>978.47</ele>
        <time>2021-06-23T12:14:05Z</time>
      </trkpt>
      <trkpt lat="47.77145" lon="6.77313">
        <ele>980.04</ele>
        <time>2021-06-23T12:14:08Z</time>
      </trkpt>
      <trkpt lat="47.77133" lon="6.77277">
        <ele>982.04</ele>
        <time>2021-06-23T12:14:11Z</time>
      </trkpt>
      <trkpt lat="47.77122" lon="6.77233">
        <ele>980.33</ele>
        <time>2021-06-23T12:14:14Z</time>
      </trkpt>
      <trkpt lat="47.77122" lon="6.77233">
        <ele>980.33</ele>
        <time>2021-06-23T12:14:14Z</time>
      </trkpt>
      <trkpt lat="47.77115" lon="6.77203">
        <ele>978.61</ele>
        <time>2021-06-23T12:14:16Z</time>
      </trkpt>
      <trkpt lat="47.77105" lon="6.77175">
        <ele>978.29</ele>
        <time>2021-06-23T12:14:18Z</time>
      </trkpt>
      <trkpt lat="47.77049" lon="6.77061">
        <ele>968.13</ele>
        <time>2021-06-23T12:14:20Z</time>
      </trkpt>
      <trkpt lat="47.77011" lon="6.76971">
        <ele>967.22</ele>
        <time>2021-06-23T12:14:22Z</time>
      </trkpt>
      <trkpt lat="47.77007" lon="6.76951">
        <ele>964.66</ele>
        <time>2021-06-23T12:14:25Z</time>
      </trkpt>
      <trkpt lat="47.77005" lon="6.76932">
        <ele>960.33</ele>
        <time>2021-06-23T12:14:27Z</time>
      </trkpt>
      <trkpt lat="47.76997" lon="6.76797">
        <ele>954.64</ele>
        <time>2021-06-23T12:14:29Z</time>
      </trkpt>
      <trkpt lat="47.76983" lon="6.76662">
        <ele>949.8</ele>
        <time>2021-06-23T12:14:31Z</time>
      </trkpt>
      <trkpt lat="47.76981" lon="6.76633">
        <ele>947.6</ele>
        <time>2021-06-23T12:14:33Z</time>
      </trkpt>
      <trkpt lat="47.76985" lon="6.76606">
        <ele>944.99</ele>
        <time>2021-06-23T12:14:35Z</time>
      </trkpt>
      <trkpt lat="47.76991" lon="6.76593">
        <ele>941.89</ele>
        <time>2021-06-23T12:14:37Z</time>
      </trkpt>
      <trkpt lat="47.76998" lon="6.76587">
        <ele>938.22</ele>
        <time>2021-06-23T12:14:39Z</time>
      </trkpt>
      <trkpt lat="47.77004" lon="6.76587">
        <ele>934.98</ele>
        <time>2021-06-23T12:14:42Z</time>
      </trkpt>
      <trkpt lat="47.7701" lon="6.76592">
        <ele>931.82</ele>
        <time>2021-06-23T12:14:44Z</time>
      </trkpt>
      <trkpt lat="47.77015" lon="6.76601">
        <ele>929.26</ele>
        <time>2021-06-23T12:14:46Z</time>
      </trkpt>
      <trkpt lat="47.77019" lon="6.76614">
        <ele>927.38</ele>
        <time>2021-06-23T12:14:48Z</time>
      </trkpt>
      <trkpt lat="47.77021" lon="6.76628">
        <ele>926.33</ele>
        <time>2021-06-23T12:14:50Z</time>
      </trkpt>
      <trkpt lat="47.77022" lon="6.76663">
        <ele>925.99</ele>
        <time>2021-06-23T12:14:52Z</time>
      </trkpt>
      <trkpt lat="47.77024" lon="6.7668">
        <ele>924.82</ele>
        <time>2021-06-23T12:14:54Z</time>
      </trkpt>
      <trkpt lat="47.77075" lon="6.76843">
        <ele>913.91</ele>
        <time>2021-06-23T12:14:56Z</time>
      </trkpt>
      <trkpt lat="47.77083" lon="6.76863">
        <ele>913.63</ele>
        <time>2021-06-23T12:14:59Z</time>
      </trkpt>
      <trkpt lat="47.77092" lon="6.76878">
        <ele>914.59</ele>
        <time>2021-06-23T12:15:01Z</time>
      </trkpt>
      <trkpt lat="47.77142" lon="6.76931">
        <ele>913.57</ele>
        <time>2021-06-23T12:15:03Z</time>
      </trkpt>
      <trkpt lat="47.77158" lon="6.76943">
        <ele>909.92</ele>
        <time>2021-06-23T12:15:05Z</time>
      </trkpt>
      <trkpt lat="47.77192" lon="6.76964">
        <ele>900.31</ele>
        <time>2021-06-23T12:15:07Z</time>
      </trkpt>
      <trkpt lat="47.77237" lon="6.77">
        <ele>893.81</ele>
        <time>2021-06-23T12:15:09Z</time>
      </trkpt>
      <trkpt lat="47.77247" lon="6.77012">
        <ele>892.47</ele>
        <time>2021-06-23T12:15:11Z</time>
      </trkpt>
      <trkpt lat="47.77255" lon="6.77027">
        <ele>892.05</ele>
        <time>2021-06-23T12:15:13Z</time>
      </trkpt>
      <trkpt lat="47.77268" lon="6.77059">
        <ele>890.5</ele>
        <time>2021-06-23T12:15:16Z</time>
      </trkpt>
      <trkpt lat="47.77297" lon="6.77124">
        <ele>890.66</ele>
        <time>2021-06-23T12:15:18Z</time>
      </trkpt>
      <trkpt lat="47.77308" lon="6.77141">
        <ele>890.63</ele>
        <time>2021-06-23T12:15:20Z</time>
      </trkpt>
      <trkpt lat="47.77316" lon="6.7715">
        <ele>889.73</ele>
        <time>2021-06-23T12:15:22Z</time>
      </trkpt>
      <trkpt lat="47.77336" lon="6.77166">
        <ele>886.91</ele>
        <time>2021-06-23T12:15:24Z</time>
      </trkpt>
      <trkpt lat="47.77382" lon="6.77179">
        <ele>879.11</ele>
        <time>2021-06-23T12:15:26Z</time>
      </trkpt>
      <trkpt lat="47.77392" lon="6.77186">
        <ele>877.8</ele>
        <time>2021-06-23T12:15:28Z</time>
      </trkpt>
      <trkpt lat="47.77431" lon="6.77232">
        <ele>875.01</ele>
        <time>2021-06-23T12:15:30Z</time>
      </trkpt>
      <trkpt lat="47.77444" lon="6.77241">
        <ele>871</ele>
        <time>2021-06-23T12:15:33Z</time>
      </trkpt>
      <trkpt lat="47.77466" lon="6.77251">
        <ele>868.26</ele>
        <time>2021-06-23T12:15:35Z</time>
      </trkpt>
      <trkpt lat="47.77491" lon="6.77254">
        <ele>865.53</ele>
        <time>2021-06-23T12:15:37Z</time>
      </trkpt>
      <trkpt lat="47.77506" lon="6.77248">
        <ele>863.41</ele>
        <time>2021-06-23T12:15:39Z</time>
      </trkpt>
      <trkpt lat="47.7752" lon="6.77237">
        <ele>860.97</ele>
        <time>2021-06-23T12:15:41Z</time>
      </trkpt>
      <trkpt lat="47.77528" lon="6.77227">
        <ele>858.71</ele>
        <time>2021-06-23T12:15:43Z</time>
      </trkpt>
      <trkpt lat="47.77536" lon="6.77214">
        <ele>856.64</ele>
        <time>2021-06-23T12:15:45Z</time>
      </trkpt>
      <trkpt lat="47.77544" lon="6.77194">
        <ele>853.6</ele>
        <time>2021-06-23T12:15:47Z</time>
      </trkpt>
      <trkpt lat="47.77549" lon="6.77173">
        <ele>851.47</ele>
        <time>2021-06-23T12:15:50Z</time>
      </trkpt>
      <trkpt lat="47.77548" lon="6.7715">
        <ele>849.32</ele>
        <time>2021-06-23T12:15:52Z</time>
      </trkpt>
      <trkpt lat="47.77546" lon="6.7714">
        <ele>848.49</ele>
        <time>2021-06-23T12:15:54Z</time>
      </trkpt>
      <trkpt lat="47.77538" lon="6.77119">
        <ele>848.09</ele>
        <time>2021-06-23T12:15:56Z</time>
      </trkpt>
      <trkpt lat="47.77532" lon="6.7711">
        <ele>848.29</ele>
        <time>2021-06-23T12:15:58Z</time>
      </trkpt>
      <trkpt lat="47.77525" lon="6.77104">
        <ele>848.53</ele>
        <time>2021-06-23T12:16:00Z</time>
      </trkpt>
      <trkpt lat="47.7751" lon="6.77099">
        <ele>848.51</ele>
        <time>2021-06-23T12:16:02Z</time>
      </trkpt>
      <trkpt lat="47.77437" lon="6.77106">
        <ele>853.24</ele>
        <time>2021-06-23T12:16:04Z</time>
      </trkpt>
      <trkpt lat="47.77431" lon="6.77105">
        <ele>853.92</ele>
        <time>2021-06-23T12:16:07Z</time>
      </trkpt>
      <trkpt lat="47.77425" lon="6.77099">
        <ele>853.63</ele>
        <time>2021-06-23T12:16:09Z</time>
      </trkpt>
      <trkpt lat="47.77416" lon="6.77082">
        <ele>850.84</ele>
        <time>2021-06-23T12:16:11Z</time>
      </trkpt>
      <trkpt lat="47.77405" lon="6.77055">
        <ele>846.48</ele>
        <time>2021-06-23T12:16:13Z</time>
      </trkpt>
      <trkpt lat="47.77392" lon="6.77021">
        <ele>843.31</ele>
        <time>2021-06-23T12:16:15Z</time>
      </trkpt>
      <trkpt lat="47.77386" lon="6.76998">
        <ele>842.44</ele>
        <time>2021-06-23T12:16:17Z</time>
      </trkpt>
      <trkpt lat="47.77384" lon="6.76978">
        <ele>839.69</ele>
        <time>2021-06-23T12:16:19Z</time>
      </trkpt>
      <trkpt lat="47.7738" lon="6.76886">
        <ele>822.36</ele>
        <time>2021-06-23T12:16:21Z</time>
      </trkpt>
      <trkpt lat="47.77375" lon="6.76865">
        <ele>820.35</ele>
        <time>2021-06-23T12:16:23Z</time>
      </trkpt>
      <trkpt lat="47.77346" lon="6.76792">
        <ele>811.06</ele>
        <time>2021-06-23T12:16:26Z</time>
      </trkpt>
      <trkpt lat="47.7733" lon="6.76764">
        <ele>809.47</ele>
        <time>2021-06-23T12:16:28Z</time>
      </trkpt>
      <trkpt lat="47.7729" lon="6.76704">
        <ele>803.07</ele>
        <time>2021-06-23T12:16:30Z</time>
      </trkpt>
      <trkpt lat="47.77284" lon="6.76692">
        <ele>801.87</ele>
        <time>2021-06-23T12:16:32Z</time>
      </trkpt>
      <trkpt lat="47.77282" lon="6.76676">
        <ele>799.68</ele>
        <time>2021-06-23T12:16:34Z</time>
      </trkpt>
      <trkpt lat="47.77275" lon="6.76585">
        <ele>791.5</ele>
        <time>2021-06-23T12:16:36Z</time>
      </trkpt>
      <trkpt lat="47.77273" lon="6.76511">
        <ele>786.16</ele>
        <time>2021-06-23T12:16:38Z</time>
      </trkpt>
      <trkpt lat="47.77273" lon="6.76337">
        <ele>773.24</ele>
        <time>2021-06-23T12:16:40Z</time>
      </trkpt>
      <trkpt lat="47.7727" lon="6.76296">
        <ele>770.82</ele>
        <time>2021-06-23T12:16:43Z</time>
      </trkpt>
      <trkpt lat="47.7727" lon="6.76281">
        <ele>768.48</ele>
        <time>2021-06-23T12:16:45Z</time>
      </trkpt>
      <trkpt lat="47.77273" lon="6.76277">
        <ele>766.63</ele>
        <time>2021-06-23T12:16:47Z</time>
      </trkpt>
      <trkpt lat="47.77281" lon="6.76277">
        <ele>764.14</ele>
        <time>2021-06-23T12:16:49Z</time>
      </trkpt>
      <trkpt lat="47.7729" lon="6.76288">
        <ele>763.24</ele>
        <time>2021-06-23T12:16:51Z</time>
      </trkpt>
      <trkpt lat="47.77293" lon="6.76295">
        <ele>763.21</ele>
        <time>2021-06-23T12:16:53Z</time>
      </trkpt>
      <trkpt lat="47.77296" lon="6.76304">
        <ele>763.61</ele>
        <time>2021-06-23T12:16:55Z</time>
      </trkpt>
      <trkpt lat="47.77302" lon="6.76353">
        <ele>763.4</ele>
        <time>2021-06-23T12:16:57Z</time>
      </trkpt>
      <trkpt lat="47.77319" lon="6.76413">
        <ele>760.34</ele>
        <time>2021-06-23T12:17:00Z</time>
      </trkpt>
      <trkpt lat="47.77358" lon="6.76513">
        <ele>754.75</ele>
        <time>2021-06-23T12:17:02Z</time>
      </trkpt>
      <trkpt lat="47.77366" lon="6.76531">
        <ele>754.13</ele>
        <time>2021-06-23T12:17:04Z</time>
      </trkpt>
      <trkpt lat="47.77372" lon="6.76543">
        <ele>753.45</ele>
        <time>2021-06-23T12:17:06Z</time>
      </trkpt>
      <trkpt lat="47.77389" lon="6.76562">
        <ele>751.26</ele>
        <time>2021-06-23T12:17:08Z</time>
      </trkpt>
      <trkpt lat="47.77402" lon="6.76564">
        <ele>746.49</ele>
        <time>2021-06-23T12:17:10Z</time>
      </trkpt>
      <trkpt lat="47.77427" lon="6.76558">
        <ele>735.89</ele>
        <time>2021-06-23T12:17:12Z</time>
      </trkpt>
      <trkpt lat="47.7744" lon="6.76562">
        <ele>733.38</ele>
        <time>2021-06-23T12:17:14Z</time>
      </trkpt>
      <trkpt lat="47.7745" lon="6.76571">
        <ele>732.92</ele>
        <time>2021-06-23T12:17:17Z</time>
      </trkpt>
      <trkpt lat="47.77515" lon="6.76655">
        <ele>731.21</ele>
        <time>2021-06-23T12:17:19Z</time>
      </trkpt>
      <trkpt lat="47.77523" lon="6.76661">
        <ele>730.63</ele>
        <time>2021-06-23T12:17:21Z</time>
      </trkpt>
      <trkpt lat="47.77532" lon="6.76665">
        <ele>728.96</ele>
        <time>2021-06-23T12:17:23Z</time>
      </trkpt>
      <trkpt lat="47.77562" lon="6.76667">
        <ele>719.43</ele>
        <time>2021-06-23T12:17:25Z</time>
      </trkpt>
      <trkpt lat="47.77603" lon="6.76689">
        <ele>718.46</ele>
        <time>2021-06-23T12:17:27Z</time>
      </trkpt>
      <trkpt lat="47.77628" lon="6.76693">
        <ele>713.48</ele>
        <time>2021-06-23T12:17:29Z</time>
      </trkpt>
      <trkpt lat="47.77637" lon="6.76697">
        <ele>712.45</ele>
        <time>2021-06-23T12:17:31Z</time>
      </trkpt>
      <trkpt lat="47.77714" lon="6.76736">
        <ele>708.4</ele>
        <time>2021-06-23T12:17:34Z</time>
      </trkpt>
      <trkpt lat="47.77745" lon="6.76749">
        <ele>704.7</ele>
        <time>2021-06-23T12:17:36Z</time>
      </trkpt>
      <trkpt lat="47.77769" lon="6.76762">
        <ele>702.36</ele>
        <time>2021-06-23T12:17:38Z</time>
      </trkpt>
      <trkpt lat="47.77802" lon="6.76794">
        <ele>699.05</ele>
        <time>2021-06-23T12:17:40Z</time>
      </trkpt>
      <trkpt lat="47.77858" lon="6.7686">
        <ele>694.27</ele>
        <time>2021-06-23T12:17:42Z</time>
      </trkpt>
      <trkpt lat="47.77888" lon="6.7689">
        <ele>693.45</ele>
        <time>2021-06-23T12:17:44Z</time>
      </trkpt>
      <trkpt lat="47.77906" lon="6.76902">
        <ele>692.13</ele>
        <time>2021-06-23T12:17:46Z</time>
      </trkpt>
      <trkpt lat="47.77916" lon="6.76897">
        <ele>688.14</ele>
        <time>2021-06-23T12:17:48Z</time>
      </trkpt>
      <trkpt lat="47.77918" lon="6.76893">
        <ele>686.5</ele>
        <time>2021-06-23T12:17:51Z</time>
      </trkpt>
      <trkpt lat="47.77919" lon="6.76888">
        <ele>685.22</ele>
        <time>2021-06-23T12:17:53Z</time>
      </trkpt>
      <trkpt lat="47.77917" lon="6.76877">
        <ele>683.75</ele>
        <time>2021-06-23T12:17:55Z</time>
      </trkpt>
      <trkpt lat="47.7791" lon="6.76869">
        <ele>683.6</ele>
        <time>2021-06-23T12:17:57Z</time>
      </trkpt>
      <trkpt lat="47.77877" lon="6.76854">
        <ele>686.56</ele>
        <time>2021-06-23T12:17:59Z</time>
      </trkpt>
      <trkpt lat="47.77834" lon="6.76784">
        <ele>682.14</ele>
        <time>2021-06-23T12:18:01Z</time>
      </trkpt>
      <trkpt lat="47.77814" lon="6.76755">
        <ele>679.84</ele>
        <time>2021-06-23T12:18:03Z</time>
      </trkpt>
      <trkpt lat="47.7779" lon="6.76734">
        <ele>681.13</ele>
        <time>2021-06-23T12:18:05Z</time>
      </trkpt>
      <trkpt lat="47.77748" lon="6.76705">
        <ele>684.69</ele>
        <time>2021-06-23T12:18:08Z</time>
      </trkpt>
      <trkpt lat="47.77725" lon="6.76686">
        <ele>685.24</ele>
        <time>2021-06-23T12:18:10Z</time>
      </trkpt>
      <trkpt lat="47.77655" lon="6.76589">
        <ele>672.23</ele>
        <time>2021-06-23T12:18:12Z</time>
      </trkpt>
      <trkpt lat="47.77637" lon="6.76555">
        <ele>668.44</ele>
        <time>2021-06-23T12:18:14Z</time>
      </trkpt>
      <trkpt lat="47.77618" lon="6.76534">
        <ele>668.27</ele>
        <time>2021-06-23T12:18:16Z</time>
      </trkpt>
      <trkpt lat="47.77609" lon="6.76518">
        <ele>666.9</ele>
        <time>2021-06-23T12:18:18Z</time>
      </trkpt>
      <trkpt lat="47.77588" lon="6.76442">
        <ele>654.06</ele>
        <time>2021-06-23T12:18:20Z</time>
      </trkpt>
      <trkpt lat="47.77558" lon="6.76364">
        <ele>645.07</ele>
        <time>2021-06-23T12:18:22Z</time>
      </trkpt>
      <trkpt lat="47.775" lon="6.76235">
        <ele>633.68</ele>
        <time>2021-06-23T12:18:25Z</time>
      </trkpt>
      <trkpt lat="47.7749" lon="6.76207">
        <ele>631.85</ele>
        <time>2021-06-23T12:18:27Z</time>
      </trkpt>
      <trkpt lat="47.77457" lon="6.7609">
        <ele>619.25</ele>
        <time>2021-06-23T12:18:29Z</time>
      </trkpt>
      <trkpt lat="47.77437" lon="6.76033">
        <ele>611.99</ele>
        <time>2021-06-23T12:18:31Z</time>
      </trkpt>
      <trkpt lat="47.77387" lon="6.75899">
        <ele>597.84</ele>
        <time>2021-06-23T12:18:33Z</time>
      </trkpt>
      <trkpt lat="47.77378" lon="6.75868">
        <ele>596.35</ele>
        <time>2021-06-23T12:18:35Z</time>
      </trkpt>
      <trkpt lat="47.77367" lon="6.75814">
        <ele>592.61</ele>
        <time>2021-06-23T12:18:37Z</time>
      </trkpt>
      <trkpt lat="47.77354" lon="6.75778">
        <ele>591.13</ele>
        <time>2021-06-23T12:18:39Z</time>
      </trkpt>
      <trkpt lat="47.77338" lon="6.75741">
        <ele>592.8</ele>
        <time>2021-06-23T12:18:42Z</time>
      </trkpt>
      <trkpt lat="47.7733" lon="6.75717">
        <ele>593.57</ele>
        <time>2021-06-23T12:18:44Z</time>
      </trkpt>
      <trkpt lat="47.77323" lon="6.75676">
        <ele>588.7</ele>
        <time>2021-06-23T12:18:46Z</time>
      </trkpt>
      <trkpt lat="47.77314" lon="6.75618">
        <ele>576.79</ele>
        <time>2021-06-23T12:18:48Z</time>
      </trkpt>
      <trkpt lat="47.77303" lon="6.75519">
        <ele>569.98</ele>
        <time>2021-06-23T12:18:50Z</time>
      </trkpt>
      <trkpt lat="47.77279" lon="6.75332">
        <ele>551.44</ele>
        <time>2021-06-23T12:18:52Z</time>
      </trkpt>
      <trkpt lat="47.77263" lon="6.75177">
        <ele>544.11</ele>
        <time>2021-06-23T12:18:54Z</time>
      </trkpt>
      <trkpt lat="47.77262" lon="6.75153">
        <ele>542.38</ele>
        <time>2021-06-23T12:18:56Z</time>
      </trkpt>
      <trkpt lat="47.7726" lon="6.75133">
        <ele>542.01</ele>
        <time>2021-06-23T12:18:59Z</time>
      </trkpt>
      <trkpt lat="47.77255" lon="6.75107">
        <ele>541.79</ele>
        <time>2021-06-23T12:19:02Z</time>
      </trkpt>
      <trkpt lat="47.77199" lon="6.74891">
        <ele>537.72</ele>
        <time>2021-06-23T12:19:04Z</time>
      </trkpt>
      <trkpt lat="47.77194" lon="6.74867">
        <ele>537.52</ele>
        <time>2021-06-23T12:19:07Z</time>
      </trkpt>
      <trkpt lat="47.7719" lon="6.74807">
        <ele>531.1</ele>
        <time>2021-06-23T12:19:09Z</time>
      </trkpt>
      <trkpt lat="47.77186" lon="6.74791">
        <ele>530.16</ele>
        <time>2021-06-23T12:19:12Z</time>
      </trkpt>
      <trkpt lat="47.77172" lon="6.74748">
        <ele>527.76</ele>
        <time>2021-06-23T12:19:15Z</time>
      </trkpt>
      <trkpt lat="47.77157" lon="6.74719">
        <ele>526.03</ele>
        <time>2021-06-23T12:19:17Z</time>
      </trkpt>
      <trkpt lat="47.77141" lon="6.74696">
        <ele>525.9</ele>
        <time>2021-06-23T12:19:20Z</time>
      </trkpt>
      <trkpt lat="47.77113" lon="6.74667">
        <ele>529.42</ele>
        <time>2021-06-23T12:19:22Z</time>
      </trkpt>
      <trkpt lat="47.77103" lon="6.74638">
        <ele>528.55</ele>
        <time>2021-06-23T12:19:25Z</time>
      </trkpt>
      <trkpt lat="47.77101" lon="6.74614">
        <ele>525.92</ele>
        <time>2021-06-23T12:19:28Z</time>
      </trkpt>
      <trkpt lat="47.77104" lon="6.74591">
        <ele>523.14</ele>
        <time>2021-06-23T12:19:30Z</time>
      </trkpt>
      <trkpt lat="47.77109" lon="6.74574">
        <ele>521.46</ele>
        <time>2021-06-23T12:19:33Z</time>
      </trkpt>
      <trkpt lat="47.77129" lon="6.74517">
        <ele>520.05</ele>
        <time>2021-06-23T12:19:36Z</time>
      </trkpt>
      <trkpt lat="47.77129" lon="6.74495">
        <ele>519.32</ele>
        <time>2021-06-23T12:19:38Z</time>
      </trkpt>
      <trkpt lat="47.77125" lon="6.74478">
        <ele>517.9</ele>
        <time>2021-06-23T12:19:41Z</time>
      </trkpt>
      <trkpt lat="47.77077" lon="6.74386">
        <ele>511</ele>
        <time>2021-06-23T12:19:43Z</time>
      </trkpt>
      <trkpt lat="47.7707" lon="6.74362">
        <ele>511</ele>
        <time>2021-06-23T12:19:46Z</time>
      </trkpt>
      <trkpt lat="47.77062" lon="6.7431">
        <ele>512.49</ele>
        <time>2021-06-23T12:19:49Z</time>
      </trkpt>
      <trkpt lat="47.77058" lon="6.74294">
        <ele>512.74</ele>
        <time>2021-06-23T12:19:51Z</time>
      </trkpt>
      <trkpt lat="47.77042" lon="6.74265">
        <ele>514.29</ele>
        <time>2021-06-23T12:19:54Z</time>
      </trkpt>
      <trkpt lat="47.77042" lon="6.74265">
        <ele>514.29</ele>
        <time>2021-06-23T12:19:54Z</time>
      </trkpt>
      <trkpt lat="47.77034" lon="6.74254">
        <ele>514.9</ele>
        <time>2021-06-23T12:19:59Z</time>
      </trkpt>
      <trkpt lat="47.77" lon="6.74238">
        <ele>515.82</ele>
        <time>2021-06-23T12:20:03Z</time>
      </trkpt>
      <trkpt lat="47.76964" lon="6.74227">
        <ele>511.83</ele>
        <time>2021-06-23T12:20:08Z</time>
      </trkpt>
      <trkpt lat="47.76936" lon="6.74215">
        <ele>510.95</ele>
        <time>2021-06-23T12:20:13Z</time>
      </trkpt>
      <trkpt lat="47.76916" lon="6.74209">
        <ele>511.5</ele>
        <time>2021-06-23T12:20:18Z</time>
      </trkpt>
      <trkpt lat="47.769" lon="6.74207">
        <ele>511.89</ele>
        <time>2021-06-23T12:20:23Z</time>
      </trkpt>
      <trkpt lat="47.76886" lon="6.74208">
        <ele>512.04</ele>
        <time>2021-06-23T12:20:28Z</time>
      </trkpt>
      <trkpt lat="47.76873" lon="6.74212">
        <ele>511.73</ele>
        <time>2021-06-23T12:20:33Z</time>
      </trkpt>
      <trkpt lat="47.76856" lon="6.74224">
        <ele>510.67</ele>
        <time>2021-06-23T12:20:37Z</time>
      </trkpt>
      <trkpt lat="47.76826" lon="6.74258">
        <ele>508.15</ele>
        <time>2021-06-23T12:20:42Z</time>
      </trkpt>
      <trkpt lat="47.76813" lon="6.7427">
        <ele>507.67</ele>
        <time>2021-06-23T12:20:47Z</time>
      </trkpt>
      <trkpt lat="47.76798" lon="6.74276">
        <ele>507.69</ele>
        <time>2021-06-23T12:20:52Z</time>
      </trkpt>
      <trkpt lat="47.7676" lon="6.74273">
        <ele>505.73</ele>
        <time>2021-06-23T12:20:57Z</time>
      </trkpt>
      <trkpt lat="47.76745" lon="6.74265">
        <ele>504.52</ele>
        <time>2021-06-23T12:21:02Z</time>
      </trkpt>
      <trkpt lat="47.76726" lon="6.74249">
        <ele>503.33</ele>
        <time>2021-06-23T12:21:07Z</time>
      </trkpt>
      <trkpt lat="47.76706" lon="6.74229">
        <ele>502.17</ele>
        <time>2021-06-23T12:21:12Z</time>
      </trkpt>
      <trkpt lat="47.76644" lon="6.74158">
        <ele>501.74</ele>
        <time>2021-06-23T12:21:16Z</time>
      </trkpt>
      <trkpt lat="47.76635" lon="6.74151">
        <ele>502.31</ele>
        <time>2021-06-23T12:21:21Z</time>
      </trkpt>
      <trkpt lat="47.76576" lon="6.74133">
        <ele>504.58</ele>
        <time>2021-06-23T12:21:26Z</time>
      </trkpt>
      <trkpt lat="47.76565" lon="6.74133">
        <ele>506.02</ele>
        <time>2021-06-23T12:21:31Z</time>
      </trkpt>
      <trkpt lat="47.76501" lon="6.74157">
        <ele>503.82</ele>
        <time>2021-06-23T12:21:36Z</time>
      </trkpt>
      <trkpt lat="47.76436" lon="6.74171">
        <ele>500.51</ele>
        <time>2021-06-23T12:21:41Z</time>
      </trkpt>
      <trkpt lat="47.76413" lon="6.74179">
        <ele>499.92</ele>
        <time>2021-06-23T12:21:46Z</time>
      </trkpt>
      <trkpt lat="47.76366" lon="6.74205">
        <ele>500.4</ele>
        <time>2021-06-23T12:21:50Z</time>
      </trkpt>
      <trkpt lat="47.76324" lon="6.74214">
        <ele>502.77</ele>
        <time>2021-06-23T12:21:55Z</time>
      </trkpt>
      <trkpt lat="47.76247" lon="6.74221">
        <ele>498.43</ele>
        <time>2021-06-23T12:22:00Z</time>
      </trkpt>
      <trkpt lat="47.76173" lon="6.74251">
        <ele>502.98</ele>
        <time>2021-06-23T12:22:05Z</time>
      </trkpt>
      <trkpt lat="47.76163" lon="6.74252">
        <ele>503.52</ele>
        <time>2021-06-23T12:22:10Z</time>
      </trkpt>
      <trkpt lat="47.76144" lon="6.74245">
        <ele>501.25</ele>
        <time>2021-06-23T12:22:15Z</time>
      </trkpt>
      <trkpt lat="47.76121" lon="6.74223">
        <ele>497.07</ele>
        <time>2021-06-23T12:22:20Z</time>
      </trkpt>
      <trkpt lat="47.76085" lon="6.7416">
        <ele>495.12</ele>
        <time>2021-06-23T12:22:24Z</time>
      </trkpt>
      <trkpt lat="47.76075" lon="6.7415">
        <ele>494.59</ele>
        <time>2021-06-23T12:22:29Z</time>
      </trkpt>
      <trkpt lat="47.76022" lon="6.7412">
        <ele>493.86</ele>
        <time>2021-06-23T12:22:34Z</time>
      </trkpt>
      <trkpt lat="47.75993" lon="6.74108">
        <ele>492.64</ele>
        <time>2021-06-23T12:22:39Z</time>
      </trkpt>
      <trkpt lat="47.75931" lon="6.74039">
        <ele>490.05</ele>
        <time>2021-06-23T12:22:44Z</time>
      </trkpt>
      <trkpt lat="47.75885" lon="6.73992">
        <ele>488</ele>
        <time>2021-06-23T12:22:49Z</time>
      </trkpt>
      <trkpt lat="47.75846" lon="6.7397">
        <ele>488.09</ele>
        <time>2021-06-23T12:22:54Z</time>
      </trkpt>
      <trkpt lat="47.75778" lon="6.73891">
        <ele>489</ele>
        <time>2021-06-23T12:22:58Z</time>
      </trkpt>
      <trkpt lat="47.75737" lon="6.73835">
        <ele>489.51</ele>
        <time>2021-06-23T12:23:03Z</time>
      </trkpt>
      <trkpt lat="47.75719" lon="6.73817">
        <ele>489.58</ele>
        <time>2021-06-23T12:23:08Z</time>
      </trkpt>
      <trkpt lat="47.75707" lon="6.73811">
        <ele>489.81</ele>
        <time>2021-06-23T12:23:13Z</time>
      </trkpt>
      <trkpt lat="47.75618" lon="6.738">
        <ele>487.68</ele>
        <time>2021-06-23T12:23:18Z</time>
      </trkpt>
      <trkpt lat="47.75603" lon="6.73792">
        <ele>487.04</ele>
        <time>2021-06-23T12:23:23Z</time>
      </trkpt>
      <trkpt lat="47.75588" lon="6.7378">
        <ele>486.3</ele>
        <time>2021-06-23T12:23:28Z</time>
      </trkpt>
      <trkpt lat="47.75574" lon="6.73764">
        <ele>485.04</ele>
        <time>2021-06-23T12:23:32Z</time>
      </trkpt>
      <trkpt lat="47.75565" lon="6.73748">
        <ele>484.18</ele>
        <time>2021-06-23T12:23:37Z</time>
      </trkpt>
      <trkpt lat="47.75559" lon="6.73712">
        <ele>485.7</ele>
        <time>2021-06-23T12:23:42Z</time>
      </trkpt>
      <trkpt lat="47.75545" lon="6.7357">
        <ele>484.58</ele>
        <time>2021-06-23T12:23:47Z</time>
      </trkpt>
      <trkpt lat="47.75541" lon="6.7355">
        <ele>483.44</ele>
        <time>2021-06-23T12:23:52Z</time>
      </trkpt>
      <trkpt lat="47.7551" lon="6.73477">
        <ele>484.5</ele>
        <time>2021-06-23T12:23:57Z</time>
      </trkpt>
      <trkpt lat="47.75458" lon="6.73397">
        <ele>483.69</ele>
        <time>2021-06-23T12:24:02Z</time>
      </trkpt>
      <trkpt lat="47.75407" lon="6.73312">
        <ele>487.27</ele>
        <time>2021-06-23T12:24:06Z</time>
      </trkpt>
      <trkpt lat="47.75388" lon="6.73293">
        <ele>484.17</ele>
        <time>2021-06-23T12:24:11Z</time>
      </trkpt>
      <trkpt lat="47.75356" lon="6.7327">
        <ele>480.44</ele>
        <time>2021-06-23T12:24:16Z</time>
      </trkpt>
      <trkpt lat="47.75279" lon="6.73231">
        <ele>479.72</ele>
        <time>2021-06-23T12:24:21Z</time>
      </trkpt>
      <trkpt lat="47.75255" lon="6.73215">
        <ele>480.65</ele>
        <time>2021-06-23T12:24:26Z</time>
      </trkpt>
      <trkpt lat="47.75161" lon="6.7313">
        <ele>479.18</ele>
        <time>2021-06-23T12:24:31Z</time>
      </trkpt>
      <trkpt lat="47.75125" lon="6.73107">
        <ele>479.19</ele>
        <time>2021-06-23T12:24:36Z</time>
      </trkpt>
      <trkpt lat="47.7507" lon="6.73083">
        <ele>477.07</ele>
        <time>2021-06-23T12:24:41Z</time>
      </trkpt>
      <trkpt lat="47.75058" lon="6.73079">
        <ele>476.42</ele>
        <time>2021-06-23T12:24:45Z</time>
      </trkpt>
      <trkpt lat="47.75062" lon="6.73053">
        <ele>477.26</ele>
        <time>2021-06-23T12:24:47Z</time>
      </trkpt>
      <trkpt lat="47.75062" lon="6.73053">
        <ele>477.26</ele>
        <time>2021-06-23T12:24:47Z</time>
      </trkpt>
      <trkpt lat="47.75092" lon="6.72886">
        <ele>477.85</ele>
        <time>2021-06-23T12:24:49Z</time>
      </trkpt>
      <trkpt lat="47.75116" lon="6.72794">
        <ele>483.98</ele>
        <time>2021-06-23T12:24:52Z</time>
      </trkpt>
      <trkpt lat="47.75126" lon="6.72781">
        <ele>485.76</ele>
        <time>2021-06-23T12:24:54Z</time>
      </trkpt>
      <trkpt lat="47.75145" lon="6.72766">
        <ele>490.03</ele>
        <time>2021-06-23T12:24:57Z</time>
      </trkpt>
      <trkpt lat="47.7515" lon="6.72757">
        <ele>491.57</ele>
        <time>2021-06-23T12:24:59Z</time>
      </trkpt>
      <trkpt lat="47.75153" lon="6.72743">
        <ele>493.01</ele>
        <time>2021-06-23T12:25:02Z</time>
      </trkpt>
      <trkpt lat="47.75153" lon="6.72733">
        <ele>493.52</ele>
        <time>2021-06-23T12:25:04Z</time>
      </trkpt>
      <trkpt lat="47.75147" lon="6.72695">
        <ele>494.73</ele>
        <time>2021-06-23T12:25:07Z</time>
      </trkpt>
      <trkpt lat="47.75146" lon="6.72677">
        <ele>495.85</ele>
        <time>2021-06-23T12:25:09Z</time>
      </trkpt>
      <trkpt lat="47.75146" lon="6.72666">
        <ele>496.87</ele>
        <time>2021-06-23T12:25:12Z</time>
      </trkpt>
      <trkpt lat="47.75153" lon="6.72624">
        <ele>498.91</ele>
        <time>2021-06-23T12:25:14Z</time>
      </trkpt>
      <trkpt lat="47.75158" lon="6.72602">
        <ele>499.16</ele>
        <time>2021-06-23T12:25:17Z</time>
      </trkpt>
      <trkpt lat="47.75168" lon="6.7258">
        <ele>499.57</ele>
        <time>2021-06-23T12:25:19Z</time>
      </trkpt>
      <trkpt lat="47.75193" lon="6.72556">
        <ele>499.86</ele>
        <time>2021-06-23T12:25:22Z</time>
      </trkpt>
      <trkpt lat="47.75203" lon="6.72541">
        <ele>499.43</ele>
        <time>2021-06-23T12:25:24Z</time>
      </trkpt>
      <trkpt lat="47.75208" lon="6.72526">
        <ele>499.08</ele>
        <time>2021-06-23T12:25:27Z</time>
      </trkpt>
      <trkpt lat="47.75212" lon="6.72499">
        <ele>501.04</ele>
        <time>2021-06-23T12:25:29Z</time>
      </trkpt>
      <trkpt lat="47.75214" lon="6.72468">
        <ele>503.63</ele>
        <time>2021-06-23T12:25:32Z</time>
      </trkpt>
      <trkpt lat="47.75209" lon="6.72433">
        <ele>508.32</ele>
        <time>2021-06-23T12:25:35Z</time>
      </trkpt>
      <trkpt lat="47.75199" lon="6.72411">
        <ele>511.67</ele>
        <time>2021-06-23T12:25:37Z</time>
      </trkpt>
      <trkpt lat="47.75181" lon="6.72386">
        <ele>513.64</ele>
        <time>2021-06-23T12:25:40Z</time>
      </trkpt>
      <trkpt lat="47.75113" lon="6.72344">
        <ele>513.32</ele>
        <time>2021-06-23T12:25:42Z</time>
      </trkpt>
      <trkpt lat="47.751" lon="6.72332">
        <ele>513.23</ele>
        <time>2021-06-23T12:25:45Z</time>
      </trkpt>
      <trkpt lat="47.75093" lon="6.7232">
        <ele>513.41</ele>
        <time>2021-06-23T12:25:47Z</time>
      </trkpt>
      <trkpt lat="47.75088" lon="6.72305">
        <ele>514.96</ele>
        <time>2021-06-23T12:25:50Z</time>
      </trkpt>
      <trkpt lat="47.75083" lon="6.72282">
        <ele>515.6</ele>
        <time>2021-06-23T12:25:52Z</time>
      </trkpt>
      <trkpt lat="47.75081" lon="6.72244">
        <ele>516.81</ele>
        <time>2021-06-23T12:25:55Z</time>
      </trkpt>
      <trkpt lat="47.75083" lon="6.72221">
        <ele>517.95</ele>
        <time>2021-06-23T12:25:57Z</time>
      </trkpt>
      <trkpt lat="47.75093" lon="6.7216">
        <ele>520.21</ele>
        <time>2021-06-23T12:26:00Z</time>
      </trkpt>
      <trkpt lat="47.75103" lon="6.7214">
        <ele>520.46</ele>
        <time>2021-06-23T12:26:02Z</time>
      </trkpt>
      <trkpt lat="47.75119" lon="6.72118">
        <ele>522.88</ele>
        <time>2021-06-23T12:26:05Z</time>
      </trkpt>
      <trkpt lat="47.75152" lon="6.7206">
        <ele>530.13</ele>
        <time>2021-06-23T12:26:07Z</time>
      </trkpt>
      <trkpt lat="47.75164" lon="6.72051">
        <ele>532.22</ele>
        <time>2021-06-23T12:26:10Z</time>
      </trkpt>
      <trkpt lat="47.75172" lon="6.72051">
        <ele>533.42</ele>
        <time>2021-06-23T12:26:12Z</time>
      </trkpt>
      <trkpt lat="47.75182" lon="6.72056">
        <ele>534.67</ele>
        <time>2021-06-23T12:26:15Z</time>
      </trkpt>
      <trkpt lat="47.7519" lon="6.72067">
        <ele>535.72</ele>
        <time>2021-06-23T12:26:17Z</time>
      </trkpt>
      <trkpt lat="47.75194" lon="6.72079">
        <ele>536.1</ele>
        <time>2021-06-23T12:26:20Z</time>
      </trkpt>
      <trkpt lat="47.75196" lon="6.72093">
        <ele>536.5</ele>
        <time>2021-06-23T12:26:22Z</time>
      </trkpt>
      <trkpt lat="47.75199" lon="6.72128">
        <ele>537.31</ele>
        <time>2021-06-23T12:26:25Z</time>
      </trkpt>
      <trkpt lat="47.75206" lon="6.72174">
        <ele>536.7</ele>
        <time>2021-06-23T12:26:27Z</time>
      </trkpt>
      <trkpt lat="47.75216" lon="6.72212">
        <ele>536.78</ele>
        <time>2021-06-23T12:26:30Z</time>
      </trkpt>
      <trkpt lat="47.75223" lon="6.72225">
        <ele>537</ele>
        <time>2021-06-23T12:26:32Z</time>
      </trkpt>
      <trkpt lat="47.7523" lon="6.72234">
        <ele>537</ele>
        <time>2021-06-23T12:26:35Z</time>
      </trkpt>
      <trkpt lat="47.75252" lon="6.72249">
        <ele>536.99</ele>
        <time>2021-06-23T12:26:37Z</time>
      </trkpt>
      <trkpt lat="47.75263" lon="6.72251">
        <ele>536.96</ele>
        <time>2021-06-23T12:26:40Z</time>
      </trkpt>
      <trkpt lat="47.75272" lon="6.72248">
        <ele>536.94</ele>
        <time>2021-06-23T12:26:42Z</time>
      </trkpt>
      <trkpt lat="47.75282" lon="6.72239">
        <ele>536.51</ele>
        <time>2021-06-23T12:26:45Z</time>
      </trkpt>
      <trkpt lat="47.75287" lon="6.72228">
        <ele>536.13</ele>
        <time>2021-06-23T12:26:47Z</time>
      </trkpt>
      <trkpt lat="47.75295" lon="6.72199">
        <ele>536.52</ele>
        <time>2021-06-23T12:26:50Z</time>
      </trkpt>
      <trkpt lat="47.75312" lon="6.72147">
        <ele>540.47</ele>
        <time>2021-06-23T12:26:52Z</time>
      </trkpt>
      <trkpt lat="47.75324" lon="6.72129">
        <ele>542.79</ele>
        <time>2021-06-23T12:26:55Z</time>
      </trkpt>
      <trkpt lat="47.75334" lon="6.72124">
        <ele>544.06</ele>
        <time>2021-06-23T12:26:57Z</time>
      </trkpt>
      <trkpt lat="47.75345" lon="6.72123">
        <ele>546.05</ele>
        <time>2021-06-23T12:27:00Z</time>
      </trkpt>
      <trkpt lat="47.75355" lon="6.72124">
        <ele>547.97</ele>
        <time>2021-06-23T12:27:02Z</time>
      </trkpt>
      <trkpt lat="47.75424" lon="6.72209">
        <ele>560.57</ele>
        <time>2021-06-23T12:27:05Z</time>
      </trkpt>
      <trkpt lat="47.75446" lon="6.72244">
        <ele>561.65</ele>
        <time>2021-06-23T12:27:07Z</time>
      </trkpt>
      <trkpt lat="47.75484" lon="6.72318">
        <ele>563.98</ele>
        <time>2021-06-23T12:27:10Z</time>
      </trkpt>
      <trkpt lat="47.75513" lon="6.72355">
        <ele>565.52</ele>
        <time>2021-06-23T12:27:12Z</time>
      </trkpt>
      <trkpt lat="47.75549" lon="6.72392">
        <ele>565</ele>
        <time>2021-06-23T12:27:15Z</time>
      </trkpt>
      <trkpt lat="47.75572" lon="6.72422">
        <ele>570.66</ele>
        <time>2021-06-23T12:27:17Z</time>
      </trkpt>
      <trkpt lat="47.75582" lon="6.72431">
        <ele>573.57</ele>
        <time>2021-06-23T12:27:20Z</time>
      </trkpt>
      <trkpt lat="47.75587" lon="6.72433">
        <ele>574.46</ele>
        <time>2021-06-23T12:27:22Z</time>
      </trkpt>
      <trkpt lat="47.75602" lon="6.7243">
        <ele>575.29</ele>
        <time>2021-06-23T12:27:25Z</time>
      </trkpt>
      <trkpt lat="47.75618" lon="6.72414">
        <ele>575.85</ele>
        <time>2021-06-23T12:27:27Z</time>
      </trkpt>
      <trkpt lat="47.75622" lon="6.72402">
        <ele>576.07</ele>
        <time>2021-06-23T12:27:30Z</time>
      </trkpt>
      <trkpt lat="47.75624" lon="6.72389">
        <ele>575.9</ele>
        <time>2021-06-23T12:27:32Z</time>
      </trkpt>
      <trkpt lat="47.75624" lon="6.72371">
        <ele>576.17</ele>
        <time>2021-06-23T12:27:35Z</time>
      </trkpt>
      <trkpt lat="47.75609" lon="6.72291">
        <ele>576.81</ele>
        <time>2021-06-23T12:27:37Z</time>
      </trkpt>
      <trkpt lat="47.7559" lon="6.72204">
        <ele>583.73</ele>
        <time>2021-06-23T12:27:40Z</time>
      </trkpt>
      <trkpt lat="47.75577" lon="6.7217">
        <ele>581.94</ele>
        <time>2021-06-23T12:27:43Z</time>
      </trkpt>
      <trkpt lat="47.75559" lon="6.72135">
        <ele>584.86</ele>
        <time>2021-06-23T12:27:45Z</time>
      </trkpt>
      <trkpt lat="47.75535" lon="6.72105">
        <ele>587.63</ele>
        <time>2021-06-23T12:27:48Z</time>
      </trkpt>
      <trkpt lat="47.75499" lon="6.72064">
        <ele>586.56</ele>
        <time>2021-06-23T12:27:50Z</time>
      </trkpt>
      <trkpt lat="47.75485" lon="6.72042">
        <ele>587.31</ele>
        <time>2021-06-23T12:27:53Z</time>
      </trkpt>
      <trkpt lat="47.75472" lon="6.72006">
        <ele>589.14</ele>
        <time>2021-06-23T12:27:55Z</time>
      </trkpt>
      <trkpt lat="47.75465" lon="6.71973">
        <ele>593.87</ele>
        <time>2021-06-23T12:27:58Z</time>
      </trkpt>
      <trkpt lat="47.75459" lon="6.71942">
        <ele>596.97</ele>
        <time>2021-06-23T12:28:00Z</time>
      </trkpt>
      <trkpt lat="47.75456" lon="6.71899">
        <ele>596.03</ele>
        <time>2021-06-23T12:28:03Z</time>
      </trkpt>
      <trkpt lat="47.75459" lon="6.71845">
        <ele>594.52</ele>
        <time>2021-06-23T12:28:05Z</time>
      </trkpt>
      <trkpt lat="47.75489" lon="6.71762">
        <ele>602.58</ele>
        <time>2021-06-23T12:28:08Z</time>
      </trkpt>
      <trkpt lat="47.755" lon="6.71726">
        <ele>605.26</ele>
        <time>2021-06-23T12:28:10Z</time>
      </trkpt>
      <trkpt lat="47.75514" lon="6.71696">
        <ele>607.76</ele>
        <time>2021-06-23T12:28:13Z</time>
      </trkpt>
      <trkpt lat="47.7553" lon="6.71671">
        <ele>611.13</ele>
        <time>2021-06-23T12:28:15Z</time>
      </trkpt>
      <trkpt lat="47.75549" lon="6.71648">
        <ele>616.11</ele>
        <time>2021-06-23T12:28:18Z</time>
      </trkpt>
      <trkpt lat="47.75571" lon="6.71628">
        <ele>619.42</ele>
        <time>2021-06-23T12:28:20Z</time>
      </trkpt>
      <trkpt lat="47.7559" lon="6.71617">
        <ele>620.28</ele>
        <time>2021-06-23T12:28:23Z</time>
      </trkpt>
      <trkpt lat="47.75617" lon="6.71608">
        <ele>617.76</ele>
        <time>2021-06-23T12:28:25Z</time>
      </trkpt>
      <trkpt lat="47.75631" lon="6.71605">
        <ele>614.53</ele>
        <time>2021-06-23T12:28:28Z</time>
      </trkpt>
      <trkpt lat="47.75643" lon="6.71608">
        <ele>611.99</ele>
        <time>2021-06-23T12:28:30Z</time>
      </trkpt>
      <trkpt lat="47.75658" lon="6.71618">
        <ele>609.95</ele>
        <time>2021-06-23T12:28:33Z</time>
      </trkpt>
      <trkpt lat="47.75671" lon="6.71631">
        <ele>608.46</ele>
        <time>2021-06-23T12:28:35Z</time>
      </trkpt>
      <trkpt lat="47.75685" lon="6.71647">
        <ele>606.52</ele>
        <time>2021-06-23T12:28:38Z</time>
      </trkpt>
      <trkpt lat="47.75712" lon="6.717">
        <ele>603.81</ele>
        <time>2021-06-23T12:28:40Z</time>
      </trkpt>
      <trkpt lat="47.7574" lon="6.71744">
        <ele>606.41</ele>
        <time>2021-06-23T12:28:43Z</time>
      </trkpt>
      <trkpt lat="47.75746" lon="6.71749">
        <ele>607.55</ele>
        <time>2021-06-23T12:28:45Z</time>
      </trkpt>
      <trkpt lat="47.75751" lon="6.71752">
        <ele>608.51</ele>
        <time>2021-06-23T12:28:48Z</time>
      </trkpt>
      <trkpt lat="47.75759" lon="6.71752">
        <ele>607.47</ele>
        <time>2021-06-23T12:28:50Z</time>
      </trkpt>
      <trkpt lat="47.75766" lon="6.7175">
        <ele>605.66</ele>
        <time>2021-06-23T12:28:53Z</time>
      </trkpt>
      <trkpt lat="47.75778" lon="6.71739">
        <ele>601.25</ele>
        <time>2021-06-23T12:28:55Z</time>
      </trkpt>
      <trkpt lat="47.75782" lon="6.7173">
        <ele>598.34</ele>
        <time>2021-06-23T12:28:58Z</time>
      </trkpt>
      <trkpt lat="47.75783" lon="6.71712">
        <ele>594.91</ele>
        <time>2021-06-23T12:29:00Z</time>
      </trkpt>
      <trkpt lat="47.75781" lon="6.71701">
        <ele>593.66</ele>
        <time>2021-06-23T12:29:03Z</time>
      </trkpt>
      <trkpt lat="47.75772" lon="6.7168">
        <ele>593.31</ele>
        <time>2021-06-23T12:29:05Z</time>
      </trkpt>
      <trkpt lat="47.75735" lon="6.71623">
        <ele>593.81</ele>
        <time>2021-06-23T12:29:08Z</time>
      </trkpt>
      <trkpt lat="47.75726" lon="6.71603">
        <ele>592.93</ele>
        <time>2021-06-23T12:29:10Z</time>
      </trkpt>
      <trkpt lat="47.75721" lon="6.71589">
        <ele>592.65</ele>
        <time>2021-06-23T12:29:13Z</time>
      </trkpt>
      <trkpt lat="47.7572" lon="6.71577">
        <ele>592.13</ele>
        <time>2021-06-23T12:29:15Z</time>
      </trkpt>
      <trkpt lat="47.75723" lon="6.71563">
        <ele>591.23</ele>
        <time>2021-06-23T12:29:18Z</time>
      </trkpt>
      <trkpt lat="47.75732" lon="6.71533">
        <ele>589.84</ele>
        <time>2021-06-23T12:29:20Z</time>
      </trkpt>
      <trkpt lat="47.75739" lon="6.71496">
        <ele>590.58</ele>
        <time>2021-06-23T12:29:23Z</time>
      </trkpt>
      <trkpt lat="47.75763" lon="6.71335">
        <ele>584.56</ele>
        <time>2021-06-23T12:29:25Z</time>
      </trkpt>
      <trkpt lat="47.75782" lon="6.71238">
        <ele>585.01</ele>
        <time>2021-06-23T12:29:28Z</time>
      </trkpt>
      <trkpt lat="47.75783" lon="6.71215">
        <ele>585.66</ele>
        <time>2021-06-23T12:29:30Z</time>
      </trkpt>
      <trkpt lat="47.75782" lon="6.71146">
        <ele>580.94</ele>
        <time>2021-06-23T12:29:33Z</time>
      </trkpt>
      <trkpt lat="47.75782" lon="6.71135">
        <ele>580.19</ele>
        <time>2021-06-23T12:29:35Z</time>
      </trkpt>
      <trkpt lat="47.75787" lon="6.71121">
        <ele>579.37</ele>
        <time>2021-06-23T12:29:38Z</time>
      </trkpt>
      <trkpt lat="47.75791" lon="6.71115">
        <ele>578.61</ele>
        <time>2021-06-23T12:29:40Z</time>
      </trkpt>
      <trkpt lat="47.75798" lon="6.7111">
        <ele>577.41</ele>
        <time>2021-06-23T12:29:43Z</time>
      </trkpt>
      <trkpt lat="47.75806" lon="6.71107">
        <ele>576</ele>
        <time>2021-06-23T12:29:46Z</time>
      </trkpt>
      <trkpt lat="47.75817" lon="6.71111">
        <ele>573.57</ele>
        <time>2021-06-23T12:29:48Z</time>
      </trkpt>
      <trkpt lat="47.75822" lon="6.71117">
        <ele>572.67</ele>
        <time>2021-06-23T12:29:51Z</time>
      </trkpt>
      <trkpt lat="47.75827" lon="6.71127">
        <ele>571.77</ele>
        <time>2021-06-23T12:29:53Z</time>
      </trkpt>
      <trkpt lat="47.75831" lon="6.71138">
        <ele>571.42</ele>
        <time>2021-06-23T12:29:56Z</time>
      </trkpt>
      <trkpt lat="47.75841" lon="6.71194">
        <ele>573.25</ele>
        <time>2021-06-23T12:29:58Z</time>
      </trkpt>
      <trkpt lat="47.75845" lon="6.71204">
        <ele>573.04</ele>
        <time>2021-06-23T12:30:01Z</time>
      </trkpt>
      <trkpt lat="47.75857" lon="6.71228">
        <ele>572.01</ele>
        <time>2021-06-23T12:30:03Z</time>
      </trkpt>
      <trkpt lat="47.75866" lon="6.71239">
        <ele>572.43</ele>
        <time>2021-06-23T12:30:06Z</time>
      </trkpt>
      <trkpt lat="47.75874" lon="6.71243">
        <ele>573.18</ele>
        <time>2021-06-23T12:30:08Z</time>
      </trkpt>
      <trkpt lat="47.75883" lon="6.71244">
        <ele>573.79</ele>
        <time>2021-06-23T12:30:11Z</time>
      </trkpt>
      <trkpt lat="47.7589" lon="6.71241">
        <ele>574.07</ele>
        <time>2021-06-23T12:30:13Z</time>
      </trkpt>
      <trkpt lat="47.75899" lon="6.71232">
        <ele>574.92</ele>
        <time>2021-06-23T12:30:16Z</time>
      </trkpt>
      <trkpt lat="47.75903" lon="6.71224">
        <ele>574.81</ele>
        <time>2021-06-23T12:30:18Z</time>
      </trkpt>
      <trkpt lat="47.75941" lon="6.71102">
        <ele>567.98</ele>
        <time>2021-06-23T12:30:21Z</time>
      </trkpt>
      <trkpt lat="47.75949" lon="6.71079">
        <ele>565.04</ele>
        <time>2021-06-23T12:30:23Z</time>
      </trkpt>
      <trkpt lat="47.75957" lon="6.71062">
        <ele>563.44</ele>
        <time>2021-06-23T12:30:26Z</time>
      </trkpt>
      <trkpt lat="47.75966" lon="6.71049">
        <ele>562.69</ele>
        <time>2021-06-23T12:30:28Z</time>
      </trkpt>
      <trkpt lat="47.76011" lon="6.71003">
        <ele>561.5</ele>
        <time>2021-06-23T12:30:31Z</time>
      </trkpt>
      <trkpt lat="47.76025" lon="6.70986">
        <ele>559.21</ele>
        <time>2021-06-23T12:30:33Z</time>
      </trkpt>
      <trkpt lat="47.76036" lon="6.7096">
        <ele>557.04</ele>
        <time>2021-06-23T12:30:36Z</time>
      </trkpt>
      <trkpt lat="47.76107" lon="6.70717">
        <ele>557.3</ele>
        <time>2021-06-23T12:30:38Z</time>
      </trkpt>
      <trkpt lat="47.76137" lon="6.70583">
        <ele>546.69</ele>
        <time>2021-06-23T12:30:41Z</time>
      </trkpt>
      <trkpt lat="47.76162" lon="6.70503">
        <ele>546.69</ele>
        <time>2021-06-23T12:30:43Z</time>
      </trkpt>
      <trkpt lat="47.76169" lon="6.70462">
        <ele>547.52</ele>
        <time>2021-06-23T12:30:46Z</time>
      </trkpt>
      <trkpt lat="47.76178" lon="6.70365">
        <ele>542.92</ele>
        <time>2021-06-23T12:30:48Z</time>
      </trkpt>
      <trkpt lat="47.7618" lon="6.70285">
        <ele>536.47</ele>
        <time>2021-06-23T12:30:51Z</time>
      </trkpt>
      <trkpt lat="47.76182" lon="6.70276">
        <ele>535.94</ele>
        <time>2021-06-23T12:30:53Z</time>
      </trkpt>
      <trkpt lat="47.76192" lon="6.70245">
        <ele>534.48</ele>
        <time>2021-06-23T12:30:56Z</time>
      </trkpt>
      <trkpt lat="47.76245" lon="6.70146">
        <ele>530.44</ele>
        <time>2021-06-23T12:30:58Z</time>
      </trkpt>
      <trkpt lat="47.7627" lon="6.7009">
        <ele>528.7</ele>
        <time>2021-06-23T12:31:01Z</time>
      </trkpt>
      <trkpt lat="47.76291" lon="6.70033">
        <ele>535.09</ele>
        <time>2021-06-23T12:31:03Z</time>
      </trkpt>
      <trkpt lat="47.76317" lon="6.69934">
        <ele>535.74</ele>
        <time>2021-06-23T12:31:06Z</time>
      </trkpt>
      <trkpt lat="47.7632" lon="6.69905">
        <ele>534.22</ele>
        <time>2021-06-23T12:31:08Z</time>
      </trkpt>
      <trkpt lat="47.76313" lon="6.69773">
        <ele>530.31</ele>
        <time>2021-06-23T12:31:11Z</time>
      </trkpt>
      <trkpt lat="47.76306" lon="6.69701">
        <ele>528.03</ele>
        <time>2021-06-23T12:31:13Z</time>
      </trkpt>
      <trkpt lat="47.76308" lon="6.69646">
        <ele>527.33</ele>
        <time>2021-06-23T12:31:16Z</time>
      </trkpt>
      <trkpt lat="47.76321" lon="6.69562">
        <ele>525.32</ele>
        <time>2021-06-23T12:31:18Z</time>
      </trkpt>
      <trkpt lat="47.76349" lon="6.69413">
        <ele>522.86</ele>
        <time>2021-06-23T12:31:21Z</time>
      </trkpt>
      <trkpt lat="47.76392" lon="6.6914">
        <ele>523.27</ele>
        <time>2021-06-23T12:31:23Z</time>
      </trkpt>
      <trkpt lat="47.76398" lon="6.69113">
        <ele>526.67</ele>
        <time>2021-06-23T12:31:26Z</time>
      </trkpt>
      <trkpt lat="47.76405" lon="6.69092">
        <ele>528.95</ele>
        <time>2021-06-23T12:31:28Z</time>
      </trkpt>
      <trkpt lat="47.76442" lon="6.69001">
        <ele>520.9</ele>
        <time>2021-06-23T12:31:31Z</time>
      </trkpt>
      <trkpt lat="47.7645" lon="6.6897">
        <ele>519.15</ele>
        <time>2021-06-23T12:31:33Z</time>
      </trkpt>
      <trkpt lat="47.76477" lon="6.68776">
        <ele>520.89</ele>
        <time>2021-06-23T12:31:36Z</time>
      </trkpt>
      <trkpt lat="47.76479" lon="6.68737">
        <ele>521.44</ele>
        <time>2021-06-23T12:31:38Z</time>
      </trkpt>
      <trkpt lat="47.7647" lon="6.68579">
        <ele>527.34</ele>
        <time>2021-06-23T12:31:41Z</time>
      </trkpt>
      <trkpt lat="47.76471" lon="6.68553">
        <ele>529.74</ele>
        <time>2021-06-23T12:31:43Z</time>
      </trkpt>
      <trkpt lat="47.76476" lon="6.68534">
        <ele>529.3</ele>
        <time>2021-06-23T12:31:46Z</time>
      </trkpt>
      <trkpt lat="47.76513" lon="6.68469">
        <ele>522.71</ele>
        <time>2021-06-23T12:31:48Z</time>
      </trkpt>
      <trkpt lat="47.7652" lon="6.68445">
        <ele>523.27</ele>
        <time>2021-06-23T12:31:51Z</time>
      </trkpt>
      <trkpt lat="47.7652" lon="6.68445">
        <ele>523.27</ele>
        <time>2021-06-23T12:31:51Z</time>
      </trkpt>
      <trkpt lat="47.76523" lon="6.68402">
        <ele>524.48</ele>
        <time>2021-06-23T12:31:55Z</time>
      </trkpt>
      <trkpt lat="47.76523" lon="6.68314">
        <ele>523.95</ele>
        <time>2021-06-23T12:31:59Z</time>
      </trkpt>
      <trkpt lat="47.76521" lon="6.68256">
        <ele>525.44</ele>
        <time>2021-06-23T12:32:02Z</time>
      </trkpt>
      <trkpt lat="47.76513" lon="6.68219">
        <ele>524.41</ele>
        <time>2021-06-23T12:32:06Z</time>
      </trkpt>
      <trkpt lat="47.76489" lon="6.68159">
        <ele>522.68</ele>
        <time>2021-06-23T12:32:10Z</time>
      </trkpt>
      <trkpt lat="47.76481" lon="6.68128">
        <ele>521.09</ele>
        <time>2021-06-23T12:32:14Z</time>
      </trkpt>
      <trkpt lat="47.76477" lon="6.68102">
        <ele>520.72</ele>
        <time>2021-06-23T12:32:17Z</time>
      </trkpt>
      <trkpt lat="47.76477" lon="6.68076">
        <ele>520.3</ele>
        <time>2021-06-23T12:32:21Z</time>
      </trkpt>
      <trkpt lat="47.7648" lon="6.68028">
        <ele>519.77</ele>
        <time>2021-06-23T12:32:25Z</time>
      </trkpt>
      <trkpt lat="47.76478" lon="6.67999">
        <ele>518.85</ele>
        <time>2021-06-23T12:32:29Z</time>
      </trkpt>
      <trkpt lat="47.76476" lon="6.67985">
        <ele>517.96</ele>
        <time>2021-06-23T12:32:32Z</time>
      </trkpt>
      <trkpt lat="47.76471" lon="6.67972">
        <ele>517.35</ele>
        <time>2021-06-23T12:32:36Z</time>
      </trkpt>
      <trkpt lat="47.76395" lon="6.67834">
        <ele>505.88</ele>
        <time>2021-06-23T12:32:40Z</time>
      </trkpt>
      <trkpt lat="47.76386" lon="6.67822">
        <ele>506.12</ele>
        <time>2021-06-23T12:32:44Z</time>
      </trkpt>
      <trkpt lat="47.76329" lon="6.67769">
        <ele>508.63</ele>
        <time>2021-06-23T12:32:48Z</time>
      </trkpt>
      <trkpt lat="47.76311" lon="6.67736">
        <ele>507.2</ele>
        <time>2021-06-23T12:32:51Z</time>
      </trkpt>
      <trkpt lat="47.76274" lon="6.67619">
        <ele>498.57</ele>
        <time>2021-06-23T12:32:55Z</time>
      </trkpt>
      <trkpt lat="47.76261" lon="6.67549">
        <ele>492.56</ele>
        <time>2021-06-23T12:32:59Z</time>
      </trkpt>
      <trkpt lat="47.76256" lon="6.6753">
        <ele>491.02</ele>
        <time>2021-06-23T12:33:03Z</time>
      </trkpt>
      <trkpt lat="47.76251" lon="6.6752">
        <ele>490.72</ele>
        <time>2021-06-23T12:33:06Z</time>
      </trkpt>
      <trkpt lat="47.76239" lon="6.67506">
        <ele>490.86</ele>
        <time>2021-06-23T12:33:10Z</time>
      </trkpt>
      <trkpt lat="47.76219" lon="6.67489">
        <ele>490.8</ele>
        <time>2021-06-23T12:33:14Z</time>
      </trkpt>
      <trkpt lat="47.76213" lon="6.67481">
        <ele>491.23</ele>
        <time>2021-06-23T12:33:18Z</time>
      </trkpt>
      <trkpt lat="47.76206" lon="6.67468">
        <ele>491.1</ele>
        <time>2021-06-23T12:33:21Z</time>
      </trkpt>
      <trkpt lat="47.76202" lon="6.67454">
        <ele>490.75</ele>
        <time>2021-06-23T12:33:25Z</time>
      </trkpt>
      <trkpt lat="47.76195" lon="6.6741">
        <ele>488.75</ele>
        <time>2021-06-23T12:33:29Z</time>
      </trkpt>
      <trkpt lat="47.76192" lon="6.67401">
        <ele>488.86</ele>
        <time>2021-06-23T12:33:33Z</time>
      </trkpt>
      <trkpt lat="47.76186" lon="6.6739">
        <ele>489.35</ele>
        <time>2021-06-23T12:33:36Z</time>
      </trkpt>
      <trkpt lat="47.76103" lon="6.67275">
        <ele>492.26</ele>
        <time>2021-06-23T12:33:40Z</time>
      </trkpt>
      <trkpt lat="47.7608" lon="6.67256">
        <ele>492.25</ele>
        <time>2021-06-23T12:33:44Z</time>
      </trkpt>
      <trkpt lat="47.7606" lon="6.67244">
        <ele>491.73</ele>
        <time>2021-06-23T12:33:48Z</time>
      </trkpt>
      <trkpt lat="47.76019" lon="6.67229">
        <ele>491.72</ele>
        <time>2021-06-23T12:33:51Z</time>
      </trkpt>
      <trkpt lat="47.75941" lon="6.67167">
        <ele>487.86</ele>
        <time>2021-06-23T12:33:55Z</time>
      </trkpt>
      <trkpt lat="47.75889" lon="6.67117">
        <ele>488</ele>
        <time>2021-06-23T12:33:59Z</time>
      </trkpt>
      <trkpt lat="47.75864" lon="6.6709">
        <ele>487.3</ele>
        <time>2021-06-23T12:34:03Z</time>
      </trkpt>
      <trkpt lat="47.75813" lon="6.67013">
        <ele>483.72</ele>
        <time>2021-06-23T12:34:07Z</time>
      </trkpt>
      <trkpt lat="47.75798" lon="6.66984">
        <ele>483</ele>
        <time>2021-06-23T12:34:10Z</time>
      </trkpt>
      <trkpt lat="47.75712" lon="6.66786">
        <ele>479.65</ele>
        <time>2021-06-23T12:34:14Z</time>
      </trkpt>
      <trkpt lat="47.75694" lon="6.66735">
        <ele>479.02</ele>
        <time>2021-06-23T12:34:18Z</time>
      </trkpt>
      <trkpt lat="47.75676" lon="6.66677">
        <ele>479.48</ele>
        <time>2021-06-23T12:34:22Z</time>
      </trkpt>
      <trkpt lat="47.75658" lon="6.66587">
        <ele>477.32</ele>
        <time>2021-06-23T12:34:25Z</time>
      </trkpt>
      <trkpt lat="47.7564" lon="6.6647">
        <ele>480.92</ele>
        <time>2021-06-23T12:34:29Z</time>
      </trkpt>
      <trkpt lat="47.75626" lon="6.66363">
        <ele>477.05</ele>
        <time>2021-06-23T12:34:33Z</time>
      </trkpt>
      <trkpt lat="47.75625" lon="6.66339">
        <ele>476.5</ele>
        <time>2021-06-23T12:34:37Z</time>
      </trkpt>
      <trkpt lat="47.75625" lon="6.66339">
        <ele>476.5</ele>
        <time>2021-06-23T12:34:37Z</time>
      </trkpt>
      <trkpt lat="47.75628" lon="6.6629">
        <ele>476</ele>
        <time>2021-06-23T12:34:39Z</time>
      </trkpt>
      <trkpt lat="47.75631" lon="6.66264">
        <ele>476.35</ele>
        <time>2021-06-23T12:34:42Z</time>
      </trkpt>
      <trkpt lat="47.7565" lon="6.66139">
        <ele>474.99</ele>
        <time>2021-06-23T12:34:45Z</time>
      </trkpt>
      <trkpt lat="47.75659" lon="6.66086">
        <ele>474.73</ele>
        <time>2021-06-23T12:34:48Z</time>
      </trkpt>
      <trkpt lat="47.75697" lon="6.65899">
        <ele>471</ele>
        <time>2021-06-23T12:34:51Z</time>
      </trkpt>
      <trkpt lat="47.75703" lon="6.65853">
        <ele>471.08</ele>
        <time>2021-06-23T12:34:53Z</time>
      </trkpt>
      <trkpt lat="47.75712" lon="6.65743">
        <ele>469.32</ele>
        <time>2021-06-23T12:34:56Z</time>
      </trkpt>
      <trkpt lat="47.75716" lon="6.65719">
        <ele>468.07</ele>
        <time>2021-06-23T12:34:59Z</time>
      </trkpt>
      <trkpt lat="47.75726" lon="6.65687">
        <ele>466.45</ele>
        <time>2021-06-23T12:35:02Z</time>
      </trkpt>
      <trkpt lat="47.75768" lon="6.65588">
        <ele>461.52</ele>
        <time>2021-06-23T12:35:05Z</time>
      </trkpt>
      <trkpt lat="47.75811" lon="6.65505">
        <ele>459</ele>
        <time>2021-06-23T12:35:07Z</time>
      </trkpt>
      <trkpt lat="47.75821" lon="6.65484">
        <ele>459</ele>
        <time>2021-06-23T12:35:10Z</time>
      </trkpt>
      <trkpt lat="47.7583" lon="6.65456">
        <ele>459</ele>
        <time>2021-06-23T12:35:13Z</time>
      </trkpt>
      <trkpt lat="47.75833" lon="6.65436">
        <ele>459.31</ele>
        <time>2021-06-23T12:35:16Z</time>
      </trkpt>
      <trkpt lat="47.75834" lon="6.65419">
        <ele>459.99</ele>
        <time>2021-06-23T12:35:18Z</time>
      </trkpt>
      <trkpt lat="47.75833" lon="6.65403">
        <ele>460.99</ele>
        <time>2021-06-23T12:35:21Z</time>
      </trkpt>
      <trkpt lat="47.75824" lon="6.65371">
        <ele>462.07</ele>
        <time>2021-06-23T12:35:24Z</time>
      </trkpt>
      <trkpt lat="47.75819" lon="6.65336">
        <ele>461.44</ele>
        <time>2021-06-23T12:35:27Z</time>
      </trkpt>
      <trkpt lat="47.75819" lon="6.65293">
        <ele>459.51</ele>
        <time>2021-06-23T12:35:30Z</time>
      </trkpt>
      <trkpt lat="47.75821" lon="6.65275">
        <ele>458.98</ele>
        <time>2021-06-23T12:35:32Z</time>
      </trkpt>
      <trkpt lat="47.75825" lon="6.65258">
        <ele>458.67</ele>
        <time>2021-06-23T12:35:35Z</time>
      </trkpt>
      <trkpt lat="47.75889" lon="6.65145">
        <ele>460.2</ele>
        <time>2021-06-23T12:35:38Z</time>
      </trkpt>
      <trkpt lat="47.75904" lon="6.6511">
        <ele>460.54</ele>
        <time>2021-06-23T12:35:41Z</time>
      </trkpt>
      <trkpt lat="47.75906" lon="6.65098">
        <ele>460.63</ele>
        <time>2021-06-23T12:35:44Z</time>
      </trkpt>
      <trkpt lat="47.7591" lon="6.65065">
        <ele>461.41</ele>
        <time>2021-06-23T12:35:46Z</time>
      </trkpt>
      <trkpt lat="47.7591" lon="6.64979">
        <ele>463.74</ele>
        <time>2021-06-23T12:35:49Z</time>
      </trkpt>
      <trkpt lat="47.75915" lon="6.64938">
        <ele>464.25</ele>
        <time>2021-06-23T12:35:52Z</time>
      </trkpt>
      <trkpt lat="47.7593" lon="6.64889">
        <ele>466.47</ele>
        <time>2021-06-23T12:35:55Z</time>
      </trkpt>
      <trkpt lat="47.75952" lon="6.64837">
        <ele>468.9</ele>
        <time>2021-06-23T12:35:58Z</time>
      </trkpt>
      <trkpt lat="47.7596" lon="6.64822">
        <ele>468.83</ele>
        <time>2021-06-23T12:36:00Z</time>
      </trkpt>
      <trkpt lat="47.75983" lon="6.64797">
        <ele>469.77</ele>
        <time>2021-06-23T12:36:03Z</time>
      </trkpt>
      <trkpt lat="47.76009" lon="6.64757">
        <ele>470.97</ele>
        <time>2021-06-23T12:36:06Z</time>
      </trkpt>
      <trkpt lat="47.76033" lon="6.64725">
        <ele>470.4</ele>
        <time>2021-06-23T12:36:09Z</time>
      </trkpt>
      <trkpt lat="47.76102" lon="6.64659">
        <ele>467.79</ele>
        <time>2021-06-23T12:36:12Z</time>
      </trkpt>
      <trkpt lat="47.76138" lon="6.64622">
        <ele>466.35</ele>
        <time>2021-06-23T12:36:14Z</time>
      </trkpt>
      <trkpt lat="47.76177" lon="6.64575">
        <ele>464.54</ele>
        <time>2021-06-23T12:36:17Z</time>
      </trkpt>
      <trkpt lat="47.76208" lon="6.64554">
        <ele>467.95</ele>
        <time>2021-06-23T12:36:20Z</time>
      </trkpt>
      <trkpt lat="47.76262" lon="6.64529">
        <ele>472.47</ele>
        <time>2021-06-23T12:36:23Z</time>
      </trkpt>
      <trkpt lat="47.76309" lon="6.64477">
        <ele>470.71</ele>
        <time>2021-06-23T12:36:25Z</time>
      </trkpt>
      <trkpt lat="47.76359" lon="6.64434">
        <ele>464.49</ele>
        <time>2021-06-23T12:36:28Z</time>
      </trkpt>
      <trkpt lat="47.76368" lon="6.64418">
        <ele>462.71</ele>
        <time>2021-06-23T12:36:31Z</time>
      </trkpt>
      <trkpt lat="47.76376" lon="6.64397">
        <ele>462.44</ele>
        <time>2021-06-23T12:36:34Z</time>
      </trkpt>
      <trkpt lat="47.76381" lon="6.6438">
        <ele>462.63</ele>
        <time>2021-06-23T12:36:37Z</time>
      </trkpt>
      <trkpt lat="47.76386" lon="6.64352">
        <ele>462.31</ele>
        <time>2021-06-23T12:36:39Z</time>
      </trkpt>
      <trkpt lat="47.76386" lon="6.64341">
        <ele>461.96</ele>
        <time>2021-06-23T12:36:42Z</time>
      </trkpt>
      <trkpt lat="47.76384" lon="6.64329">
        <ele>461.15</ele>
        <time>2021-06-23T12:36:45Z</time>
      </trkpt>
      <trkpt lat="47.76378" lon="6.64316">
        <ele>459.49</ele>
        <time>2021-06-23T12:36:48Z</time>
      </trkpt>
      <trkpt lat="47.76338" lon="6.6426">
        <ele>456.81</ele>
        <time>2021-06-23T12:36:51Z</time>
      </trkpt>
      <trkpt lat="47.76324" lon="6.64229">
        <ele>456.41</ele>
        <time>2021-06-23T12:36:53Z</time>
      </trkpt>
      <trkpt lat="47.76315" lon="6.64198">
        <ele>455.64</ele>
        <time>2021-06-23T12:36:56Z</time>
      </trkpt>
      <trkpt lat="47.76303" lon="6.64137">
        <ele>454.66</ele>
        <time>2021-06-23T12:36:59Z</time>
      </trkpt>
      <trkpt lat="47.76288" lon="6.64022">
        <ele>453.34</ele>
        <time>2021-06-23T12:37:02Z</time>
      </trkpt>
      <trkpt lat="47.7628" lon="6.63997">
        <ele>455.38</ele>
        <time>2021-06-23T12:37:05Z</time>
      </trkpt>
      <trkpt lat="47.76267" lon="6.6397">
        <ele>455.89</ele>
        <time>2021-06-23T12:37:07Z</time>
      </trkpt>
      <trkpt lat="47.76257" lon="6.6396">
        <ele>455.26</ele>
        <time>2021-06-23T12:37:10Z</time>
      </trkpt>
      <trkpt lat="47.76209" lon="6.63919">
        <ele>453.42</ele>
        <time>2021-06-23T12:37:13Z</time>
      </trkpt>
      <trkpt lat="47.76186" lon="6.6389">
        <ele>451.51</ele>
        <time>2021-06-23T12:37:16Z</time>
      </trkpt>
      <trkpt lat="47.7617" lon="6.63858">
        <ele>449.71</ele>
        <time>2021-06-23T12:37:18Z</time>
      </trkpt>
      <trkpt lat="47.76158" lon="6.63824">
        <ele>449.36</ele>
        <time>2021-06-23T12:37:21Z</time>
      </trkpt>
      <trkpt lat="47.76154" lon="6.63797">
        <ele>448.92</ele>
        <time>2021-06-23T12:37:24Z</time>
      </trkpt>
      <trkpt lat="47.76153" lon="6.63772">
        <ele>449.8</ele>
        <time>2021-06-23T12:37:27Z</time>
      </trkpt>
      <trkpt lat="47.76149" lon="6.6376">
        <ele>450.34</ele>
        <time>2021-06-23T12:37:30Z</time>
      </trkpt>
      <trkpt lat="47.76146" lon="6.63752">
        <ele>450.86</ele>
        <time>2021-06-23T12:37:32Z</time>
      </trkpt>
      <trkpt lat="47.7614" lon="6.63744">
        <ele>451.41</ele>
        <time>2021-06-23T12:37:35Z</time>
      </trkpt>
      <trkpt lat="47.76122" lon="6.63729">
        <ele>453.74</ele>
        <time>2021-06-23T12:37:38Z</time>
      </trkpt>
      <trkpt lat="47.76105" lon="6.6371">
        <ele>454.88</ele>
        <time>2021-06-23T12:37:41Z</time>
      </trkpt>
      <trkpt lat="47.7609" lon="6.63682">
        <ele>455.57</ele>
        <time>2021-06-23T12:37:44Z</time>
      </trkpt>
      <trkpt lat="47.7608" lon="6.63655">
        <ele>456.71</ele>
        <time>2021-06-23T12:37:46Z</time>
      </trkpt>
      <trkpt lat="47.76064" lon="6.63604">
        <ele>456.08</ele>
        <time>2021-06-23T12:37:49Z</time>
      </trkpt>
      <trkpt lat="47.7606" lon="6.63578">
        <ele>455.19</ele>
        <time>2021-06-23T12:37:52Z</time>
      </trkpt>
      <trkpt lat="47.76057" lon="6.63551">
        <ele>452.18</ele>
        <time>2021-06-23T12:37:55Z</time>
      </trkpt>
      <trkpt lat="47.76064" lon="6.63445">
        <ele>446.64</ele>
        <time>2021-06-23T12:37:58Z</time>
      </trkpt>
      <trkpt lat="47.76073" lon="6.63374">
        <ele>443.76</ele>
        <time>2021-06-23T12:38:00Z</time>
      </trkpt>
      <trkpt lat="47.76087" lon="6.63303">
        <ele>437.73</ele>
        <time>2021-06-23T12:38:03Z</time>
      </trkpt>
      <trkpt lat="47.76094" lon="6.63286">
        <ele>435.25</ele>
        <time>2021-06-23T12:38:06Z</time>
      </trkpt>
      <trkpt lat="47.76102" lon="6.63274">
        <ele>433.23</ele>
        <time>2021-06-23T12:38:09Z</time>
      </trkpt>
      <trkpt lat="47.76112" lon="6.63268">
        <ele>431.81</ele>
        <time>2021-06-23T12:38:12Z</time>
      </trkpt>
      <trkpt lat="47.76119" lon="6.63267">
        <ele>431.1</ele>
        <time>2021-06-23T12:38:14Z</time>
      </trkpt>
      <trkpt lat="47.76133" lon="6.63273">
        <ele>431.33</ele>
        <time>2021-06-23T12:38:17Z</time>
      </trkpt>
      <trkpt lat="47.76142" lon="6.63288">
        <ele>433.15</ele>
        <time>2021-06-23T12:38:20Z</time>
      </trkpt>
      <trkpt lat="47.76194" lon="6.63384">
        <ele>426.34</ele>
        <time>2021-06-23T12:38:23Z</time>
      </trkpt>
      <trkpt lat="47.76204" lon="6.63396">
        <ele>425.42</ele>
        <time>2021-06-23T12:38:25Z</time>
      </trkpt>
      <trkpt lat="47.76239" lon="6.63429">
        <ele>422.23</ele>
        <time>2021-06-23T12:38:28Z</time>
      </trkpt>
      <trkpt lat="47.76254" lon="6.63446">
        <ele>420.9</ele>
        <time>2021-06-23T12:38:31Z</time>
      </trkpt>
      <trkpt lat="47.7626" lon="6.63459">
        <ele>420.97</ele>
        <time>2021-06-23T12:38:34Z</time>
      </trkpt>
      <trkpt lat="47.76265" lon="6.63474">
        <ele>421.06</ele>
        <time>2021-06-23T12:38:37Z</time>
      </trkpt>
      <trkpt lat="47.76274" lon="6.63531">
        <ele>422.34</ele>
        <time>2021-06-23T12:38:39Z</time>
      </trkpt>
      <trkpt lat="47.76298" lon="6.63573">
        <ele>421.89</ele>
        <time>2021-06-23T12:38:42Z</time>
      </trkpt>
      <trkpt lat="47.76318" lon="6.63589">
        <ele>422.31</ele>
        <time>2021-06-23T12:38:45Z</time>
      </trkpt>
      <trkpt lat="47.76325" lon="6.63591">
        <ele>422.36</ele>
        <time>2021-06-23T12:38:48Z</time>
      </trkpt>
      <trkpt lat="47.76333" lon="6.63589">
        <ele>422.22</ele>
        <time>2021-06-23T12:38:51Z</time>
      </trkpt>
      <trkpt lat="47.76361" lon="6.63575">
        <ele>420.69</ele>
        <time>2021-06-23T12:38:53Z</time>
      </trkpt>
      <trkpt lat="47.76383" lon="6.63573">
        <ele>420.92</ele>
        <time>2021-06-23T12:38:56Z</time>
      </trkpt>
      <trkpt lat="47.76418" lon="6.63576">
        <ele>422.02</ele>
        <time>2021-06-23T12:38:59Z</time>
      </trkpt>
      <trkpt lat="47.76429" lon="6.63574">
        <ele>422.14</ele>
        <time>2021-06-23T12:39:02Z</time>
      </trkpt>
      <trkpt lat="47.76436" lon="6.6357">
        <ele>422</ele>
        <time>2021-06-23T12:39:05Z</time>
      </trkpt>
      <trkpt lat="47.76443" lon="6.6356">
        <ele>421.32</ele>
        <time>2021-06-23T12:39:07Z</time>
      </trkpt>
      <trkpt lat="47.76446" lon="6.63544">
        <ele>420.58</ele>
        <time>2021-06-23T12:39:10Z</time>
      </trkpt>
      <trkpt lat="47.76442" lon="6.63526">
        <ele>420</ele>
        <time>2021-06-23T12:39:13Z</time>
      </trkpt>
      <trkpt lat="47.76435" lon="6.63517">
        <ele>419.57</ele>
        <time>2021-06-23T12:39:16Z</time>
      </trkpt>
      <trkpt lat="47.76413" lon="6.63506">
        <ele>419.51</ele>
        <time>2021-06-23T12:39:19Z</time>
      </trkpt>
      <trkpt lat="47.76396" lon="6.63486">
        <ele>419.01</ele>
        <time>2021-06-23T12:39:21Z</time>
      </trkpt>
      <trkpt lat="47.7633" lon="6.63367">
        <ele>411.75</ele>
        <time>2021-06-23T12:39:24Z</time>
      </trkpt>
      <trkpt lat="47.76303" lon="6.63303">
        <ele>408.94</ele>
        <time>2021-06-23T12:39:27Z</time>
      </trkpt>
      <trkpt lat="47.76272" lon="6.63249">
        <ele>409.14</ele>
        <time>2021-06-23T12:39:30Z</time>
      </trkpt>
      <trkpt lat="47.76267" lon="6.63232">
        <ele>410.77</ele>
        <time>2021-06-23T12:39:32Z</time>
      </trkpt>
      <trkpt lat="47.76267" lon="6.632">
        <ele>412.98</ele>
        <time>2021-06-23T12:39:35Z</time>
      </trkpt>
      <trkpt lat="47.76298" lon="6.63126">
        <ele>408.75</ele>
        <time>2021-06-23T12:39:38Z</time>
      </trkpt>
      <trkpt lat="47.76306" lon="6.63109">
        <ele>406.98</ele>
        <time>2021-06-23T12:39:41Z</time>
      </trkpt>
      <trkpt lat="47.76329" lon="6.6307">
        <ele>406.7</ele>
        <time>2021-06-23T12:39:44Z</time>
      </trkpt>
      <trkpt lat="47.7636" lon="6.63042">
        <ele>407.54</ele>
        <time>2021-06-23T12:39:46Z</time>
      </trkpt>
      <trkpt lat="47.76381" lon="6.63017">
        <ele>404.88</ele>
        <time>2021-06-23T12:39:49Z</time>
      </trkpt>
      <trkpt lat="47.76397" lon="6.62987">
        <ele>401.49</ele>
        <time>2021-06-23T12:39:52Z</time>
      </trkpt>
      <trkpt lat="47.76403" lon="6.62968">
        <ele>400.19</ele>
        <time>2021-06-23T12:39:55Z</time>
      </trkpt>
      <trkpt lat="47.76411" lon="6.6291">
        <ele>399.01</ele>
        <time>2021-06-23T12:39:58Z</time>
      </trkpt>
      <trkpt lat="47.76415" lon="6.62861">
        <ele>398.37</ele>
        <time>2021-06-23T12:40:00Z</time>
      </trkpt>
      <trkpt lat="47.76415" lon="6.6284">
        <ele>396.13</ele>
        <time>2021-06-23T12:40:03Z</time>
      </trkpt>
      <trkpt lat="47.76413" lon="6.6282">
        <ele>394.11</ele>
        <time>2021-06-23T12:40:06Z</time>
      </trkpt>
      <trkpt lat="47.76408" lon="6.62804">
        <ele>393.43</ele>
        <time>2021-06-23T12:40:09Z</time>
      </trkpt>
      <trkpt lat="47.76391" lon="6.62767">
        <ele>393.02</ele>
        <time>2021-06-23T12:40:12Z</time>
      </trkpt>
      <trkpt lat="47.76383" lon="6.62744">
        <ele>392.16</ele>
        <time>2021-06-23T12:40:14Z</time>
      </trkpt>
      <trkpt lat="47.7638" lon="6.62691">
        <ele>390.48</ele>
        <time>2021-06-23T12:40:17Z</time>
      </trkpt>
      <trkpt lat="47.76386" lon="6.62628">
        <ele>388.3</ele>
        <time>2021-06-23T12:40:20Z</time>
      </trkpt>
      <trkpt lat="47.76395" lon="6.62595">
        <ele>385.43</ele>
        <time>2021-06-23T12:40:23Z</time>
      </trkpt>
      <trkpt lat="47.76411" lon="6.62545">
        <ele>379.51</ele>
        <time>2021-06-23T12:40:25Z</time>
      </trkpt>
      <trkpt lat="47.76413" lon="6.62523">
        <ele>377.9</ele>
        <time>2021-06-23T12:40:28Z</time>
      </trkpt>
      <trkpt lat="47.76412" lon="6.62501">
        <ele>376.96</ele>
        <time>2021-06-23T12:40:31Z</time>
      </trkpt>
      <trkpt lat="47.76399" lon="6.62435">
        <ele>381.27</ele>
        <time>2021-06-23T12:40:34Z</time>
      </trkpt>
      <trkpt lat="47.76395" lon="6.62379">
        <ele>379.74</ele>
        <time>2021-06-23T12:40:37Z</time>
      </trkpt>
      <trkpt lat="47.76399" lon="6.62318">
        <ele>375.97</ele>
        <time>2021-06-23T12:40:39Z</time>
      </trkpt>
      <trkpt lat="47.76412" lon="6.62225">
        <ele>373.73</ele>
        <time>2021-06-23T12:40:42Z</time>
      </trkpt>
      <trkpt lat="47.76418" lon="6.62155">
        <ele>369.55</ele>
        <time>2021-06-23T12:40:45Z</time>
      </trkpt>
      <trkpt lat="47.76415" lon="6.62084">
        <ele>369.43</ele>
        <time>2021-06-23T12:40:48Z</time>
      </trkpt>
      <trkpt lat="47.76402" lon="6.61957">
        <ele>367.08</ele>
        <time>2021-06-23T12:40:51Z</time>
      </trkpt>
      <trkpt lat="47.76397" lon="6.61858">
        <ele>361.32</ele>
        <time>2021-06-23T12:40:53Z</time>
      </trkpt>
      <trkpt lat="47.76394" lon="6.61826">
        <ele>361.45</ele>
        <time>2021-06-23T12:40:56Z</time>
      </trkpt>
      <trkpt lat="47.76387" lon="6.61797">
        <ele>359.54</ele>
        <time>2021-06-23T12:40:59Z</time>
      </trkpt>
      <trkpt lat="47.76378" lon="6.61776">
        <ele>358.22</ele>
        <time>2021-06-23T12:41:02Z</time>
      </trkpt>
      <trkpt lat="47.76324" lon="6.61684">
        <ele>345.33</ele>
        <time>2021-06-23T12:41:05Z</time>
      </trkpt>
      <trkpt lat="47.76318" lon="6.61667">
        <ele>343.5</ele>
        <time>2021-06-23T12:41:07Z</time>
      </trkpt>
      <trkpt lat="47.76313" lon="6.61644">
        <ele>343.05</ele>
        <time>2021-06-23T12:41:10Z</time>
      </trkpt>
      <trkpt lat="47.76299" lon="6.61576">
        <ele>345.24</ele>
        <time>2021-06-23T12:41:13Z</time>
      </trkpt>
      <trkpt lat="47.76298" lon="6.61547">
        <ele>346.79</ele>
        <time>2021-06-23T12:41:16Z</time>
      </trkpt>
      <trkpt lat="47.76313" lon="6.61296">
        <ele>339.64</ele>
        <time>2021-06-23T12:41:19Z</time>
      </trkpt>
      <trkpt lat="47.76332" lon="6.61235">
        <ele>341.76</ele>
        <time>2021-06-23T12:41:21Z</time>
      </trkpt>
      <trkpt lat="47.76376" lon="6.61138">
        <ele>334.01</ele>
        <time>2021-06-23T12:41:24Z</time>
      </trkpt>
      <trkpt lat="47.76383" lon="6.61115">
        <ele>334.28</ele>
        <time>2021-06-23T12:41:27Z</time>
      </trkpt>
      <trkpt lat="47.76387" lon="6.61093">
        <ele>334.73</ele>
        <time>2021-06-23T12:41:30Z</time>
      </trkpt>
      <trkpt lat="47.76388" lon="6.61059">
        <ele>335.9</ele>
        <time>2021-06-23T12:41:32Z</time>
      </trkpt>
      <trkpt lat="47.76385" lon="6.61012">
        <ele>336.87</ele>
        <time>2021-06-23T12:41:35Z</time>
      </trkpt>
      <trkpt lat="47.76382" lon="6.60986">
        <ele>336.88</ele>
        <time>2021-06-23T12:41:38Z</time>
      </trkpt>
      <trkpt lat="47.76377" lon="6.60966">
        <ele>337</ele>
        <time>2021-06-23T12:41:41Z</time>
      </trkpt>
      <trkpt lat="47.76363" lon="6.60939">
        <ele>336.99</ele>
        <time>2021-06-23T12:41:44Z</time>
      </trkpt>
      <trkpt lat="47.76352" lon="6.60926">
        <ele>337.46</ele>
        <time>2021-06-23T12:41:46Z</time>
      </trkpt>
      <trkpt lat="47.76322" lon="6.60899">
        <ele>337.35</ele>
        <time>2021-06-23T12:41:49Z</time>
      </trkpt>
      <trkpt lat="47.76312" lon="6.60882">
        <ele>337</ele>
        <time>2021-06-23T12:41:52Z</time>
      </trkpt>
      <trkpt lat="47.76308" lon="6.60872">
        <ele>337</ele>
        <time>2021-06-23T12:41:55Z</time>
      </trkpt>
      <trkpt lat="47.76292" lon="6.60822">
        <ele>346.75</ele>
        <time>2021-06-23T12:41:58Z</time>
      </trkpt>
      <trkpt lat="47.76318" lon="6.60803">
        <ele>346.57</ele>
        <time>2021-06-23T12:41:59Z</time>
      </trkpt>
      <trkpt lat="47.76364" lon="6.6076">
        <ele>345.67</ele>
        <time>2021-06-23T12:42:01Z</time>
      </trkpt>
      <trkpt lat="47.76375" lon="6.60753">
        <ele>344.42</ele>
        <time>2021-06-23T12:42:03Z</time>
      </trkpt>
      <trkpt lat="47.76393" lon="6.60749">
        <ele>340.87</ele>
        <time>2021-06-23T12:42:05Z</time>
      </trkpt>
      <trkpt lat="47.76447" lon="6.6075">
        <ele>339.09</ele>
        <time>2021-06-23T12:42:07Z</time>
      </trkpt>
      <trkpt lat="47.76463" lon="6.60747">
        <ele>339.75</ele>
        <time>2021-06-23T12:42:08Z</time>
      </trkpt>
      <trkpt lat="47.76506" lon="6.6073">
        <ele>339.46</ele>
        <time>2021-06-23T12:42:10Z</time>
      </trkpt>
      <trkpt lat="47.76518" lon="6.60727">
        <ele>339.61</ele>
        <time>2021-06-23T12:42:12Z</time>
      </trkpt>
      <trkpt lat="47.76518" lon="6.60727">
        <ele>339.61</ele>
        <time>2021-06-23T12:42:12Z</time>
      </trkpt>
      <trkpt lat="47.76525" lon="6.60726">
        <ele>339.76</ele>
        <time>2021-06-23T12:42:15Z</time>
      </trkpt>
      <trkpt lat="47.7654" lon="6.60731">
        <ele>339.94</ele>
        <time>2021-06-23T12:42:19Z</time>
      </trkpt>
      <trkpt lat="47.76552" lon="6.60742">
        <ele>340.06</ele>
        <time>2021-06-23T12:42:23Z</time>
      </trkpt>
      <trkpt lat="47.76586" lon="6.60784">
        <ele>342.08</ele>
        <time>2021-06-23T12:42:26Z</time>
      </trkpt>
      <trkpt lat="47.7669" lon="6.60883">
        <ele>338.88</ele>
        <time>2021-06-23T12:42:30Z</time>
      </trkpt>
      <trkpt lat="47.76824" lon="6.60997">
        <ele>342</ele>
        <time>2021-06-23T12:42:33Z</time>
      </trkpt>
      <trkpt lat="47.76852" lon="6.61034">
        <ele>340.27</ele>
        <time>2021-06-23T12:42:37Z</time>
      </trkpt>
      <trkpt lat="47.76901" lon="6.61108">
        <ele>341.43</ele>
        <time>2021-06-23T12:42:41Z</time>
      </trkpt>
      <trkpt lat="47.76938" lon="6.61174">
        <ele>340</ele>
        <time>2021-06-23T12:42:44Z</time>
      </trkpt>
      <trkpt lat="47.7704" lon="6.61405">
        <ele>341.82</ele>
        <time>2021-06-23T12:42:48Z</time>
      </trkpt>
      <trkpt lat="47.77149" lon="6.61593">
        <ele>342.28</ele>
        <time>2021-06-23T12:42:51Z</time>
      </trkpt>
      <trkpt lat="47.77364" lon="6.61948">
        <ele>345.86</ele>
        <time>2021-06-23T12:42:55Z</time>
      </trkpt>
      <trkpt lat="47.77396" lon="6.61989">
        <ele>346.56</ele>
        <time>2021-06-23T12:42:58Z</time>
      </trkpt>
      <trkpt lat="47.77504" lon="6.62102">
        <ele>346.94</ele>
        <time>2021-06-23T12:43:02Z</time>
      </trkpt>
      <trkpt lat="47.77576" lon="6.62182">
        <ele>352.88</ele>
        <time>2021-06-23T12:43:06Z</time>
      </trkpt>
      <trkpt lat="47.7778" lon="6.62391">
        <ele>352.95</ele>
        <time>2021-06-23T12:43:09Z</time>
      </trkpt>
      <trkpt lat="47.77798" lon="6.62407">
        <ele>353.33</ele>
        <time>2021-06-23T12:43:13Z</time>
      </trkpt>
      <trkpt lat="47.7782" lon="6.62417">
        <ele>355.05</ele>
        <time>2021-06-23T12:43:16Z</time>
      </trkpt>
      <trkpt lat="47.77856" lon="6.62426">
        <ele>358.83</ele>
        <time>2021-06-23T12:43:20Z</time>
      </trkpt>
      <trkpt lat="47.77892" lon="6.62432">
        <ele>357.59</ele>
        <time>2021-06-23T12:43:24Z</time>
      </trkpt>
      <trkpt lat="47.78002" lon="6.62434">
        <ele>349.68</ele>
        <time>2021-06-23T12:43:27Z</time>
      </trkpt>
      <trkpt lat="47.78039" lon="6.62442">
        <ele>348.08</ele>
        <time>2021-06-23T12:43:31Z</time>
      </trkpt>
      <trkpt lat="47.78063" lon="6.62453">
        <ele>348.24</ele>
        <time>2021-06-23T12:43:34Z</time>
      </trkpt>
      <trkpt lat="47.7828" lon="6.62606">
        <ele>350.34</ele>
        <time>2021-06-23T12:43:38Z</time>
      </trkpt>
      <trkpt lat="47.78307" lon="6.62637">
        <ele>353.2</ele>
        <time>2021-06-23T12:43:41Z</time>
      </trkpt>
      <trkpt lat="47.78322" lon="6.62667">
        <ele>353.16</ele>
        <time>2021-06-23T12:43:45Z</time>
      </trkpt>
      <trkpt lat="47.78346" lon="6.62748">
        <ele>353.48</ele>
        <time>2021-06-23T12:43:49Z</time>
      </trkpt>
      <trkpt lat="47.78365" lon="6.62788">
        <ele>352.39</ele>
        <time>2021-06-23T12:43:52Z</time>
      </trkpt>
      <trkpt lat="47.78386" lon="6.62814">
        <ele>351.86</ele>
        <time>2021-06-23T12:43:56Z</time>
      </trkpt>
      <trkpt lat="47.78433" lon="6.62857">
        <ele>351.41</ele>
        <time>2021-06-23T12:43:59Z</time>
      </trkpt>
      <trkpt lat="47.7845" lon="6.62888">
        <ele>351.77</ele>
        <time>2021-06-23T12:44:03Z</time>
      </trkpt>
      <trkpt lat="47.78497" lon="6.63128">
        <ele>352.4</ele>
        <time>2021-06-23T12:44:07Z</time>
      </trkpt>
      <trkpt lat="47.7851" lon="6.63163">
        <ele>352.04</ele>
        <time>2021-06-23T12:44:10Z</time>
      </trkpt>
      <trkpt lat="47.78555" lon="6.63259">
        <ele>352.67</ele>
        <time>2021-06-23T12:44:14Z</time>
      </trkpt>
      <trkpt lat="47.78565" lon="6.63273">
        <ele>353.06</ele>
        <time>2021-06-23T12:44:17Z</time>
      </trkpt>
      <trkpt lat="47.78579" lon="6.63287">
        <ele>352.6</ele>
        <time>2021-06-23T12:44:21Z</time>
      </trkpt>
      <trkpt lat="47.78593" lon="6.63298">
        <ele>352.48</ele>
        <time>2021-06-23T12:44:25Z</time>
      </trkpt>
      <trkpt lat="47.78668" lon="6.63342">
        <ele>351.81</ele>
        <time>2021-06-23T12:44:28Z</time>
      </trkpt>
      <trkpt lat="47.78682" lon="6.63354">
        <ele>352.34</ele>
        <time>2021-06-23T12:44:32Z</time>
      </trkpt>
      <trkpt lat="47.78694" lon="6.63369">
        <ele>352.65</ele>
        <time>2021-06-23T12:44:35Z</time>
      </trkpt>
      <trkpt lat="47.78701" lon="6.63387">
        <ele>352.29</ele>
        <time>2021-06-23T12:44:39Z</time>
      </trkpt>
      <trkpt lat="47.78718" lon="6.63467">
        <ele>353</ele>
        <time>2021-06-23T12:44:42Z</time>
      </trkpt>
      <trkpt lat="47.78744" lon="6.63605">
        <ele>354.4</ele>
        <time>2021-06-23T12:44:46Z</time>
      </trkpt>
      <trkpt lat="47.78754" lon="6.63633">
        <ele>355.1</ele>
        <time>2021-06-23T12:44:50Z</time>
      </trkpt>
      <trkpt lat="47.78786" lon="6.63682">
        <ele>355.41</ele>
        <time>2021-06-23T12:44:53Z</time>
      </trkpt>
      <trkpt lat="47.7889" lon="6.63806">
        <ele>357.01</ele>
        <time>2021-06-23T12:44:57Z</time>
      </trkpt>
      <trkpt lat="47.78926" lon="6.63855">
        <ele>358.32</ele>
        <time>2021-06-23T12:45:00Z</time>
      </trkpt>
      <trkpt lat="47.78976" lon="6.63935">
        <ele>360.56</ele>
        <time>2021-06-23T12:45:04Z</time>
      </trkpt>
      <trkpt lat="47.78988" lon="6.63963">
        <ele>360.82</ele>
        <time>2021-06-23T12:45:08Z</time>
      </trkpt>
      <trkpt lat="47.79005" lon="6.64012">
        <ele>362.45</ele>
        <time>2021-06-23T12:45:11Z</time>
      </trkpt>
      <trkpt lat="47.79025" lon="6.64091">
        <ele>365.45</ele>
        <time>2021-06-23T12:45:15Z</time>
      </trkpt>
      <trkpt lat="47.79122" lon="6.64295">
        <ele>368.38</ele>
        <time>2021-06-23T12:45:18Z</time>
      </trkpt>
      <trkpt lat="47.79151" lon="6.64347">
        <ele>368.96</ele>
        <time>2021-06-23T12:45:22Z</time>
      </trkpt>
      <trkpt lat="47.7921" lon="6.64444">
        <ele>371</ele>
        <time>2021-06-23T12:45:25Z</time>
      </trkpt>
      <trkpt lat="47.79241" lon="6.64479">
        <ele>369.51</ele>
        <time>2021-06-23T12:45:29Z</time>
      </trkpt>
      <trkpt lat="47.79303" lon="6.64544">
        <ele>367.43</ele>
        <time>2021-06-23T12:45:33Z</time>
      </trkpt>
      <trkpt lat="47.79349" lon="6.64585">
        <ele>368</ele>
        <time>2021-06-23T12:45:36Z</time>
      </trkpt>
      <trkpt lat="47.79395" lon="6.64623">
        <ele>367.43</ele>
        <time>2021-06-23T12:45:40Z</time>
      </trkpt>
      <trkpt lat="47.79462" lon="6.64672">
        <ele>365.79</ele>
        <time>2021-06-23T12:45:43Z</time>
      </trkpt>
      <trkpt lat="47.7957" lon="6.64736">
        <ele>360.49</ele>
        <time>2021-06-23T12:45:47Z</time>
      </trkpt>
      <trkpt lat="47.7959" lon="6.64754">
        <ele>361.54</ele>
        <time>2021-06-23T12:45:51Z</time>
      </trkpt>
      <trkpt lat="47.79603" lon="6.64771">
        <ele>362.1</ele>
        <time>2021-06-23T12:45:54Z</time>
      </trkpt>
      <trkpt lat="47.79629" lon="6.64813">
        <ele>360.79</ele>
        <time>2021-06-23T12:45:58Z</time>
      </trkpt>
      <trkpt lat="47.79645" lon="6.64844">
        <ele>360.6</ele>
        <time>2021-06-23T12:46:01Z</time>
      </trkpt>
      <trkpt lat="47.79657" lon="6.64879">
        <ele>362.11</ele>
        <time>2021-06-23T12:46:05Z</time>
      </trkpt>
      <trkpt lat="47.79664" lon="6.6491">
        <ele>362.83</ele>
        <time>2021-06-23T12:46:09Z</time>
      </trkpt>
      <trkpt lat="47.7967" lon="6.64964">
        <ele>366.96</ele>
        <time>2021-06-23T12:46:12Z</time>
      </trkpt>
      <trkpt lat="47.79644" lon="6.65185">
        <ele>380.74</ele>
        <time>2021-06-23T12:46:16Z</time>
      </trkpt>
      <trkpt lat="47.79647" lon="6.6521">
        <ele>381.14</ele>
        <time>2021-06-23T12:46:19Z</time>
      </trkpt>
      <trkpt lat="47.79661" lon="6.65258">
        <ele>378.48</ele>
        <time>2021-06-23T12:46:23Z</time>
      </trkpt>
      <trkpt lat="47.79686" lon="6.65322">
        <ele>380.26</ele>
        <time>2021-06-23T12:46:26Z</time>
      </trkpt>
      <trkpt lat="47.79693" lon="6.65347">
        <ele>381.53</ele>
        <time>2021-06-23T12:46:30Z</time>
      </trkpt>
      <trkpt lat="47.79698" lon="6.65379">
        <ele>383.46</ele>
        <time>2021-06-23T12:46:34Z</time>
      </trkpt>
      <trkpt lat="47.7971" lon="6.65529">
        <ele>393.85</ele>
        <time>2021-06-23T12:46:37Z</time>
      </trkpt>
      <trkpt lat="47.79716" lon="6.65563">
        <ele>395.63</ele>
        <time>2021-06-23T12:46:41Z</time>
      </trkpt>
      <trkpt lat="47.79728" lon="6.65611">
        <ele>394.58</ele>
        <time>2021-06-23T12:46:44Z</time>
      </trkpt>
      <trkpt lat="47.79738" lon="6.65634">
        <ele>393.26</ele>
        <time>2021-06-23T12:46:48Z</time>
      </trkpt>
      <trkpt lat="47.79755" lon="6.65667">
        <ele>390.17</ele>
        <time>2021-06-23T12:46:52Z</time>
      </trkpt>
      <trkpt lat="47.79777" lon="6.65696">
        <ele>389.01</ele>
        <time>2021-06-23T12:46:55Z</time>
      </trkpt>
      <trkpt lat="47.79809" lon="6.6572">
        <ele>390.82</ele>
        <time>2021-06-23T12:46:59Z</time>
      </trkpt>
      <trkpt lat="47.7984" lon="6.6574">
        <ele>388.86</ele>
        <time>2021-06-23T12:47:02Z</time>
      </trkpt>
      <trkpt lat="47.79859" lon="6.65755">
        <ele>386.73</ele>
        <time>2021-06-23T12:47:06Z</time>
      </trkpt>
      <trkpt lat="47.79878" lon="6.65775">
        <ele>385.16</ele>
        <time>2021-06-23T12:47:09Z</time>
      </trkpt>
      <trkpt lat="47.79894" lon="6.65799">
        <ele>384.34</ele>
        <time>2021-06-23T12:47:13Z</time>
      </trkpt>
      <trkpt lat="47.79907" lon="6.65825">
        <ele>384.64</ele>
        <time>2021-06-23T12:47:17Z</time>
      </trkpt>
      <trkpt lat="47.79916" lon="6.65856">
        <ele>384.18</ele>
        <time>2021-06-23T12:47:20Z</time>
      </trkpt>
      <trkpt lat="47.7992" lon="6.65875">
        <ele>383.71</ele>
        <time>2021-06-23T12:47:24Z</time>
      </trkpt>
      <trkpt lat="47.79925" lon="6.65923">
        <ele>383.63</ele>
        <time>2021-06-23T12:47:27Z</time>
      </trkpt>
      <trkpt lat="47.79923" lon="6.65961">
        <ele>384.11</ele>
        <time>2021-06-23T12:47:31Z</time>
      </trkpt>
      <trkpt lat="47.79913" lon="6.66037">
        <ele>384.64</ele>
        <time>2021-06-23T12:47:35Z</time>
      </trkpt>
      <trkpt lat="47.79909" lon="6.66103">
        <ele>387.91</ele>
        <time>2021-06-23T12:47:38Z</time>
      </trkpt>
      <trkpt lat="47.79909" lon="6.66129">
        <ele>388.47</ele>
        <time>2021-06-23T12:47:42Z</time>
      </trkpt>
      <trkpt lat="47.79923" lon="6.66239">
        <ele>387.1</ele>
        <time>2021-06-23T12:47:45Z</time>
      </trkpt>
      <trkpt lat="47.79929" lon="6.66265">
        <ele>387.6</ele>
        <time>2021-06-23T12:47:49Z</time>
      </trkpt>
      <trkpt lat="47.79973" lon="6.66408">
        <ele>396.03</ele>
        <time>2021-06-23T12:47:53Z</time>
      </trkpt>
      <trkpt lat="47.79982" lon="6.66447">
        <ele>398.3</ele>
        <time>2021-06-23T12:47:56Z</time>
      </trkpt>
      <trkpt lat="47.8" lon="6.66534">
        <ele>396.67</ele>
        <time>2021-06-23T12:48:00Z</time>
      </trkpt>
      <trkpt lat="47.80016" lon="6.66584">
        <ele>399.06</ele>
        <time>2021-06-23T12:48:03Z</time>
      </trkpt>
      <trkpt lat="47.80029" lon="6.66614">
        <ele>397.25</ele>
        <time>2021-06-23T12:48:07Z</time>
      </trkpt>
      <trkpt lat="47.80039" lon="6.66632">
        <ele>398.48</ele>
        <time>2021-06-23T12:48:10Z</time>
      </trkpt>
      <trkpt lat="47.80062" lon="6.6666">
        <ele>398.93</ele>
        <time>2021-06-23T12:48:14Z</time>
      </trkpt>
      <trkpt lat="47.80097" lon="6.66693">
        <ele>395.2</ele>
        <time>2021-06-23T12:48:18Z</time>
      </trkpt>
      <trkpt lat="47.80123" lon="6.66724">
        <ele>393.53</ele>
        <time>2021-06-23T12:48:21Z</time>
      </trkpt>
      <trkpt lat="47.80138" lon="6.66748">
        <ele>393</ele>
        <time>2021-06-23T12:48:25Z</time>
      </trkpt>
      <trkpt lat="47.80209" lon="6.66897">
        <ele>396.04</ele>
        <time>2021-06-23T12:48:28Z</time>
      </trkpt>
      <trkpt lat="47.8023" lon="6.66958">
        <ele>395.96</ele>
        <time>2021-06-23T12:48:32Z</time>
      </trkpt>
      <trkpt lat="47.80272" lon="6.6711">
        <ele>391.36</ele>
        <time>2021-06-23T12:48:36Z</time>
      </trkpt>
      <trkpt lat="47.80299" lon="6.67184">
        <ele>391.74</ele>
        <time>2021-06-23T12:48:39Z</time>
      </trkpt>
      <trkpt lat="47.80368" lon="6.67358">
        <ele>393.76</ele>
        <time>2021-06-23T12:48:43Z</time>
      </trkpt>
      <trkpt lat="47.8038" lon="6.67385">
        <ele>395.93</ele>
        <time>2021-06-23T12:48:46Z</time>
      </trkpt>
      <trkpt lat="47.80392" lon="6.67406">
        <ele>398.14</ele>
        <time>2021-06-23T12:48:50Z</time>
      </trkpt>
      <trkpt lat="47.80408" lon="6.67427">
        <ele>399.52</ele>
        <time>2021-06-23T12:48:53Z</time>
      </trkpt>
      <trkpt lat="47.80451" lon="6.67468">
        <ele>402.8</ele>
        <time>2021-06-23T12:48:57Z</time>
      </trkpt>
      <trkpt lat="47.80459" lon="6.67481">
        <ele>401.88</ele>
        <time>2021-06-23T12:49:01Z</time>
      </trkpt>
      <trkpt lat="47.80528" lon="6.67662">
        <ele>404.56</ele>
        <time>2021-06-23T12:49:04Z</time>
      </trkpt>
      <trkpt lat="47.80541" lon="6.67686">
        <ele>402.41</ele>
        <time>2021-06-23T12:49:08Z</time>
      </trkpt>
      <trkpt lat="47.8061" lon="6.67768">
        <ele>396.41</ele>
        <time>2021-06-23T12:49:11Z</time>
      </trkpt>
      <trkpt lat="47.80628" lon="6.67798">
        <ele>397</ele>
        <time>2021-06-23T12:49:15Z</time>
      </trkpt>
      <trkpt lat="47.807" lon="6.67952">
        <ele>403.45</ele>
        <time>2021-06-23T12:49:19Z</time>
      </trkpt>
      <trkpt lat="47.80718" lon="6.67982">
        <ele>401.99</ele>
        <time>2021-06-23T12:49:22Z</time>
      </trkpt>
      <trkpt lat="47.80738" lon="6.68004">
        <ele>401.34</ele>
        <time>2021-06-23T12:49:26Z</time>
      </trkpt>
      <trkpt lat="47.8076" lon="6.68016">
        <ele>402.16</ele>
        <time>2021-06-23T12:49:29Z</time>
      </trkpt>
      <trkpt lat="47.80794" lon="6.6802">
        <ele>405.33</ele>
        <time>2021-06-23T12:49:33Z</time>
      </trkpt>
      <trkpt lat="47.80834" lon="6.68011">
        <ele>409.03</ele>
        <time>2021-06-23T12:49:36Z</time>
      </trkpt>
      <trkpt lat="47.80858" lon="6.68008">
        <ele>411</ele>
        <time>2021-06-23T12:49:40Z</time>
      </trkpt>
      <trkpt lat="47.80877" lon="6.68015">
        <ele>412.35</ele>
        <time>2021-06-23T12:49:44Z</time>
      </trkpt>
      <trkpt lat="47.8089" lon="6.68026">
        <ele>412.95</ele>
        <time>2021-06-23T12:49:47Z</time>
      </trkpt>
      <trkpt lat="47.80928" lon="6.68072">
        <ele>410.92</ele>
        <time>2021-06-23T12:49:51Z</time>
      </trkpt>
      <trkpt lat="47.8095" lon="6.68099">
        <ele>409.54</ele>
        <time>2021-06-23T12:49:54Z</time>
      </trkpt>
      <trkpt lat="47.80965" lon="6.68112">
        <ele>410.36</ele>
        <time>2021-06-23T12:49:58Z</time>
      </trkpt>
      <trkpt lat="47.80988" lon="6.68126">
        <ele>409.02</ele>
        <time>2021-06-23T12:50:02Z</time>
      </trkpt>
      <trkpt lat="47.81005" lon="6.68128">
        <ele>407.2</ele>
        <time>2021-06-23T12:50:05Z</time>
      </trkpt>
      <trkpt lat="47.8102" lon="6.68127">
        <ele>406.05</ele>
        <time>2021-06-23T12:50:09Z</time>
      </trkpt>
      <trkpt lat="47.81033" lon="6.68123">
        <ele>405.47</ele>
        <time>2021-06-23T12:50:12Z</time>
      </trkpt>
      <trkpt lat="47.81058" lon="6.68111">
        <ele>405</ele>
        <time>2021-06-23T12:50:16Z</time>
      </trkpt>
      <trkpt lat="47.81087" lon="6.68091">
        <ele>404.46</ele>
        <time>2021-06-23T12:50:20Z</time>
      </trkpt>
      <trkpt lat="47.81121" lon="6.68082">
        <ele>405.28</ele>
        <time>2021-06-23T12:50:23Z</time>
      </trkpt>
      <trkpt lat="47.81235" lon="6.68083">
        <ele>404.9</ele>
        <time>2021-06-23T12:50:27Z</time>
      </trkpt>
      <trkpt lat="47.81248" lon="6.68085">
        <ele>405.8</ele>
        <time>2021-06-23T12:50:30Z</time>
      </trkpt>
      <trkpt lat="47.81268" lon="6.68092">
        <ele>406.33</ele>
        <time>2021-06-23T12:50:34Z</time>
      </trkpt>
      <trkpt lat="47.81281" lon="6.68099">
        <ele>406.49</ele>
        <time>2021-06-23T12:50:37Z</time>
      </trkpt>
      <trkpt lat="47.81413" lon="6.6821">
        <ele>411.42</ele>
        <time>2021-06-23T12:50:41Z</time>
      </trkpt>
      <trkpt lat="47.81482" lon="6.68257">
        <ele>414.58</ele>
        <time>2021-06-23T12:50:45Z</time>
      </trkpt>
      <trkpt lat="47.81576" lon="6.6829">
        <ele>415.34</ele>
        <time>2021-06-23T12:50:48Z</time>
      </trkpt>
      <trkpt lat="47.81597" lon="6.68306">
        <ele>417.46</ele>
        <time>2021-06-23T12:50:52Z</time>
      </trkpt>
      <trkpt lat="47.81612" lon="6.68322">
        <ele>417.07</ele>
        <time>2021-06-23T12:50:55Z</time>
      </trkpt>
      <trkpt lat="47.81646" lon="6.68375">
        <ele>412.02</ele>
        <time>2021-06-23T12:50:59Z</time>
      </trkpt>
      <trkpt lat="47.81665" lon="6.68392">
        <ele>411</ele>
        <time>2021-06-23T12:51:03Z</time>
      </trkpt>
      <trkpt lat="47.81684" lon="6.68405">
        <ele>411.5</ele>
        <time>2021-06-23T12:51:06Z</time>
      </trkpt>
      <trkpt lat="47.81787" lon="6.68461">
        <ele>413.86</ele>
        <time>2021-06-23T12:51:10Z</time>
      </trkpt>
      <trkpt lat="47.81803" lon="6.68471">
        <ele>413.95</ele>
        <time>2021-06-23T12:51:13Z</time>
      </trkpt>
      <trkpt lat="47.8186" lon="6.68542">
        <ele>412.42</ele>
        <time>2021-06-23T12:51:17Z</time>
      </trkpt>
      <trkpt lat="47.82005" lon="6.68755">
        <ele>413.77</ele>
        <time>2021-06-23T12:51:20Z</time>
      </trkpt>
      <trkpt lat="47.82025" lon="6.6879">
        <ele>415.56</ele>
        <time>2021-06-23T12:51:24Z</time>
      </trkpt>
      <trkpt lat="47.82037" lon="6.68822">
        <ele>416.97</ele>
        <time>2021-06-23T12:51:28Z</time>
      </trkpt>
      <trkpt lat="47.82052" lon="6.68878">
        <ele>416.63</ele>
        <time>2021-06-23T12:51:31Z</time>
      </trkpt>
      <trkpt lat="47.82106" lon="6.69115">
        <ele>411.71</ele>
        <time>2021-06-23T12:51:35Z</time>
      </trkpt>
      <trkpt lat="47.82205" lon="6.69537">
        <ele>414.76</ele>
        <time>2021-06-23T12:51:38Z</time>
      </trkpt>
      <trkpt lat="47.82218" lon="6.69578">
        <ele>415.8</ele>
        <time>2021-06-23T12:51:42Z</time>
      </trkpt>
      <trkpt lat="47.82234" lon="6.69611">
        <ele>416.59</ele>
        <time>2021-06-23T12:51:46Z</time>
      </trkpt>
      <trkpt lat="47.8231" lon="6.69747">
        <ele>417.33</ele>
        <time>2021-06-23T12:51:49Z</time>
      </trkpt>
      <trkpt lat="47.82368" lon="6.6985">
        <ele>420.35</ele>
        <time>2021-06-23T12:51:53Z</time>
      </trkpt>
      <trkpt lat="47.82443" lon="6.69983">
        <ele>419.18</ele>
        <time>2021-06-23T12:51:56Z</time>
      </trkpt>
      <trkpt lat="47.82459" lon="6.70008">
        <ele>419.14</ele>
        <time>2021-06-23T12:52:00Z</time>
      </trkpt>
      <trkpt lat="47.82476" lon="6.70031">
        <ele>419.7</ele>
        <time>2021-06-23T12:52:04Z</time>
      </trkpt>
      <trkpt lat="47.8254" lon="6.70105">
        <ele>426.7</ele>
        <time>2021-06-23T12:52:07Z</time>
      </trkpt>
      <trkpt lat="47.82574" lon="6.7016">
        <ele>429.3</ele>
        <time>2021-06-23T12:52:11Z</time>
      </trkpt>
      <trkpt lat="47.82595" lon="6.7021">
        <ele>427.25</ele>
        <time>2021-06-23T12:52:14Z</time>
      </trkpt>
      <trkpt lat="47.82636" lon="6.70318">
        <ele>423.09</ele>
        <time>2021-06-23T12:52:18Z</time>
      </trkpt>
      <trkpt lat="47.82652" lon="6.70349">
        <ele>426.36</ele>
        <time>2021-06-23T12:52:21Z</time>
      </trkpt>
      <trkpt lat="47.82668" lon="6.70373">
        <ele>428.91</ele>
        <time>2021-06-23T12:52:25Z</time>
      </trkpt>
      <trkpt lat="47.82688" lon="6.70396">
        <ele>429.67</ele>
        <time>2021-06-23T12:52:29Z</time>
      </trkpt>
      <trkpt lat="47.82773" lon="6.70465">
        <ele>428.52</ele>
        <time>2021-06-23T12:52:32Z</time>
      </trkpt>
      <trkpt lat="47.82857" lon="6.70541">
        <ele>432.6</ele>
        <time>2021-06-23T12:52:36Z</time>
      </trkpt>
      <trkpt lat="47.82951" lon="6.70652">
        <ele>431.58</ele>
        <time>2021-06-23T12:52:39Z</time>
      </trkpt>
      <trkpt lat="47.83014" lon="6.70694">
        <ele>431.02</ele>
        <time>2021-06-23T12:52:43Z</time>
      </trkpt>
      <trkpt lat="47.83041" lon="6.70732">
        <ele>434.46</ele>
        <time>2021-06-23T12:52:47Z</time>
      </trkpt>
      <trkpt lat="47.8306" lon="6.70775">
        <ele>437.17</ele>
        <time>2021-06-23T12:52:50Z</time>
      </trkpt>
      <trkpt lat="47.83081" lon="6.70816">
        <ele>437.98</ele>
        <time>2021-06-23T12:52:54Z</time>
      </trkpt>
      <trkpt lat="47.83104" lon="6.70849">
        <ele>438.64</ele>
        <time>2021-06-23T12:52:57Z</time>
      </trkpt>
      <trkpt lat="47.83125" lon="6.7087">
        <ele>441.89</ele>
        <time>2021-06-23T12:53:01Z</time>
      </trkpt>
      <trkpt lat="47.83161" lon="6.70906">
        <ele>446.24</ele>
        <time>2021-06-23T12:53:04Z</time>
      </trkpt>
      <trkpt lat="47.83212" lon="6.70982">
        <ele>443.47</ele>
        <time>2021-06-23T12:53:08Z</time>
      </trkpt>
      <trkpt lat="47.83233" lon="6.71006">
        <ele>445.48</ele>
        <time>2021-06-23T12:53:12Z</time>
      </trkpt>
      <trkpt lat="47.83321" lon="6.7109">
        <ele>450.44</ele>
        <time>2021-06-23T12:53:15Z</time>
      </trkpt>
      <trkpt lat="47.83362" lon="6.71119">
        <ele>453.13</ele>
        <time>2021-06-23T12:53:19Z</time>
      </trkpt>
      <trkpt lat="47.83415" lon="6.71149">
        <ele>463.89</ele>
        <time>2021-06-23T12:53:22Z</time>
      </trkpt>
      <trkpt lat="47.83443" lon="6.7119">
        <ele>457.94</ele>
        <time>2021-06-23T12:53:26Z</time>
      </trkpt>
      <trkpt lat="47.83472" lon="6.71227">
        <ele>460.47</ele>
        <time>2021-06-23T12:53:30Z</time>
      </trkpt>
      <trkpt lat="47.83595" lon="6.71345">
        <ele>474.73</ele>
        <time>2021-06-23T12:53:33Z</time>
      </trkpt>
      <trkpt lat="47.83667" lon="6.71398">
        <ele>477.13</ele>
        <time>2021-06-23T12:53:37Z</time>
      </trkpt>
      <trkpt lat="47.83785" lon="6.71514">
        <ele>489.17</ele>
        <time>2021-06-23T12:53:40Z</time>
      </trkpt>
      <trkpt lat="47.83812" lon="6.71552">
        <ele>488.39</ele>
        <time>2021-06-23T12:53:44Z</time>
      </trkpt>
      <trkpt lat="47.83828" lon="6.71595">
        <ele>485.89</ele>
        <time>2021-06-23T12:53:48Z</time>
      </trkpt>
      <trkpt lat="47.83854" lon="6.71632">
        <ele>486.29</ele>
        <time>2021-06-23T12:53:51Z</time>
      </trkpt>
      <trkpt lat="47.83892" lon="6.71681">
        <ele>489.58</ele>
        <time>2021-06-23T12:53:55Z</time>
      </trkpt>
      <trkpt lat="47.83911" lon="6.71695">
        <ele>491.17</ele>
        <time>2021-06-23T12:53:58Z</time>
      </trkpt>
      <trkpt lat="47.8394" lon="6.71708">
        <ele>493.12</ele>
        <time>2021-06-23T12:54:02Z</time>
      </trkpt>
      <trkpt lat="47.84051" lon="6.71781">
        <ele>503.68</ele>
        <time>2021-06-23T12:54:05Z</time>
      </trkpt>
      <trkpt lat="47.84084" lon="6.71798">
        <ele>504.94</ele>
        <time>2021-06-23T12:54:09Z</time>
      </trkpt>
      <trkpt lat="47.84107" lon="6.71806">
        <ele>506.37</ele>
        <time>2021-06-23T12:54:13Z</time>
      </trkpt>
      <trkpt lat="47.84195" lon="6.71823">
        <ele>509.64</ele>
        <time>2021-06-23T12:54:16Z</time>
      </trkpt>
      <trkpt lat="47.84212" lon="6.71833">
        <ele>512.17</ele>
        <time>2021-06-23T12:54:20Z</time>
      </trkpt>
      <trkpt lat="47.84229" lon="6.7185">
        <ele>512.37</ele>
        <time>2021-06-23T12:54:23Z</time>
      </trkpt>
      <trkpt lat="47.84311" lon="6.71953">
        <ele>515.05</ele>
        <time>2021-06-23T12:54:27Z</time>
      </trkpt>
      <trkpt lat="47.84393" lon="6.7203">
        <ele>519.38</ele>
        <time>2021-06-23T12:54:31Z</time>
      </trkpt>
      <trkpt lat="47.84428" lon="6.72058">
        <ele>522.49</ele>
        <time>2021-06-23T12:54:34Z</time>
      </trkpt>
      <trkpt lat="47.84457" lon="6.72077">
        <ele>527.19</ele>
        <time>2021-06-23T12:54:38Z</time>
      </trkpt>
      <trkpt lat="47.84589" lon="6.72148">
        <ele>541.15</ele>
        <time>2021-06-23T12:54:41Z</time>
      </trkpt>
      <trkpt lat="47.84643" lon="6.72193">
        <ele>543.6</ele>
        <time>2021-06-23T12:54:45Z</time>
      </trkpt>
      <trkpt lat="47.84728" lon="6.72295">
        <ele>547.35</ele>
        <time>2021-06-23T12:54:48Z</time>
      </trkpt>
      <trkpt lat="47.84759" lon="6.72329">
        <ele>551.73</ele>
        <time>2021-06-23T12:54:52Z</time>
      </trkpt>
      <trkpt lat="47.84822" lon="6.72372">
        <ele>554.78</ele>
        <time>2021-06-23T12:54:56Z</time>
      </trkpt>
      <trkpt lat="47.84898" lon="6.72447">
        <ele>562.26</ele>
        <time>2021-06-23T12:54:59Z</time>
      </trkpt>
      <trkpt lat="47.84909" lon="6.72464">
        <ele>563.81</ele>
        <time>2021-06-23T12:55:03Z</time>
      </trkpt>
      <trkpt lat="47.84914" lon="6.72483">
        <ele>563.83</ele>
        <time>2021-06-23T12:55:06Z</time>
      </trkpt>
      <trkpt lat="47.84916" lon="6.72509">
        <ele>563.41</ele>
        <time>2021-06-23T12:55:10Z</time>
      </trkpt>
      <trkpt lat="47.84912" lon="6.72531">
        <ele>562.11</ele>
        <time>2021-06-23T12:55:14Z</time>
      </trkpt>
      <trkpt lat="47.84897" lon="6.7257">
        <ele>562.34</ele>
        <time>2021-06-23T12:55:17Z</time>
      </trkpt>
      <trkpt lat="47.84892" lon="6.72593">
        <ele>563.33</ele>
        <time>2021-06-23T12:55:21Z</time>
      </trkpt>
      <trkpt lat="47.8489" lon="6.72623">
        <ele>564.79</ele>
        <time>2021-06-23T12:55:24Z</time>
      </trkpt>
      <trkpt lat="47.84894" lon="6.72669">
        <ele>565.65</ele>
        <time>2021-06-23T12:55:28Z</time>
      </trkpt>
      <trkpt lat="47.84901" lon="6.72701">
        <ele>566.4</ele>
        <time>2021-06-23T12:55:32Z</time>
      </trkpt>
      <trkpt lat="47.8491" lon="6.7273">
        <ele>570.1</ele>
        <time>2021-06-23T12:55:35Z</time>
      </trkpt>
      <trkpt lat="47.84918" lon="6.72751">
        <ele>572.29</ele>
        <time>2021-06-23T12:55:39Z</time>
      </trkpt>
      <trkpt lat="47.84929" lon="6.72769">
        <ele>572.61</ele>
        <time>2021-06-23T12:55:42Z</time>
      </trkpt>
      <trkpt lat="47.84948" lon="6.72788">
        <ele>573.94</ele>
        <time>2021-06-23T12:55:46Z</time>
      </trkpt>
      <trkpt lat="47.85038" lon="6.72855">
        <ele>572.8</ele>
        <time>2021-06-23T12:55:49Z</time>
      </trkpt>
      <trkpt lat="47.85143" lon="6.72903">
        <ele>572.7</ele>
        <time>2021-06-23T12:55:53Z</time>
      </trkpt>
      <trkpt lat="47.85217" lon="6.72901">
        <ele>580.68</ele>
        <time>2021-06-23T12:55:57Z</time>
      </trkpt>
      <trkpt lat="47.8524" lon="6.72904">
        <ele>584.62</ele>
        <time>2021-06-23T12:56:00Z</time>
      </trkpt>
      <trkpt lat="47.8526" lon="6.72914">
        <ele>587.02</ele>
        <time>2021-06-23T12:56:04Z</time>
      </trkpt>
      <trkpt lat="47.85298" lon="6.72955">
        <ele>589.41</ele>
        <time>2021-06-23T12:56:07Z</time>
      </trkpt>
      <trkpt lat="47.85333" lon="6.73005">
        <ele>589.91</ele>
        <time>2021-06-23T12:56:11Z</time>
      </trkpt>
      <trkpt lat="47.85356" lon="6.7307">
        <ele>588.25</ele>
        <time>2021-06-23T12:56:15Z</time>
      </trkpt>
      <trkpt lat="47.85361" lon="6.73122">
        <ele>589.06</ele>
        <time>2021-06-23T12:56:18Z</time>
      </trkpt>
      <trkpt lat="47.85373" lon="6.73174">
        <ele>594.87</ele>
        <time>2021-06-23T12:56:22Z</time>
      </trkpt>
      <trkpt lat="47.85395" lon="6.73227">
        <ele>599.38</ele>
        <time>2021-06-23T12:56:25Z</time>
      </trkpt>
      <trkpt lat="47.85441" lon="6.73328">
        <ele>601.61</ele>
        <time>2021-06-23T12:56:29Z</time>
      </trkpt>
      <trkpt lat="47.85464" lon="6.73363">
        <ele>604.73</ele>
        <time>2021-06-23T12:56:32Z</time>
      </trkpt>
      <trkpt lat="47.85499" lon="6.73401">
        <ele>608.34</ele>
        <time>2021-06-23T12:56:36Z</time>
      </trkpt>
      <trkpt lat="47.85541" lon="6.73438">
        <ele>610.98</ele>
        <time>2021-06-23T12:56:40Z</time>
      </trkpt>
      <trkpt lat="47.85573" lon="6.73464">
        <ele>609.07</ele>
        <time>2021-06-23T12:56:43Z</time>
      </trkpt>
      <trkpt lat="47.85602" lon="6.73471">
        <ele>610.42</ele>
        <time>2021-06-23T12:56:47Z</time>
      </trkpt>
      <trkpt lat="47.85646" lon="6.73475">
        <ele>618.41</ele>
        <time>2021-06-23T12:56:50Z</time>
      </trkpt>
      <trkpt lat="47.85681" lon="6.73487">
        <ele>617</ele>
        <time>2021-06-23T12:56:54Z</time>
      </trkpt>
      <trkpt lat="47.85736" lon="6.73522">
        <ele>623.32</ele>
        <time>2021-06-23T12:56:58Z</time>
      </trkpt>
      <trkpt lat="47.85773" lon="6.73554">
        <ele>628.65</ele>
        <time>2021-06-23T12:57:01Z</time>
      </trkpt>
      <trkpt lat="47.85828" lon="6.73608">
        <ele>632.18</ele>
        <time>2021-06-23T12:57:05Z</time>
      </trkpt>
      <trkpt lat="47.85838" lon="6.73631">
        <ele>629.86</ele>
        <time>2021-06-23T12:57:08Z</time>
      </trkpt>
      <trkpt lat="47.85843" lon="6.73651">
        <ele>628.11</ele>
        <time>2021-06-23T12:57:12Z</time>
      </trkpt>
      <trkpt lat="47.85843" lon="6.73661">
        <ele>627.35</ele>
        <time>2021-06-23T12:57:16Z</time>
      </trkpt>
      <trkpt lat="47.85842" lon="6.73676">
        <ele>627.49</ele>
        <time>2021-06-23T12:57:19Z</time>
      </trkpt>
      <trkpt lat="47.8584" lon="6.73688">
        <ele>627.8</ele>
        <time>2021-06-23T12:57:23Z</time>
      </trkpt>
      <trkpt lat="47.85836" lon="6.73698">
        <ele>627.33</ele>
        <time>2021-06-23T12:57:26Z</time>
      </trkpt>
      <trkpt lat="47.85823" lon="6.73718">
        <ele>627.16</ele>
        <time>2021-06-23T12:57:30Z</time>
      </trkpt>
      <trkpt lat="47.85813" lon="6.73728">
        <ele>626.78</ele>
        <time>2021-06-23T12:57:33Z</time>
      </trkpt>
      <trkpt lat="47.85803" lon="6.73732">
        <ele>626.37</ele>
        <time>2021-06-23T12:57:37Z</time>
      </trkpt>
      <trkpt lat="47.85685" lon="6.73731">
        <ele>630.34</ele>
        <time>2021-06-23T12:57:41Z</time>
      </trkpt>
      <trkpt lat="47.85664" lon="6.73742">
        <ele>632.95</ele>
        <time>2021-06-23T12:57:44Z</time>
      </trkpt>
      <trkpt lat="47.85639" lon="6.73765">
        <ele>635.27</ele>
        <time>2021-06-23T12:57:48Z</time>
      </trkpt>
      <trkpt lat="47.85629" lon="6.73781">
        <ele>634.24</ele>
        <time>2021-06-23T12:57:51Z</time>
      </trkpt>
      <trkpt lat="47.85622" lon="6.73801">
        <ele>635.38</ele>
        <time>2021-06-23T12:57:55Z</time>
      </trkpt>
      <trkpt lat="47.85614" lon="6.73842">
        <ele>637.46</ele>
        <time>2021-06-23T12:57:59Z</time>
      </trkpt>
      <trkpt lat="47.85614" lon="6.7399">
        <ele>648.33</ele>
        <time>2021-06-23T12:58:02Z</time>
      </trkpt>
      <trkpt lat="47.85629" lon="6.74071">
        <ele>652.03</ele>
        <time>2021-06-23T12:58:06Z</time>
      </trkpt>
      <trkpt lat="47.85636" lon="6.74219">
        <ele>655.54</ele>
        <time>2021-06-23T12:58:09Z</time>
      </trkpt>
      <trkpt lat="47.85646" lon="6.74285">
        <ele>660.43</ele>
        <time>2021-06-23T12:58:13Z</time>
      </trkpt>
      <trkpt lat="47.85734" lon="6.74491">
        <ele>663.6</ele>
        <time>2021-06-23T12:58:16Z</time>
      </trkpt>
      <trkpt lat="47.85765" lon="6.74554">
        <ele>665.21</ele>
        <time>2021-06-23T12:58:20Z</time>
      </trkpt>
      <trkpt lat="47.85773" lon="6.74565">
        <ele>666.07</ele>
        <time>2021-06-23T12:58:24Z</time>
      </trkpt>
      <trkpt lat="47.85787" lon="6.74577">
        <ele>667.85</ele>
        <time>2021-06-23T12:58:27Z</time>
      </trkpt>
      <trkpt lat="47.85845" lon="6.74617">
        <ele>677.69</ele>
        <time>2021-06-23T12:58:31Z</time>
      </trkpt>
      <trkpt lat="47.8595" lon="6.747">
        <ele>683.17</ele>
        <time>2021-06-23T12:58:34Z</time>
      </trkpt>
      <trkpt lat="47.85977" lon="6.7471">
        <ele>683.04</ele>
        <time>2021-06-23T12:58:38Z</time>
      </trkpt>
      <trkpt lat="47.86002" lon="6.74709">
        <ele>683.35</ele>
        <time>2021-06-23T12:58:42Z</time>
      </trkpt>
      <trkpt lat="47.86061" lon="6.74697">
        <ele>685.23</ele>
        <time>2021-06-23T12:58:45Z</time>
      </trkpt>
      <trkpt lat="47.86083" lon="6.74685">
        <ele>687.63</ele>
        <time>2021-06-23T12:58:49Z</time>
      </trkpt>
      <trkpt lat="47.86098" lon="6.74673">
        <ele>686.99</ele>
        <time>2021-06-23T12:58:52Z</time>
      </trkpt>
      <trkpt lat="47.8611" lon="6.74653">
        <ele>686.47</ele>
        <time>2021-06-23T12:58:56Z</time>
      </trkpt>
      <trkpt lat="47.86155" lon="6.74557">
        <ele>674.77</ele>
        <time>2021-06-23T12:58:59Z</time>
      </trkpt>
      <trkpt lat="47.86166" lon="6.7451">
        <ele>672.7</ele>
        <time>2021-06-23T12:59:03Z</time>
      </trkpt>
      <trkpt lat="47.86186" lon="6.74405">
        <ele>670.63</ele>
        <time>2021-06-23T12:59:07Z</time>
      </trkpt>
      <trkpt lat="47.86196" lon="6.74324">
        <ele>672.84</ele>
        <time>2021-06-23T12:59:10Z</time>
      </trkpt>
      <trkpt lat="47.86199" lon="6.74318">
        <ele>672.32</ele>
        <time>2021-06-23T12:59:14Z</time>
      </trkpt>
      <trkpt lat="47.86205" lon="6.74316">
        <ele>671.63</ele>
        <time>2021-06-23T12:59:17Z</time>
      </trkpt>
      <trkpt lat="47.86212" lon="6.7432">
        <ele>670.38</ele>
        <time>2021-06-23T12:59:21Z</time>
      </trkpt>
      <trkpt lat="47.86215" lon="6.74328">
        <ele>669.65</ele>
        <time>2021-06-23T12:59:25Z</time>
      </trkpt>
      <trkpt lat="47.86215" lon="6.74339">
        <ele>668.83</ele>
        <time>2021-06-23T12:59:28Z</time>
      </trkpt>
      <trkpt lat="47.86202" lon="6.74454">
        <ele>662.28</ele>
        <time>2021-06-23T12:59:32Z</time>
      </trkpt>
      <trkpt lat="47.862" lon="6.74589">
        <ele>650.51</ele>
        <time>2021-06-23T12:59:35Z</time>
      </trkpt>
      <trkpt lat="47.86196" lon="6.74609">
        <ele>649.59</ele>
        <time>2021-06-23T12:59:39Z</time>
      </trkpt>
      <trkpt lat="47.86163" lon="6.74724">
        <ele>646.95</ele>
        <time>2021-06-23T12:59:43Z</time>
      </trkpt>
      <trkpt lat="47.86153" lon="6.74745">
        <ele>646.35</ele>
        <time>2021-06-23T12:59:46Z</time>
      </trkpt>
      <trkpt lat="47.86111" lon="6.74809">
        <ele>642.06</ele>
        <time>2021-06-23T12:59:50Z</time>
      </trkpt>
      <trkpt lat="47.86097" lon="6.74834">
        <ele>640.49</ele>
        <time>2021-06-23T12:59:53Z</time>
      </trkpt>
      <trkpt lat="47.86091" lon="6.7485">
        <ele>640.81</ele>
        <time>2021-06-23T12:59:57Z</time>
      </trkpt>
      <trkpt lat="47.86088" lon="6.74869">
        <ele>638.97</ele>
        <time>2021-06-23T13:00:00Z</time>
      </trkpt>
      <trkpt lat="47.86088" lon="6.74889">
        <ele>636.83</ele>
        <time>2021-06-23T13:00:04Z</time>
      </trkpt>
      <trkpt lat="47.86094" lon="6.74924">
        <ele>630.98</ele>
        <time>2021-06-23T13:00:08Z</time>
      </trkpt>
      <trkpt lat="47.86101" lon="6.74942">
        <ele>626.9</ele>
        <time>2021-06-23T13:00:11Z</time>
      </trkpt>
      <trkpt lat="47.8613" lon="6.74987">
        <ele>616.35</ele>
        <time>2021-06-23T13:00:15Z</time>
      </trkpt>
      <trkpt lat="47.86137" lon="6.75008">
        <ele>614.38</ele>
        <time>2021-06-23T13:00:18Z</time>
      </trkpt>
      <trkpt lat="47.86142" lon="6.75033">
        <ele>614.3</ele>
        <time>2021-06-23T13:00:22Z</time>
      </trkpt>
      <trkpt lat="47.86142" lon="6.75062">
        <ele>615.87</ele>
        <time>2021-06-23T13:00:26Z</time>
      </trkpt>
      <trkpt lat="47.86139" lon="6.75111">
        <ele>618.83</ele>
        <time>2021-06-23T13:00:29Z</time>
      </trkpt>
      <trkpt lat="47.86135" lon="6.75142">
        <ele>621.63</ele>
        <time>2021-06-23T13:00:33Z</time>
      </trkpt>
      <trkpt lat="47.86135" lon="6.75163">
        <ele>623.63</ele>
        <time>2021-06-23T13:00:36Z</time>
      </trkpt>
      <trkpt lat="47.86142" lon="6.75196">
        <ele>622.04</ele>
        <time>2021-06-23T13:00:40Z</time>
      </trkpt>
      <trkpt lat="47.86165" lon="6.75259">
        <ele>628.28</ele>
        <time>2021-06-23T13:00:43Z</time>
      </trkpt>
      <trkpt lat="47.86177" lon="6.75281">
        <ele>626.8</ele>
        <time>2021-06-23T13:00:47Z</time>
      </trkpt>
      <trkpt lat="47.86177" lon="6.75281">
        <ele>626.8</ele>
        <time>2021-06-23T13:00:47Z</time>
      </trkpt>
      <trkpt lat="47.86185" lon="6.75295">
        <ele>625.31</ele>
        <time>2021-06-23T13:00:50Z</time>
      </trkpt>
      <trkpt lat="47.86195" lon="6.75308">
        <ele>622.1</ele>
        <time>2021-06-23T13:00:53Z</time>
      </trkpt>
      <trkpt lat="47.86256" lon="6.75365">
        <ele>606.25</ele>
        <time>2021-06-23T13:00:56Z</time>
      </trkpt>
      <trkpt lat="47.86283" lon="6.75403">
        <ele>600.14</ele>
        <time>2021-06-23T13:00:59Z</time>
      </trkpt>
      <trkpt lat="47.86295" lon="6.75414">
        <ele>597.39</ele>
        <time>2021-06-23T13:01:02Z</time>
      </trkpt>
      <trkpt lat="47.86314" lon="6.75423">
        <ele>594.13</ele>
        <time>2021-06-23T13:01:05Z</time>
      </trkpt>
      <trkpt lat="47.86366" lon="6.75415">
        <ele>589.29</ele>
        <time>2021-06-23T13:01:08Z</time>
      </trkpt>
      <trkpt lat="47.86386" lon="6.7542">
        <ele>589.2</ele>
        <time>2021-06-23T13:01:11Z</time>
      </trkpt>
      <trkpt lat="47.86421" lon="6.75432">
        <ele>588.3</ele>
        <time>2021-06-23T13:01:13Z</time>
      </trkpt>
      <trkpt lat="47.86447" lon="6.75438">
        <ele>586.54</ele>
        <time>2021-06-23T13:01:16Z</time>
      </trkpt>
      <trkpt lat="47.86466" lon="6.75447">
        <ele>583.16</ele>
        <time>2021-06-23T13:01:19Z</time>
      </trkpt>
      <trkpt lat="47.86491" lon="6.75467">
        <ele>578.65</ele>
        <time>2021-06-23T13:01:22Z</time>
      </trkpt>
      <trkpt lat="47.86497" lon="6.75476">
        <ele>577.38</ele>
        <time>2021-06-23T13:01:25Z</time>
      </trkpt>
      <trkpt lat="47.86501" lon="6.75485">
        <ele>576.59</ele>
        <time>2021-06-23T13:01:28Z</time>
      </trkpt>
      <trkpt lat="47.86502" lon="6.75494">
        <ele>576.72</ele>
        <time>2021-06-23T13:01:31Z</time>
      </trkpt>
      <trkpt lat="47.86502" lon="6.75508">
        <ele>576.87</ele>
        <time>2021-06-23T13:01:34Z</time>
      </trkpt>
      <trkpt lat="47.86495" lon="6.75548">
        <ele>579.35</ele>
        <time>2021-06-23T13:01:37Z</time>
      </trkpt>
      <trkpt lat="47.86496" lon="6.75564">
        <ele>579.59</ele>
        <time>2021-06-23T13:01:40Z</time>
      </trkpt>
      <trkpt lat="47.86498" lon="6.75578">
        <ele>579.23</ele>
        <time>2021-06-23T13:01:42Z</time>
      </trkpt>
      <trkpt lat="47.86504" lon="6.75592">
        <ele>578.58</ele>
        <time>2021-06-23T13:01:45Z</time>
      </trkpt>
      <trkpt lat="47.86522" lon="6.75631">
        <ele>576.22</ele>
        <time>2021-06-23T13:01:48Z</time>
      </trkpt>
      <trkpt lat="47.86539" lon="6.75663">
        <ele>572.82</ele>
        <time>2021-06-23T13:01:51Z</time>
      </trkpt>
      <trkpt lat="47.86554" lon="6.7568">
        <ele>571.71</ele>
        <time>2021-06-23T13:01:54Z</time>
      </trkpt>
      <trkpt lat="47.86562" lon="6.75685">
        <ele>571.31</ele>
        <time>2021-06-23T13:01:57Z</time>
      </trkpt>
      <trkpt lat="47.86591" lon="6.75695">
        <ele>569.2</ele>
        <time>2021-06-23T13:02:00Z</time>
      </trkpt>
      <trkpt lat="47.86625" lon="6.75722">
        <ele>568.48</ele>
        <time>2021-06-23T13:02:03Z</time>
      </trkpt>
      <trkpt lat="47.86638" lon="6.75724">
        <ele>567.15</ele>
        <time>2021-06-23T13:02:06Z</time>
      </trkpt>
      <trkpt lat="47.86649" lon="6.75718">
        <ele>565.77</ele>
        <time>2021-06-23T13:02:09Z</time>
      </trkpt>
      <trkpt lat="47.8666" lon="6.75701">
        <ele>564.01</ele>
        <time>2021-06-23T13:02:12Z</time>
      </trkpt>
      <trkpt lat="47.86666" lon="6.75688">
        <ele>562.63</ele>
        <time>2021-06-23T13:02:14Z</time>
      </trkpt>
      <trkpt lat="47.86672" lon="6.75667">
        <ele>560.62</ele>
        <time>2021-06-23T13:02:17Z</time>
      </trkpt>
      <trkpt lat="47.86676" lon="6.75647">
        <ele>558.42</ele>
        <time>2021-06-23T13:02:20Z</time>
      </trkpt>
      <trkpt lat="47.86676" lon="6.75624">
        <ele>556.62</ele>
        <time>2021-06-23T13:02:23Z</time>
      </trkpt>
      <trkpt lat="47.86666" lon="6.75548">
        <ele>554.82</ele>
        <time>2021-06-23T13:02:26Z</time>
      </trkpt>
      <trkpt lat="47.86666" lon="6.75529">
        <ele>554.15</ele>
        <time>2021-06-23T13:02:29Z</time>
      </trkpt>
      <trkpt lat="47.86671" lon="6.75504">
        <ele>553.5</ele>
        <time>2021-06-23T13:02:32Z</time>
      </trkpt>
      <trkpt lat="47.86676" lon="6.75492">
        <ele>553.02</ele>
        <time>2021-06-23T13:02:35Z</time>
      </trkpt>
      <trkpt lat="47.86685" lon="6.75477">
        <ele>551.98</ele>
        <time>2021-06-23T13:02:38Z</time>
      </trkpt>
      <trkpt lat="47.86704" lon="6.75462">
        <ele>549.9</ele>
        <time>2021-06-23T13:02:41Z</time>
      </trkpt>
      <trkpt lat="47.86748" lon="6.75446">
        <ele>544.21</ele>
        <time>2021-06-23T13:02:43Z</time>
      </trkpt>
      <trkpt lat="47.86766" lon="6.75446">
        <ele>542.9</ele>
        <time>2021-06-23T13:02:46Z</time>
      </trkpt>
      <trkpt lat="47.86787" lon="6.75456">
        <ele>542.4</ele>
        <time>2021-06-23T13:02:49Z</time>
      </trkpt>
      <trkpt lat="47.86852" lon="6.75506">
        <ele>539.51</ele>
        <time>2021-06-23T13:02:52Z</time>
      </trkpt>
      <trkpt lat="47.86869" lon="6.75528">
        <ele>538</ele>
        <time>2021-06-23T13:02:55Z</time>
      </trkpt>
      <trkpt lat="47.86889" lon="6.7556">
        <ele>538</ele>
        <time>2021-06-23T13:02:58Z</time>
      </trkpt>
      <trkpt lat="47.86904" lon="6.75585">
        <ele>537.52</ele>
        <time>2021-06-23T13:03:01Z</time>
      </trkpt>
      <trkpt lat="47.86913" lon="6.75605">
        <ele>537.91</ele>
        <time>2021-06-23T13:03:04Z</time>
      </trkpt>
      <trkpt lat="47.86921" lon="6.75627">
        <ele>537.14</ele>
        <time>2021-06-23T13:03:07Z</time>
      </trkpt>
      <trkpt lat="47.86943" lon="6.75707">
        <ele>536.1</ele>
        <time>2021-06-23T13:03:10Z</time>
      </trkpt>
      <trkpt lat="47.86954" lon="6.7573">
        <ele>535.32</ele>
        <time>2021-06-23T13:03:12Z</time>
      </trkpt>
      <trkpt lat="47.86963" lon="6.7574">
        <ele>534.66</ele>
        <time>2021-06-23T13:03:15Z</time>
      </trkpt>
      <trkpt lat="47.86974" lon="6.75747">
        <ele>533.91</ele>
        <time>2021-06-23T13:03:18Z</time>
      </trkpt>
      <trkpt lat="47.8699" lon="6.75751">
        <ele>533.41</ele>
        <time>2021-06-23T13:03:21Z</time>
      </trkpt>
      <trkpt lat="47.87077" lon="6.75734">
        <ele>530.2</ele>
        <time>2021-06-23T13:03:24Z</time>
      </trkpt>
      <trkpt lat="47.87095" lon="6.75733">
        <ele>529.25</ele>
        <time>2021-06-23T13:03:27Z</time>
      </trkpt>
      <trkpt lat="47.8712" lon="6.75735">
        <ele>527.45</ele>
        <time>2021-06-23T13:03:30Z</time>
      </trkpt>
      <trkpt lat="47.87146" lon="6.75743">
        <ele>525.21</ele>
        <time>2021-06-23T13:03:33Z</time>
      </trkpt>
      <trkpt lat="47.8717" lon="6.75753">
        <ele>523.7</ele>
        <time>2021-06-23T13:03:36Z</time>
      </trkpt>
      <trkpt lat="47.8719" lon="6.75766">
        <ele>522.25</ele>
        <time>2021-06-23T13:03:39Z</time>
      </trkpt>
      <trkpt lat="47.87294" lon="6.75855">
        <ele>518.9</ele>
        <time>2021-06-23T13:03:41Z</time>
      </trkpt>
      <trkpt lat="47.87321" lon="6.75882">
        <ele>517.29</ele>
        <time>2021-06-23T13:03:44Z</time>
      </trkpt>
      <trkpt lat="47.87358" lon="6.75928">
        <ele>512.92</ele>
        <time>2021-06-23T13:03:47Z</time>
      </trkpt>
      <trkpt lat="47.87426" lon="6.76022">
        <ele>501.95</ele>
        <time>2021-06-23T13:03:50Z</time>
      </trkpt>
      <trkpt lat="47.87449" lon="6.76086">
        <ele>499.27</ele>
        <time>2021-06-23T13:03:53Z</time>
      </trkpt>
      <trkpt lat="47.8748" lon="6.76195">
        <ele>494.27</ele>
        <time>2021-06-23T13:03:56Z</time>
      </trkpt>
      <trkpt lat="47.87484" lon="6.76218">
        <ele>494.44</ele>
        <time>2021-06-23T13:03:59Z</time>
      </trkpt>
      <trkpt lat="47.87488" lon="6.7628">
        <ele>495.09</ele>
        <time>2021-06-23T13:04:02Z</time>
      </trkpt>
      <trkpt lat="47.87491" lon="6.76293">
        <ele>494.98</ele>
        <time>2021-06-23T13:04:05Z</time>
      </trkpt>
      <trkpt lat="47.87535" lon="6.76379">
        <ele>495</ele>
        <time>2021-06-23T13:04:08Z</time>
      </trkpt>
      <trkpt lat="47.87559" lon="6.7644">
        <ele>495.76</ele>
        <time>2021-06-23T13:04:10Z</time>
      </trkpt>
      <trkpt lat="47.87566" lon="6.76454">
        <ele>495.25</ele>
        <time>2021-06-23T13:04:13Z</time>
      </trkpt>
      <trkpt lat="47.87579" lon="6.76463">
        <ele>494.29</ele>
        <time>2021-06-23T13:04:16Z</time>
      </trkpt>
      <trkpt lat="47.87584" lon="6.76465">
        <ele>493.92</ele>
        <time>2021-06-23T13:04:19Z</time>
      </trkpt>
      <trkpt lat="47.87618" lon="6.76455">
        <ele>491.61</ele>
        <time>2021-06-23T13:04:22Z</time>
      </trkpt>
      <trkpt lat="47.87638" lon="6.76452">
        <ele>490.31</ele>
        <time>2021-06-23T13:04:25Z</time>
      </trkpt>
      <trkpt lat="47.8765" lon="6.76454">
        <ele>489.52</ele>
        <time>2021-06-23T13:04:28Z</time>
      </trkpt>
      <trkpt lat="47.87723" lon="6.765">
        <ele>488.98</ele>
        <time>2021-06-23T13:04:31Z</time>
      </trkpt>
      <trkpt lat="47.87753" lon="6.76525">
        <ele>489</ele>
        <time>2021-06-23T13:04:34Z</time>
      </trkpt>
      <trkpt lat="47.87767" lon="6.76533">
        <ele>489.07</ele>
        <time>2021-06-23T13:04:37Z</time>
      </trkpt>
      <trkpt lat="47.87876" lon="6.7655">
        <ele>496.85</ele>
        <time>2021-06-23T13:04:39Z</time>
      </trkpt>
      <trkpt lat="47.87887" lon="6.76554">
        <ele>497.83</ele>
        <time>2021-06-23T13:04:42Z</time>
      </trkpt>
      <trkpt lat="47.87892" lon="6.76548">
        <ele>497.8</ele>
        <time>2021-06-23T13:04:48Z</time>
      </trkpt>
      <trkpt lat="47.8794" lon="6.76512">
        <ele>494.89</ele>
        <time>2021-06-23T13:04:53Z</time>
      </trkpt>
      <trkpt lat="47.87993" lon="6.76462">
        <ele>494.36</ele>
        <time>2021-06-23T13:04:58Z</time>
      </trkpt>
      <trkpt lat="47.88001" lon="6.76477">
        <ele>494.16</ele>
        <time>2021-06-23T13:05:04Z</time>
      </trkpt>
      <trkpt lat="47.88019" lon="6.76503">
        <ele>494.41</ele>
        <time>2021-06-23T13:05:10Z</time>
      </trkpt>
      <trkpt lat="47.88029" lon="6.7651">
        <ele>494.36</ele>
        <time>2021-06-23T13:05:16Z</time>
      </trkpt>
      <trkpt lat="47.88095" lon="6.76544">
        <ele>494</ele>
        <time>2021-06-23T13:05:22Z</time>
      </trkpt>
      <trkpt lat="47.88288" lon="6.76593">
        <ele>490.74</ele>
        <time>2021-06-23T13:05:28Z</time>
      </trkpt>
      <trkpt lat="47.88317" lon="6.76606">
        <ele>490.42</ele>
        <time>2021-06-23T13:05:33Z</time>
      </trkpt>
      <trkpt lat="47.8843" lon="6.76687">
        <ele>490.22</ele>
        <time>2021-06-23T13:05:39Z</time>
      </trkpt>
      <trkpt lat="47.88441" lon="6.76699">
        <ele>490.29</ele>
        <time>2021-06-23T13:05:45Z</time>
      </trkpt>
      <trkpt lat="47.88449" lon="6.76712">
        <ele>490.58</ele>
        <time>2021-06-23T13:05:51Z</time>
      </trkpt>
      <trkpt lat="47.88576" lon="6.76954">
        <ele>496.16</ele>
        <time>2021-06-23T13:05:57Z</time>
      </trkpt>
      <trkpt lat="47.88587" lon="6.76966">
        <ele>496.36</ele>
        <time>2021-06-23T13:06:02Z</time>
      </trkpt>
      <trkpt lat="47.8869" lon="6.7703">
        <ele>499.35</ele>
        <time>2021-06-23T13:06:08Z</time>
      </trkpt>
      <trkpt lat="47.88711" lon="6.77047">
        <ele>497.82</ele>
        <time>2021-06-23T13:06:14Z</time>
      </trkpt>
      <trkpt lat="47.88736" lon="6.77075">
        <ele>497.75</ele>
        <time>2021-06-23T13:06:20Z</time>
      </trkpt>
      <trkpt lat="47.88747" lon="6.77092">
        <ele>498.71</ele>
        <time>2021-06-23T13:06:26Z</time>
      </trkpt>
      <trkpt lat="47.88763" lon="6.77131">
        <ele>499.65</ele>
        <time>2021-06-23T13:06:32Z</time>
      </trkpt>
      <trkpt lat="47.88788" lon="6.77199">
        <ele>496.54</ele>
        <time>2021-06-23T13:06:37Z</time>
      </trkpt>
      <trkpt lat="47.88805" lon="6.77238">
        <ele>495.58</ele>
        <time>2021-06-23T13:06:43Z</time>
      </trkpt>
      <trkpt lat="47.8882" lon="6.7726">
        <ele>496.17</ele>
        <time>2021-06-23T13:06:49Z</time>
      </trkpt>
      <trkpt lat="47.88881" lon="6.77323">
        <ele>495</ele>
        <time>2021-06-23T13:06:55Z</time>
      </trkpt>
      <trkpt lat="47.88891" lon="6.77335">
        <ele>495.07</ele>
        <time>2021-06-23T13:07:01Z</time>
      </trkpt>
      <trkpt lat="47.88912" lon="6.77368">
        <ele>495.85</ele>
        <time>2021-06-23T13:07:06Z</time>
      </trkpt>
      <trkpt lat="47.88938" lon="6.77414">
        <ele>496</ele>
        <time>2021-06-23T13:07:12Z</time>
      </trkpt>
      <trkpt lat="47.88972" lon="6.77482">
        <ele>495</ele>
        <time>2021-06-23T13:07:18Z</time>
      </trkpt>
      <trkpt lat="47.89002" lon="6.77526">
        <ele>496</ele>
        <time>2021-06-23T13:07:24Z</time>
      </trkpt>
      <trkpt lat="47.89027" lon="6.77551">
        <ele>497.81</ele>
        <time>2021-06-23T13:07:30Z</time>
      </trkpt>
      <trkpt lat="47.89033" lon="6.77556">
        <ele>498.21</ele>
        <time>2021-06-23T13:07:35Z</time>
      </trkpt>
      <trkpt lat="47.89061" lon="6.77573">
        <ele>499</ele>
        <time>2021-06-23T13:07:41Z</time>
      </trkpt>
      <trkpt lat="47.89077" lon="6.77579">
        <ele>499</ele>
        <time>2021-06-23T13:07:47Z</time>
      </trkpt>
      <trkpt lat="47.89109" lon="6.77586">
        <ele>499.07</ele>
        <time>2021-06-23T13:07:53Z</time>
      </trkpt>
      <trkpt lat="47.894" lon="6.77584">
        <ele>502.02</ele>
        <time>2021-06-23T13:07:59Z</time>
      </trkpt>
      <trkpt lat="47.89412" lon="6.77588">
        <ele>502.03</ele>
        <time>2021-06-23T13:08:05Z</time>
      </trkpt>
      <trkpt lat="47.89439" lon="6.77604">
        <ele>502</ele>
        <time>2021-06-23T13:08:10Z</time>
      </trkpt>
      <trkpt lat="47.89565" lon="6.77741">
        <ele>509.89</ele>
        <time>2021-06-23T13:08:16Z</time>
      </trkpt>
      <trkpt lat="47.89594" lon="6.77771">
        <ele>509.71</ele>
        <time>2021-06-23T13:08:22Z</time>
      </trkpt>
      <trkpt lat="47.89608" lon="6.77784">
        <ele>509.1</ele>
        <time>2021-06-23T13:08:28Z</time>
      </trkpt>
      <trkpt lat="47.89627" lon="6.77795">
        <ele>509.56</ele>
        <time>2021-06-23T13:08:34Z</time>
      </trkpt>
      <trkpt lat="47.89637" lon="6.77798">
        <ele>509.92</ele>
        <time>2021-06-23T13:08:39Z</time>
      </trkpt>
      <trkpt lat="47.90013" lon="6.77816">
        <ele>514.47</ele>
        <time>2021-06-23T13:08:45Z</time>
      </trkpt>
      <trkpt lat="47.90064" lon="6.77821">
        <ele>515.29</ele>
        <time>2021-06-23T13:08:51Z</time>
      </trkpt>
      <trkpt lat="47.90091" lon="6.7783">
        <ele>514.23</ele>
        <time>2021-06-23T13:08:57Z</time>
      </trkpt>
      <trkpt lat="47.90126" lon="6.77849">
        <ele>512.83</ele>
        <time>2021-06-23T13:09:03Z</time>
      </trkpt>
      <trkpt lat="47.90149" lon="6.77866">
        <ele>512.53</ele>
        <time>2021-06-23T13:09:09Z</time>
      </trkpt>
      <trkpt lat="47.90162" lon="6.77879">
        <ele>512.45</ele>
        <time>2021-06-23T13:09:14Z</time>
      </trkpt>
      <trkpt lat="47.90221" lon="6.77963">
        <ele>521.15</ele>
        <time>2021-06-23T13:09:20Z</time>
      </trkpt>
      <trkpt lat="47.90245" lon="6.77987">
        <ele>518.33</ele>
        <time>2021-06-23T13:09:26Z</time>
      </trkpt>
      <trkpt lat="47.9026" lon="6.77998">
        <ele>517.17</ele>
        <time>2021-06-23T13:09:32Z</time>
      </trkpt>
      <trkpt lat="47.90286" lon="6.78008">
        <ele>518.45</ele>
        <time>2021-06-23T13:09:38Z</time>
      </trkpt>
      <trkpt lat="47.90351" lon="6.78004">
        <ele>524.63</ele>
        <time>2021-06-23T13:09:43Z</time>
      </trkpt>
      <trkpt lat="47.9037" lon="6.78006">
        <ele>524.66</ele>
        <time>2021-06-23T13:09:49Z</time>
      </trkpt>
      <trkpt lat="47.90397" lon="6.78017">
        <ele>524.88</ele>
        <time>2021-06-23T13:09:55Z</time>
      </trkpt>
      <trkpt lat="47.90443" lon="6.78053">
        <ele>524.1</ele>
        <time>2021-06-23T13:10:01Z</time>
      </trkpt>
      <trkpt lat="47.90464" lon="6.7808">
        <ele>522.43</ele>
        <time>2021-06-23T13:10:07Z</time>
      </trkpt>
      <trkpt lat="47.90536" lon="6.78183">
        <ele>519.24</ele>
        <time>2021-06-23T13:10:13Z</time>
      </trkpt>
      <trkpt lat="47.90562" lon="6.7821">
        <ele>519.96</ele>
        <time>2021-06-23T13:10:18Z</time>
      </trkpt>
      <trkpt lat="47.90582" lon="6.78223">
        <ele>520.93</ele>
        <time>2021-06-23T13:10:24Z</time>
      </trkpt>
      <trkpt lat="47.90706" lon="6.78279">
        <ele>523</ele>
        <time>2021-06-23T13:10:30Z</time>
      </trkpt>
      <trkpt lat="47.90739" lon="6.78298">
        <ele>524.36</ele>
        <time>2021-06-23T13:10:36Z</time>
      </trkpt>
      <trkpt lat="47.90811" lon="6.78353">
        <ele>526.06</ele>
        <time>2021-06-23T13:10:42Z</time>
      </trkpt>
      <trkpt lat="47.90897" lon="6.78424">
        <ele>527.81</ele>
        <time>2021-06-23T13:10:47Z</time>
      </trkpt>
      <trkpt lat="47.90963" lon="6.78487">
        <ele>528.76</ele>
        <time>2021-06-23T13:10:53Z</time>
      </trkpt>
      <trkpt lat="47.91047" lon="6.78575">
        <ele>537.38</ele>
        <time>2021-06-23T13:10:59Z</time>
      </trkpt>
      <trkpt lat="47.91074" lon="6.78599">
        <ele>537.49</ele>
        <time>2021-06-23T13:11:05Z</time>
      </trkpt>
      <trkpt lat="47.91087" lon="6.78606">
        <ele>537.81</ele>
        <time>2021-06-23T13:11:11Z</time>
      </trkpt>
      <trkpt lat="47.91134" lon="6.78614">
        <ele>541.99</ele>
        <time>2021-06-23T13:11:16Z</time>
      </trkpt>
      <trkpt lat="47.91146" lon="6.78621">
        <ele>542.72</ele>
        <time>2021-06-23T13:11:22Z</time>
      </trkpt>
      <trkpt lat="47.91161" lon="6.78633">
        <ele>542.49</ele>
        <time>2021-06-23T13:11:28Z</time>
      </trkpt>
      <trkpt lat="47.91221" lon="6.7869">
        <ele>543.74</ele>
        <time>2021-06-23T13:11:34Z</time>
      </trkpt>
      <trkpt lat="47.91221" lon="6.7869">
        <ele>543.74</ele>
        <time>2021-06-23T13:11:34Z</time>
      </trkpt>
      <trkpt lat="47.91249" lon="6.78719">
        <ele>546.3</ele>
        <time>2021-06-23T13:11:39Z</time>
      </trkpt>
      <trkpt lat="47.91269" lon="6.78745">
        <ele>548.48</ele>
        <time>2021-06-23T13:11:44Z</time>
      </trkpt>
      <trkpt lat="47.91421" lon="6.78962">
        <ele>546.18</ele>
        <time>2021-06-23T13:11:50Z</time>
      </trkpt>
      <trkpt lat="47.91494" lon="6.79034">
        <ele>552.01</ele>
        <time>2021-06-23T13:11:55Z</time>
      </trkpt>
      <trkpt lat="47.91662" lon="6.7917">
        <ele>559.05</ele>
        <time>2021-06-23T13:12:00Z</time>
      </trkpt>
      <trkpt lat="47.91688" lon="6.79194">
        <ele>558.46</ele>
        <time>2021-06-23T13:12:06Z</time>
      </trkpt>
      <trkpt lat="47.91737" lon="6.7924">
        <ele>561.15</ele>
        <time>2021-06-23T13:12:11Z</time>
      </trkpt>
      <trkpt lat="47.91758" lon="6.79264">
        <ele>562.87</ele>
        <time>2021-06-23T13:12:16Z</time>
      </trkpt>
      <trkpt lat="47.91764" lon="6.79276">
        <ele>562.73</ele>
        <time>2021-06-23T13:12:21Z</time>
      </trkpt>
      <trkpt lat="47.91772" lon="6.79298">
        <ele>562.79</ele>
        <time>2021-06-23T13:12:27Z</time>
      </trkpt>
      <trkpt lat="47.91779" lon="6.79326">
        <ele>563.09</ele>
        <time>2021-06-23T13:12:32Z</time>
      </trkpt>
      <trkpt lat="47.9183" lon="6.79612">
        <ele>572.9</ele>
        <time>2021-06-23T13:12:37Z</time>
      </trkpt>
      <trkpt lat="47.91904" lon="6.79843">
        <ele>574.77</ele>
        <time>2021-06-23T13:12:42Z</time>
      </trkpt>
      <trkpt lat="47.9195" lon="6.79977">
        <ele>571.82</ele>
        <time>2021-06-23T13:12:48Z</time>
      </trkpt>
      <trkpt lat="47.91987" lon="6.8007">
        <ele>574.35</ele>
        <time>2021-06-23T13:12:53Z</time>
      </trkpt>
      <trkpt lat="47.92059" lon="6.80239">
        <ele>579.26</ele>
        <time>2021-06-23T13:12:58Z</time>
      </trkpt>
      <trkpt lat="47.9207" lon="6.80257">
        <ele>579.61</ele>
        <time>2021-06-23T13:13:03Z</time>
      </trkpt>
      <trkpt lat="47.92088" lon="6.80278">
        <ele>581.51</ele>
        <time>2021-06-23T13:13:09Z</time>
      </trkpt>
      <trkpt lat="47.92151" lon="6.80341">
        <ele>584.56</ele>
        <time>2021-06-23T13:13:14Z</time>
      </trkpt>
      <trkpt lat="47.92178" lon="6.80365">
        <ele>587.02</ele>
        <time>2021-06-23T13:13:19Z</time>
      </trkpt>
      <trkpt lat="47.92197" lon="6.80386">
        <ele>588.73</ele>
        <time>2021-06-23T13:13:24Z</time>
      </trkpt>
      <trkpt lat="47.92208" lon="6.80403">
        <ele>589.84</ele>
        <time>2021-06-23T13:13:30Z</time>
      </trkpt>
      <trkpt lat="47.9222" lon="6.80426">
        <ele>592.36</ele>
        <time>2021-06-23T13:13:35Z</time>
      </trkpt>
      <trkpt lat="47.92235" lon="6.80462">
        <ele>594.05</ele>
        <time>2021-06-23T13:13:40Z</time>
      </trkpt>
      <trkpt lat="47.92247" lon="6.80501">
        <ele>595.29</ele>
        <time>2021-06-23T13:13:45Z</time>
      </trkpt>
      <trkpt lat="47.92253" lon="6.80534">
        <ele>595.32</ele>
        <time>2021-06-23T13:13:51Z</time>
      </trkpt>
      <trkpt lat="47.92272" lon="6.80697">
        <ele>600.46</ele>
        <time>2021-06-23T13:13:56Z</time>
      </trkpt>
      <trkpt lat="47.92273" lon="6.80738">
        <ele>600.23</ele>
        <time>2021-06-23T13:14:01Z</time>
      </trkpt>
      <trkpt lat="47.92275" lon="6.80757">
        <ele>600.04</ele>
        <time>2021-06-23T13:14:06Z</time>
      </trkpt>
      <trkpt lat="47.92286" lon="6.80828">
        <ele>599.92</ele>
        <time>2021-06-23T13:14:12Z</time>
      </trkpt>
      <trkpt lat="47.92295" lon="6.80859">
        <ele>599.27</ele>
        <time>2021-06-23T13:14:17Z</time>
      </trkpt>
      <trkpt lat="47.92325" lon="6.80918">
        <ele>602.84</ele>
        <time>2021-06-23T13:14:22Z</time>
      </trkpt>
      <trkpt lat="47.92443" lon="6.81092">
        <ele>612.2</ele>
        <time>2021-06-23T13:14:27Z</time>
      </trkpt>
      <trkpt lat="47.92491" lon="6.8121">
        <ele>616.86</ele>
        <time>2021-06-23T13:14:33Z</time>
      </trkpt>
      <trkpt lat="47.92497" lon="6.81231">
        <ele>617.16</ele>
        <time>2021-06-23T13:14:38Z</time>
      </trkpt>
      <trkpt lat="47.92509" lon="6.81306">
        <ele>617.57</ele>
        <time>2021-06-23T13:14:43Z</time>
      </trkpt>
      <trkpt lat="47.92515" lon="6.81339">
        <ele>617.2</ele>
        <time>2021-06-23T13:14:48Z</time>
      </trkpt>
      <trkpt lat="47.92527" lon="6.81383">
        <ele>617.14</ele>
        <time>2021-06-23T13:14:54Z</time>
      </trkpt>
      <trkpt lat="47.92578" lon="6.81545">
        <ele>618.85</ele>
        <time>2021-06-23T13:14:59Z</time>
      </trkpt>
      <trkpt lat="47.92618" lon="6.81709">
        <ele>618.86</ele>
        <time>2021-06-23T13:15:04Z</time>
      </trkpt>
      <trkpt lat="47.92641" lon="6.81781">
        <ele>617.32</ele>
        <time>2021-06-23T13:15:09Z</time>
      </trkpt>
      <trkpt lat="47.92652" lon="6.81804">
        <ele>617.58</ele>
        <time>2021-06-23T13:15:15Z</time>
      </trkpt>
      <trkpt lat="47.9269" lon="6.8186">
        <ele>620.35</ele>
        <time>2021-06-23T13:15:20Z</time>
      </trkpt>
      <trkpt lat="47.92748" lon="6.81932">
        <ele>626.6</ele>
        <time>2021-06-23T13:15:25Z</time>
      </trkpt>
      <trkpt lat="47.92854" lon="6.82045">
        <ele>620.75</ele>
        <time>2021-06-23T13:15:30Z</time>
      </trkpt>
      <trkpt lat="47.92854" lon="6.82045">
        <ele>620.75</ele>
        <time>2021-06-23T13:15:30Z</time>
      </trkpt>
      <trkpt lat="47.92908" lon="6.82102">
        <ele>615.22</ele>
        <time>2021-06-23T13:15:38Z</time>
      </trkpt>
      <trkpt lat="47.93125" lon="6.8228">
        <ele>608.16</ele>
        <time>2021-06-23T13:15:46Z</time>
      </trkpt>
      <trkpt lat="47.93182" lon="6.8232">
        <ele>612.23</ele>
        <time>2021-06-23T13:15:54Z</time>
      </trkpt>
      <trkpt lat="47.93265" lon="6.82385">
        <ele>605.48</ele>
        <time>2021-06-23T13:16:02Z</time>
      </trkpt>
      <trkpt lat="47.93396" lon="6.82463">
        <ele>606.55</ele>
        <time>2021-06-23T13:16:10Z</time>
      </trkpt>
      <trkpt lat="47.93444" lon="6.82486">
        <ele>599.92</ele>
        <time>2021-06-23T13:16:18Z</time>
      </trkpt>
      <trkpt lat="47.93679" lon="6.82578">
        <ele>593.64</ele>
        <time>2021-06-23T13:16:26Z</time>
      </trkpt>
      <trkpt lat="47.93833" lon="6.82664">
        <ele>588.91</ele>
        <time>2021-06-23T13:16:34Z</time>
      </trkpt>
      <trkpt lat="47.93849" lon="6.82675">
        <ele>586.28</ele>
        <time>2021-06-23T13:16:42Z</time>
      </trkpt>
      <trkpt lat="47.93954" lon="6.82786">
        <ele>581.19</ele>
        <time>2021-06-23T13:16:50Z</time>
      </trkpt>
      <trkpt lat="47.94063" lon="6.82914">
        <ele>579.71</ele>
        <time>2021-06-23T13:16:58Z</time>
      </trkpt>
      <trkpt lat="47.94075" lon="6.82933">
        <ele>579.09</ele>
        <time>2021-06-23T13:17:07Z</time>
      </trkpt>
      <trkpt lat="47.94128" lon="6.83026">
        <ele>575.21</ele>
        <time>2021-06-23T13:17:15Z</time>
      </trkpt>
      <trkpt lat="47.94137" lon="6.83038">
        <ele>574.24</ele>
        <time>2021-06-23T13:17:23Z</time>
      </trkpt>
      <trkpt lat="47.94272" lon="6.83156">
        <ele>574.79</ele>
        <time>2021-06-23T13:17:31Z</time>
      </trkpt>
      <trkpt lat="47.94344" lon="6.83231">
        <ele>570.2</ele>
        <time>2021-06-23T13:17:39Z</time>
      </trkpt>
      <trkpt lat="47.94359" lon="6.83241">
        <ele>569.27</ele>
        <time>2021-06-23T13:17:47Z</time>
      </trkpt>
      <trkpt lat="47.94363" lon="6.83242">
        <ele>568.34</ele>
        <time>2021-06-23T13:17:55Z</time>
      </trkpt>
      <trkpt lat="47.94363" lon="6.83242">
        <ele>568.34</ele>
        <time>2021-06-23T13:17:55Z</time>
      </trkpt>
      <trkpt lat="47.94386" lon="6.83247">
        <ele>567.41</ele>
        <time>2021-06-23T13:17:58Z</time>
      </trkpt>
      <trkpt lat="47.94401" lon="6.83247">
        <ele>566.8</ele>
        <time>2021-06-23T13:18:01Z</time>
      </trkpt>
      <trkpt lat="47.94426" lon="6.83241">
        <ele>565.37</ele>
        <time>2021-06-23T13:18:05Z</time>
      </trkpt>
      <trkpt lat="47.94442" lon="6.83231">
        <ele>563.99</ele>
        <time>2021-06-23T13:18:08Z</time>
      </trkpt>
      <trkpt lat="47.94458" lon="6.83216">
        <ele>562.79</ele>
        <time>2021-06-23T13:18:12Z</time>
      </trkpt>
      <trkpt lat="47.94492" lon="6.83167">
        <ele>561.58</ele>
        <time>2021-06-23T13:18:15Z</time>
      </trkpt>
      <trkpt lat="47.94518" lon="6.8314">
        <ele>562.57</ele>
        <time>2021-06-23T13:18:19Z</time>
      </trkpt>
      <trkpt lat="47.94582" lon="6.83107">
        <ele>554.73</ele>
        <time>2021-06-23T13:18:22Z</time>
      </trkpt>
      <trkpt lat="47.94779" lon="6.83002">
        <ele>551</ele>
        <time>2021-06-23T13:18:26Z</time>
      </trkpt>
      <trkpt lat="47.948" lon="6.82975">
        <ele>551.42</ele>
        <time>2021-06-23T13:18:29Z</time>
      </trkpt>
      <trkpt lat="47.94807" lon="6.82957">
        <ele>551.54</ele>
        <time>2021-06-23T13:18:33Z</time>
      </trkpt>
      <trkpt lat="47.94825" lon="6.829">
        <ele>551.14</ele>
        <time>2021-06-23T13:18:36Z</time>
      </trkpt>
      <trkpt lat="47.94845" lon="6.82844">
        <ele>550.61</ele>
        <time>2021-06-23T13:18:40Z</time>
      </trkpt>
      <trkpt lat="47.94859" lon="6.82823">
        <ele>550.11</ele>
        <time>2021-06-23T13:18:43Z</time>
      </trkpt>
      <trkpt lat="47.94882" lon="6.82802">
        <ele>549.72</ele>
        <time>2021-06-23T13:18:46Z</time>
      </trkpt>
      <trkpt lat="47.94909" lon="6.82787">
        <ele>547.28</ele>
        <time>2021-06-23T13:18:50Z</time>
      </trkpt>
      <trkpt lat="47.94919" lon="6.82783">
        <ele>546</ele>
        <time>2021-06-23T13:18:53Z</time>
      </trkpt>
      <trkpt lat="47.94937" lon="6.8278">
        <ele>544.62</ele>
        <time>2021-06-23T13:18:57Z</time>
      </trkpt>
      <trkpt lat="47.94989" lon="6.82785">
        <ele>543.26</ele>
        <time>2021-06-23T13:19:00Z</time>
      </trkpt>
      <trkpt lat="47.95025" lon="6.82795">
        <ele>544.18</ele>
        <time>2021-06-23T13:19:04Z</time>
      </trkpt>
      <trkpt lat="47.95049" lon="6.82799">
        <ele>545.29</ele>
        <time>2021-06-23T13:19:07Z</time>
      </trkpt>
      <trkpt lat="47.95062" lon="6.82798">
        <ele>545.49</ele>
        <time>2021-06-23T13:19:11Z</time>
      </trkpt>
      <trkpt lat="47.95081" lon="6.82792">
        <ele>545.04</ele>
        <time>2021-06-23T13:19:14Z</time>
      </trkpt>
      <trkpt lat="47.95101" lon="6.82779">
        <ele>544.72</ele>
        <time>2021-06-23T13:19:18Z</time>
      </trkpt>
      <trkpt lat="47.9512" lon="6.8276">
        <ele>543.35</ele>
        <time>2021-06-23T13:19:21Z</time>
      </trkpt>
      <trkpt lat="47.95149" lon="6.82713">
        <ele>540.33</ele>
        <time>2021-06-23T13:19:25Z</time>
      </trkpt>
      <trkpt lat="47.95166" lon="6.82684">
        <ele>538.66</ele>
        <time>2021-06-23T13:19:28Z</time>
      </trkpt>
      <trkpt lat="47.95206" lon="6.82608">
        <ele>534.97</ele>
        <time>2021-06-23T13:19:32Z</time>
      </trkpt>
      <trkpt lat="47.9522" lon="6.82588">
        <ele>533.54</ele>
        <time>2021-06-23T13:19:35Z</time>
      </trkpt>
      <trkpt lat="47.9524" lon="6.82561">
        <ele>529.71</ele>
        <time>2021-06-23T13:19:38Z</time>
      </trkpt>
      <trkpt lat="47.95267" lon="6.82532">
        <ele>524.81</ele>
        <time>2021-06-23T13:19:42Z</time>
      </trkpt>
      <trkpt lat="47.9528" lon="6.82519">
        <ele>523.73</ele>
        <time>2021-06-23T13:19:45Z</time>
      </trkpt>
      <trkpt lat="47.95298" lon="6.82508">
        <ele>523.46</ele>
        <time>2021-06-23T13:19:49Z</time>
      </trkpt>
      <trkpt lat="47.95315" lon="6.825">
        <ele>523.02</ele>
        <time>2021-06-23T13:19:52Z</time>
      </trkpt>
      <trkpt lat="47.95361" lon="6.82491">
        <ele>520.68</ele>
        <time>2021-06-23T13:19:56Z</time>
      </trkpt>
      <trkpt lat="47.95375" lon="6.82486">
        <ele>518.96</ele>
        <time>2021-06-23T13:19:59Z</time>
      </trkpt>
      <trkpt lat="47.95386" lon="6.82477">
        <ele>517.47</ele>
        <time>2021-06-23T13:20:03Z</time>
      </trkpt>
      <trkpt lat="47.95423" lon="6.8242">
        <ele>516.23</ele>
        <time>2021-06-23T13:20:06Z</time>
      </trkpt>
      <trkpt lat="47.9544" lon="6.82401">
        <ele>515.72</ele>
        <time>2021-06-23T13:20:10Z</time>
      </trkpt>
      <trkpt lat="47.95453" lon="6.8242">
        <ele>513.37</ele>
        <time>2021-06-23T13:20:14Z</time>
      </trkpt>
      <trkpt lat="47.95477" lon="6.8245">
        <ele>512.17</ele>
        <time>2021-06-23T13:20:18Z</time>
      </trkpt>
      <trkpt lat="47.95482" lon="6.82458">
        <ele>512.49</ele>
        <time>2021-06-23T13:20:22Z</time>
      </trkpt>
      <trkpt lat="47.95486" lon="6.82473">
        <ele>513</ele>
        <time>2021-06-23T13:20:26Z</time>
      </trkpt>
      <trkpt lat="47.95495" lon="6.82513">
        <ele>514.09</ele>
        <time>2021-06-23T13:20:30Z</time>
      </trkpt>
      <trkpt lat="47.95499" lon="6.82526">
        <ele>514.02</ele>
        <time>2021-06-23T13:20:34Z</time>
      </trkpt>
      <trkpt lat="47.95508" lon="6.82543">
        <ele>513.3</ele>
        <time>2021-06-23T13:20:38Z</time>
      </trkpt>
      <trkpt lat="47.95516" lon="6.82552">
        <ele>512.3</ele>
        <time>2021-06-23T13:20:42Z</time>
      </trkpt>
      <trkpt lat="47.95543" lon="6.82566">
        <ele>509.83</ele>
        <time>2021-06-23T13:20:46Z</time>
      </trkpt>
      <trkpt lat="47.9557" lon="6.82585">
        <ele>505.95</ele>
        <time>2021-06-23T13:20:50Z</time>
      </trkpt>
      <trkpt lat="47.95593" lon="6.82613">
        <ele>503.82</ele>
        <time>2021-06-23T13:20:54Z</time>
      </trkpt>
      <trkpt lat="47.95701" lon="6.82803">
        <ele>507.77</ele>
        <time>2021-06-23T13:20:58Z</time>
      </trkpt>
      <trkpt lat="47.95707" lon="6.82817">
        <ele>507.94</ele>
        <time>2021-06-23T13:21:02Z</time>
      </trkpt>
      <trkpt lat="47.95774" lon="6.82761">
        <ele>505.05</ele>
        <time>2021-06-23T13:21:12Z</time>
      </trkpt>
      <trkpt lat="47.95887" lon="6.82641">
        <ele>497.17</ele>
        <time>2021-06-23T13:21:22Z</time>
      </trkpt>
      <trkpt lat="47.95907" lon="6.82623">
        <ele>497.85</ele>
        <time>2021-06-23T13:21:33Z</time>
      </trkpt>
      <trkpt lat="47.95927" lon="6.82615">
        <ele>498</ele>
        <time>2021-06-23T13:21:43Z</time>
      </trkpt>
      <trkpt lat="47.95954" lon="6.82617">
        <ele>498</ele>
        <time>2021-06-23T13:21:53Z</time>
      </trkpt>
      <trkpt lat="47.96003" lon="6.82627">
        <ele>498.95</ele>
        <time>2021-06-23T13:22:04Z</time>
      </trkpt>
      <trkpt lat="47.96003" lon="6.82618">
        <ele>499.29</ele>
        <time>2021-06-23T13:22:04Z</time>
      </trkpt>
      <trkpt lat="47.96003" lon="6.82618">
        <ele>499.29</ele>
        <time>2021-06-23T13:22:04Z</time>
      </trkpt>
      <trkpt lat="47.96002" lon="6.82603">
        <ele>499.7</ele>
        <time>2021-06-23T13:22:08Z</time>
      </trkpt>
      <trkpt lat="47.95974" lon="6.82519">
        <ele>502.67</ele>
        <time>2021-06-23T13:22:13Z</time>
      </trkpt>
      <trkpt lat="47.95962" lon="6.82465">
        <ele>499.02</ele>
        <time>2021-06-23T13:22:17Z</time>
      </trkpt>
      <trkpt lat="47.95945" lon="6.82368">
        <ele>502.71</ele>
        <time>2021-06-23T13:22:21Z</time>
      </trkpt>
      <trkpt lat="47.95921" lon="6.82293">
        <ele>501.98</ele>
        <time>2021-06-23T13:22:25Z</time>
      </trkpt>
      <trkpt lat="47.95902" lon="6.8224">
        <ele>504.37</ele>
        <time>2021-06-23T13:22:29Z</time>
      </trkpt>
      <trkpt lat="47.95842" lon="6.82094">
        <ele>505.33</ele>
        <time>2021-06-23T13:22:33Z</time>
      </trkpt>
      <trkpt lat="47.95834" lon="6.8207">
        <ele>506.48</ele>
        <time>2021-06-23T13:22:38Z</time>
      </trkpt>
      <trkpt lat="47.95816" lon="6.81996">
        <ele>507.11</ele>
        <time>2021-06-23T13:22:42Z</time>
      </trkpt>
      <trkpt lat="47.95786" lon="6.81922">
        <ele>502.24</ele>
        <time>2021-06-23T13:22:46Z</time>
      </trkpt>
      <trkpt lat="47.95737" lon="6.81779">
        <ele>500.44</ele>
        <time>2021-06-23T13:22:50Z</time>
      </trkpt>
      <trkpt lat="47.95723" lon="6.81751">
        <ele>503.06</ele>
        <time>2021-06-23T13:22:54Z</time>
      </trkpt>
      <trkpt lat="47.95716" lon="6.81738">
        <ele>502.73</ele>
        <time>2021-06-23T13:22:58Z</time>
      </trkpt>
      <trkpt lat="47.95707" lon="6.81728">
        <ele>500.99</ele>
        <time>2021-06-23T13:23:02Z</time>
      </trkpt>
      <trkpt lat="47.95649" lon="6.81695">
        <ele>492.75</ele>
        <time>2021-06-23T13:23:07Z</time>
      </trkpt>
      <trkpt lat="47.95636" lon="6.81682">
        <ele>491.94</ele>
        <time>2021-06-23T13:23:11Z</time>
      </trkpt>
      <trkpt lat="47.95628" lon="6.81669">
        <ele>491.96</ele>
        <time>2021-06-23T13:23:15Z</time>
      </trkpt>
      <trkpt lat="47.95625" lon="6.81654">
        <ele>492.66</ele>
        <time>2021-06-23T13:23:19Z</time>
      </trkpt>
      <trkpt lat="47.95624" lon="6.81613">
        <ele>495.79</ele>
        <time>2021-06-23T13:23:23Z</time>
      </trkpt>
      <trkpt lat="47.95628" lon="6.81576">
        <ele>498.77</ele>
        <time>2021-06-23T13:23:27Z</time>
      </trkpt>
      <trkpt lat="47.95634" lon="6.81548">
        <ele>502.16</ele>
        <time>2021-06-23T13:23:32Z</time>
      </trkpt>
      <trkpt lat="47.95635" lon="6.81531">
        <ele>505.16</ele>
        <time>2021-06-23T13:23:36Z</time>
      </trkpt>
      <trkpt lat="47.95576" lon="6.81361">
        <ele>501.45</ele>
        <time>2021-06-23T13:23:40Z</time>
      </trkpt>
      <trkpt lat="47.95548" lon="6.8129">
        <ele>503.43</ele>
        <time>2021-06-23T13:23:44Z</time>
      </trkpt>
      <trkpt lat="47.95518" lon="6.81224">
        <ele>505.89</ele>
        <time>2021-06-23T13:23:48Z</time>
      </trkpt>
      <trkpt lat="47.95491" lon="6.81172">
        <ele>506.89</ele>
        <time>2021-06-23T13:23:52Z</time>
      </trkpt>
      <trkpt lat="47.95462" lon="6.81124">
        <ele>501.91</ele>
        <time>2021-06-23T13:23:56Z</time>
      </trkpt>
      <trkpt lat="47.95447" lon="6.81104">
        <ele>499.9</ele>
        <time>2021-06-23T13:24:01Z</time>
      </trkpt>
      <trkpt lat="47.95432" lon="6.81091">
        <ele>498.14</ele>
        <time>2021-06-23T13:24:05Z</time>
      </trkpt>
      <trkpt lat="47.95421" lon="6.81084">
        <ele>496.07</ele>
        <time>2021-06-23T13:24:09Z</time>
      </trkpt>
      <trkpt lat="47.95404" lon="6.8108">
        <ele>493.68</ele>
        <time>2021-06-23T13:24:13Z</time>
      </trkpt>
      <trkpt lat="47.95369" lon="6.81081">
        <ele>491.38</ele>
        <time>2021-06-23T13:24:17Z</time>
      </trkpt>
      <trkpt lat="47.95359" lon="6.81077">
        <ele>491.3</ele>
        <time>2021-06-23T13:24:21Z</time>
      </trkpt>
      <trkpt lat="47.95325" lon="6.81048">
        <ele>491.32</ele>
        <time>2021-06-23T13:24:26Z</time>
      </trkpt>
      <trkpt lat="47.95288" lon="6.81008">
        <ele>490.89</ele>
        <time>2021-06-23T13:24:30Z</time>
      </trkpt>
      <trkpt lat="47.95281" lon="6.80993">
        <ele>491.55</ele>
        <time>2021-06-23T13:24:34Z</time>
      </trkpt>
      <trkpt lat="47.95274" lon="6.80972">
        <ele>492.95</ele>
        <time>2021-06-23T13:24:38Z</time>
      </trkpt>
      <trkpt lat="47.95247" lon="6.80844">
        <ele>491.68</ele>
        <time>2021-06-23T13:24:42Z</time>
      </trkpt>
      <trkpt lat="47.95238" lon="6.80808">
        <ele>492.14</ele>
        <time>2021-06-23T13:24:46Z</time>
      </trkpt>
      <trkpt lat="47.95228" lon="6.80777">
        <ele>493.92</ele>
        <time>2021-06-23T13:24:51Z</time>
      </trkpt>
      <trkpt lat="47.95215" lon="6.80749">
        <ele>494.82</ele>
        <time>2021-06-23T13:24:55Z</time>
      </trkpt>
      <trkpt lat="47.952" lon="6.80719">
        <ele>492.66</ele>
        <time>2021-06-23T13:24:59Z</time>
      </trkpt>
      <trkpt lat="47.95184" lon="6.80697">
        <ele>490.65</ele>
        <time>2021-06-23T13:25:03Z</time>
      </trkpt>
      <trkpt lat="47.95147" lon="6.80651">
        <ele>489.58</ele>
        <time>2021-06-23T13:25:07Z</time>
      </trkpt>
      <trkpt lat="47.95126" lon="6.80637">
        <ele>487.37</ele>
        <time>2021-06-23T13:25:11Z</time>
      </trkpt>
      <trkpt lat="47.95109" lon="6.80632">
        <ele>485.72</ele>
        <time>2021-06-23T13:25:15Z</time>
      </trkpt>
      <trkpt lat="47.95106" lon="6.80608">
        <ele>487.98</ele>
        <time>2021-06-23T13:25:20Z</time>
      </trkpt>
      <trkpt lat="47.95102" lon="6.80594">
        <ele>488.91</ele>
        <time>2021-06-23T13:25:24Z</time>
      </trkpt>
      <trkpt lat="47.95081" lon="6.80549">
        <ele>487.56</ele>
        <time>2021-06-23T13:25:28Z</time>
      </trkpt>
      <trkpt lat="47.95061" lon="6.80464">
        <ele>488.9</ele>
        <time>2021-06-23T13:25:32Z</time>
      </trkpt>
      <trkpt lat="47.95032" lon="6.80348">
        <ele>489.2</ele>
        <time>2021-06-23T13:25:37Z</time>
      </trkpt>
      <trkpt lat="47.95014" lon="6.8029">
        <ele>491.96</ele>
        <time>2021-06-23T13:25:41Z</time>
      </trkpt>
      <trkpt lat="47.95004" lon="6.80261">
        <ele>492.99</ele>
        <time>2021-06-23T13:25:45Z</time>
      </trkpt>
      <trkpt lat="47.94978" lon="6.80208">
        <ele>485.25</ele>
        <time>2021-06-23T13:25:49Z</time>
      </trkpt>
      <trkpt lat="47.9496" lon="6.80179">
        <ele>482.38</ele>
        <time>2021-06-23T13:25:54Z</time>
      </trkpt>
      <trkpt lat="47.94899" lon="6.80097">
        <ele>479.43</ele>
        <time>2021-06-23T13:25:58Z</time>
      </trkpt>
      <trkpt lat="47.94826" lon="6.80016">
        <ele>479.57</ele>
        <time>2021-06-23T13:26:02Z</time>
      </trkpt>
      <trkpt lat="47.94814" lon="6.79997">
        <ele>480.07</ele>
        <time>2021-06-23T13:26:06Z</time>
      </trkpt>
      <trkpt lat="47.94806" lon="6.79968">
        <ele>480.02</ele>
        <time>2021-06-23T13:26:10Z</time>
      </trkpt>
      <trkpt lat="47.94773" lon="6.79831">
        <ele>480.55</ele>
        <time>2021-06-23T13:26:15Z</time>
      </trkpt>
      <trkpt lat="47.94749" lon="6.79718">
        <ele>478.72</ele>
        <time>2021-06-23T13:26:19Z</time>
      </trkpt>
      <trkpt lat="47.94746" lon="6.79679">
        <ele>478.16</ele>
        <time>2021-06-23T13:26:23Z</time>
      </trkpt>
      <trkpt lat="47.9475" lon="6.7968">
        <ele>478.92</ele>
        <time>2021-06-23T13:26:25Z</time>
      </trkpt>
      <trkpt lat="47.94755" lon="6.79687">
        <ele>480.51</ele>
        <time>2021-06-23T13:26:27Z</time>
      </trkpt>
      <trkpt lat="47.94762" lon="6.79712">
        <ele>483.33</ele>
        <time>2021-06-23T13:26:28Z</time>
      </trkpt>
      <trkpt lat="47.94762" lon="6.79712">
        <ele>483.33</ele>
        <time>2021-06-23T13:26:28Z</time>
      </trkpt>
      <trkpt lat="47.94755" lon="6.79687">
        <ele>480.51</ele>
        <time>2021-06-23T13:26:30Z</time>
      </trkpt>
      <trkpt lat="47.9475" lon="6.7968">
        <ele>478.92</ele>
        <time>2021-06-23T13:26:32Z</time>
      </trkpt>
      <trkpt lat="47.94746" lon="6.79679">
        <ele>478.16</ele>
        <time>2021-06-23T13:26:34Z</time>
      </trkpt>
      <trkpt lat="47.9475" lon="6.79579">
        <ele>479.81</ele>
        <time>2021-06-23T13:26:40Z</time>
      </trkpt>
      <trkpt lat="47.94756" lon="6.79501">
        <ele>475.43</ele>
        <time>2021-06-23T13:26:47Z</time>
      </trkpt>
      <trkpt lat="47.94765" lon="6.79397">
        <ele>473.34</ele>
        <time>2021-06-23T13:26:53Z</time>
      </trkpt>
      <trkpt lat="47.94779" lon="6.79276">
        <ele>477.95</ele>
        <time>2021-06-23T13:27:00Z</time>
      </trkpt>
      <trkpt lat="47.948" lon="6.79112">
        <ele>471.78</ele>
        <time>2021-06-23T13:27:06Z</time>
      </trkpt>
      <trkpt lat="47.94819" lon="6.79045">
        <ele>472.47</ele>
        <time>2021-06-23T13:27:13Z</time>
      </trkpt>
      <trkpt lat="47.94845" lon="6.78896">
        <ele>471.4</ele>
        <time>2021-06-23T13:27:19Z</time>
      </trkpt>
      <trkpt lat="47.94853" lon="6.78806">
        <ele>470</ele>
        <time>2021-06-23T13:27:26Z</time>
      </trkpt>
      <trkpt lat="47.94866" lon="6.78757">
        <ele>470.04</ele>
        <time>2021-06-23T13:27:32Z</time>
      </trkpt>
      <trkpt lat="47.94919" lon="6.78573">
        <ele>468.63</ele>
        <time>2021-06-23T13:27:39Z</time>
      </trkpt>
      <trkpt lat="47.94933" lon="6.78528">
        <ele>468</ele>
        <time>2021-06-23T13:27:45Z</time>
      </trkpt>
      <trkpt lat="47.94958" lon="6.78465">
        <ele>467</ele>
        <time>2021-06-23T13:27:52Z</time>
      </trkpt>
      <trkpt lat="47.94979" lon="6.78436">
        <ele>467.39</ele>
        <time>2021-06-23T13:27:58Z</time>
      </trkpt>
      <trkpt lat="47.95014" lon="6.78407">
        <ele>469.49</ele>
        <time>2021-06-23T13:28:05Z</time>
      </trkpt>
      <trkpt lat="47.95026" lon="6.78386">
        <ele>470.69</ele>
        <time>2021-06-23T13:28:11Z</time>
      </trkpt>
      <trkpt lat="47.95033" lon="6.78298">
        <ele>468.86</ele>
        <time>2021-06-23T13:28:18Z</time>
      </trkpt>
      <trkpt lat="47.95039" lon="6.78273">
        <ele>468.9</ele>
        <time>2021-06-23T13:28:24Z</time>
      </trkpt>
      <trkpt lat="47.95074" lon="6.78213">
        <ele>469.67</ele>
        <time>2021-06-23T13:28:31Z</time>
      </trkpt>
      <trkpt lat="47.95087" lon="6.78189">
        <ele>469.81</ele>
        <time>2021-06-23T13:28:37Z</time>
      </trkpt>
      <trkpt lat="47.95096" lon="6.78165">
        <ele>469.39</ele>
        <time>2021-06-23T13:28:44Z</time>
      </trkpt>
      <trkpt lat="47.95098" lon="6.78151">
        <ele>468.96</ele>
        <time>2021-06-23T13:28:50Z</time>
      </trkpt>
      <trkpt lat="47.95096" lon="6.78135">
        <ele>468.33</ele>
        <time>2021-06-23T13:28:57Z</time>
      </trkpt>
      <trkpt lat="47.95093" lon="6.78121">
        <ele>467.68</ele>
        <time>2021-06-23T13:29:03Z</time>
      </trkpt>
      <trkpt lat="47.95099" lon="6.78117">
        <ele>467.78</ele>
        <time>2021-06-23T13:29:10Z</time>
      </trkpt>
      <trkpt lat="47.95106" lon="6.78108">
        <ele>467.81</ele>
        <time>2021-06-23T13:29:17Z</time>
      </trkpt>
      <trkpt lat="47.95176" lon="6.77954">
        <ele>470.99</ele>
        <time>2021-06-23T13:29:24Z</time>
      </trkpt>
      <trkpt lat="47.95185" lon="6.77944">
        <ele>471.66</ele>
        <time>2021-06-23T13:29:31Z</time>
      </trkpt>
      <trkpt lat="47.95211" lon="6.77931">
        <ele>472.85</ele>
        <time>2021-06-23T13:29:38Z</time>
      </trkpt>
      <trkpt lat="47.95258" lon="6.77918">
        <ele>473.63</ele>
        <time>2021-06-23T13:29:45Z</time>
      </trkpt>
      <trkpt lat="47.95258" lon="6.77918">
        <ele>473.63</ele>
        <time>2021-06-23T13:29:45Z</time>
      </trkpt>
      <trkpt lat="47.95211" lon="6.77931">
        <ele>472.85</ele>
        <time>2021-06-23T13:29:52Z</time>
      </trkpt>
      <trkpt lat="47.95185" lon="6.77944">
        <ele>471.66</ele>
        <time>2021-06-23T13:29:59Z</time>
      </trkpt>
      <trkpt lat="47.95176" lon="6.77954">
        <ele>470.99</ele>
        <time>2021-06-23T13:30:06Z</time>
      </trkpt>
      <trkpt lat="47.95106" lon="6.78108">
        <ele>467.81</ele>
        <time>2021-06-23T13:30:13Z</time>
      </trkpt>
      <trkpt lat="47.95099" lon="6.78117">
        <ele>467.78</ele>
        <time>2021-06-23T13:30:20Z</time>
      </trkpt>
      <trkpt lat="47.95093" lon="6.78121">
        <ele>467.68</ele>
        <time>2021-06-23T13:30:27Z</time>
      </trkpt>
      <trkpt lat="47.95096" lon="6.78135">
        <ele>468.33</ele>
        <time>2021-06-23T13:30:33Z</time>
      </trkpt>
      <trkpt lat="47.95098" lon="6.78151">
        <ele>468.96</ele>
        <time>2021-06-23T13:30:40Z</time>
      </trkpt>
      <trkpt lat="47.95096" lon="6.78165">
        <ele>469.39</ele>
        <time>2021-06-23T13:30:46Z</time>
      </trkpt>
      <trkpt lat="47.95087" lon="6.78189">
        <ele>469.81</ele>
        <time>2021-06-23T13:30:52Z</time>
      </trkpt>
      <trkpt lat="47.95074" lon="6.78213">
        <ele>469.67</ele>
        <time>2021-06-23T13:30:58Z</time>
      </trkpt>
      <trkpt lat="47.95039" lon="6.78273">
        <ele>468.9</ele>
        <time>2021-06-23T13:31:05Z</time>
      </trkpt>
      <trkpt lat="47.95033" lon="6.78298">
        <ele>468.86</ele>
        <time>2021-06-23T13:31:11Z</time>
      </trkpt>
      <trkpt lat="47.95026" lon="6.78386">
        <ele>470.69</ele>
        <time>2021-06-23T13:31:17Z</time>
      </trkpt>
      <trkpt lat="47.95014" lon="6.78407">
        <ele>469.49</ele>
        <time>2021-06-23T13:31:24Z</time>
      </trkpt>
      <trkpt lat="47.94979" lon="6.78436">
        <ele>467.39</ele>
        <time>2021-06-23T13:31:30Z</time>
      </trkpt>
      <trkpt lat="47.94958" lon="6.78465">
        <ele>467</ele>
        <time>2021-06-23T13:31:36Z</time>
      </trkpt>
      <trkpt lat="47.94933" lon="6.78528">
        <ele>468</ele>
        <time>2021-06-23T13:31:42Z</time>
      </trkpt>
      <trkpt lat="47.94919" lon="6.78573">
        <ele>468.63</ele>
        <time>2021-06-23T13:31:49Z</time>
      </trkpt>
      <trkpt lat="47.94866" lon="6.78757">
        <ele>470.04</ele>
        <time>2021-06-23T13:31:55Z</time>
      </trkpt>
      <trkpt lat="47.94853" lon="6.78806">
        <ele>470</ele>
        <time>2021-06-23T13:32:01Z</time>
      </trkpt>
      <trkpt lat="47.94845" lon="6.78896">
        <ele>471.4</ele>
        <time>2021-06-23T13:32:07Z</time>
      </trkpt>
      <trkpt lat="47.94819" lon="6.79045">
        <ele>472.47</ele>
        <time>2021-06-23T13:32:14Z</time>
      </trkpt>
      <trkpt lat="47.948" lon="6.79112">
        <ele>471.78</ele>
        <time>2021-06-23T13:32:20Z</time>
      </trkpt>
      <trkpt lat="47.94779" lon="6.79276">
        <ele>477.95</ele>
        <time>2021-06-23T13:32:26Z</time>
      </trkpt>
      <trkpt lat="47.94765" lon="6.79397">
        <ele>473.34</ele>
        <time>2021-06-23T13:32:33Z</time>
      </trkpt>
      <trkpt lat="47.94756" lon="6.79501">
        <ele>475.43</ele>
        <time>2021-06-23T13:32:39Z</time>
      </trkpt>
      <trkpt lat="47.9475" lon="6.79579">
        <ele>479.81</ele>
        <time>2021-06-23T13:32:45Z</time>
      </trkpt>
      <trkpt lat="47.94746" lon="6.79679">
        <ele>478.16</ele>
        <time>2021-06-23T13:32:51Z</time>
      </trkpt>
      <trkpt lat="47.94747" lon="6.79695">
        <ele>478.44</ele>
        <time>2021-06-23T13:32:58Z</time>
      </trkpt>
      <trkpt lat="47.94747" lon="6.79695">
        <ele>478.44</ele>
        <time>2021-06-23T13:32:58Z</time>
      </trkpt>
      <trkpt lat="47.94749" lon="6.79718">
        <ele>478.72</ele>
        <time>2021-06-23T13:33:02Z</time>
      </trkpt>
      <trkpt lat="47.94773" lon="6.79831">
        <ele>480.55</ele>
        <time>2021-06-23T13:33:06Z</time>
      </trkpt>
      <trkpt lat="47.94806" lon="6.79968">
        <ele>480.02</ele>
        <time>2021-06-23T13:33:11Z</time>
      </trkpt>
      <trkpt lat="47.94814" lon="6.79997">
        <ele>480.07</ele>
        <time>2021-06-23T13:33:15Z</time>
      </trkpt>
      <trkpt lat="47.94826" lon="6.80016">
        <ele>479.57</ele>
        <time>2021-06-23T13:33:19Z</time>
      </trkpt>
      <trkpt lat="47.94899" lon="6.80097">
        <ele>479.43</ele>
        <time>2021-06-23T13:33:24Z</time>
      </trkpt>
      <trkpt lat="47.9496" lon="6.80179">
        <ele>482.38</ele>
        <time>2021-06-23T13:33:28Z</time>
      </trkpt>
      <trkpt lat="47.94978" lon="6.80208">
        <ele>485.25</ele>
        <time>2021-06-23T13:33:33Z</time>
      </trkpt>
      <trkpt lat="47.95004" lon="6.80261">
        <ele>492.99</ele>
        <time>2021-06-23T13:33:37Z</time>
      </trkpt>
      <trkpt lat="47.95014" lon="6.8029">
        <ele>491.96</ele>
        <time>2021-06-23T13:33:41Z</time>
      </trkpt>
      <trkpt lat="47.95032" lon="6.80348">
        <ele>489.2</ele>
        <time>2021-06-23T13:33:46Z</time>
      </trkpt>
      <trkpt lat="47.95061" lon="6.80464">
        <ele>488.9</ele>
        <time>2021-06-23T13:33:50Z</time>
      </trkpt>
      <trkpt lat="47.95081" lon="6.80549">
        <ele>487.56</ele>
        <time>2021-06-23T13:33:54Z</time>
      </trkpt>
      <trkpt lat="47.95102" lon="6.80594">
        <ele>488.91</ele>
        <time>2021-06-23T13:33:59Z</time>
      </trkpt>
      <trkpt lat="47.95106" lon="6.80608">
        <ele>487.98</ele>
        <time>2021-06-23T13:34:03Z</time>
      </trkpt>
      <trkpt lat="47.95109" lon="6.80632">
        <ele>485.72</ele>
        <time>2021-06-23T13:34:08Z</time>
      </trkpt>
      <trkpt lat="47.95104" lon="6.80697">
        <ele>487.1</ele>
        <time>2021-06-23T13:34:12Z</time>
      </trkpt>
      <trkpt lat="47.95106" lon="6.80727">
        <ele>488.26</ele>
        <time>2021-06-23T13:34:16Z</time>
      </trkpt>
      <trkpt lat="47.95116" lon="6.8077">
        <ele>487.79</ele>
        <time>2021-06-23T13:34:21Z</time>
      </trkpt>
      <trkpt lat="47.95155" lon="6.80849">
        <ele>489.53</ele>
        <time>2021-06-23T13:34:25Z</time>
      </trkpt>
      <trkpt lat="47.95191" lon="6.8096">
        <ele>482.94</ele>
        <time>2021-06-23T13:34:29Z</time>
      </trkpt>
      <trkpt lat="47.95198" lon="6.8099">
        <ele>484.07</ele>
        <time>2021-06-23T13:34:34Z</time>
      </trkpt>
      <trkpt lat="47.952" lon="6.8103">
        <ele>485.51</ele>
        <time>2021-06-23T13:34:38Z</time>
      </trkpt>
      <trkpt lat="47.95199" lon="6.81113">
        <ele>484.06</ele>
        <time>2021-06-23T13:34:42Z</time>
      </trkpt>
      <trkpt lat="47.95202" lon="6.8116">
        <ele>485.74</ele>
        <time>2021-06-23T13:34:47Z</time>
      </trkpt>
      <trkpt lat="47.95224" lon="6.81277">
        <ele>487.92</ele>
        <time>2021-06-23T13:34:51Z</time>
      </trkpt>
      <trkpt lat="47.95227" lon="6.81304">
        <ele>488.75</ele>
        <time>2021-06-23T13:34:56Z</time>
      </trkpt>
      <trkpt lat="47.95227" lon="6.81326">
        <ele>488.95</ele>
        <time>2021-06-23T13:35:00Z</time>
      </trkpt>
      <trkpt lat="47.95216" lon="6.81444">
        <ele>492.97</ele>
        <time>2021-06-23T13:35:04Z</time>
      </trkpt>
      <trkpt lat="47.95214" lon="6.81492">
        <ele>496.15</ele>
        <time>2021-06-23T13:35:09Z</time>
      </trkpt>
      <trkpt lat="47.95221" lon="6.81654">
        <ele>501.55</ele>
        <time>2021-06-23T13:35:13Z</time>
      </trkpt>
      <trkpt lat="47.95231" lon="6.81708">
        <ele>503</ele>
        <time>2021-06-23T13:35:17Z</time>
      </trkpt>
      <trkpt lat="47.95224" lon="6.81737">
        <ele>503</ele>
        <time>2021-06-23T13:35:22Z</time>
      </trkpt>
      <trkpt lat="47.95218" lon="6.81737">
        <ele>503</ele>
        <time>2021-06-23T13:35:26Z</time>
      </trkpt>
      <trkpt lat="47.95211" lon="6.8174">
        <ele>503</ele>
        <time>2021-06-23T13:35:31Z</time>
      </trkpt>
      <trkpt lat="47.95206" lon="6.81747">
        <ele>503</ele>
        <time>2021-06-23T13:35:35Z</time>
      </trkpt>
      <trkpt lat="47.95202" lon="6.81756">
        <ele>503.09</ele>
        <time>2021-06-23T13:35:40Z</time>
      </trkpt>
      <trkpt lat="47.95202" lon="6.81765">
        <ele>503.26</ele>
        <time>2021-06-23T13:35:44Z</time>
      </trkpt>
      <trkpt lat="47.95203" lon="6.81774">
        <ele>503.33</ele>
        <time>2021-06-23T13:35:49Z</time>
      </trkpt>
      <trkpt lat="47.9521" lon="6.81787">
        <ele>503.05</ele>
        <time>2021-06-23T13:35:53Z</time>
      </trkpt>
      <trkpt lat="47.9522" lon="6.81791">
        <ele>502.57</ele>
        <time>2021-06-23T13:35:58Z</time>
      </trkpt>
      <trkpt lat="47.95231" lon="6.81797">
        <ele>502.79</ele>
        <time>2021-06-23T13:36:02Z</time>
      </trkpt>
      <trkpt lat="47.95258" lon="6.81824">
        <ele>504.88</ele>
        <time>2021-06-23T13:36:07Z</time>
      </trkpt>
      <trkpt lat="47.95343" lon="6.81965">
        <ele>511.85</ele>
        <time>2021-06-23T13:36:11Z</time>
      </trkpt>
      <trkpt lat="47.95361" lon="6.82002">
        <ele>513.13</ele>
        <time>2021-06-23T13:36:16Z</time>
      </trkpt>
      <trkpt lat="47.95372" lon="6.82037">
        <ele>513.97</ele>
        <time>2021-06-23T13:36:20Z</time>
      </trkpt>
      <trkpt lat="47.95375" lon="6.82049">
        <ele>513.91</ele>
        <time>2021-06-23T13:36:25Z</time>
      </trkpt>
      <trkpt lat="47.95378" lon="6.8207">
        <ele>513.84</ele>
        <time>2021-06-23T13:36:29Z</time>
      </trkpt>
      <trkpt lat="47.95383" lon="6.8212">
        <ele>514.16</ele>
        <time>2021-06-23T13:36:33Z</time>
      </trkpt>
      <trkpt lat="47.95395" lon="6.82179">
        <ele>515.02</ele>
        <time>2021-06-23T13:36:38Z</time>
      </trkpt>
      <trkpt lat="47.95404" lon="6.82209">
        <ele>514.38</ele>
        <time>2021-06-23T13:36:42Z</time>
      </trkpt>
      <trkpt lat="47.95426" lon="6.82263">
        <ele>512.59</ele>
        <time>2021-06-23T13:36:47Z</time>
      </trkpt>
      <trkpt lat="47.95431" lon="6.82278">
        <ele>513.51</ele>
        <time>2021-06-23T13:36:51Z</time>
      </trkpt>
      <trkpt lat="47.95435" lon="6.82308">
        <ele>515.72</ele>
        <time>2021-06-23T13:36:56Z</time>
      </trkpt>
      <trkpt lat="47.95435" lon="6.82373">
        <ele>517.64</ele>
        <time>2021-06-23T13:37:00Z</time>
      </trkpt>
      <trkpt lat="47.95436" lon="6.82388">
        <ele>517.25</ele>
        <time>2021-06-23T13:37:05Z</time>
      </trkpt>
      <trkpt lat="47.9544" lon="6.82401">
        <ele>515.72</ele>
        <time>2021-06-23T13:37:09Z</time>
      </trkpt>
      <trkpt lat="47.95453" lon="6.8242">
        <ele>513.37</ele>
        <time>2021-06-23T13:37:14Z</time>
      </trkpt>
      <trkpt lat="47.95477" lon="6.8245">
        <ele>512.17</ele>
        <time>2021-06-23T13:37:18Z</time>
      </trkpt>
      <trkpt lat="47.95482" lon="6.82458">
        <ele>512.49</ele>
        <time>2021-06-23T13:37:23Z</time>
      </trkpt>
      <trkpt lat="47.95486" lon="6.82473">
        <ele>513</ele>
        <time>2021-06-23T13:37:27Z</time>
      </trkpt>
      <trkpt lat="47.95495" lon="6.82513">
        <ele>514.09</ele>
        <time>2021-06-23T13:37:32Z</time>
      </trkpt>
      <trkpt lat="47.95499" lon="6.82526">
        <ele>514.02</ele>
        <time>2021-06-23T13:37:36Z</time>
      </trkpt>
      <trkpt lat="47.95508" lon="6.82543">
        <ele>513.3</ele>
        <time>2021-06-23T13:37:41Z</time>
      </trkpt>
      <trkpt lat="47.95516" lon="6.82552">
        <ele>512.3</ele>
        <time>2021-06-23T13:37:45Z</time>
      </trkpt>
      <trkpt lat="47.95543" lon="6.82566">
        <ele>509.83</ele>
        <time>2021-06-23T13:37:50Z</time>
      </trkpt>
      <trkpt lat="47.9557" lon="6.82585">
        <ele>505.95</ele>
        <time>2021-06-23T13:37:54Z</time>
      </trkpt>
      <trkpt lat="47.95593" lon="6.82613">
        <ele>503.82</ele>
        <time>2021-06-23T13:37:59Z</time>
      </trkpt>
      <trkpt lat="47.95701" lon="6.82803">
        <ele>507.77</ele>
        <time>2021-06-23T13:38:03Z</time>
      </trkpt>
      <trkpt lat="47.95707" lon="6.82817">
        <ele>507.94</ele>
        <time>2021-06-23T13:38:08Z</time>
      </trkpt>
      <trkpt lat="47.95714" lon="6.82842">
        <ele>508.58</ele>
        <time>2021-06-23T13:38:12Z</time>
      </trkpt>
      <trkpt lat="47.9578" lon="6.83026">
        <ele>513.67</ele>
        <time>2021-06-23T13:38:17Z</time>
      </trkpt>
      <trkpt lat="47.9579" lon="6.83045">
        <ele>514.01</ele>
        <time>2021-06-23T13:38:21Z</time>
      </trkpt>
      <trkpt lat="47.95813" lon="6.83081">
        <ele>514.02</ele>
        <time>2021-06-23T13:38:26Z</time>
      </trkpt>
      <trkpt lat="47.9591" lon="6.83188">
        <ele>509.54</ele>
        <time>2021-06-23T13:38:30Z</time>
      </trkpt>
      <trkpt lat="47.96051" lon="6.83404">
        <ele>509.83</ele>
        <time>2021-06-23T13:38:34Z</time>
      </trkpt>
      <trkpt lat="47.96157" lon="6.83561">
        <ele>512</ele>
        <time>2021-06-23T13:38:39Z</time>
      </trkpt>
      <trkpt lat="47.96178" lon="6.83602">
        <ele>511.02</ele>
        <time>2021-06-23T13:38:43Z</time>
      </trkpt>
      <trkpt lat="47.9619" lon="6.83638">
        <ele>511.48</ele>
        <time>2021-06-23T13:38:48Z</time>
      </trkpt>
      <trkpt lat="47.96208" lon="6.83715">
        <ele>513.9</ele>
        <time>2021-06-23T13:38:52Z</time>
      </trkpt>
      <trkpt lat="47.96218" lon="6.83729">
        <ele>513.53</ele>
        <time>2021-06-23T13:38:57Z</time>
      </trkpt>
      <trkpt lat="47.96225" lon="6.83735">
        <ele>513.41</ele>
        <time>2021-06-23T13:39:01Z</time>
      </trkpt>
      <trkpt lat="47.96233" lon="6.83739">
        <ele>513.35</ele>
        <time>2021-06-23T13:39:06Z</time>
      </trkpt>
      <trkpt lat="47.96233" lon="6.83739">
        <ele>513.35</ele>
        <time>2021-06-23T13:39:06Z</time>
      </trkpt>
      <trkpt lat="47.96238" lon="6.83741">
        <ele>513.28</ele>
        <time>2021-06-23T13:39:10Z</time>
      </trkpt>
      <trkpt lat="47.96251" lon="6.83741">
        <ele>512.96</ele>
        <time>2021-06-23T13:39:14Z</time>
      </trkpt>
      <trkpt lat="47.96275" lon="6.83726">
        <ele>512.08</ele>
        <time>2021-06-23T13:39:18Z</time>
      </trkpt>
      <trkpt lat="47.96342" lon="6.83671">
        <ele>510.76</ele>
        <time>2021-06-23T13:39:22Z</time>
      </trkpt>
      <trkpt lat="47.96418" lon="6.83591">
        <ele>513.33</ele>
        <time>2021-06-23T13:39:26Z</time>
      </trkpt>
      <trkpt lat="47.96448" lon="6.83569">
        <ele>513.93</ele>
        <time>2021-06-23T13:39:30Z</time>
      </trkpt>
      <trkpt lat="47.96459" lon="6.83565">
        <ele>513.65</ele>
        <time>2021-06-23T13:39:34Z</time>
      </trkpt>
      <trkpt lat="47.96475" lon="6.83554">
        <ele>513.09</ele>
        <time>2021-06-23T13:39:38Z</time>
      </trkpt>
      <trkpt lat="47.96482" lon="6.83545">
        <ele>513.37</ele>
        <time>2021-06-23T13:39:42Z</time>
      </trkpt>
      <trkpt lat="47.9652" lon="6.83478">
        <ele>514</ele>
        <time>2021-06-23T13:39:46Z</time>
      </trkpt>
      <trkpt lat="47.96529" lon="6.83464">
        <ele>514.04</ele>
        <time>2021-06-23T13:39:50Z</time>
      </trkpt>
      <trkpt lat="47.96597" lon="6.83389">
        <ele>520.44</ele>
        <time>2021-06-23T13:39:54Z</time>
      </trkpt>
      <trkpt lat="47.96655" lon="6.83328">
        <ele>524.18</ele>
        <time>2021-06-23T13:39:58Z</time>
      </trkpt>
      <trkpt lat="47.96678" lon="6.83313">
        <ele>525.5</ele>
        <time>2021-06-23T13:40:02Z</time>
      </trkpt>
      <trkpt lat="47.96701" lon="6.83307">
        <ele>526.31</ele>
        <time>2021-06-23T13:40:06Z</time>
      </trkpt>
      <trkpt lat="47.96713" lon="6.83308">
        <ele>526.82</ele>
        <time>2021-06-23T13:40:10Z</time>
      </trkpt>
      <trkpt lat="47.96821" lon="6.83334">
        <ele>532.5</ele>
        <time>2021-06-23T13:40:14Z</time>
      </trkpt>
      <trkpt lat="47.96936" lon="6.8337">
        <ele>535.71</ele>
        <time>2021-06-23T13:40:18Z</time>
      </trkpt>
      <trkpt lat="47.9695" lon="6.83373">
        <ele>536</ele>
        <time>2021-06-23T13:40:22Z</time>
      </trkpt>
      <trkpt lat="47.96961" lon="6.83372">
        <ele>536</ele>
        <time>2021-06-23T13:40:26Z</time>
      </trkpt>
      <trkpt lat="47.96987" lon="6.83363">
        <ele>535.54</ele>
        <time>2021-06-23T13:40:30Z</time>
      </trkpt>
      <trkpt lat="47.97022" lon="6.83336">
        <ele>534.1</ele>
        <time>2021-06-23T13:40:33Z</time>
      </trkpt>
      <trkpt lat="47.97049" lon="6.83313">
        <ele>534.38</ele>
        <time>2021-06-23T13:40:37Z</time>
      </trkpt>
      <trkpt lat="47.97084" lon="6.8326">
        <ele>534.74</ele>
        <time>2021-06-23T13:40:41Z</time>
      </trkpt>
      <trkpt lat="47.97104" lon="6.83235">
        <ele>534.75</ele>
        <time>2021-06-23T13:40:45Z</time>
      </trkpt>
      <trkpt lat="47.97117" lon="6.83224">
        <ele>535</ele>
        <time>2021-06-23T13:40:49Z</time>
      </trkpt>
      <trkpt lat="47.9715" lon="6.832">
        <ele>537.46</ele>
        <time>2021-06-23T13:40:53Z</time>
      </trkpt>
      <trkpt lat="47.97251" lon="6.83137">
        <ele>539.79</ele>
        <time>2021-06-23T13:40:57Z</time>
      </trkpt>
      <trkpt lat="47.9726" lon="6.83133">
        <ele>539.67</ele>
        <time>2021-06-23T13:41:01Z</time>
      </trkpt>
      <trkpt lat="47.9727" lon="6.83131">
        <ele>539.62</ele>
        <time>2021-06-23T13:41:05Z</time>
      </trkpt>
      <trkpt lat="47.97296" lon="6.83134">
        <ele>541.01</ele>
        <time>2021-06-23T13:41:09Z</time>
      </trkpt>
      <trkpt lat="47.9731" lon="6.8314">
        <ele>542.12</ele>
        <time>2021-06-23T13:41:13Z</time>
      </trkpt>
      <trkpt lat="47.97319" lon="6.83147">
        <ele>542.9</ele>
        <time>2021-06-23T13:41:17Z</time>
      </trkpt>
      <trkpt lat="47.97352" lon="6.83182">
        <ele>544.9</ele>
        <time>2021-06-23T13:41:21Z</time>
      </trkpt>
      <trkpt lat="47.97367" lon="6.83193">
        <ele>544.92</ele>
        <time>2021-06-23T13:41:25Z</time>
      </trkpt>
      <trkpt lat="47.97386" lon="6.832">
        <ele>545.38</ele>
        <time>2021-06-23T13:41:29Z</time>
      </trkpt>
      <trkpt lat="47.97403" lon="6.83202">
        <ele>545.53</ele>
        <time>2021-06-23T13:41:33Z</time>
      </trkpt>
      <trkpt lat="47.97503" lon="6.83227">
        <ele>549.07</ele>
        <time>2021-06-23T13:41:37Z</time>
      </trkpt>
      <trkpt lat="47.97567" lon="6.83249">
        <ele>550.84</ele>
        <time>2021-06-23T13:41:41Z</time>
      </trkpt>
      <trkpt lat="47.97706" lon="6.83315">
        <ele>555.13</ele>
        <time>2021-06-23T13:41:45Z</time>
      </trkpt>
      <trkpt lat="47.9774" lon="6.83335">
        <ele>556.53</ele>
        <time>2021-06-23T13:41:49Z</time>
      </trkpt>
      <trkpt lat="47.97765" lon="6.83352">
        <ele>557.78</ele>
        <time>2021-06-23T13:41:53Z</time>
      </trkpt>
      <trkpt lat="47.97846" lon="6.83425">
        <ele>562.85</ele>
        <time>2021-06-23T13:41:57Z</time>
      </trkpt>
      <trkpt lat="47.97868" lon="6.83437">
        <ele>562.74</ele>
        <time>2021-06-23T13:42:01Z</time>
      </trkpt>
      <trkpt lat="47.97882" lon="6.83441">
        <ele>562.11</ele>
        <time>2021-06-23T13:42:05Z</time>
      </trkpt>
      <trkpt lat="47.97899" lon="6.83442">
        <ele>561.08</ele>
        <time>2021-06-23T13:42:09Z</time>
      </trkpt>
      <trkpt lat="47.97914" lon="6.83439">
        <ele>559.77</ele>
        <time>2021-06-23T13:42:13Z</time>
      </trkpt>
      <trkpt lat="47.97986" lon="6.83411">
        <ele>561.81</ele>
        <time>2021-06-23T13:42:17Z</time>
      </trkpt>
      <trkpt lat="47.9802" lon="6.83401">
        <ele>565.09</ele>
        <time>2021-06-23T13:42:21Z</time>
      </trkpt>
      <trkpt lat="47.98163" lon="6.83391">
        <ele>569.56</ele>
        <time>2021-06-23T13:42:25Z</time>
      </trkpt>
      <trkpt lat="47.98182" lon="6.83397">
        <ele>568.88</ele>
        <time>2021-06-23T13:42:29Z</time>
      </trkpt>
      <trkpt lat="47.98198" lon="6.83406">
        <ele>569.49</ele>
        <time>2021-06-23T13:42:33Z</time>
      </trkpt>
      <trkpt lat="47.98213" lon="6.83419">
        <ele>570.35</ele>
        <time>2021-06-23T13:42:37Z</time>
      </trkpt>
      <trkpt lat="47.98238" lon="6.83451">
        <ele>571.01</ele>
        <time>2021-06-23T13:42:41Z</time>
      </trkpt>
      <trkpt lat="47.98238" lon="6.83451">
        <ele>571.01</ele>
        <time>2021-06-23T13:42:41Z</time>
      </trkpt>
      <trkpt lat="47.98318" lon="6.83558">
        <ele>570.93</ele>
        <time>2021-06-23T13:42:45Z</time>
      </trkpt>
      <trkpt lat="47.9833" lon="6.83568">
        <ele>570.39</ele>
        <time>2021-06-23T13:42:49Z</time>
      </trkpt>
      <trkpt lat="47.98356" lon="6.83583">
        <ele>570.95</ele>
        <time>2021-06-23T13:42:54Z</time>
      </trkpt>
      <trkpt lat="47.98426" lon="6.83604">
        <ele>571.24</ele>
        <time>2021-06-23T13:42:58Z</time>
      </trkpt>
      <trkpt lat="47.98442" lon="6.83611">
        <ele>569.43</ele>
        <time>2021-06-23T13:43:02Z</time>
      </trkpt>
      <trkpt lat="47.98463" lon="6.83625">
        <ele>569.35</ele>
        <time>2021-06-23T13:43:06Z</time>
      </trkpt>
      <trkpt lat="47.98495" lon="6.83658">
        <ele>570.31</ele>
        <time>2021-06-23T13:43:11Z</time>
      </trkpt>
      <trkpt lat="47.98509" lon="6.83679">
        <ele>571.8</ele>
        <time>2021-06-23T13:43:15Z</time>
      </trkpt>
      <trkpt lat="47.98601" lon="6.8386">
        <ele>571.69</ele>
        <time>2021-06-23T13:43:19Z</time>
      </trkpt>
      <trkpt lat="47.98655" lon="6.83957">
        <ele>573.9</ele>
        <time>2021-06-23T13:43:23Z</time>
      </trkpt>
      <trkpt lat="47.98813" lon="6.84189">
        <ele>581.9</ele>
        <time>2021-06-23T13:43:28Z</time>
      </trkpt>
      <trkpt lat="47.98856" lon="6.84257">
        <ele>585.49</ele>
        <time>2021-06-23T13:43:32Z</time>
      </trkpt>
      <trkpt lat="47.98867" lon="6.84278">
        <ele>583.95</ele>
        <time>2021-06-23T13:43:36Z</time>
      </trkpt>
      <trkpt lat="47.98911" lon="6.84388">
        <ele>584.18</ele>
        <time>2021-06-23T13:43:40Z</time>
      </trkpt>
      <trkpt lat="47.98924" lon="6.84434">
        <ele>587.18</ele>
        <time>2021-06-23T13:43:44Z</time>
      </trkpt>
      <trkpt lat="47.98943" lon="6.84526">
        <ele>590.06</ele>
        <time>2021-06-23T13:43:49Z</time>
      </trkpt>
      <trkpt lat="47.98955" lon="6.84564">
        <ele>588.74</ele>
        <time>2021-06-23T13:43:53Z</time>
      </trkpt>
      <trkpt lat="47.99002" lon="6.8467">
        <ele>589.24</ele>
        <time>2021-06-23T13:43:57Z</time>
      </trkpt>
      <trkpt lat="47.99029" lon="6.84756">
        <ele>594.5</ele>
        <time>2021-06-23T13:44:01Z</time>
      </trkpt>
      <trkpt lat="47.99044" lon="6.84799">
        <ele>595.5</ele>
        <time>2021-06-23T13:44:06Z</time>
      </trkpt>
      <trkpt lat="47.99069" lon="6.84844">
        <ele>596.53</ele>
        <time>2021-06-23T13:44:10Z</time>
      </trkpt>
      <trkpt lat="47.9909" lon="6.84872">
        <ele>596.54</ele>
        <time>2021-06-23T13:44:14Z</time>
      </trkpt>
      <trkpt lat="47.99199" lon="6.8498">
        <ele>597.38</ele>
        <time>2021-06-23T13:44:18Z</time>
      </trkpt>
      <trkpt lat="47.99253" lon="6.85039">
        <ele>597.65</ele>
        <time>2021-06-23T13:44:23Z</time>
      </trkpt>
      <trkpt lat="47.99264" lon="6.85057">
        <ele>598.01</ele>
        <time>2021-06-23T13:44:27Z</time>
      </trkpt>
      <trkpt lat="47.99275" lon="6.8508">
        <ele>598.09</ele>
        <time>2021-06-23T13:44:31Z</time>
      </trkpt>
      <trkpt lat="47.99279" lon="6.85096">
        <ele>597.39</ele>
        <time>2021-06-23T13:44:35Z</time>
      </trkpt>
      <trkpt lat="47.99285" lon="6.85131">
        <ele>596.5</ele>
        <time>2021-06-23T13:44:40Z</time>
      </trkpt>
      <trkpt lat="47.99294" lon="6.85213">
        <ele>597.69</ele>
        <time>2021-06-23T13:44:44Z</time>
      </trkpt>
      <trkpt lat="47.9931" lon="6.85325">
        <ele>601.84</ele>
        <time>2021-06-23T13:44:48Z</time>
      </trkpt>
      <trkpt lat="47.99317" lon="6.85353">
        <ele>602.91</ele>
        <time>2021-06-23T13:44:52Z</time>
      </trkpt>
      <trkpt lat="47.99329" lon="6.85389">
        <ele>601.89</ele>
        <time>2021-06-23T13:44:57Z</time>
      </trkpt>
      <trkpt lat="47.99369" lon="6.85479">
        <ele>604.61</ele>
        <time>2021-06-23T13:45:01Z</time>
      </trkpt>
      <trkpt lat="47.99412" lon="6.85573">
        <ele>604.78</ele>
        <time>2021-06-23T13:45:05Z</time>
      </trkpt>
      <trkpt lat="47.9943" lon="6.85608">
        <ele>607.59</ele>
        <time>2021-06-23T13:45:09Z</time>
      </trkpt>
      <trkpt lat="47.99446" lon="6.85634">
        <ele>610.02</ele>
        <time>2021-06-23T13:45:13Z</time>
      </trkpt>
      <trkpt lat="47.99464" lon="6.8566">
        <ele>610.93</ele>
        <time>2021-06-23T13:45:18Z</time>
      </trkpt>
      <trkpt lat="47.99481" lon="6.85677">
        <ele>610.01</ele>
        <time>2021-06-23T13:45:22Z</time>
      </trkpt>
      <trkpt lat="47.99575" lon="6.85752">
        <ele>607.78</ele>
        <time>2021-06-23T13:45:26Z</time>
      </trkpt>
      <trkpt lat="47.99631" lon="6.85795">
        <ele>608.16</ele>
        <time>2021-06-23T13:45:30Z</time>
      </trkpt>
      <trkpt lat="47.9965" lon="6.85812">
        <ele>607.19</ele>
        <time>2021-06-23T13:45:35Z</time>
      </trkpt>
      <trkpt lat="47.99687" lon="6.85843">
        <ele>606</ele>
        <time>2021-06-23T13:45:39Z</time>
      </trkpt>
      <trkpt lat="47.99739" lon="6.85916">
        <ele>607.4</ele>
        <time>2021-06-23T13:45:43Z</time>
      </trkpt>
      <trkpt lat="47.99754" lon="6.85945">
        <ele>607.01</ele>
        <time>2021-06-23T13:45:47Z</time>
      </trkpt>
      <trkpt lat="47.99785" lon="6.86007">
        <ele>608.26</ele>
        <time>2021-06-23T13:45:52Z</time>
      </trkpt>
      <trkpt lat="47.99824" lon="6.86101">
        <ele>610.22</ele>
        <time>2021-06-23T13:45:56Z</time>
      </trkpt>
      <trkpt lat="47.99834" lon="6.86137">
        <ele>610.89</ele>
        <time>2021-06-23T13:46:00Z</time>
      </trkpt>
      <trkpt lat="47.99841" lon="6.8617">
        <ele>610.73</ele>
        <time>2021-06-23T13:46:04Z</time>
      </trkpt>
      <trkpt lat="47.99839" lon="6.86191">
        <ele>610.78</ele>
        <time>2021-06-23T13:46:09Z</time>
      </trkpt>
      <trkpt lat="47.99837" lon="6.86202">
        <ele>610.62</ele>
        <time>2021-06-23T13:46:14Z</time>
      </trkpt>
      <trkpt lat="47.99841" lon="6.86212">
        <ele>610.27</ele>
        <time>2021-06-23T13:46:19Z</time>
      </trkpt>
      <trkpt lat="47.99848" lon="6.8626">
        <ele>610.38</ele>
        <time>2021-06-23T13:46:25Z</time>
      </trkpt>
      <trkpt lat="47.99867" lon="6.8651">
        <ele>616.32</ele>
        <time>2021-06-23T13:46:30Z</time>
      </trkpt>
      <trkpt lat="47.99868" lon="6.86533">
        <ele>615.74</ele>
        <time>2021-06-23T13:46:36Z</time>
      </trkpt>
      <trkpt lat="47.99868" lon="6.86604">
        <ele>616.74</ele>
        <time>2021-06-23T13:46:41Z</time>
      </trkpt>
      <trkpt lat="47.99871" lon="6.86648">
        <ele>618.4</ele>
        <time>2021-06-23T13:46:46Z</time>
      </trkpt>
      <trkpt lat="47.99877" lon="6.86688">
        <ele>619.17</ele>
        <time>2021-06-23T13:46:52Z</time>
      </trkpt>
      <trkpt lat="47.99914" lon="6.86805">
        <ele>617.09</ele>
        <time>2021-06-23T13:46:57Z</time>
      </trkpt>
      <trkpt lat="47.9992" lon="6.86832">
        <ele>617</ele>
        <time>2021-06-23T13:47:03Z</time>
      </trkpt>
      <trkpt lat="47.99925" lon="6.86859">
        <ele>617.27</ele>
        <time>2021-06-23T13:47:08Z</time>
      </trkpt>
      <trkpt lat="47.99935" lon="6.86938">
        <ele>619.59</ele>
        <time>2021-06-23T13:47:14Z</time>
      </trkpt>
      <trkpt lat="47.99947" lon="6.86995">
        <ele>619.02</ele>
        <time>2021-06-23T13:47:19Z</time>
      </trkpt>
      <trkpt lat="47.99958" lon="6.8702">
        <ele>619</ele>
        <time>2021-06-23T13:47:24Z</time>
      </trkpt>
      <trkpt lat="47.9997" lon="6.87041">
        <ele>619.04</ele>
        <time>2021-06-23T13:47:30Z</time>
      </trkpt>
      <trkpt lat="47.9999" lon="6.87069">
        <ele>619.47</ele>
        <time>2021-06-23T13:47:35Z</time>
      </trkpt>
      <trkpt lat="48.00107" lon="6.87143">
        <ele>624.14</ele>
        <time>2021-06-23T13:47:41Z</time>
      </trkpt>
      <trkpt lat="48.00159" lon="6.8718">
        <ele>625.72</ele>
        <time>2021-06-23T13:47:46Z</time>
      </trkpt>
      <trkpt lat="48.00223" lon="6.87236">
        <ele>628.52</ele>
        <time>2021-06-23T13:47:51Z</time>
      </trkpt>
      <trkpt lat="48.00252" lon="6.87259">
        <ele>630.08</ele>
        <time>2021-06-23T13:47:57Z</time>
      </trkpt>
      <trkpt lat="48.00278" lon="6.87284">
        <ele>630.78</ele>
        <time>2021-06-23T13:48:02Z</time>
      </trkpt>
      <trkpt lat="48.00315" lon="6.87336">
        <ele>629.64</ele>
        <time>2021-06-23T13:48:08Z</time>
      </trkpt>
      <trkpt lat="48.00336" lon="6.87384">
        <ele>632.03</ele>
        <time>2021-06-23T13:48:13Z</time>
      </trkpt>
      <trkpt lat="48.0036" lon="6.87482">
        <ele>631.64</ele>
        <time>2021-06-23T13:48:18Z</time>
      </trkpt>
      <trkpt lat="48.00371" lon="6.87464">
        <ele>632.1</ele>
        <time>2021-06-23T13:48:25Z</time>
      </trkpt>
      <trkpt lat="48.00393" lon="6.87412">
        <ele>634.35</ele>
        <time>2021-06-23T13:48:31Z</time>
      </trkpt>
      <trkpt lat="48.00359" lon="6.87362">
        <ele>634.68</ele>
        <time>2021-06-23T13:48:40Z</time>
      </trkpt>
      <trkpt lat="48.00384" lon="6.87335">
        <ele>636.66</ele>
        <time>2021-06-23T13:48:43Z</time>
      </trkpt>
      <trkpt lat="48.00391" lon="6.87323">
        <ele>637.59</ele>
        <time>2021-06-23T13:48:47Z</time>
      </trkpt>
      <trkpt lat="48.00396" lon="6.87307">
        <ele>638.97</ele>
        <time>2021-06-23T13:48:51Z</time>
      </trkpt>
      <trkpt lat="48.00405" lon="6.87268">
        <ele>643.18</ele>
        <time>2021-06-23T13:48:54Z</time>
      </trkpt>
      <trkpt lat="48.00409" lon="6.87262">
        <ele>644.25</ele>
        <time>2021-06-23T13:48:58Z</time>
      </trkpt>
      <trkpt lat="48.00425" lon="6.87258">
        <ele>647.17</ele>
        <time>2021-06-23T13:49:01Z</time>
      </trkpt>
      <trkpt lat="48.00438" lon="6.87259">
        <ele>650.23</ele>
        <time>2021-06-23T13:49:05Z</time>
      </trkpt>
      <trkpt lat="48.00486" lon="6.87279">
        <ele>657.42</ele>
        <time>2021-06-23T13:49:09Z</time>
      </trkpt>
      <trkpt lat="48.00495" lon="6.87279">
        <ele>658.3</ele>
        <time>2021-06-23T13:49:12Z</time>
      </trkpt>
      <trkpt lat="48.00503" lon="6.87273">
        <ele>659.65</ele>
        <time>2021-06-23T13:49:16Z</time>
      </trkpt>
      <trkpt lat="48.00487" lon="6.87248">
        <ele>660.35</ele>
        <time>2021-06-23T13:49:21Z</time>
      </trkpt>
      <trkpt lat="48.00427" lon="6.87166">
        <ele>663.64</ele>
        <time>2021-06-23T13:49:27Z</time>
      </trkpt>
      <trkpt lat="48.00424" lon="6.87154">
        <ele>665.02</ele>
        <time>2021-06-23T13:49:32Z</time>
      </trkpt>
      <trkpt lat="48.00427" lon="6.87143">
        <ele>667.23</ele>
        <time>2021-06-23T13:49:38Z</time>
      </trkpt>
      <trkpt lat="48.00433" lon="6.87142">
        <ele>668.46</ele>
        <time>2021-06-23T13:49:43Z</time>
      </trkpt>
      <trkpt lat="48.00441" lon="6.87146">
        <ele>669.11</ele>
        <time>2021-06-23T13:49:49Z</time>
      </trkpt>
      <trkpt lat="48.00467" lon="6.87172">
        <ele>668.34</ele>
        <time>2021-06-23T13:49:54Z</time>
      </trkpt>
      <trkpt lat="48.0048" lon="6.87181">
        <ele>669.11</ele>
        <time>2021-06-23T13:50:00Z</time>
      </trkpt>
      <trkpt lat="48.00496" lon="6.8719">
        <ele>671.28</ele>
        <time>2021-06-23T13:50:05Z</time>
      </trkpt>
      <trkpt lat="48.0053" lon="6.87195">
        <ele>674.8</ele>
        <time>2021-06-23T13:50:11Z</time>
      </trkpt>
      <trkpt lat="48.00584" lon="6.872">
        <ele>677.49</ele>
        <time>2021-06-23T13:50:16Z</time>
      </trkpt>
      <trkpt lat="48.0061" lon="6.872">
        <ele>683.19</ele>
        <time>2021-06-23T13:50:22Z</time>
      </trkpt>
      <trkpt lat="48.00626" lon="6.87207">
        <ele>685.79</ele>
        <time>2021-06-23T13:50:27Z</time>
      </trkpt>
      <trkpt lat="48.00667" lon="6.87252">
        <ele>686.93</ele>
        <time>2021-06-23T13:50:33Z</time>
      </trkpt>
      <trkpt lat="48.00742" lon="6.87293">
        <ele>693.54</ele>
        <time>2021-06-23T13:50:38Z</time>
      </trkpt>
      <trkpt lat="48.00898" lon="6.87492">
        <ele>704.36</ele>
        <time>2021-06-23T13:50:44Z</time>
      </trkpt>
      <trkpt lat="48.00934" lon="6.87555">
        <ele>710.03</ele>
        <time>2021-06-23T13:50:49Z</time>
      </trkpt>
      <trkpt lat="48.00945" lon="6.8757">
        <ele>711.09</ele>
        <time>2021-06-23T13:50:55Z</time>
      </trkpt>
      <trkpt lat="48.00986" lon="6.87605">
        <ele>713.43</ele>
        <time>2021-06-23T13:51:00Z</time>
      </trkpt>
      <trkpt lat="48.01001" lon="6.87623">
        <ele>713.85</ele>
        <time>2021-06-23T13:51:06Z</time>
      </trkpt>
      <trkpt lat="48.01036" lon="6.87687">
        <ele>719.54</ele>
        <time>2021-06-23T13:51:11Z</time>
      </trkpt>
      <trkpt lat="48.01066" lon="6.87764">
        <ele>725.84</ele>
        <time>2021-06-23T13:51:17Z</time>
      </trkpt>
      <trkpt lat="48.01082" lon="6.8781">
        <ele>728.61</ele>
        <time>2021-06-23T13:51:22Z</time>
      </trkpt>
      <trkpt lat="48.0113" lon="6.8802">
        <ele>736.9</ele>
        <time>2021-06-23T13:51:28Z</time>
      </trkpt>
      <trkpt lat="48.01166" lon="6.88142">
        <ele>741.57</ele>
        <time>2021-06-23T13:51:33Z</time>
      </trkpt>
      <trkpt lat="48.0118" lon="6.88177">
        <ele>741.58</ele>
        <time>2021-06-23T13:51:39Z</time>
      </trkpt>
      <trkpt lat="48.01306" lon="6.88416">
        <ele>753.22</ele>
        <time>2021-06-23T13:51:44Z</time>
      </trkpt>
      <trkpt lat="48.01332" lon="6.88463">
        <ele>757.42</ele>
        <time>2021-06-23T13:51:50Z</time>
      </trkpt>
      <trkpt lat="48.01385" lon="6.88523">
        <ele>761.73</ele>
        <time>2021-06-23T13:51:55Z</time>
      </trkpt>
      <trkpt lat="48.01405" lon="6.8854">
        <ele>763.05</ele>
        <time>2021-06-23T13:52:01Z</time>
      </trkpt>
      <trkpt lat="48.01415" lon="6.88543">
        <ele>764.68</ele>
        <time>2021-06-23T13:52:06Z</time>
      </trkpt>
      <trkpt lat="48.01559" lon="6.88551">
        <ele>777.55</ele>
        <time>2021-06-23T13:52:12Z</time>
      </trkpt>
      <trkpt lat="48.0157" lon="6.88558">
        <ele>778.26</ele>
        <time>2021-06-23T13:52:17Z</time>
      </trkpt>
      <trkpt lat="48.01578" lon="6.88569">
        <ele>778.08</ele>
        <time>2021-06-23T13:52:23Z</time>
      </trkpt>
      <trkpt lat="48.01645" lon="6.88722">
        <ele>781.49</ele>
        <time>2021-06-23T13:52:28Z</time>
      </trkpt>
      <trkpt lat="48.01667" lon="6.88763">
        <ele>784.01</ele>
        <time>2021-06-23T13:52:34Z</time>
      </trkpt>
      <trkpt lat="48.017" lon="6.88804">
        <ele>786.23</ele>
        <time>2021-06-23T13:52:39Z</time>
      </trkpt>
      <trkpt lat="48.017" lon="6.88804">
        <ele>786.23</ele>
        <time>2021-06-23T13:52:39Z</time>
      </trkpt>
      <trkpt lat="48.01718" lon="6.88822">
        <ele>786.37</ele>
        <time>2021-06-23T13:52:42Z</time>
      </trkpt>
      <trkpt lat="48.01734" lon="6.88834">
        <ele>786.61</ele>
        <time>2021-06-23T13:52:44Z</time>
      </trkpt>
      <trkpt lat="48.01743" lon="6.88837">
        <ele>787.4</ele>
        <time>2021-06-23T13:52:47Z</time>
      </trkpt>
      <trkpt lat="48.01814" lon="6.88847">
        <ele>799.13</ele>
        <time>2021-06-23T13:52:49Z</time>
      </trkpt>
      <trkpt lat="48.01829" lon="6.88854">
        <ele>800.85</ele>
        <time>2021-06-23T13:52:52Z</time>
      </trkpt>
      <trkpt lat="48.0184" lon="6.88863">
        <ele>801.55</ele>
        <time>2021-06-23T13:52:54Z</time>
      </trkpt>
      <trkpt lat="48.01931" lon="6.89009">
        <ele>806.19</ele>
        <time>2021-06-23T13:52:57Z</time>
      </trkpt>
      <trkpt lat="48.0198" lon="6.89082">
        <ele>809.52</ele>
        <time>2021-06-23T13:52:59Z</time>
      </trkpt>
      <trkpt lat="48.02064" lon="6.89178">
        <ele>820.14</ele>
        <time>2021-06-23T13:53:02Z</time>
      </trkpt>
      <trkpt lat="48.02075" lon="6.89198">
        <ele>820.51</ele>
        <time>2021-06-23T13:53:04Z</time>
      </trkpt>
      <trkpt lat="48.02097" lon="6.89256">
        <ele>821.53</ele>
        <time>2021-06-23T13:53:07Z</time>
      </trkpt>
      <trkpt lat="48.0214" lon="6.89331">
        <ele>830.88</ele>
        <time>2021-06-23T13:53:09Z</time>
      </trkpt>
      <trkpt lat="48.0215" lon="6.89352">
        <ele>831.81</ele>
        <time>2021-06-23T13:53:12Z</time>
      </trkpt>
      <trkpt lat="48.02167" lon="6.89372">
        <ele>832.25</ele>
        <time>2021-06-23T13:53:14Z</time>
      </trkpt>
      <trkpt lat="48.0219" lon="6.89388">
        <ele>832.76</ele>
        <time>2021-06-23T13:53:17Z</time>
      </trkpt>
      <trkpt lat="48.02194" lon="6.89395">
        <ele>832.97</ele>
        <time>2021-06-23T13:53:19Z</time>
      </trkpt>
      <trkpt lat="48.02199" lon="6.89409">
        <ele>833.78</ele>
        <time>2021-06-23T13:53:22Z</time>
      </trkpt>
      <trkpt lat="48.02201" lon="6.89427">
        <ele>834.58</ele>
        <time>2021-06-23T13:53:24Z</time>
      </trkpt>
      <trkpt lat="48.02199" lon="6.89465">
        <ele>836.51</ele>
        <time>2021-06-23T13:53:27Z</time>
      </trkpt>
      <trkpt lat="48.022" lon="6.8949">
        <ele>837.56</ele>
        <time>2021-06-23T13:53:29Z</time>
      </trkpt>
      <trkpt lat="48.02206" lon="6.89513">
        <ele>839.17</ele>
        <time>2021-06-23T13:53:32Z</time>
      </trkpt>
      <trkpt lat="48.0227" lon="6.89628">
        <ele>842.75</ele>
        <time>2021-06-23T13:53:34Z</time>
      </trkpt>
      <trkpt lat="48.02285" lon="6.89645">
        <ele>844.51</ele>
        <time>2021-06-23T13:53:37Z</time>
      </trkpt>
      <trkpt lat="48.02295" lon="6.89651">
        <ele>846.43</ele>
        <time>2021-06-23T13:53:39Z</time>
      </trkpt>
      <trkpt lat="48.02312" lon="6.89655">
        <ele>849.93</ele>
        <time>2021-06-23T13:53:42Z</time>
      </trkpt>
      <trkpt lat="48.02361" lon="6.89652">
        <ele>860.08</ele>
        <time>2021-06-23T13:53:44Z</time>
      </trkpt>
      <trkpt lat="48.0237" lon="6.89659">
        <ele>860.57</ele>
        <time>2021-06-23T13:53:47Z</time>
      </trkpt>
      <trkpt lat="48.02377" lon="6.8967">
        <ele>860.67</ele>
        <time>2021-06-23T13:53:49Z</time>
      </trkpt>
      <trkpt lat="48.02383" lon="6.89685">
        <ele>861.18</ele>
        <time>2021-06-23T13:53:52Z</time>
      </trkpt>
      <trkpt lat="48.02389" lon="6.89709">
        <ele>860.99</ele>
        <time>2021-06-23T13:53:54Z</time>
      </trkpt>
      <trkpt lat="48.02411" lon="6.89855">
        <ele>864.65</ele>
        <time>2021-06-23T13:53:57Z</time>
      </trkpt>
      <trkpt lat="48.02461" lon="6.90127">
        <ele>873.88</ele>
        <time>2021-06-23T13:53:59Z</time>
      </trkpt>
      <trkpt lat="48.02464" lon="6.90137">
        <ele>874.1</ele>
        <time>2021-06-23T13:54:02Z</time>
      </trkpt>
      <trkpt lat="48.02471" lon="6.90147">
        <ele>876.04</ele>
        <time>2021-06-23T13:54:04Z</time>
      </trkpt>
      <trkpt lat="48.0247" lon="6.90154">
        <ele>875.18</ele>
        <time>2021-06-23T13:54:07Z</time>
      </trkpt>
      <trkpt lat="48.02472" lon="6.90171">
        <ele>874.72</ele>
        <time>2021-06-23T13:54:09Z</time>
      </trkpt>
      <trkpt lat="48.02479" lon="6.90223">
        <ele>875.32</ele>
        <time>2021-06-23T13:54:12Z</time>
      </trkpt>
      <trkpt lat="48.02486" lon="6.90253">
        <ele>875.93</ele>
        <time>2021-06-23T13:54:14Z</time>
      </trkpt>
      <trkpt lat="48.02547" lon="6.90394">
        <ele>882.89</ele>
        <time>2021-06-23T13:54:16Z</time>
      </trkpt>
      <trkpt lat="48.02567" lon="6.90454">
        <ele>881.86</ele>
        <time>2021-06-23T13:54:19Z</time>
      </trkpt>
      <trkpt lat="48.02609" lon="6.90526">
        <ele>883.61</ele>
        <time>2021-06-23T13:54:21Z</time>
      </trkpt>
      <trkpt lat="48.02664" lon="6.90599">
        <ele>884.57</ele>
        <time>2021-06-23T13:54:23Z</time>
      </trkpt>
      <trkpt lat="48.02701" lon="6.90654">
        <ele>887.69</ele>
        <time>2021-06-23T13:54:26Z</time>
      </trkpt>
      <trkpt lat="48.02708" lon="6.90667">
        <ele>886.84</ele>
        <time>2021-06-23T13:54:28Z</time>
      </trkpt>
      <trkpt lat="48.02709" lon="6.90699">
        <ele>882.66</ele>
        <time>2021-06-23T13:54:30Z</time>
      </trkpt>
      <trkpt lat="48.02713" lon="6.90722">
        <ele>883.39</ele>
        <time>2021-06-23T13:54:33Z</time>
      </trkpt>
      <trkpt lat="48.02719" lon="6.90738">
        <ele>884.61</ele>
        <time>2021-06-23T13:54:35Z</time>
      </trkpt>
      <trkpt lat="48.02739" lon="6.90768">
        <ele>890.88</ele>
        <time>2021-06-23T13:54:38Z</time>
      </trkpt>
      <trkpt lat="48.02747" lon="6.9079">
        <ele>893.82</ele>
        <time>2021-06-23T13:54:40Z</time>
      </trkpt>
      <trkpt lat="48.02755" lon="6.90831">
        <ele>896.36</ele>
        <time>2021-06-23T13:54:42Z</time>
      </trkpt>
      <trkpt lat="48.02765" lon="6.90893">
        <ele>900.17</ele>
        <time>2021-06-23T13:54:45Z</time>
      </trkpt>
      <trkpt lat="48.02774" lon="6.90924">
        <ele>902.72</ele>
        <time>2021-06-23T13:54:47Z</time>
      </trkpt>
      <trkpt lat="48.02804" lon="6.91007">
        <ele>910.67</ele>
        <time>2021-06-23T13:54:49Z</time>
      </trkpt>
      <trkpt lat="48.02839" lon="6.9113">
        <ele>912.76</ele>
        <time>2021-06-23T13:54:51Z</time>
      </trkpt>
      <trkpt lat="48.02863" lon="6.91201">
        <ele>915.51</ele>
        <time>2021-06-23T13:54:53Z</time>
      </trkpt>
      <trkpt lat="48.02886" lon="6.91286">
        <ele>909.85</ele>
        <time>2021-06-23T13:54:55Z</time>
      </trkpt>
      <trkpt lat="48.02895" lon="6.91307">
        <ele>909.4</ele>
        <time>2021-06-23T13:54:57Z</time>
      </trkpt>
      <trkpt lat="48.02935" lon="6.91359">
        <ele>911.54</ele>
        <time>2021-06-23T13:54:59Z</time>
      </trkpt>
      <trkpt lat="48.02991" lon="6.91423">
        <ele>906.38</ele>
        <time>2021-06-23T13:55:01Z</time>
      </trkpt>
      <trkpt lat="48.03017" lon="6.91441">
        <ele>908.93</ele>
        <time>2021-06-23T13:55:03Z</time>
      </trkpt>
      <trkpt lat="48.03035" lon="6.91458">
        <ele>909.92</ele>
        <time>2021-06-23T13:55:05Z</time>
      </trkpt>
      <trkpt lat="48.03082" lon="6.91513">
        <ele>904.61</ele>
        <time>2021-06-23T13:55:07Z</time>
      </trkpt>
      <trkpt lat="48.03116" lon="6.91539">
        <ele>905.76</ele>
        <time>2021-06-23T13:55:09Z</time>
      </trkpt>
      <trkpt lat="48.03177" lon="6.91571">
        <ele>904.2</ele>
        <time>2021-06-23T13:55:11Z</time>
      </trkpt>
      <trkpt lat="48.03246" lon="6.91612">
        <ele>896.26</ele>
        <time>2021-06-23T13:55:13Z</time>
      </trkpt>
      <trkpt lat="48.03264" lon="6.91638">
        <ele>893.23</ele>
        <time>2021-06-23T13:55:15Z</time>
      </trkpt>
      <trkpt lat="48.03271" lon="6.91645">
        <ele>892.47</ele>
        <time>2021-06-23T13:55:17Z</time>
      </trkpt>
      <trkpt lat="48.03294" lon="6.91654">
        <ele>892.4</ele>
        <time>2021-06-23T13:55:19Z</time>
      </trkpt>
      <trkpt lat="48.0331" lon="6.91664">
        <ele>891.04</ele>
        <time>2021-06-23T13:55:21Z</time>
      </trkpt>
      <trkpt lat="48.03327" lon="6.91682">
        <ele>890.13</ele>
        <time>2021-06-23T13:55:23Z</time>
      </trkpt>
      <trkpt lat="48.03338" lon="6.917">
        <ele>889.04</ele>
        <time>2021-06-23T13:55:25Z</time>
      </trkpt>
      <trkpt lat="48.03343" lon="6.9172">
        <ele>887.32</ele>
        <time>2021-06-23T13:55:27Z</time>
      </trkpt>
      <trkpt lat="48.03342" lon="6.91728">
        <ele>886.22</ele>
        <time>2021-06-23T13:55:29Z</time>
      </trkpt>
      <trkpt lat="48.03339" lon="6.91735">
        <ele>885.01</ele>
        <time>2021-06-23T13:55:31Z</time>
      </trkpt>
      <trkpt lat="48.03331" lon="6.91739">
        <ele>883.97</ele>
        <time>2021-06-23T13:55:33Z</time>
      </trkpt>
      <trkpt lat="48.03318" lon="6.91741">
        <ele>882.31</ele>
        <time>2021-06-23T13:55:35Z</time>
      </trkpt>
      <trkpt lat="48.03313" lon="6.9175">
        <ele>880.74</ele>
        <time>2021-06-23T13:55:37Z</time>
      </trkpt>
      <trkpt lat="48.03313" lon="6.91765">
        <ele>878.18</ele>
        <time>2021-06-23T13:55:39Z</time>
      </trkpt>
      <trkpt lat="48.0332" lon="6.91777">
        <ele>876.63</ele>
        <time>2021-06-23T13:55:41Z</time>
      </trkpt>
      <trkpt lat="48.0336" lon="6.91831">
        <ele>873.13</ele>
        <time>2021-06-23T13:55:43Z</time>
      </trkpt>
      <trkpt lat="48.03366" lon="6.91845">
        <ele>872.84</ele>
        <time>2021-06-23T13:55:45Z</time>
      </trkpt>
      <trkpt lat="48.03373" lon="6.91882">
        <ele>869.68</ele>
        <time>2021-06-23T13:55:47Z</time>
      </trkpt>
      <trkpt lat="48.0338" lon="6.91906">
        <ele>867.07</ele>
        <time>2021-06-23T13:55:49Z</time>
      </trkpt>
      <trkpt lat="48.03386" lon="6.91919">
        <ele>865.85</ele>
        <time>2021-06-23T13:55:51Z</time>
      </trkpt>
      <trkpt lat="48.03395" lon="6.91932">
        <ele>866.58</ele>
        <time>2021-06-23T13:55:53Z</time>
      </trkpt>
      <trkpt lat="48.03401" lon="6.91944">
        <ele>866.83</ele>
        <time>2021-06-23T13:55:56Z</time>
      </trkpt>
      <trkpt lat="48.03406" lon="6.91961">
        <ele>863.72</ele>
        <time>2021-06-23T13:55:58Z</time>
      </trkpt>
      <trkpt lat="48.03411" lon="6.91995">
        <ele>855.79</ele>
        <time>2021-06-23T13:56:00Z</time>
      </trkpt>
      <trkpt lat="48.03466" lon="6.92093">
        <ele>854.86</ele>
        <time>2021-06-23T13:56:02Z</time>
      </trkpt>
      <trkpt lat="48.03504" lon="6.92177">
        <ele>846.18</ele>
        <time>2021-06-23T13:56:04Z</time>
      </trkpt>
      <trkpt lat="48.03527" lon="6.92218">
        <ele>848.22</ele>
        <time>2021-06-23T13:56:06Z</time>
      </trkpt>
      <trkpt lat="48.03562" lon="6.92257">
        <ele>850.53</ele>
        <time>2021-06-23T13:56:08Z</time>
      </trkpt>
      <trkpt lat="48.03569" lon="6.92268">
        <ele>849.93</ele>
        <time>2021-06-23T13:56:10Z</time>
      </trkpt>
      <trkpt lat="48.03582" lon="6.92311">
        <ele>845.99</ele>
        <time>2021-06-23T13:56:12Z</time>
      </trkpt>
      <trkpt lat="48.03592" lon="6.92366">
        <ele>840.75</ele>
        <time>2021-06-23T13:56:14Z</time>
      </trkpt>
      <trkpt lat="48.03592" lon="6.92382">
        <ele>838.01</ele>
        <time>2021-06-23T13:56:16Z</time>
      </trkpt>
      <trkpt lat="48.03584" lon="6.92435">
        <ele>832.81</ele>
        <time>2021-06-23T13:56:18Z</time>
      </trkpt>
      <trkpt lat="48.03568" lon="6.92502">
        <ele>832.73</ele>
        <time>2021-06-23T13:56:20Z</time>
      </trkpt>
      <trkpt lat="48.03564" lon="6.9251">
        <ele>832.71</ele>
        <time>2021-06-23T13:56:22Z</time>
      </trkpt>
      <trkpt lat="48.0355" lon="6.92524">
        <ele>833.26</ele>
        <time>2021-06-23T13:56:24Z</time>
      </trkpt>
      <trkpt lat="48.03555" lon="6.92534">
        <ele>834.22</ele>
        <time>2021-06-23T13:56:26Z</time>
      </trkpt>
      <trkpt lat="48.03598" lon="6.92591">
        <ele>834.34</ele>
        <time>2021-06-23T13:56:29Z</time>
      </trkpt>
      <trkpt lat="48.03626" lon="6.9262">
        <ele>841.65</ele>
        <time>2021-06-23T13:56:31Z</time>
      </trkpt>
      <trkpt lat="48.03634" lon="6.92631">
        <ele>844.36</ele>
        <time>2021-06-23T13:56:34Z</time>
      </trkpt>
      <trkpt lat="48.03651" lon="6.92667">
        <ele>847.74</ele>
        <time>2021-06-23T13:56:36Z</time>
      </trkpt>
      <trkpt lat="48.03659" lon="6.92691">
        <ele>847.31</ele>
        <time>2021-06-23T13:56:39Z</time>
      </trkpt>
      <trkpt lat="48.03672" lon="6.92722">
        <ele>847.82</ele>
        <time>2021-06-23T13:56:41Z</time>
      </trkpt>
      <trkpt lat="48.03677" lon="6.92727">
        <ele>847.88</ele>
        <time>2021-06-23T13:56:44Z</time>
      </trkpt>
      <trkpt lat="48.03748" lon="6.92771">
        <ele>852.34</ele>
        <time>2021-06-23T13:56:46Z</time>
      </trkpt>
      <trkpt lat="48.03836" lon="6.92829">
        <ele>859.44</ele>
        <time>2021-06-23T13:56:49Z</time>
      </trkpt>
      <trkpt lat="48.03871" lon="6.92853">
        <ele>861.13</ele>
        <time>2021-06-23T13:56:51Z</time>
      </trkpt>
      <trkpt lat="48.03889" lon="6.92869">
        <ele>862.15</ele>
        <time>2021-06-23T13:56:54Z</time>
      </trkpt>
      <trkpt lat="48.03898" lon="6.92881">
        <ele>862.1</ele>
        <time>2021-06-23T13:56:56Z</time>
      </trkpt>
      <trkpt lat="48.03909" lon="6.92921">
        <ele>859.3</ele>
        <time>2021-06-23T13:56:59Z</time>
      </trkpt>
      <trkpt lat="48.03919" lon="6.92943">
        <ele>857.2</ele>
        <time>2021-06-23T13:57:01Z</time>
      </trkpt>
      <trkpt lat="48.03948" lon="6.92989">
        <ele>856.27</ele>
        <time>2021-06-23T13:57:03Z</time>
      </trkpt>
      <trkpt lat="48.03974" lon="6.93024">
        <ele>857.99</ele>
        <time>2021-06-23T13:57:06Z</time>
      </trkpt>
      <trkpt lat="48.03998" lon="6.93073">
        <ele>859.93</ele>
        <time>2021-06-23T13:57:08Z</time>
      </trkpt>
      <trkpt lat="48.04008" lon="6.93087">
        <ele>860</ele>
        <time>2021-06-23T13:57:11Z</time>
      </trkpt>
      <trkpt lat="48.04025" lon="6.93103">
        <ele>860</ele>
        <time>2021-06-23T13:57:13Z</time>
      </trkpt>
      <trkpt lat="48.04088" lon="6.93147">
        <ele>860.17</ele>
        <time>2021-06-23T13:57:16Z</time>
      </trkpt>
      <trkpt lat="48.04101" lon="6.93153">
        <ele>860.64</ele>
        <time>2021-06-23T13:57:18Z</time>
      </trkpt>
      <trkpt lat="48.04172" lon="6.93174">
        <ele>862.53</ele>
        <time>2021-06-23T13:57:21Z</time>
      </trkpt>
      <trkpt lat="48.042" lon="6.93185">
        <ele>864.17</ele>
        <time>2021-06-23T13:57:23Z</time>
      </trkpt>
      <trkpt lat="48.0425" lon="6.93208">
        <ele>861.53</ele>
        <time>2021-06-23T13:57:26Z</time>
      </trkpt>
      <trkpt lat="48.04323" lon="6.93255">
        <ele>860.69</ele>
        <time>2021-06-23T13:57:28Z</time>
      </trkpt>
      <trkpt lat="48.04337" lon="6.93265">
        <ele>861.28</ele>
        <time>2021-06-23T13:57:31Z</time>
      </trkpt>
      <trkpt lat="48.04357" lon="6.93292">
        <ele>863.19</ele>
        <time>2021-06-23T13:57:33Z</time>
      </trkpt>
      <trkpt lat="48.04377" lon="6.93328">
        <ele>866.27</ele>
        <time>2021-06-23T13:57:36Z</time>
      </trkpt>
      <trkpt lat="48.04381" lon="6.93339">
        <ele>866.84</ele>
        <time>2021-06-23T13:57:38Z</time>
      </trkpt>
      <trkpt lat="48.0439" lon="6.93375">
        <ele>868.47</ele>
        <time>2021-06-23T13:57:41Z</time>
      </trkpt>
      <trkpt lat="48.04398" lon="6.93391">
        <ele>869.74</ele>
        <time>2021-06-23T13:57:43Z</time>
      </trkpt>
      <trkpt lat="48.04408" lon="6.934">
        <ele>869.98</ele>
        <time>2021-06-23T13:57:46Z</time>
      </trkpt>
      <trkpt lat="48.04418" lon="6.93403">
        <ele>870.08</ele>
        <time>2021-06-23T13:57:48Z</time>
      </trkpt>
      <trkpt lat="48.04431" lon="6.93403">
        <ele>870.76</ele>
        <time>2021-06-23T13:57:51Z</time>
      </trkpt>
      <trkpt lat="48.04503" lon="6.93391">
        <ele>876.1</ele>
        <time>2021-06-23T13:57:53Z</time>
      </trkpt>
      <trkpt lat="48.04523" lon="6.93395">
        <ele>874.84</ele>
        <time>2021-06-23T13:57:56Z</time>
      </trkpt>
      <trkpt lat="48.04531" lon="6.934">
        <ele>874.28</ele>
        <time>2021-06-23T13:57:58Z</time>
      </trkpt>
      <trkpt lat="48.04536" lon="6.93406">
        <ele>873.78</ele>
        <time>2021-06-23T13:58:01Z</time>
      </trkpt>
      <trkpt lat="48.04539" lon="6.93414">
        <ele>873.53</ele>
        <time>2021-06-23T13:58:03Z</time>
      </trkpt>
      <trkpt lat="48.0454" lon="6.93434">
        <ele>875.24</ele>
        <time>2021-06-23T13:58:06Z</time>
      </trkpt>
      <trkpt lat="48.04528" lon="6.93489">
        <ele>886.8</ele>
        <time>2021-06-23T13:58:08Z</time>
      </trkpt>
      <trkpt lat="48.04528" lon="6.935">
        <ele>887.85</ele>
        <time>2021-06-23T13:58:11Z</time>
      </trkpt>
      <trkpt lat="48.04529" lon="6.93511">
        <ele>887.91</ele>
        <time>2021-06-23T13:58:13Z</time>
      </trkpt>
      <trkpt lat="48.04541" lon="6.93536">
        <ele>886.76</ele>
        <time>2021-06-23T13:58:16Z</time>
      </trkpt>
      <trkpt lat="48.04598" lon="6.93605">
        <ele>894.63</ele>
        <time>2021-06-23T13:58:18Z</time>
      </trkpt>
      <trkpt lat="48.04615" lon="6.93617">
        <ele>894.43</ele>
        <time>2021-06-23T13:58:21Z</time>
      </trkpt>
      <trkpt lat="48.04631" lon="6.93623">
        <ele>893.47</ele>
        <time>2021-06-23T13:58:23Z</time>
      </trkpt>
      <trkpt lat="48.04706" lon="6.93664">
        <ele>896.22</ele>
        <time>2021-06-23T13:58:26Z</time>
      </trkpt>
      <trkpt lat="48.04776" lon="6.93727">
        <ele>894.57</ele>
        <time>2021-06-23T13:58:28Z</time>
      </trkpt>
      <trkpt lat="48.04794" lon="6.93748">
        <ele>896</ele>
        <time>2021-06-23T13:58:31Z</time>
      </trkpt>
      <trkpt lat="48.04821" lon="6.93788">
        <ele>899.86</ele>
        <time>2021-06-23T13:58:33Z</time>
      </trkpt>
      <trkpt lat="48.04855" lon="6.93833">
        <ele>907.36</ele>
        <time>2021-06-23T13:58:36Z</time>
      </trkpt>
      <trkpt lat="48.04885" lon="6.9387">
        <ele>905.64</ele>
        <time>2021-06-23T13:58:38Z</time>
      </trkpt>
      <trkpt lat="48.0492" lon="6.93908">
        <ele>905.73</ele>
        <time>2021-06-23T13:58:41Z</time>
      </trkpt>
      <trkpt lat="48.04974" lon="6.93981">
        <ele>908.11</ele>
        <time>2021-06-23T13:58:43Z</time>
      </trkpt>
      <trkpt lat="48.05036" lon="6.9405">
        <ele>914.74</ele>
        <time>2021-06-23T13:58:46Z</time>
      </trkpt>
      <trkpt lat="48.05046" lon="6.94063">
        <ele>914.37</ele>
        <time>2021-06-23T13:58:48Z</time>
      </trkpt>
      <trkpt lat="48.05063" lon="6.94119">
        <ele>914.79</ele>
        <time>2021-06-23T13:58:51Z</time>
      </trkpt>
      <trkpt lat="48.05074" lon="6.94146">
        <ele>914</ele>
        <time>2021-06-23T13:58:53Z</time>
      </trkpt>
      <trkpt lat="48.05121" lon="6.94242">
        <ele>911.22</ele>
        <time>2021-06-23T13:58:56Z</time>
      </trkpt>
      <trkpt lat="48.05176" lon="6.94343">
        <ele>909.65</ele>
        <time>2021-06-23T13:58:58Z</time>
      </trkpt>
      <trkpt lat="48.05255" lon="6.94571">
        <ele>910.63</ele>
        <time>2021-06-23T13:59:01Z</time>
      </trkpt>
      <trkpt lat="48.05286" lon="6.94634">
        <ele>912.59</ele>
        <time>2021-06-23T13:59:03Z</time>
      </trkpt>
      <trkpt lat="48.05292" lon="6.94655">
        <ele>912.8</ele>
        <time>2021-06-23T13:59:06Z</time>
      </trkpt>
      <trkpt lat="48.05295" lon="6.94677">
        <ele>912.77</ele>
        <time>2021-06-23T13:59:08Z</time>
      </trkpt>
      <trkpt lat="48.05296" lon="6.94733">
        <ele>915</ele>
        <time>2021-06-23T13:59:11Z</time>
      </trkpt>
      <trkpt lat="48.05295" lon="6.94752">
        <ele>916.01</ele>
        <time>2021-06-23T13:59:13Z</time>
      </trkpt>
      <trkpt lat="48.05292" lon="6.94772">
        <ele>915.99</ele>
        <time>2021-06-23T13:59:16Z</time>
      </trkpt>
      <trkpt lat="48.05282" lon="6.94794">
        <ele>916.08</ele>
        <time>2021-06-23T13:59:18Z</time>
      </trkpt>
      <trkpt lat="48.05258" lon="6.94821">
        <ele>917.08</ele>
        <time>2021-06-23T13:59:21Z</time>
      </trkpt>
      <trkpt lat="48.05189" lon="6.94862">
        <ele>923.09</ele>
        <time>2021-06-23T13:59:23Z</time>
      </trkpt>
      <trkpt lat="48.0517" lon="6.9488">
        <ele>924.6</ele>
        <time>2021-06-23T13:59:26Z</time>
      </trkpt>
      <trkpt lat="48.05128" lon="6.94916">
        <ele>924.98</ele>
        <time>2021-06-23T13:59:28Z</time>
      </trkpt>
      <trkpt lat="48.05115" lon="6.94931">
        <ele>926.09</ele>
        <time>2021-06-23T13:59:31Z</time>
      </trkpt>
      <trkpt lat="48.05108" lon="6.94944">
        <ele>926.95</ele>
        <time>2021-06-23T13:59:33Z</time>
      </trkpt>
      <trkpt lat="48.05101" lon="6.94968">
        <ele>931.27</ele>
        <time>2021-06-23T13:59:36Z</time>
      </trkpt>
      <trkpt lat="48.05087" lon="6.94999">
        <ele>936.89</ele>
        <time>2021-06-23T13:59:38Z</time>
      </trkpt>
      <trkpt lat="48.05044" lon="6.95062">
        <ele>938.74</ele>
        <time>2021-06-23T13:59:41Z</time>
      </trkpt>
      <trkpt lat="48.05031" lon="6.95085">
        <ele>938.58</ele>
        <time>2021-06-23T13:59:43Z</time>
      </trkpt>
      <trkpt lat="48.05" lon="6.95175">
        <ele>943.88</ele>
        <time>2021-06-23T13:59:46Z</time>
      </trkpt>
      <trkpt lat="48.04933" lon="6.9532">
        <ele>951.93</ele>
        <time>2021-06-23T13:59:48Z</time>
      </trkpt>
      <trkpt lat="48.04916" lon="6.95399">
        <ele>961.4</ele>
        <time>2021-06-23T13:59:51Z</time>
      </trkpt>
      <trkpt lat="48.04869" lon="6.95545">
        <ele>971.1</ele>
        <time>2021-06-23T13:59:53Z</time>
      </trkpt>
      <trkpt lat="48.04855" lon="6.95635">
        <ele>972.85</ele>
        <time>2021-06-23T13:59:56Z</time>
      </trkpt>
      <trkpt lat="48.04844" lon="6.95835">
        <ele>980.29</ele>
        <time>2021-06-23T13:59:58Z</time>
      </trkpt>
      <trkpt lat="48.04836" lon="6.95884">
        <ele>979.29</ele>
        <time>2021-06-23T14:00:01Z</time>
      </trkpt>
      <trkpt lat="48.04836" lon="6.95973">
        <ele>978.58</ele>
        <time>2021-06-23T14:00:03Z</time>
      </trkpt>
      <trkpt lat="48.04828" lon="6.96093">
        <ele>981.56</ele>
        <time>2021-06-23T14:00:06Z</time>
      </trkpt>
      <trkpt lat="48.04831" lon="6.96113">
        <ele>982</ele>
        <time>2021-06-23T14:00:08Z</time>
      </trkpt>
      <trkpt lat="48.04841" lon="6.96145">
        <ele>983.29</ele>
        <time>2021-06-23T14:00:11Z</time>
      </trkpt>
      <trkpt lat="48.04844" lon="6.9616">
        <ele>983.39</ele>
        <time>2021-06-23T14:00:13Z</time>
      </trkpt>
      <trkpt lat="48.04844" lon="6.96186">
        <ele>983.54</ele>
        <time>2021-06-23T14:00:16Z</time>
      </trkpt>
      <trkpt lat="48.04837" lon="6.96235">
        <ele>985.52</ele>
        <time>2021-06-23T14:00:18Z</time>
      </trkpt>
      <trkpt lat="48.0482" lon="6.96328">
        <ele>989.6</ele>
        <time>2021-06-23T14:00:21Z</time>
      </trkpt>
      <trkpt lat="48.04818" lon="6.96382">
        <ele>992.23</ele>
        <time>2021-06-23T14:00:23Z</time>
      </trkpt>
      <trkpt lat="48.04814" lon="6.9644">
        <ele>989.83</ele>
        <time>2021-06-23T14:00:26Z</time>
      </trkpt>
      <trkpt lat="48.04807" lon="6.96459">
        <ele>988.56</ele>
        <time>2021-06-23T14:00:28Z</time>
      </trkpt>
      <trkpt lat="48.04763" lon="6.96529">
        <ele>989.07</ele>
        <time>2021-06-23T14:00:31Z</time>
      </trkpt>
      <trkpt lat="48.04751" lon="6.96562">
        <ele>989.2</ele>
        <time>2021-06-23T14:00:33Z</time>
      </trkpt>
      <trkpt lat="48.04744" lon="6.96592">
        <ele>991.12</ele>
        <time>2021-06-23T14:00:36Z</time>
      </trkpt>
      <trkpt lat="48.04742" lon="6.9664">
        <ele>993.34</ele>
        <time>2021-06-23T14:00:38Z</time>
      </trkpt>
      <trkpt lat="48.04746" lon="6.9671">
        <ele>995.07</ele>
        <time>2021-06-23T14:00:41Z</time>
      </trkpt>
      <trkpt lat="48.04744" lon="6.96737">
        <ele>995.21</ele>
        <time>2021-06-23T14:00:43Z</time>
      </trkpt>
      <trkpt lat="48.04728" lon="6.96804">
        <ele>996</ele>
        <time>2021-06-23T14:00:46Z</time>
      </trkpt>
      <trkpt lat="48.04702" lon="6.96872">
        <ele>993.8</ele>
        <time>2021-06-23T14:00:48Z</time>
      </trkpt>
      <trkpt lat="48.04701" lon="6.96885">
        <ele>992.6</ele>
        <time>2021-06-23T14:00:51Z</time>
      </trkpt>
      <trkpt lat="48.04702" lon="6.96898">
        <ele>991.27</ele>
        <time>2021-06-23T14:00:53Z</time>
      </trkpt>
      <trkpt lat="48.04731" lon="6.97046">
        <ele>985.18</ele>
        <time>2021-06-23T14:00:56Z</time>
      </trkpt>
      <trkpt lat="48.04734" lon="6.97107">
        <ele>984.77</ele>
        <time>2021-06-23T14:00:58Z</time>
      </trkpt>
      <trkpt lat="48.04731" lon="6.97139">
        <ele>981.47</ele>
        <time>2021-06-23T14:01:01Z</time>
      </trkpt>
      <trkpt lat="48.0472" lon="6.97176">
        <ele>978.46</ele>
        <time>2021-06-23T14:01:03Z</time>
      </trkpt>
      <trkpt lat="48.04718" lon="6.97194">
        <ele>977.92</ele>
        <time>2021-06-23T14:01:06Z</time>
      </trkpt>
      <trkpt lat="48.0472" lon="6.97215">
        <ele>976.14</ele>
        <time>2021-06-23T14:01:08Z</time>
      </trkpt>
      <trkpt lat="48.04742" lon="6.97276">
        <ele>973.36</ele>
        <time>2021-06-23T14:01:10Z</time>
      </trkpt>
      <trkpt lat="48.04754" lon="6.973">
        <ele>973.34</ele>
        <time>2021-06-23T14:01:13Z</time>
      </trkpt>
      <trkpt lat="48.04773" lon="6.97327">
        <ele>972.95</ele>
        <time>2021-06-23T14:01:15Z</time>
      </trkpt>
      <trkpt lat="48.04778" lon="6.9734">
        <ele>970.96</ele>
        <time>2021-06-23T14:01:18Z</time>
      </trkpt>
      <trkpt lat="48.04782" lon="6.97352">
        <ele>968.8</ele>
        <time>2021-06-23T14:01:20Z</time>
      </trkpt>
      <trkpt lat="48.04784" lon="6.97372">
        <ele>965.13</ele>
        <time>2021-06-23T14:01:23Z</time>
      </trkpt>
      <trkpt lat="48.04784" lon="6.97437">
        <ele>959.58</ele>
        <time>2021-06-23T14:01:25Z</time>
      </trkpt>
      <trkpt lat="48.04777" lon="6.97479">
        <ele>960.79</ele>
        <time>2021-06-23T14:01:28Z</time>
      </trkpt>
      <trkpt lat="48.0477" lon="6.97515">
        <ele>958.07</ele>
        <time>2021-06-23T14:01:30Z</time>
      </trkpt>
      <trkpt lat="48.04761" lon="6.9758">
        <ele>957.5</ele>
        <time>2021-06-23T14:01:33Z</time>
      </trkpt>
      <trkpt lat="48.04777" lon="6.97591">
        <ele>960.11</ele>
        <time>2021-06-23T14:01:35Z</time>
      </trkpt>
      <trkpt lat="48.04786" lon="6.97601">
        <ele>962.11</ele>
        <time>2021-06-23T14:01:38Z</time>
      </trkpt>
      <trkpt lat="48.04813" lon="6.97638">
        <ele>966.35</ele>
        <time>2021-06-23T14:01:40Z</time>
      </trkpt>
      <trkpt lat="48.04838" lon="6.97677">
        <ele>959.04</ele>
        <time>2021-06-23T14:01:42Z</time>
      </trkpt>
      <trkpt lat="48.04851" lon="6.97703">
        <ele>954.43</ele>
        <time>2021-06-23T14:01:45Z</time>
      </trkpt>
      <trkpt lat="48.04874" lon="6.97798">
        <ele>957.53</ele>
        <time>2021-06-23T14:01:47Z</time>
      </trkpt>
      <trkpt lat="48.04926" lon="6.97888">
        <ele>946.71</ele>
        <time>2021-06-23T14:01:49Z</time>
      </trkpt>
      <trkpt lat="48.04946" lon="6.97934">
        <ele>944.42</ele>
        <time>2021-06-23T14:01:52Z</time>
      </trkpt>
      <trkpt lat="48.04983" lon="6.98058">
        <ele>941.65</ele>
        <time>2021-06-23T14:01:54Z</time>
      </trkpt>
      <trkpt lat="48.04989" lon="6.98085">
        <ele>941.12</ele>
        <time>2021-06-23T14:01:57Z</time>
      </trkpt>
      <trkpt lat="48.04992" lon="6.98107">
        <ele>941.76</ele>
        <time>2021-06-23T14:01:59Z</time>
      </trkpt>
      <trkpt lat="48.04996" lon="6.98154">
        <ele>942.18</ele>
        <time>2021-06-23T14:02:01Z</time>
      </trkpt>
      <trkpt lat="48.05022" lon="6.98264">
        <ele>928.18</ele>
        <time>2021-06-23T14:02:04Z</time>
      </trkpt>
      <trkpt lat="48.05027" lon="6.98299">
        <ele>925.51</ele>
        <time>2021-06-23T14:02:06Z</time>
      </trkpt>
      <trkpt lat="48.05026" lon="6.98327">
        <ele>926.85</ele>
        <time>2021-06-23T14:02:08Z</time>
      </trkpt>
      <trkpt lat="48.05022" lon="6.98349">
        <ele>929.3</ele>
        <time>2021-06-23T14:02:11Z</time>
      </trkpt>
      <trkpt lat="48.05012" lon="6.98385">
        <ele>937.27</ele>
        <time>2021-06-23T14:02:13Z</time>
      </trkpt>
      <trkpt lat="48.05007" lon="6.9842">
        <ele>940.9</ele>
        <time>2021-06-23T14:02:15Z</time>
      </trkpt>
      <trkpt lat="48.05007" lon="6.98442">
        <ele>937.31</ele>
        <time>2021-06-23T14:02:18Z</time>
      </trkpt>
      <trkpt lat="48.05012" lon="6.98485">
        <ele>926.31</ele>
        <time>2021-06-23T14:02:20Z</time>
      </trkpt>
      <trkpt lat="48.05012" lon="6.98503">
        <ele>925.12</ele>
        <time>2021-06-23T14:02:22Z</time>
      </trkpt>
      <trkpt lat="48.05004" lon="6.98552">
        <ele>929.08</ele>
        <time>2021-06-23T14:02:25Z</time>
      </trkpt>
      <trkpt lat="48.04995" lon="6.98689">
        <ele>923.49</ele>
        <time>2021-06-23T14:02:27Z</time>
      </trkpt>
      <trkpt lat="48.04991" lon="6.98716">
        <ele>921.07</ele>
        <time>2021-06-23T14:02:29Z</time>
      </trkpt>
      <trkpt lat="48.04995" lon="6.98719">
        <ele>917.57</ele>
        <time>2021-06-23T14:02:32Z</time>
      </trkpt>
      <trkpt lat="48.05002" lon="6.98719">
        <ele>913.92</ele>
        <time>2021-06-23T14:02:35Z</time>
      </trkpt>
      <trkpt lat="48.05006" lon="6.98716">
        <ele>912.84</ele>
        <time>2021-06-23T14:02:37Z</time>
      </trkpt>
      <trkpt lat="48.05011" lon="6.9871">
        <ele>912.28</ele>
        <time>2021-06-23T14:02:40Z</time>
      </trkpt>
      <trkpt lat="48.05014" lon="6.98699">
        <ele>912.52</ele>
        <time>2021-06-23T14:02:42Z</time>
      </trkpt>
      <trkpt lat="48.05014" lon="6.98688">
        <ele>913.43</ele>
        <time>2021-06-23T14:02:45Z</time>
      </trkpt>
      <trkpt lat="48.05012" lon="6.98665">
        <ele>916.62</ele>
        <time>2021-06-23T14:02:47Z</time>
      </trkpt>
      <trkpt lat="48.05012" lon="6.98646">
        <ele>918.17</ele>
        <time>2021-06-23T14:02:50Z</time>
      </trkpt>
      <trkpt lat="48.05017" lon="6.98617">
        <ele>917.06</ele>
        <time>2021-06-23T14:02:52Z</time>
      </trkpt>
      <trkpt lat="48.05022" lon="6.98562">
        <ele>914.55</ele>
        <time>2021-06-23T14:02:55Z</time>
      </trkpt>
      <trkpt lat="48.05026" lon="6.9854">
        <ele>911.91</ele>
        <time>2021-06-23T14:02:57Z</time>
      </trkpt>
      <trkpt lat="48.05037" lon="6.98514">
        <ele>906.83</ele>
        <time>2021-06-23T14:03:00Z</time>
      </trkpt>
      <trkpt lat="48.05041" lon="6.98497">
        <ele>905.96</ele>
        <time>2021-06-23T14:03:02Z</time>
      </trkpt>
      <trkpt lat="48.05042" lon="6.98484">
        <ele>906.93</ele>
        <time>2021-06-23T14:03:05Z</time>
      </trkpt>
      <trkpt lat="48.0504" lon="6.98444">
        <ele>913.54</ele>
        <time>2021-06-23T14:03:08Z</time>
      </trkpt>
      <trkpt lat="48.05042" lon="6.98427">
        <ele>912.66</ele>
        <time>2021-06-23T14:03:10Z</time>
      </trkpt>
      <trkpt lat="48.05047" lon="6.98405">
        <ele>910.06</ele>
        <time>2021-06-23T14:03:13Z</time>
      </trkpt>
      <trkpt lat="48.05054" lon="6.98383">
        <ele>905.08</ele>
        <time>2021-06-23T14:03:15Z</time>
      </trkpt>
      <trkpt lat="48.05074" lon="6.98343">
        <ele>893.27</ele>
        <time>2021-06-23T14:03:18Z</time>
      </trkpt>
      <trkpt lat="48.05083" lon="6.98314">
        <ele>888.11</ele>
        <time>2021-06-23T14:03:20Z</time>
      </trkpt>
      <trkpt lat="48.05086" lon="6.98287">
        <ele>888.59</ele>
        <time>2021-06-23T14:03:23Z</time>
      </trkpt>
      <trkpt lat="48.05086" lon="6.9821">
        <ele>891.83</ele>
        <time>2021-06-23T14:03:25Z</time>
      </trkpt>
      <trkpt lat="48.05091" lon="6.98169">
        <ele>890.76</ele>
        <time>2021-06-23T14:03:28Z</time>
      </trkpt>
      <trkpt lat="48.05129" lon="6.98018">
        <ele>874.18</ele>
        <time>2021-06-23T14:03:30Z</time>
      </trkpt>
      <trkpt lat="48.0517" lon="6.97908">
        <ele>869.71</ele>
        <time>2021-06-23T14:03:33Z</time>
      </trkpt>
      <trkpt lat="48.05175" lon="6.97898">
        <ele>872.59</ele>
        <time>2021-06-23T14:03:35Z</time>
      </trkpt>
      <trkpt lat="48.05181" lon="6.97893">
        <ele>873.72</ele>
        <time>2021-06-23T14:03:38Z</time>
      </trkpt>
      <trkpt lat="48.05194" lon="6.97892">
        <ele>872.16</ele>
        <time>2021-06-23T14:03:41Z</time>
      </trkpt>
      <trkpt lat="48.05198" lon="6.97897">
        <ele>870.59</ele>
        <time>2021-06-23T14:03:43Z</time>
      </trkpt>
      <trkpt lat="48.052" lon="6.97902">
        <ele>869.22</ele>
        <time>2021-06-23T14:03:46Z</time>
      </trkpt>
      <trkpt lat="48.05202" lon="6.97913">
        <ele>866.18</ele>
        <time>2021-06-23T14:03:48Z</time>
      </trkpt>
      <trkpt lat="48.05202" lon="6.97924">
        <ele>863.93</ele>
        <time>2021-06-23T14:03:51Z</time>
      </trkpt>
      <trkpt lat="48.05186" lon="6.97974">
        <ele>860.31</ele>
        <time>2021-06-23T14:03:53Z</time>
      </trkpt>
      <trkpt lat="48.0518" lon="6.98011">
        <ele>857.24</ele>
        <time>2021-06-23T14:03:56Z</time>
      </trkpt>
      <trkpt lat="48.05181" lon="6.98032">
        <ele>855.5</ele>
        <time>2021-06-23T14:03:58Z</time>
      </trkpt>
      <trkpt lat="48.05193" lon="6.98112">
        <ele>855.25</ele>
        <time>2021-06-23T14:04:01Z</time>
      </trkpt>
      <trkpt lat="48.05192" lon="6.98141">
        <ele>855.26</ele>
        <time>2021-06-23T14:04:03Z</time>
      </trkpt>
      <trkpt lat="48.05182" lon="6.98229">
        <ele>853.65</ele>
        <time>2021-06-23T14:04:06Z</time>
      </trkpt>
      <trkpt lat="48.05179" lon="6.98335">
        <ele>852.08</ele>
        <time>2021-06-23T14:04:08Z</time>
      </trkpt>
      <trkpt lat="48.05176" lon="6.98362">
        <ele>850.34</ele>
        <time>2021-06-23T14:04:11Z</time>
      </trkpt>
      <trkpt lat="48.05172" lon="6.9838">
        <ele>850.77</ele>
        <time>2021-06-23T14:04:14Z</time>
      </trkpt>
      <trkpt lat="48.05163" lon="6.9841">
        <ele>851.06</ele>
        <time>2021-06-23T14:04:16Z</time>
      </trkpt>
      <trkpt lat="48.0516" lon="6.98428">
        <ele>851.42</ele>
        <time>2021-06-23T14:04:19Z</time>
      </trkpt>
      <trkpt lat="48.05159" lon="6.98508">
        <ele>850.84</ele>
        <time>2021-06-23T14:04:21Z</time>
      </trkpt>
      <trkpt lat="48.05165" lon="6.98587">
        <ele>839.06</ele>
        <time>2021-06-23T14:04:24Z</time>
      </trkpt>
      <trkpt lat="48.05173" lon="6.98642">
        <ele>837.28</ele>
        <time>2021-06-23T14:04:26Z</time>
      </trkpt>
      <trkpt lat="48.05186" lon="6.98697">
        <ele>831.27</ele>
        <time>2021-06-23T14:04:29Z</time>
      </trkpt>
      <trkpt lat="48.05189" lon="6.98717">
        <ele>830.29</ele>
        <time>2021-06-23T14:04:31Z</time>
      </trkpt>
      <trkpt lat="48.05189" lon="6.98768">
        <ele>830.34</ele>
        <time>2021-06-23T14:04:34Z</time>
      </trkpt>
      <trkpt lat="48.05191" lon="6.98793">
        <ele>828.85</ele>
        <time>2021-06-23T14:04:36Z</time>
      </trkpt>
      <trkpt lat="48.05197" lon="6.98815">
        <ele>826.46</ele>
        <time>2021-06-23T14:04:39Z</time>
      </trkpt>
      <trkpt lat="48.05205" lon="6.98835">
        <ele>824.39</ele>
        <time>2021-06-23T14:04:41Z</time>
      </trkpt>
      <trkpt lat="48.05246" lon="6.98884">
        <ele>822.05</ele>
        <time>2021-06-23T14:04:44Z</time>
      </trkpt>
      <trkpt lat="48.05256" lon="6.98893">
        <ele>821.9</ele>
        <time>2021-06-23T14:04:46Z</time>
      </trkpt>
      <trkpt lat="48.05269" lon="6.98899">
        <ele>821.6</ele>
        <time>2021-06-23T14:04:49Z</time>
      </trkpt>
      <trkpt lat="48.0535" lon="6.98899">
        <ele>815.42</ele>
        <time>2021-06-23T14:04:52Z</time>
      </trkpt>
      <trkpt lat="48.05378" lon="6.98894">
        <ele>813.17</ele>
        <time>2021-06-23T14:04:54Z</time>
      </trkpt>
      <trkpt lat="48.05392" lon="6.98887">
        <ele>811.84</ele>
        <time>2021-06-23T14:04:57Z</time>
      </trkpt>
      <trkpt lat="48.05408" lon="6.98877">
        <ele>810.99</ele>
        <time>2021-06-23T14:04:59Z</time>
      </trkpt>
      <trkpt lat="48.05425" lon="6.98861">
        <ele>810.15</ele>
        <time>2021-06-23T14:05:02Z</time>
      </trkpt>
      <trkpt lat="48.05474" lon="6.98796">
        <ele>800.24</ele>
        <time>2021-06-23T14:05:04Z</time>
      </trkpt>
      <trkpt lat="48.05493" lon="6.98776">
        <ele>795.49</ele>
        <time>2021-06-23T14:05:07Z</time>
      </trkpt>
      <trkpt lat="48.05505" lon="6.98766">
        <ele>794.76</ele>
        <time>2021-06-23T14:05:09Z</time>
      </trkpt>
      <trkpt lat="48.05518" lon="6.98761">
        <ele>795.07</ele>
        <time>2021-06-23T14:05:12Z</time>
      </trkpt>
      <trkpt lat="48.05538" lon="6.98758">
        <ele>795.9</ele>
        <time>2021-06-23T14:05:14Z</time>
      </trkpt>
      <trkpt lat="48.05582" lon="6.98757">
        <ele>797.57</ele>
        <time>2021-06-23T14:05:17Z</time>
      </trkpt>
      <trkpt lat="48.05606" lon="6.98747">
        <ele>797.73</ele>
        <time>2021-06-23T14:05:19Z</time>
      </trkpt>
      <trkpt lat="48.05649" lon="6.98704">
        <ele>791.68</ele>
        <time>2021-06-23T14:05:22Z</time>
      </trkpt>
      <trkpt lat="48.05695" lon="6.98663">
        <ele>784.46</ele>
        <time>2021-06-23T14:05:25Z</time>
      </trkpt>
      <trkpt lat="48.05731" lon="6.98624">
        <ele>783.68</ele>
        <time>2021-06-23T14:05:27Z</time>
      </trkpt>
      <trkpt lat="48.05775" lon="6.9858">
        <ele>782.42</ele>
        <time>2021-06-23T14:05:30Z</time>
      </trkpt>
      <trkpt lat="48.05825" lon="6.98536">
        <ele>786.16</ele>
        <time>2021-06-23T14:05:32Z</time>
      </trkpt>
      <trkpt lat="48.05846" lon="6.98514">
        <ele>787.01</ele>
        <time>2021-06-23T14:05:35Z</time>
      </trkpt>
      <trkpt lat="48.05864" lon="6.98493">
        <ele>789.93</ele>
        <time>2021-06-23T14:05:37Z</time>
      </trkpt>
      <trkpt lat="48.05898" lon="6.98446">
        <ele>795.08</ele>
        <time>2021-06-23T14:05:40Z</time>
      </trkpt>
      <trkpt lat="48.05905" lon="6.98428">
        <ele>794.7</ele>
        <time>2021-06-23T14:05:42Z</time>
      </trkpt>
      <trkpt lat="48.05909" lon="6.98411">
        <ele>794.01</ele>
        <time>2021-06-23T14:05:45Z</time>
      </trkpt>
      <trkpt lat="48.05913" lon="6.9839">
        <ele>793.22</ele>
        <time>2021-06-23T14:05:47Z</time>
      </trkpt>
      <trkpt lat="48.05915" lon="6.98366">
        <ele>793.53</ele>
        <time>2021-06-23T14:05:50Z</time>
      </trkpt>
      <trkpt lat="48.05914" lon="6.98352">
        <ele>793.74</ele>
        <time>2021-06-23T14:05:52Z</time>
      </trkpt>
      <trkpt lat="48.05912" lon="6.9834">
        <ele>793.86</ele>
        <time>2021-06-23T14:05:55Z</time>
      </trkpt>
      <trkpt lat="48.05907" lon="6.98327">
        <ele>793.34</ele>
        <time>2021-06-23T14:05:58Z</time>
      </trkpt>
      <trkpt lat="48.0588" lon="6.9829">
        <ele>791</ele>
        <time>2021-06-23T14:06:00Z</time>
      </trkpt>
      <trkpt lat="48.05878" lon="6.98282">
        <ele>790.68</ele>
        <time>2021-06-23T14:06:03Z</time>
      </trkpt>
      <trkpt lat="48.05877" lon="6.98272">
        <ele>790.26</ele>
        <time>2021-06-23T14:06:05Z</time>
      </trkpt>
      <trkpt lat="48.05882" lon="6.98255">
        <ele>789.33</ele>
        <time>2021-06-23T14:06:08Z</time>
      </trkpt>
      <trkpt lat="48.05892" lon="6.98242">
        <ele>788.96</ele>
        <time>2021-06-23T14:06:10Z</time>
      </trkpt>
      <trkpt lat="48.05928" lon="6.98219">
        <ele>794.65</ele>
        <time>2021-06-23T14:06:13Z</time>
      </trkpt>
      <trkpt lat="48.05944" lon="6.98202">
        <ele>794.37</ele>
        <time>2021-06-23T14:06:15Z</time>
      </trkpt>
      <trkpt lat="48.05968" lon="6.98161">
        <ele>789.64</ele>
        <time>2021-06-23T14:06:18Z</time>
      </trkpt>
      <trkpt lat="48.0598" lon="6.98132">
        <ele>786.02</ele>
        <time>2021-06-23T14:06:20Z</time>
      </trkpt>
      <trkpt lat="48.05991" lon="6.9811">
        <ele>783.19</ele>
        <time>2021-06-23T14:06:23Z</time>
      </trkpt>
      <trkpt lat="48.06034" lon="6.98073">
        <ele>784.13</ele>
        <time>2021-06-23T14:06:25Z</time>
      </trkpt>
      <trkpt lat="48.06043" lon="6.98061">
        <ele>784.41</ele>
        <time>2021-06-23T14:06:28Z</time>
      </trkpt>
      <trkpt lat="48.06052" lon="6.98045">
        <ele>783.54</ele>
        <time>2021-06-23T14:06:31Z</time>
      </trkpt>
      <trkpt lat="48.0606" lon="6.9801">
        <ele>779.84</ele>
        <time>2021-06-23T14:06:33Z</time>
      </trkpt>
      <trkpt lat="48.06078" lon="6.97913">
        <ele>771.74</ele>
        <time>2021-06-23T14:06:36Z</time>
      </trkpt>
      <trkpt lat="48.061" lon="6.97844">
        <ele>771.07</ele>
        <time>2021-06-23T14:06:38Z</time>
      </trkpt>
      <trkpt lat="48.06106" lon="6.97813">
        <ele>770.85</ele>
        <time>2021-06-23T14:06:41Z</time>
      </trkpt>
      <trkpt lat="48.0611" lon="6.97782">
        <ele>769.07</ele>
        <time>2021-06-23T14:06:43Z</time>
      </trkpt>
      <trkpt lat="48.06113" lon="6.97732">
        <ele>768.81</ele>
        <time>2021-06-23T14:06:46Z</time>
      </trkpt>
      <trkpt lat="48.06113" lon="6.97682">
        <ele>770.9</ele>
        <time>2021-06-23T14:06:48Z</time>
      </trkpt>
      <trkpt lat="48.06116" lon="6.97647">
        <ele>772.04</ele>
        <time>2021-06-23T14:06:51Z</time>
      </trkpt>
      <trkpt lat="48.06122" lon="6.97614">
        <ele>772.58</ele>
        <time>2021-06-23T14:06:53Z</time>
      </trkpt>
      <trkpt lat="48.06145" lon="6.9754">
        <ele>772.36</ele>
        <time>2021-06-23T14:06:56Z</time>
      </trkpt>
      <trkpt lat="48.06151" lon="6.97517">
        <ele>773.89</ele>
        <time>2021-06-23T14:06:58Z</time>
      </trkpt>
      <trkpt lat="48.06154" lon="6.97493">
        <ele>775.03</ele>
        <time>2021-06-23T14:07:01Z</time>
      </trkpt>
      <trkpt lat="48.06155" lon="6.97428">
        <ele>774.84</ele>
        <time>2021-06-23T14:07:04Z</time>
      </trkpt>
      <trkpt lat="48.06152" lon="6.97363">
        <ele>775.43</ele>
        <time>2021-06-23T14:07:06Z</time>
      </trkpt>
      <trkpt lat="48.06159" lon="6.97283">
        <ele>768.1</ele>
        <time>2021-06-23T14:07:09Z</time>
      </trkpt>
      <trkpt lat="48.06166" lon="6.97185">
        <ele>764.75</ele>
        <time>2021-06-23T14:07:11Z</time>
      </trkpt>
      <trkpt lat="48.06171" lon="6.97144">
        <ele>764.89</ele>
        <time>2021-06-23T14:07:14Z</time>
      </trkpt>
      <trkpt lat="48.06178" lon="6.97116">
        <ele>763.91</ele>
        <time>2021-06-23T14:07:16Z</time>
      </trkpt>
      <trkpt lat="48.062" lon="6.97049">
        <ele>762.13</ele>
        <time>2021-06-23T14:07:19Z</time>
      </trkpt>
      <trkpt lat="48.06243" lon="6.96937">
        <ele>757.12</ele>
        <time>2021-06-23T14:07:21Z</time>
      </trkpt>
      <trkpt lat="48.06272" lon="6.96855">
        <ele>756.97</ele>
        <time>2021-06-23T14:07:24Z</time>
      </trkpt>
      <trkpt lat="48.0628" lon="6.96825">
        <ele>756.78</ele>
        <time>2021-06-23T14:07:26Z</time>
      </trkpt>
      <trkpt lat="48.06284" lon="6.96799">
        <ele>756.12</ele>
        <time>2021-06-23T14:07:29Z</time>
      </trkpt>
      <trkpt lat="48.06295" lon="6.96707">
        <ele>757.6</ele>
        <time>2021-06-23T14:07:31Z</time>
      </trkpt>
      <trkpt lat="48.06295" lon="6.96681">
        <ele>756.09</ele>
        <time>2021-06-23T14:07:34Z</time>
      </trkpt>
      <trkpt lat="48.06292" lon="6.96639">
        <ele>753.55</ele>
        <time>2021-06-23T14:07:37Z</time>
      </trkpt>
      <trkpt lat="48.06292" lon="6.96578">
        <ele>753.3</ele>
        <time>2021-06-23T14:07:39Z</time>
      </trkpt>
      <trkpt lat="48.06295" lon="6.96548">
        <ele>752.42</ele>
        <time>2021-06-23T14:07:42Z</time>
      </trkpt>
      <trkpt lat="48.06306" lon="6.9649">
        <ele>752.67</ele>
        <time>2021-06-23T14:07:44Z</time>
      </trkpt>
      <trkpt lat="48.06315" lon="6.96456">
        <ele>752.21</ele>
        <time>2021-06-23T14:07:47Z</time>
      </trkpt>
      <trkpt lat="48.0634" lon="6.96388">
        <ele>749.63</ele>
        <time>2021-06-23T14:07:49Z</time>
      </trkpt>
      <trkpt lat="48.06367" lon="6.96339">
        <ele>747.04</ele>
        <time>2021-06-23T14:07:52Z</time>
      </trkpt>
      <trkpt lat="48.06417" lon="6.96252">
        <ele>745.23</ele>
        <time>2021-06-23T14:07:54Z</time>
      </trkpt>
      <trkpt lat="48.06461" lon="6.96183">
        <ele>744.48</ele>
        <time>2021-06-23T14:07:57Z</time>
      </trkpt>
      <trkpt lat="48.06526" lon="6.96102">
        <ele>747.38</ele>
        <time>2021-06-23T14:07:59Z</time>
      </trkpt>
      <trkpt lat="48.06551" lon="6.96063">
        <ele>749.28</ele>
        <time>2021-06-23T14:08:02Z</time>
      </trkpt>
      <trkpt lat="48.06577" lon="6.9603">
        <ele>752.65</ele>
        <time>2021-06-23T14:08:04Z</time>
      </trkpt>
      <trkpt lat="48.06602" lon="6.96001">
        <ele>751.13</ele>
        <time>2021-06-23T14:08:07Z</time>
      </trkpt>
      <trkpt lat="48.06656" lon="6.95956">
        <ele>749.92</ele>
        <time>2021-06-23T14:08:10Z</time>
      </trkpt>
      <trkpt lat="48.06668" lon="6.95942">
        <ele>748.97</ele>
        <time>2021-06-23T14:08:12Z</time>
      </trkpt>
      <trkpt lat="48.06743" lon="6.95817">
        <ele>750.13</ele>
        <time>2021-06-23T14:08:15Z</time>
      </trkpt>
      <trkpt lat="48.06786" lon="6.95756">
        <ele>749.17</ele>
        <time>2021-06-23T14:08:17Z</time>
      </trkpt>
      <trkpt lat="48.06839" lon="6.95696">
        <ele>748.33</ele>
        <time>2021-06-23T14:08:20Z</time>
      </trkpt>
      <trkpt lat="48.06858" lon="6.95665">
        <ele>747.5</ele>
        <time>2021-06-23T14:08:22Z</time>
      </trkpt>
      <trkpt lat="48.06876" lon="6.95642">
        <ele>750.86</ele>
        <time>2021-06-23T14:08:25Z</time>
      </trkpt>
      <trkpt lat="48.06928" lon="6.956">
        <ele>752.45</ele>
        <time>2021-06-23T14:08:27Z</time>
      </trkpt>
      <trkpt lat="48.06989" lon="6.95537">
        <ele>754.38</ele>
        <time>2021-06-23T14:08:30Z</time>
      </trkpt>
      <trkpt lat="48.0707" lon="6.95435">
        <ele>756.71</ele>
        <time>2021-06-23T14:08:32Z</time>
      </trkpt>
      <trkpt lat="48.07237" lon="6.95275">
        <ele>755.99</ele>
        <time>2021-06-23T14:08:35Z</time>
      </trkpt>
      <trkpt lat="48.07274" lon="6.95228">
        <ele>752.99</ele>
        <time>2021-06-23T14:08:37Z</time>
      </trkpt>
      <trkpt lat="48.07289" lon="6.95217">
        <ele>753.76</ele>
        <time>2021-06-23T14:08:40Z</time>
      </trkpt>
      <trkpt lat="48.07408" lon="6.95138">
        <ele>748.93</ele>
        <time>2021-06-23T14:08:43Z</time>
      </trkpt>
      <trkpt lat="48.0744" lon="6.95124">
        <ele>754.49</ele>
        <time>2021-06-23T14:08:45Z</time>
      </trkpt>
      <trkpt lat="48.07483" lon="6.9509">
        <ele>751.54</ele>
        <time>2021-06-23T14:08:48Z</time>
      </trkpt>
      <trkpt lat="48.07514" lon="6.9508">
        <ele>750</ele>
        <time>2021-06-23T14:08:50Z</time>
      </trkpt>
      <trkpt lat="48.07554" lon="6.95085">
        <ele>750.75</ele>
        <time>2021-06-23T14:08:53Z</time>
      </trkpt>
      <trkpt lat="48.07587" lon="6.95078">
        <ele>749.13</ele>
        <time>2021-06-23T14:08:55Z</time>
      </trkpt>
      <trkpt lat="48.07635" lon="6.95055">
        <ele>749.78</ele>
        <time>2021-06-23T14:08:58Z</time>
      </trkpt>
      <trkpt lat="48.07678" lon="6.95042">
        <ele>757.22</ele>
        <time>2021-06-23T14:09:00Z</time>
      </trkpt>
      <trkpt lat="48.07723" lon="6.95022">
        <ele>756</ele>
        <time>2021-06-23T14:09:03Z</time>
      </trkpt>
      <trkpt lat="48.07771" lon="6.95005">
        <ele>757.71</ele>
        <time>2021-06-23T14:09:05Z</time>
      </trkpt>
      <trkpt lat="48.07811" lon="6.94984">
        <ele>754.74</ele>
        <time>2021-06-23T14:09:08Z</time>
      </trkpt>
      <trkpt lat="48.07833" lon="6.9497">
        <ele>753.61</ele>
        <time>2021-06-23T14:09:10Z</time>
      </trkpt>
      <trkpt lat="48.07862" lon="6.94943">
        <ele>750.78</ele>
        <time>2021-06-23T14:09:13Z</time>
      </trkpt>
      <trkpt lat="48.07927" lon="6.94896">
        <ele>752.06</ele>
        <time>2021-06-23T14:09:16Z</time>
      </trkpt>
      <trkpt lat="48.08012" lon="6.9481">
        <ele>750.21</ele>
        <time>2021-06-23T14:09:18Z</time>
      </trkpt>
      <trkpt lat="48.08029" lon="6.94795">
        <ele>749.87</ele>
        <time>2021-06-23T14:09:21Z</time>
      </trkpt>
      <trkpt lat="48.08048" lon="6.94785">
        <ele>749.86</ele>
        <time>2021-06-23T14:09:23Z</time>
      </trkpt>
      <trkpt lat="48.08222" lon="6.94716">
        <ele>744.79</ele>
        <time>2021-06-23T14:09:26Z</time>
      </trkpt>
      <trkpt lat="48.08234" lon="6.94716">
        <ele>744.77</ele>
        <time>2021-06-23T14:09:28Z</time>
      </trkpt>
      <trkpt lat="48.08246" lon="6.94726">
        <ele>745.39</ele>
        <time>2021-06-23T14:09:31Z</time>
      </trkpt>
      <trkpt lat="48.08255" lon="6.94747">
        <ele>747.8</ele>
        <time>2021-06-23T14:09:33Z</time>
      </trkpt>
      <trkpt lat="48.08257" lon="6.94755">
        <ele>748.99</ele>
        <time>2021-06-23T14:09:36Z</time>
      </trkpt>
      <trkpt lat="48.08268" lon="6.94746">
        <ele>748.13</ele>
        <time>2021-06-23T14:09:45Z</time>
      </trkpt>
      <trkpt lat="48.08292" lon="6.94719">
        <ele>745.82</ele>
        <time>2021-06-23T14:09:55Z</time>
      </trkpt>
      <trkpt lat="48.08306" lon="6.94697">
        <ele>745.2</ele>
        <time>2021-06-23T14:10:04Z</time>
      </trkpt>
      <trkpt lat="48.08317" lon="6.94662">
        <ele>745.37</ele>
        <time>2021-06-23T14:10:13Z</time>
      </trkpt>
      <trkpt lat="48.08321" lon="6.94642">
        <ele>746.08</ele>
        <time>2021-06-23T14:10:22Z</time>
      </trkpt>
      <trkpt lat="48.08323" lon="6.94598">
        <ele>746.53</ele>
        <time>2021-06-23T14:10:32Z</time>
      </trkpt>
      <trkpt lat="48.0831" lon="6.94487">
        <ele>748.52</ele>
        <time>2021-06-23T14:10:41Z</time>
      </trkpt>
      <trkpt lat="48.08312" lon="6.94414">
        <ele>747.72</ele>
        <time>2021-06-23T14:10:50Z</time>
      </trkpt>
      <trkpt lat="48.0835" lon="6.9373">
        <ele>733.76</ele>
        <time>2021-06-23T14:11:00Z</time>
      </trkpt>
      <trkpt lat="48.08381" lon="6.93299">
        <ele>726.28</ele>
        <time>2021-06-23T14:11:09Z</time>
      </trkpt>
      <trkpt lat="48.08392" lon="6.93125">
        <ele>730.16</ele>
        <time>2021-06-23T14:11:18Z</time>
      </trkpt>
      <trkpt lat="48.08399" lon="6.92975">
        <ele>726.57</ele>
        <time>2021-06-23T14:11:28Z</time>
      </trkpt>
      <trkpt lat="48.08399" lon="6.92929">
        <ele>725.7</ele>
        <time>2021-06-23T14:11:37Z</time>
      </trkpt>
      <trkpt lat="48.08396" lon="6.9288">
        <ele>724.47</ele>
        <time>2021-06-23T14:11:46Z</time>
      </trkpt>
      <trkpt lat="48.0839" lon="6.92817">
        <ele>723.16</ele>
        <time>2021-06-23T14:11:55Z</time>
      </trkpt>
      <trkpt lat="48.08385" lon="6.92705">
        <ele>723.7</ele>
        <time>2021-06-23T14:12:05Z</time>
      </trkpt>
      <trkpt lat="48.08377" lon="6.92651">
        <ele>721.84</ele>
        <time>2021-06-23T14:12:14Z</time>
      </trkpt>
      <trkpt lat="48.08433" lon="6.92655">
        <ele>728.55</ele>
        <time>2021-06-23T14:12:18Z</time>
      </trkpt>
      <trkpt lat="48.08468" lon="6.92661">
        <ele>730.8</ele>
        <time>2021-06-23T14:12:21Z</time>
      </trkpt>
      <trkpt lat="48.08474" lon="6.92658">
        <ele>731.13</ele>
        <time>2021-06-23T14:12:25Z</time>
      </trkpt>
      <trkpt lat="48.08478" lon="6.92652">
        <ele>731.41</ele>
        <time>2021-06-23T14:12:29Z</time>
      </trkpt>
      <trkpt lat="48.0848" lon="6.92644">
        <ele>731.57</ele>
        <time>2021-06-23T14:12:32Z</time>
      </trkpt>
      <trkpt lat="48.08479" lon="6.92636">
        <ele>731.81</ele>
        <time>2021-06-23T14:12:36Z</time>
      </trkpt>
      <trkpt lat="48.08476" lon="6.9263">
        <ele>732.3</ele>
        <time>2021-06-23T14:12:40Z</time>
      </trkpt>
      <trkpt lat="48.08459" lon="6.9261">
        <ele>732.73</ele>
        <time>2021-06-23T14:12:43Z</time>
      </trkpt>
      <trkpt lat="48.08457" lon="6.92599">
        <ele>733.86</ele>
        <time>2021-06-23T14:12:47Z</time>
      </trkpt>
      <trkpt lat="48.08458" lon="6.9259">
        <ele>735.16</ele>
        <time>2021-06-23T14:12:51Z</time>
      </trkpt>
      <trkpt lat="48.08462" lon="6.92582">
        <ele>736.5</ele>
        <time>2021-06-23T14:12:54Z</time>
      </trkpt>
      <trkpt lat="48.08473" lon="6.92568">
        <ele>738.06</ele>
        <time>2021-06-23T14:12:58Z</time>
      </trkpt>
      <trkpt lat="48.08482" lon="6.92561">
        <ele>739.02</ele>
        <time>2021-06-23T14:13:02Z</time>
      </trkpt>
      <trkpt lat="48.08555" lon="6.92534">
        <ele>743.43</ele>
        <time>2021-06-23T14:13:05Z</time>
      </trkpt>
      <trkpt lat="48.08589" lon="6.92528">
        <ele>747.19</ele>
        <time>2021-06-23T14:13:09Z</time>
      </trkpt>
      <trkpt lat="48.08609" lon="6.92541">
        <ele>752.4</ele>
        <time>2021-06-23T14:13:13Z</time>
      </trkpt>
      <trkpt lat="48.08616" lon="6.9255">
        <ele>753.75</ele>
        <time>2021-06-23T14:13:15Z</time>
      </trkpt>
    </trkseg>
  </trk>
</gpx>